<?xml version="1.0" encoding="UTF-8" standalone="no" ?>
<gpx xmlns="http://www.topografix.com/GPX/1/1" xmlns:xsi="http://www.w3.org/2001/XMLSchema-instance" xsi:schemaLocation="http://www.topografix.com/GPX/1/1 http://www.topografix.com/GPX/1/1/gpx.xsd" version="1.1" creator="VisuGPX - https://www.visugpx.com">
  <metadata>
    <name>peyragudes janvier 2012</name>
    <desc><![CDATA[Quelques heures de ski dans la journée à peyragudes]]></desc>
  </metadata>
  <trk>
    <name><![CDATA[Peyragudes janvier 2012]]></name>
    <trkseg>
      <trkpt lat="42.77739" lon="0.44552">
        <ele>1850.505032</ele>
        <time>2012-01-28T11:37:37Z</time>
      </trkpt>
      <trkpt lat="42.77734" lon="0.44516">
        <ele>1927.50491</ele>
        <time>2012-01-28T11:37:42Z</time>
      </trkpt>
      <trkpt lat="42.77747" lon="0.44481">
        <ele>1919.504887</ele>
        <time>2012-01-28T11:38:37Z</time>
      </trkpt>
      <trkpt lat="42.77745" lon="0.44444">
        <ele>1919.504784</ele>
        <time>2012-01-28T11:38:41Z</time>
      </trkpt>
      <trkpt lat="42.77745" lon="0.44432">
        <ele>1919.504745</ele>
        <time>2012-01-28T11:38:42Z</time>
      </trkpt>
      <trkpt lat="42.77748" lon="0.44414">
        <ele>1918.504723</ele>
        <time>2012-01-28T11:38:43Z</time>
      </trkpt>
      <trkpt lat="42.77751" lon="0.444">
        <ele>1918.504696</ele>
        <time>2012-01-28T11:38:44Z</time>
      </trkpt>
      <trkpt lat="42.77753" lon="0.44391">
        <ele>1918.504681</ele>
        <time>2012-01-28T11:38:45Z</time>
      </trkpt>
      <trkpt lat="42.77757" lon="0.44371">
        <ele>1918.504642</ele>
        <time>2012-01-28T11:38:46Z</time>
      </trkpt>
      <trkpt lat="42.77759" lon="0.44361">
        <ele>1918.504627</ele>
        <time>2012-01-28T11:38:47Z</time>
      </trkpt>
      <trkpt lat="42.77766" lon="0.44344">
        <ele>1917.50462</ele>
        <time>2012-01-28T11:38:48Z</time>
      </trkpt>
      <trkpt lat="42.77768" lon="0.44334">
        <ele>1917.504604</ele>
        <time>2012-01-28T11:38:49Z</time>
      </trkpt>
      <trkpt lat="42.77776" lon="0.4432">
        <ele>1916.504604</ele>
        <time>2012-01-28T11:38:50Z</time>
      </trkpt>
      <trkpt lat="42.77778" lon="0.4431">
        <ele>1916.504589</ele>
        <time>2012-01-28T11:38:51Z</time>
      </trkpt>
      <trkpt lat="42.77785" lon="0.44299">
        <ele>1915.504593</ele>
        <time>2012-01-28T11:38:52Z</time>
      </trkpt>
      <trkpt lat="42.77788" lon="0.44289">
        <ele>1915.504585</ele>
        <time>2012-01-28T11:38:53Z</time>
      </trkpt>
      <trkpt lat="42.7781" lon="0.4429">
        <ele>1914.504684</ele>
        <time>2012-01-28T11:38:54Z</time>
      </trkpt>
      <trkpt lat="42.77823" lon="0.44285">
        <ele>1913.504738</ele>
        <time>2012-01-28T11:38:55Z</time>
      </trkpt>
      <trkpt lat="42.77833" lon="0.44281">
        <ele>1913.504776</ele>
        <time>2012-01-28T11:38:56Z</time>
      </trkpt>
      <trkpt lat="42.77842" lon="0.44277">
        <ele>1913.50481</ele>
        <time>2012-01-28T11:38:57Z</time>
      </trkpt>
      <trkpt lat="42.77851" lon="0.44275">
        <ele>1912.504845</ele>
        <time>2012-01-28T11:38:58Z</time>
      </trkpt>
      <trkpt lat="42.7786" lon="0.44273">
        <ele>1912.504883</ele>
        <time>2012-01-28T11:38:59Z</time>
      </trkpt>
      <trkpt lat="42.77868" lon="0.44268">
        <ele>1911.504906</ele>
        <time>2012-01-28T11:39:00Z</time>
      </trkpt>
      <trkpt lat="42.77875" lon="0.44262">
        <ele>1911.504929</ele>
        <time>2012-01-28T11:39:01Z</time>
      </trkpt>
      <trkpt lat="42.77885" lon="0.44259">
        <ele>1911.504971</ele>
        <time>2012-01-28T11:39:02Z</time>
      </trkpt>
      <trkpt lat="42.77903" lon="0.4425">
        <ele>1910.505028</ele>
        <time>2012-01-28T11:39:04Z</time>
      </trkpt>
      <trkpt lat="42.7791" lon="0.44243">
        <ele>1910.505039</ele>
        <time>2012-01-28T11:39:05Z</time>
      </trkpt>
      <trkpt lat="42.77917" lon="0.44236">
        <ele>1910.505054</ele>
        <time>2012-01-28T11:39:06Z</time>
      </trkpt>
      <trkpt lat="42.77914" lon="0.44268">
        <ele>1905.505127</ele>
        <time>2012-01-28T11:39:54Z</time>
      </trkpt>
      <trkpt lat="42.77898" lon="0.44298">
        <ele>1903.505127</ele>
        <time>2012-01-28T11:40:08Z</time>
      </trkpt>
      <trkpt lat="42.7788" lon="0.4433">
        <ele>1902.505135</ele>
        <time>2012-01-28T11:40:24Z</time>
      </trkpt>
      <trkpt lat="42.7788" lon="0.4433">
        <ele>1902.505135</ele>
        <time>2012-01-28T11:40:27Z</time>
      </trkpt>
      <trkpt lat="42.77874" lon="0.44343">
        <ele>1903.505135</ele>
        <time>2012-01-28T11:40:32Z</time>
      </trkpt>
      <trkpt lat="42.77862" lon="0.4436">
        <ele>1903.505119</ele>
        <time>2012-01-28T11:40:41Z</time>
      </trkpt>
      <trkpt lat="42.77854" lon="0.4437">
        <ele>1904.505108</ele>
        <time>2012-01-28T11:40:46Z</time>
      </trkpt>
      <trkpt lat="42.77846" lon="0.44382">
        <ele>1904.505104</ele>
        <time>2012-01-28T11:40:52Z</time>
      </trkpt>
      <trkpt lat="42.7784" lon="0.44392">
        <ele>1904.5051</ele>
        <time>2012-01-28T11:40:56Z</time>
      </trkpt>
      <trkpt lat="42.77833" lon="0.44406">
        <ele>1903.505104</ele>
        <time>2012-01-28T11:41:02Z</time>
      </trkpt>
      <trkpt lat="42.77828" lon="0.44418">
        <ele>1904.505108</ele>
        <time>2012-01-28T11:41:07Z</time>
      </trkpt>
      <trkpt lat="42.77819" lon="0.44434">
        <ele>1904.505112</ele>
        <time>2012-01-28T11:41:14Z</time>
      </trkpt>
      <trkpt lat="42.77813" lon="0.44446">
        <ele>1906.505104</ele>
        <time>2012-01-28T11:41:21Z</time>
      </trkpt>
      <trkpt lat="42.77808" lon="0.44457">
        <ele>1906.505112</ele>
        <time>2012-01-28T11:41:27Z</time>
      </trkpt>
      <trkpt lat="42.77802" lon="0.44468">
        <ele>1907.505116</ele>
        <time>2012-01-28T11:41:35Z</time>
      </trkpt>
      <trkpt lat="42.77796" lon="0.44477">
        <ele>1906.505108</ele>
        <time>2012-01-28T11:41:41Z</time>
      </trkpt>
      <trkpt lat="42.7779" lon="0.44486">
        <ele>1907.505104</ele>
        <time>2012-01-28T11:41:48Z</time>
      </trkpt>
      <trkpt lat="42.77784" lon="0.44497">
        <ele>1907.505104</ele>
        <time>2012-01-28T11:41:56Z</time>
      </trkpt>
      <trkpt lat="42.77779" lon="0.44508">
        <ele>1907.505108</ele>
        <time>2012-01-28T11:42:00Z</time>
      </trkpt>
      <trkpt lat="42.77774" lon="0.44519">
        <ele>1908.505112</ele>
        <time>2012-01-28T11:42:04Z</time>
      </trkpt>
      <trkpt lat="42.77769" lon="0.44529">
        <ele>1908.505116</ele>
        <time>2012-01-28T11:42:09Z</time>
      </trkpt>
      <trkpt lat="42.77763" lon="0.4454">
        <ele>1907.505119</ele>
        <time>2012-01-28T11:42:14Z</time>
      </trkpt>
      <trkpt lat="42.7776" lon="0.44547">
        <ele>1908.505116</ele>
        <time>2012-01-28T11:42:19Z</time>
      </trkpt>
      <trkpt lat="42.77753" lon="0.4456">
        <ele>1909.505123</ele>
        <time>2012-01-28T11:42:26Z</time>
      </trkpt>
      <trkpt lat="42.77751" lon="0.44566">
        <ele>1909.505131</ele>
        <time>2012-01-28T11:42:29Z</time>
      </trkpt>
      <trkpt lat="42.77748" lon="0.44573">
        <ele>1909.505127</ele>
        <time>2012-01-28T11:42:32Z</time>
      </trkpt>
      <trkpt lat="42.77745" lon="0.44578">
        <ele>1909.505131</ele>
        <time>2012-01-28T11:42:34Z</time>
      </trkpt>
      <trkpt lat="42.77741" lon="0.44586">
        <ele>1908.505131</ele>
        <time>2012-01-28T11:42:37Z</time>
      </trkpt>
      <trkpt lat="42.77738" lon="0.44592">
        <ele>1908.505135</ele>
        <time>2012-01-28T11:42:39Z</time>
      </trkpt>
      <trkpt lat="42.77735" lon="0.44597">
        <ele>1908.505135</ele>
        <time>2012-01-28T11:42:41Z</time>
      </trkpt>
      <trkpt lat="42.77733" lon="0.44604">
        <ele>1908.505138</ele>
        <time>2012-01-28T11:42:44Z</time>
      </trkpt>
      <trkpt lat="42.7773" lon="0.44611">
        <ele>1907.505142</ele>
        <time>2012-01-28T11:42:47Z</time>
      </trkpt>
      <trkpt lat="42.77726" lon="0.44619">
        <ele>1907.505146</ele>
        <time>2012-01-28T11:42:50Z</time>
      </trkpt>
      <trkpt lat="42.77723" lon="0.44627">
        <ele>1907.505146</ele>
        <time>2012-01-28T11:42:55Z</time>
      </trkpt>
      <trkpt lat="42.77723" lon="0.44627">
        <ele>1907.505146</ele>
        <time>2012-01-28T11:43:00Z</time>
      </trkpt>
      <trkpt lat="42.77712" lon="0.4465">
        <ele>1907.505161</ele>
        <time>2012-01-28T11:43:08Z</time>
      </trkpt>
      <trkpt lat="42.77709" lon="0.44656">
        <ele>1907.505165</ele>
        <time>2012-01-28T11:43:11Z</time>
      </trkpt>
      <trkpt lat="42.77706" lon="0.44664">
        <ele>1908.505173</ele>
        <time>2012-01-28T11:43:14Z</time>
      </trkpt>
      <trkpt lat="42.77704" lon="0.44671">
        <ele>1909.505173</ele>
        <time>2012-01-28T11:43:17Z</time>
      </trkpt>
      <trkpt lat="42.77701" lon="0.44678">
        <ele>1909.50518</ele>
        <time>2012-01-28T11:43:20Z</time>
      </trkpt>
      <trkpt lat="42.77692" lon="0.44692">
        <ele>1913.505177</ele>
        <time>2012-01-28T11:43:26Z</time>
      </trkpt>
      <trkpt lat="42.77689" lon="0.44698">
        <ele>1913.505177</ele>
        <time>2012-01-28T11:43:29Z</time>
      </trkpt>
      <trkpt lat="42.77683" lon="0.44707">
        <ele>1914.505169</ele>
        <time>2012-01-28T11:43:35Z</time>
      </trkpt>
      <trkpt lat="42.77681" lon="0.44708">
        <ele>1914.505165</ele>
        <time>2012-01-28T11:43:44Z</time>
      </trkpt>
      <trkpt lat="42.77674" lon="0.44716">
        <ele>1916.505154</ele>
        <time>2012-01-28T11:43:49Z</time>
      </trkpt>
      <trkpt lat="42.77669" lon="0.44724">
        <ele>1917.50515</ele>
        <time>2012-01-28T11:43:55Z</time>
      </trkpt>
      <trkpt lat="42.77666" lon="0.44729">
        <ele>1917.505146</ele>
        <time>2012-01-28T11:44:00Z</time>
      </trkpt>
      <trkpt lat="42.77664" lon="0.44733">
        <ele>1918.505146</ele>
        <time>2012-01-28T11:44:02Z</time>
      </trkpt>
      <trkpt lat="42.77655" lon="0.44751">
        <ele>1919.505146</ele>
        <time>2012-01-28T11:44:09Z</time>
      </trkpt>
      <trkpt lat="42.77652" lon="0.44757">
        <ele>1919.505154</ele>
        <time>2012-01-28T11:44:12Z</time>
      </trkpt>
      <trkpt lat="42.77652" lon="0.44758">
        <ele>1919.505154</ele>
        <time>2012-01-28T11:44:13Z</time>
      </trkpt>
      <trkpt lat="42.77649" lon="0.44765">
        <ele>1920.505161</ele>
        <time>2012-01-28T11:44:16Z</time>
      </trkpt>
      <trkpt lat="42.77646" lon="0.44772">
        <ele>1920.505165</ele>
        <time>2012-01-28T11:44:19Z</time>
      </trkpt>
      <trkpt lat="42.77643" lon="0.44778">
        <ele>1921.505173</ele>
        <time>2012-01-28T11:44:24Z</time>
      </trkpt>
      <trkpt lat="42.7764" lon="0.44784">
        <ele>1921.505169</ele>
        <time>2012-01-28T11:44:27Z</time>
      </trkpt>
      <trkpt lat="42.77637" lon="0.4479">
        <ele>1922.505169</ele>
        <time>2012-01-28T11:44:30Z</time>
      </trkpt>
      <trkpt lat="42.77633" lon="0.44797">
        <ele>1923.505169</ele>
        <time>2012-01-28T11:44:33Z</time>
      </trkpt>
      <trkpt lat="42.77628" lon="0.44805">
        <ele>1924.505165</ele>
        <time>2012-01-28T11:44:38Z</time>
      </trkpt>
      <trkpt lat="42.77625" lon="0.44809">
        <ele>1925.505165</ele>
        <time>2012-01-28T11:44:41Z</time>
      </trkpt>
      <trkpt lat="42.77617" lon="0.4482">
        <ele>1927.50515</ele>
        <time>2012-01-28T11:44:46Z</time>
      </trkpt>
      <trkpt lat="42.77615" lon="0.44825">
        <ele>1928.50515</ele>
        <time>2012-01-28T11:44:49Z</time>
      </trkpt>
      <trkpt lat="42.77613" lon="0.44827">
        <ele>1928.505146</ele>
        <time>2012-01-28T11:44:52Z</time>
      </trkpt>
      <trkpt lat="42.77598" lon="0.44857">
        <ele>1930.505154</ele>
        <time>2012-01-28T11:45:06Z</time>
      </trkpt>
      <trkpt lat="42.77598" lon="0.44857">
        <ele>1930.505154</ele>
        <time>2012-01-28T11:45:09Z</time>
      </trkpt>
      <trkpt lat="42.77591" lon="0.44868">
        <ele>1931.505154</ele>
        <time>2012-01-28T11:45:12Z</time>
      </trkpt>
      <trkpt lat="42.77576" lon="0.44898">
        <ele>1934.505161</ele>
        <time>2012-01-28T11:45:29Z</time>
      </trkpt>
      <trkpt lat="42.77569" lon="0.44912">
        <ele>1941.505161</ele>
        <time>2012-01-28T11:45:45Z</time>
      </trkpt>
      <trkpt lat="42.77564" lon="0.44919">
        <ele>1944.505154</ele>
        <time>2012-01-28T11:45:49Z</time>
      </trkpt>
      <trkpt lat="42.77544" lon="0.44953">
        <ele>1947.50515</ele>
        <time>2012-01-28T11:46:04Z</time>
      </trkpt>
      <trkpt lat="42.77541" lon="0.44958">
        <ele>1947.50515</ele>
        <time>2012-01-28T11:46:06Z</time>
      </trkpt>
      <trkpt lat="42.77541" lon="0.44958">
        <ele>1947.50515</ele>
        <time>2012-01-28T11:46:07Z</time>
      </trkpt>
      <trkpt lat="42.77527" lon="0.44981">
        <ele>1947.505142</ele>
        <time>2012-01-28T11:46:19Z</time>
      </trkpt>
      <trkpt lat="42.7752" lon="0.4499">
        <ele>1948.505135</ele>
        <time>2012-01-28T11:46:25Z</time>
      </trkpt>
      <trkpt lat="42.77509" lon="0.45006">
        <ele>1949.505123</ele>
        <time>2012-01-28T11:46:35Z</time>
      </trkpt>
      <trkpt lat="42.77491" lon="0.45035">
        <ele>1951.505104</ele>
        <time>2012-01-28T11:47:03Z</time>
      </trkpt>
      <trkpt lat="42.77472" lon="0.45065">
        <ele>1952.5051</ele>
        <time>2012-01-28T11:47:18Z</time>
      </trkpt>
      <trkpt lat="42.77454" lon="0.45094">
        <ele>1954.505089</ele>
        <time>2012-01-28T11:47:37Z</time>
      </trkpt>
      <trkpt lat="42.77438" lon="0.45124">
        <ele>1952.505089</ele>
        <time>2012-01-28T11:47:52Z</time>
      </trkpt>
      <trkpt lat="42.7742" lon="0.45158">
        <ele>1955.505096</ele>
        <time>2012-01-28T11:48:08Z</time>
      </trkpt>
      <trkpt lat="42.77406" lon="0.45189">
        <ele>1955.505104</ele>
        <time>2012-01-28T11:48:20Z</time>
      </trkpt>
      <trkpt lat="42.77399" lon="0.45204">
        <ele>1957.505116</ele>
        <time>2012-01-28T11:48:32Z</time>
      </trkpt>
      <trkpt lat="42.77399" lon="0.45205">
        <ele>1957.505108</ele>
        <time>2012-01-28T11:48:33Z</time>
      </trkpt>
      <trkpt lat="42.77395" lon="0.45211">
        <ele>1958.505108</ele>
        <time>2012-01-28T11:48:37Z</time>
      </trkpt>
      <trkpt lat="42.77376" lon="0.45247">
        <ele>1961.505112</ele>
        <time>2012-01-28T11:48:50Z</time>
      </trkpt>
      <trkpt lat="42.77362" lon="0.45273">
        <ele>1963.505116</ele>
        <time>2012-01-28T11:49:02Z</time>
      </trkpt>
      <trkpt lat="42.77361" lon="0.45275">
        <ele>1963.505116</ele>
        <time>2012-01-28T11:49:03Z</time>
      </trkpt>
      <trkpt lat="42.77352" lon="0.45292">
        <ele>1965.505119</ele>
        <time>2012-01-28T11:49:11Z</time>
      </trkpt>
      <trkpt lat="42.77335" lon="0.45323">
        <ele>1966.505123</ele>
        <time>2012-01-28T11:49:26Z</time>
      </trkpt>
      <trkpt lat="42.77316" lon="0.45357">
        <ele>1968.505119</ele>
        <time>2012-01-28T11:49:43Z</time>
      </trkpt>
      <trkpt lat="42.77301" lon="0.45388">
        <ele>1972.505127</ele>
        <time>2012-01-28T11:49:58Z</time>
      </trkpt>
      <trkpt lat="42.77291" lon="0.45411">
        <ele>1979.505135</ele>
        <time>2012-01-28T11:50:12Z</time>
      </trkpt>
      <trkpt lat="42.77289" lon="0.45417">
        <ele>1986.505138</ele>
        <time>2012-01-28T11:50:15Z</time>
      </trkpt>
      <trkpt lat="42.77286" lon="0.45422">
        <ele>1996.505142</ele>
        <time>2012-01-28T11:50:18Z</time>
      </trkpt>
      <trkpt lat="42.77272" lon="0.45442">
        <ele>2050.505135</ele>
        <time>2012-01-28T11:50:27Z</time>
      </trkpt>
      <trkpt lat="42.77268" lon="0.45447">
        <ele>2063.505119</ele>
        <time>2012-01-28T11:50:29Z</time>
      </trkpt>
      <trkpt lat="42.77252" lon="0.45463">
        <ele>2119.505085</ele>
        <time>2012-01-28T11:50:42Z</time>
      </trkpt>
      <trkpt lat="42.77249" lon="0.45467">
        <ele>2119.505085</ele>
        <time>2012-01-28T11:50:44Z</time>
      </trkpt>
      <trkpt lat="42.77246" lon="0.45474">
        <ele>2121.505085</ele>
        <time>2012-01-28T11:50:48Z</time>
      </trkpt>
      <trkpt lat="42.77243" lon="0.4548">
        <ele>2118.505085</ele>
        <time>2012-01-28T11:50:50Z</time>
      </trkpt>
      <trkpt lat="42.77239" lon="0.45485">
        <ele>2119.505085</ele>
        <time>2012-01-28T11:50:54Z</time>
      </trkpt>
      <trkpt lat="42.77221" lon="0.45485">
        <ele>2148.504993</ele>
        <time>2012-01-28T11:51:08Z</time>
      </trkpt>
      <trkpt lat="42.77213" lon="0.45486">
        <ele>2162.504963</ele>
        <time>2012-01-28T11:51:19Z</time>
      </trkpt>
      <trkpt lat="42.77211" lon="0.45486">
        <ele>2164.504955</ele>
        <time>2012-01-28T11:51:23Z</time>
      </trkpt>
      <trkpt lat="42.77205" lon="0.45482">
        <ele>2167.504913</ele>
        <time>2012-01-28T11:51:35Z</time>
      </trkpt>
      <trkpt lat="42.77203" lon="0.45478">
        <ele>2169.504894</ele>
        <time>2012-01-28T11:51:38Z</time>
      </trkpt>
      <trkpt lat="42.77192" lon="0.45467">
        <ele>2171.50481</ele>
        <time>2012-01-28T11:51:44Z</time>
      </trkpt>
      <trkpt lat="42.77187" lon="0.45463">
        <ele>2172.504776</ele>
        <time>2012-01-28T11:51:46Z</time>
      </trkpt>
      <trkpt lat="42.77184" lon="0.45453">
        <ele>2172.504734</ele>
        <time>2012-01-28T11:51:47Z</time>
      </trkpt>
      <trkpt lat="42.77181" lon="0.45447">
        <ele>2173.504707</ele>
        <time>2012-01-28T11:51:48Z</time>
      </trkpt>
      <trkpt lat="42.77178" lon="0.4544">
        <ele>2173.504681</ele>
        <time>2012-01-28T11:51:49Z</time>
      </trkpt>
      <trkpt lat="42.77176" lon="0.45434">
        <ele>2174.50465</ele>
        <time>2012-01-28T11:51:50Z</time>
      </trkpt>
      <trkpt lat="42.77183" lon="0.45424">
        <ele>2174.504658</ele>
        <time>2012-01-28T11:51:52Z</time>
      </trkpt>
      <trkpt lat="42.77185" lon="0.45408">
        <ele>2174.504627</ele>
        <time>2012-01-28T11:51:54Z</time>
      </trkpt>
      <trkpt lat="42.77187" lon="0.45399">
        <ele>2175.504608</ele>
        <time>2012-01-28T11:51:55Z</time>
      </trkpt>
      <trkpt lat="42.77188" lon="0.45391">
        <ele>2175.504593</ele>
        <time>2012-01-28T11:51:56Z</time>
      </trkpt>
      <trkpt lat="42.77189" lon="0.45384">
        <ele>2174.504581</ele>
        <time>2012-01-28T11:51:57Z</time>
      </trkpt>
      <trkpt lat="42.77188" lon="0.45369">
        <ele>2174.504536</ele>
        <time>2012-01-28T11:51:58Z</time>
      </trkpt>
      <trkpt lat="42.77187" lon="0.45358">
        <ele>2174.504505</ele>
        <time>2012-01-28T11:51:59Z</time>
      </trkpt>
      <trkpt lat="42.77187" lon="0.45341">
        <ele>2174.504459</ele>
        <time>2012-01-28T11:52:00Z</time>
      </trkpt>
      <trkpt lat="42.77187" lon="0.45326">
        <ele>2174.504425</ele>
        <time>2012-01-28T11:52:01Z</time>
      </trkpt>
      <trkpt lat="42.77187" lon="0.45312">
        <ele>2174.504379</ele>
        <time>2012-01-28T11:52:02Z</time>
      </trkpt>
      <trkpt lat="42.77189" lon="0.45297">
        <ele>2174.504356</ele>
        <time>2012-01-28T11:52:03Z</time>
      </trkpt>
      <trkpt lat="42.77189" lon="0.45283">
        <ele>2174.504314</ele>
        <time>2012-01-28T11:52:04Z</time>
      </trkpt>
      <trkpt lat="42.77194" lon="0.45271">
        <ele>2174.504311</ele>
        <time>2012-01-28T11:52:05Z</time>
      </trkpt>
      <trkpt lat="42.77197" lon="0.45259">
        <ele>2174.504292</ele>
        <time>2012-01-28T11:52:06Z</time>
      </trkpt>
      <trkpt lat="42.77199" lon="0.45245">
        <ele>2174.504269</ele>
        <time>2012-01-28T11:52:07Z</time>
      </trkpt>
      <trkpt lat="42.77202" lon="0.45233">
        <ele>2174.504246</ele>
        <time>2012-01-28T11:52:08Z</time>
      </trkpt>
      <trkpt lat="42.77208" lon="0.4522">
        <ele>2173.504246</ele>
        <time>2012-01-28T11:52:09Z</time>
      </trkpt>
      <trkpt lat="42.77213" lon="0.45208">
        <ele>2174.504234</ele>
        <time>2012-01-28T11:52:10Z</time>
      </trkpt>
      <trkpt lat="42.77218" lon="0.45195">
        <ele>2174.50423</ele>
        <time>2012-01-28T11:52:11Z</time>
      </trkpt>
      <trkpt lat="42.77223" lon="0.45181">
        <ele>2174.504211</ele>
        <time>2012-01-28T11:52:12Z</time>
      </trkpt>
      <trkpt lat="42.77226" lon="0.45168">
        <ele>2174.504196</ele>
        <time>2012-01-28T11:52:13Z</time>
      </trkpt>
      <trkpt lat="42.7723" lon="0.45156">
        <ele>2174.504181</ele>
        <time>2012-01-28T11:52:14Z</time>
      </trkpt>
      <trkpt lat="42.77235" lon="0.45146">
        <ele>2173.504177</ele>
        <time>2012-01-28T11:52:15Z</time>
      </trkpt>
      <trkpt lat="42.77239" lon="0.45136">
        <ele>2173.504169</ele>
        <time>2012-01-28T11:52:16Z</time>
      </trkpt>
      <trkpt lat="42.77243" lon="0.45126">
        <ele>2173.504166</ele>
        <time>2012-01-28T11:52:17Z</time>
      </trkpt>
      <trkpt lat="42.77251" lon="0.45114">
        <ele>2173.504173</ele>
        <time>2012-01-28T11:52:19Z</time>
      </trkpt>
      <trkpt lat="42.77257" lon="0.45111">
        <ele>2172.504196</ele>
        <time>2012-01-28T11:52:20Z</time>
      </trkpt>
      <trkpt lat="42.77265" lon="0.45111">
        <ele>2172.504227</ele>
        <time>2012-01-28T11:52:21Z</time>
      </trkpt>
      <trkpt lat="42.77274" lon="0.45112">
        <ele>2172.504276</ele>
        <time>2012-01-28T11:52:22Z</time>
      </trkpt>
      <trkpt lat="42.77285" lon="0.45115">
        <ele>2171.504337</ele>
        <time>2012-01-28T11:52:23Z</time>
      </trkpt>
      <trkpt lat="42.773" lon="0.45116">
        <ele>2170.50441</ele>
        <time>2012-01-28T11:52:25Z</time>
      </trkpt>
      <trkpt lat="42.77309" lon="0.45125">
        <ele>2169.504482</ele>
        <time>2012-01-28T11:52:26Z</time>
      </trkpt>
      <trkpt lat="42.77316" lon="0.45124">
        <ele>2169.504509</ele>
        <time>2012-01-28T11:52:27Z</time>
      </trkpt>
      <trkpt lat="42.77326" lon="0.45146">
        <ele>2167.504612</ele>
        <time>2012-01-28T11:52:28Z</time>
      </trkpt>
      <trkpt lat="42.77333" lon="0.45164">
        <ele>2166.504696</ele>
        <time>2012-01-28T11:52:29Z</time>
      </trkpt>
      <trkpt lat="42.77341" lon="0.45177">
        <ele>2165.504765</ele>
        <time>2012-01-28T11:52:30Z</time>
      </trkpt>
      <trkpt lat="42.77348" lon="0.45188">
        <ele>2165.504829</ele>
        <time>2012-01-28T11:52:31Z</time>
      </trkpt>
      <trkpt lat="42.77355" lon="0.45197">
        <ele>2164.504883</ele>
        <time>2012-01-28T11:52:32Z</time>
      </trkpt>
      <trkpt lat="42.77361" lon="0.45203">
        <ele>2164.504925</ele>
        <time>2012-01-28T11:52:33Z</time>
      </trkpt>
      <trkpt lat="42.77367" lon="0.45212">
        <ele>2164.504982</ele>
        <time>2012-01-28T11:52:34Z</time>
      </trkpt>
      <trkpt lat="42.77372" lon="0.45223">
        <ele>2164.505035</ele>
        <time>2012-01-28T11:52:35Z</time>
      </trkpt>
      <trkpt lat="42.77378" lon="0.45231">
        <ele>2165.505085</ele>
        <time>2012-01-28T11:52:36Z</time>
      </trkpt>
      <trkpt lat="42.77384" lon="0.45239">
        <ele>2165.505131</ele>
        <time>2012-01-28T11:52:37Z</time>
      </trkpt>
      <trkpt lat="42.77391" lon="0.45246">
        <ele>2165.50518</ele>
        <time>2012-01-28T11:52:38Z</time>
      </trkpt>
      <trkpt lat="42.77397" lon="0.45252">
        <ele>2165.505226</ele>
        <time>2012-01-28T11:52:39Z</time>
      </trkpt>
      <trkpt lat="42.77398" lon="0.45263">
        <ele>2165.505264</ele>
        <time>2012-01-28T11:52:40Z</time>
      </trkpt>
      <trkpt lat="42.77402" lon="0.45272">
        <ele>2165.505306</ele>
        <time>2012-01-28T11:52:41Z</time>
      </trkpt>
      <trkpt lat="42.77405" lon="0.45279">
        <ele>2164.505333</ele>
        <time>2012-01-28T11:52:42Z</time>
      </trkpt>
      <trkpt lat="42.77408" lon="0.45286">
        <ele>2164.505371</ele>
        <time>2012-01-28T11:52:43Z</time>
      </trkpt>
      <trkpt lat="42.77412" lon="0.45292">
        <ele>2164.505402</ele>
        <time>2012-01-28T11:52:44Z</time>
      </trkpt>
      <trkpt lat="42.77416" lon="0.45298">
        <ele>2164.505444</ele>
        <time>2012-01-28T11:52:45Z</time>
      </trkpt>
      <trkpt lat="42.7742" lon="0.45302">
        <ele>2164.505466</ele>
        <time>2012-01-28T11:52:46Z</time>
      </trkpt>
      <trkpt lat="42.77424" lon="0.45307">
        <ele>2163.505501</ele>
        <time>2012-01-28T11:52:47Z</time>
      </trkpt>
      <trkpt lat="42.77428" lon="0.4531">
        <ele>2163.505524</ele>
        <time>2012-01-28T11:52:48Z</time>
      </trkpt>
      <trkpt lat="42.77432" lon="0.45313">
        <ele>2163.505558</ele>
        <time>2012-01-28T11:52:49Z</time>
      </trkpt>
      <trkpt lat="42.77436" lon="0.45316">
        <ele>2163.505577</ele>
        <time>2012-01-28T11:52:50Z</time>
      </trkpt>
      <trkpt lat="42.77441" lon="0.45318">
        <ele>2163.505604</ele>
        <time>2012-01-28T11:52:51Z</time>
      </trkpt>
      <trkpt lat="42.77445" lon="0.4532">
        <ele>2163.505634</ele>
        <time>2012-01-28T11:52:52Z</time>
      </trkpt>
      <trkpt lat="42.77449" lon="0.45323">
        <ele>2162.505661</ele>
        <time>2012-01-28T11:52:53Z</time>
      </trkpt>
      <trkpt lat="42.77454" lon="0.45324">
        <ele>2162.505688</ele>
        <time>2012-01-28T11:52:54Z</time>
      </trkpt>
      <trkpt lat="42.77458" lon="0.45327">
        <ele>2162.505714</ele>
        <time>2012-01-28T11:52:55Z</time>
      </trkpt>
      <trkpt lat="42.77463" lon="0.45329">
        <ele>2162.505745</ele>
        <time>2012-01-28T11:52:56Z</time>
      </trkpt>
      <trkpt lat="42.77469" lon="0.45331">
        <ele>2162.505775</ele>
        <time>2012-01-28T11:52:57Z</time>
      </trkpt>
      <trkpt lat="42.77475" lon="0.45333">
        <ele>2162.50581</ele>
        <time>2012-01-28T11:52:58Z</time>
      </trkpt>
      <trkpt lat="42.77482" lon="0.45333">
        <ele>2161.505848</ele>
        <time>2012-01-28T11:52:59Z</time>
      </trkpt>
      <trkpt lat="42.77489" lon="0.45332">
        <ele>2161.505875</ele>
        <time>2012-01-28T11:53:00Z</time>
      </trkpt>
      <trkpt lat="42.77497" lon="0.45331">
        <ele>2161.505913</ele>
        <time>2012-01-28T11:53:01Z</time>
      </trkpt>
      <trkpt lat="42.77507" lon="0.45327">
        <ele>2161.505955</ele>
        <time>2012-01-28T11:53:02Z</time>
      </trkpt>
      <trkpt lat="42.77515" lon="0.45326">
        <ele>2161.505985</ele>
        <time>2012-01-28T11:53:03Z</time>
      </trkpt>
      <trkpt lat="42.77521" lon="0.45328">
        <ele>2161.50602</ele>
        <time>2012-01-28T11:53:04Z</time>
      </trkpt>
      <trkpt lat="42.77537" lon="0.45322">
        <ele>2160.506081</ele>
        <time>2012-01-28T11:53:05Z</time>
      </trkpt>
      <trkpt lat="42.77549" lon="0.45314">
        <ele>2160.506111</ele>
        <time>2012-01-28T11:53:06Z</time>
      </trkpt>
      <trkpt lat="42.77561" lon="0.45305">
        <ele>2159.506153</ele>
        <time>2012-01-28T11:53:07Z</time>
      </trkpt>
      <trkpt lat="42.7757" lon="0.45302">
        <ele>2159.506187</ele>
        <time>2012-01-28T11:53:08Z</time>
      </trkpt>
      <trkpt lat="42.77579" lon="0.45298">
        <ele>2159.506218</ele>
        <time>2012-01-28T11:53:09Z</time>
      </trkpt>
      <trkpt lat="42.77587" lon="0.45297">
        <ele>2158.506245</ele>
        <time>2012-01-28T11:53:10Z</time>
      </trkpt>
      <trkpt lat="42.77594" lon="0.45296">
        <ele>2158.506283</ele>
        <time>2012-01-28T11:53:11Z</time>
      </trkpt>
      <trkpt lat="42.77603" lon="0.4529">
        <ele>2158.50631</ele>
        <time>2012-01-28T11:53:12Z</time>
      </trkpt>
      <trkpt lat="42.7761" lon="0.45286">
        <ele>2157.506332</ele>
        <time>2012-01-28T11:53:13Z</time>
      </trkpt>
      <trkpt lat="42.77617" lon="0.45284">
        <ele>2157.506363</ele>
        <time>2012-01-28T11:53:14Z</time>
      </trkpt>
      <trkpt lat="42.77625" lon="0.45279">
        <ele>2157.506386</ele>
        <time>2012-01-28T11:53:15Z</time>
      </trkpt>
      <trkpt lat="42.77632" lon="0.45277">
        <ele>2157.506413</ele>
        <time>2012-01-28T11:53:16Z</time>
      </trkpt>
      <trkpt lat="42.7764" lon="0.45273">
        <ele>2157.506443</ele>
        <time>2012-01-28T11:53:17Z</time>
      </trkpt>
      <trkpt lat="42.77647" lon="0.4527">
        <ele>2157.50647</ele>
        <time>2012-01-28T11:53:18Z</time>
      </trkpt>
      <trkpt lat="42.77654" lon="0.45267">
        <ele>2156.5065</ele>
        <time>2012-01-28T11:53:19Z</time>
      </trkpt>
      <trkpt lat="42.77661" lon="0.45262">
        <ele>2157.506519</ele>
        <time>2012-01-28T11:53:20Z</time>
      </trkpt>
      <trkpt lat="42.77668" lon="0.4526">
        <ele>2157.506546</ele>
        <time>2012-01-28T11:53:21Z</time>
      </trkpt>
      <trkpt lat="42.77675" lon="0.45254">
        <ele>2156.506561</ele>
        <time>2012-01-28T11:53:22Z</time>
      </trkpt>
      <trkpt lat="42.77683" lon="0.45248">
        <ele>2156.50658</ele>
        <time>2012-01-28T11:53:23Z</time>
      </trkpt>
      <trkpt lat="42.7769" lon="0.45242">
        <ele>2156.506607</ele>
        <time>2012-01-28T11:53:24Z</time>
      </trkpt>
      <trkpt lat="42.77697" lon="0.45238">
        <ele>2155.50663</ele>
        <time>2012-01-28T11:53:25Z</time>
      </trkpt>
      <trkpt lat="42.77704" lon="0.45232">
        <ele>2155.506645</ele>
        <time>2012-01-28T11:53:26Z</time>
      </trkpt>
      <trkpt lat="42.77711" lon="0.45228">
        <ele>2155.506672</ele>
        <time>2012-01-28T11:53:27Z</time>
      </trkpt>
      <trkpt lat="42.77716" lon="0.45225">
        <ele>2154.50668</ele>
        <time>2012-01-28T11:53:29Z</time>
      </trkpt>
      <trkpt lat="42.77721" lon="0.4522">
        <ele>2154.506691</ele>
        <time>2012-01-28T11:53:31Z</time>
      </trkpt>
      <trkpt lat="42.77728" lon="0.45219">
        <ele>2153.506725</ele>
        <time>2012-01-28T11:53:33Z</time>
      </trkpt>
      <trkpt lat="42.77734" lon="0.45217">
        <ele>2151.506748</ele>
        <time>2012-01-28T11:53:35Z</time>
      </trkpt>
      <trkpt lat="42.7774" lon="0.45212">
        <ele>2150.50676</ele>
        <time>2012-01-28T11:53:37Z</time>
      </trkpt>
      <trkpt lat="42.77747" lon="0.45209">
        <ele>2148.506786</ele>
        <time>2012-01-28T11:53:39Z</time>
      </trkpt>
      <trkpt lat="42.77754" lon="0.45204">
        <ele>2148.506809</ele>
        <time>2012-01-28T11:53:41Z</time>
      </trkpt>
      <trkpt lat="42.77762" lon="0.45198">
        <ele>2147.506832</ele>
        <time>2012-01-28T11:53:42Z</time>
      </trkpt>
      <trkpt lat="42.77768" lon="0.45193">
        <ele>2147.506847</ele>
        <time>2012-01-28T11:53:43Z</time>
      </trkpt>
      <trkpt lat="42.77774" lon="0.45189">
        <ele>2146.506863</ele>
        <time>2012-01-28T11:53:44Z</time>
      </trkpt>
      <trkpt lat="42.7778" lon="0.45185">
        <ele>2146.506878</ele>
        <time>2012-01-28T11:53:45Z</time>
      </trkpt>
      <trkpt lat="42.77786" lon="0.45185">
        <ele>2145.506912</ele>
        <time>2012-01-28T11:53:46Z</time>
      </trkpt>
      <trkpt lat="42.77792" lon="0.45183">
        <ele>2144.506935</ele>
        <time>2012-01-28T11:53:47Z</time>
      </trkpt>
      <trkpt lat="42.77798" lon="0.45181">
        <ele>2142.506962</ele>
        <time>2012-01-28T11:53:48Z</time>
      </trkpt>
      <trkpt lat="42.77804" lon="0.45179">
        <ele>2142.506981</ele>
        <time>2012-01-28T11:53:49Z</time>
      </trkpt>
      <trkpt lat="42.77812" lon="0.45176">
        <ele>2139.507011</ele>
        <time>2012-01-28T11:53:51Z</time>
      </trkpt>
      <trkpt lat="42.77816" lon="0.45174">
        <ele>2138.507027</ele>
        <time>2012-01-28T11:53:52Z</time>
      </trkpt>
      <trkpt lat="42.77821" lon="0.4517">
        <ele>2137.507034</ele>
        <time>2012-01-28T11:53:53Z</time>
      </trkpt>
      <trkpt lat="42.7783" lon="0.4517">
        <ele>2135.507076</ele>
        <time>2012-01-28T11:53:55Z</time>
      </trkpt>
      <trkpt lat="42.77836" lon="0.45164">
        <ele>2129.507092</ele>
        <time>2012-01-28T11:53:57Z</time>
      </trkpt>
      <trkpt lat="42.7784" lon="0.4516">
        <ele>2129.507107</ele>
        <time>2012-01-28T11:53:58Z</time>
      </trkpt>
      <trkpt lat="42.77844" lon="0.45161">
        <ele>2127.507122</ele>
        <time>2012-01-28T11:53:59Z</time>
      </trkpt>
      <trkpt lat="42.77849" lon="0.45159">
        <ele>2127.507137</ele>
        <time>2012-01-28T11:54:00Z</time>
      </trkpt>
      <trkpt lat="42.77848" lon="0.45152">
        <ele>2125.507118</ele>
        <time>2012-01-28T11:54:02Z</time>
      </trkpt>
      <trkpt lat="42.77853" lon="0.45144">
        <ele>2120.507126</ele>
        <time>2012-01-28T11:54:03Z</time>
      </trkpt>
      <trkpt lat="42.7786" lon="0.45137">
        <ele>2119.507145</ele>
        <time>2012-01-28T11:54:05Z</time>
      </trkpt>
      <trkpt lat="42.77866" lon="0.45129">
        <ele>2117.507145</ele>
        <time>2012-01-28T11:54:07Z</time>
      </trkpt>
      <trkpt lat="42.77868" lon="0.45123">
        <ele>2116.507145</ele>
        <time>2012-01-28T11:54:08Z</time>
      </trkpt>
      <trkpt lat="42.7787" lon="0.45118">
        <ele>2115.507137</ele>
        <time>2012-01-28T11:54:09Z</time>
      </trkpt>
      <trkpt lat="42.77873" lon="0.45113">
        <ele>2115.507137</ele>
        <time>2012-01-28T11:54:10Z</time>
      </trkpt>
      <trkpt lat="42.77876" lon="0.45108">
        <ele>2115.507141</ele>
        <time>2012-01-28T11:54:11Z</time>
      </trkpt>
      <trkpt lat="42.77882" lon="0.45109">
        <ele>2114.507172</ele>
        <time>2012-01-28T11:54:12Z</time>
      </trkpt>
      <trkpt lat="42.77886" lon="0.45107">
        <ele>2114.507183</ele>
        <time>2012-01-28T11:54:13Z</time>
      </trkpt>
      <trkpt lat="42.77886" lon="0.451">
        <ele>2112.507168</ele>
        <time>2012-01-28T11:54:15Z</time>
      </trkpt>
      <trkpt lat="42.77887" lon="0.45093">
        <ele>2104.507153</ele>
        <time>2012-01-28T11:54:25Z</time>
      </trkpt>
      <trkpt lat="42.77889" lon="0.45084">
        <ele>2103.507141</ele>
        <time>2012-01-28T11:54:27Z</time>
      </trkpt>
      <trkpt lat="42.77891" lon="0.45073">
        <ele>2101.507118</ele>
        <time>2012-01-28T11:54:29Z</time>
      </trkpt>
      <trkpt lat="42.77891" lon="0.45067">
        <ele>2101.507103</ele>
        <time>2012-01-28T11:54:30Z</time>
      </trkpt>
      <trkpt lat="42.77892" lon="0.45059">
        <ele>2100.507088</ele>
        <time>2012-01-28T11:54:31Z</time>
      </trkpt>
      <trkpt lat="42.77893" lon="0.45052">
        <ele>2100.507072</ele>
        <time>2012-01-28T11:54:32Z</time>
      </trkpt>
      <trkpt lat="42.77894" lon="0.45044">
        <ele>2099.507057</ele>
        <time>2012-01-28T11:54:33Z</time>
      </trkpt>
      <trkpt lat="42.77895" lon="0.45036">
        <ele>2098.507046</ele>
        <time>2012-01-28T11:54:34Z</time>
      </trkpt>
      <trkpt lat="42.77897" lon="0.45028">
        <ele>2098.507034</ele>
        <time>2012-01-28T11:54:35Z</time>
      </trkpt>
      <trkpt lat="42.77897" lon="0.45021">
        <ele>2098.507008</ele>
        <time>2012-01-28T11:54:36Z</time>
      </trkpt>
      <trkpt lat="42.77897" lon="0.45014">
        <ele>2098.506992</ele>
        <time>2012-01-28T11:54:37Z</time>
      </trkpt>
      <trkpt lat="42.77897" lon="0.45002">
        <ele>2097.506966</ele>
        <time>2012-01-28T11:54:39Z</time>
      </trkpt>
      <trkpt lat="42.77897" lon="0.44993">
        <ele>2095.506943</ele>
        <time>2012-01-28T11:54:41Z</time>
      </trkpt>
      <trkpt lat="42.77898" lon="0.44985">
        <ele>2094.50692</ele>
        <time>2012-01-28T11:54:43Z</time>
      </trkpt>
      <trkpt lat="42.77897" lon="0.44976">
        <ele>2094.506889</ele>
        <time>2012-01-28T11:54:45Z</time>
      </trkpt>
      <trkpt lat="42.779" lon="0.44967">
        <ele>2093.506882</ele>
        <time>2012-01-28T11:54:46Z</time>
      </trkpt>
      <trkpt lat="42.77901" lon="0.44959">
        <ele>2093.506874</ele>
        <time>2012-01-28T11:54:47Z</time>
      </trkpt>
      <trkpt lat="42.77903" lon="0.4495">
        <ele>2093.506859</ele>
        <time>2012-01-28T11:54:48Z</time>
      </trkpt>
      <trkpt lat="42.77905" lon="0.44941">
        <ele>2093.50684</ele>
        <time>2012-01-28T11:54:49Z</time>
      </trkpt>
      <trkpt lat="42.7791" lon="0.44936">
        <ele>2092.506847</ele>
        <time>2012-01-28T11:54:50Z</time>
      </trkpt>
      <trkpt lat="42.77914" lon="0.4493">
        <ele>2092.506855</ele>
        <time>2012-01-28T11:54:51Z</time>
      </trkpt>
      <trkpt lat="42.77918" lon="0.44924">
        <ele>2092.506859</ele>
        <time>2012-01-28T11:54:52Z</time>
      </trkpt>
      <trkpt lat="42.77924" lon="0.44922">
        <ele>2091.506882</ele>
        <time>2012-01-28T11:54:53Z</time>
      </trkpt>
      <trkpt lat="42.77929" lon="0.44918">
        <ele>2091.506901</ele>
        <time>2012-01-28T11:54:54Z</time>
      </trkpt>
      <trkpt lat="42.7793" lon="0.4491">
        <ele>2090.506878</ele>
        <time>2012-01-28T11:54:55Z</time>
      </trkpt>
      <trkpt lat="42.77933" lon="0.44905">
        <ele>2090.506882</ele>
        <time>2012-01-28T11:54:56Z</time>
      </trkpt>
      <trkpt lat="42.77939" lon="0.44895">
        <ele>2090.506886</ele>
        <time>2012-01-28T11:54:58Z</time>
      </trkpt>
      <trkpt lat="42.77942" lon="0.4489">
        <ele>2088.506886</ele>
        <time>2012-01-28T11:54:59Z</time>
      </trkpt>
      <trkpt lat="42.77945" lon="0.44884">
        <ele>2088.506882</ele>
        <time>2012-01-28T11:55:00Z</time>
      </trkpt>
      <trkpt lat="42.77947" lon="0.44877">
        <ele>2087.506878</ele>
        <time>2012-01-28T11:55:01Z</time>
      </trkpt>
      <trkpt lat="42.77949" lon="0.4487">
        <ele>2087.506866</ele>
        <time>2012-01-28T11:55:02Z</time>
      </trkpt>
      <trkpt lat="42.77953" lon="0.44866">
        <ele>2086.506878</ele>
        <time>2012-01-28T11:55:03Z</time>
      </trkpt>
      <trkpt lat="42.77956" lon="0.44862">
        <ele>2086.506886</ele>
        <time>2012-01-28T11:55:04Z</time>
      </trkpt>
      <trkpt lat="42.77959" lon="0.44857">
        <ele>2085.506882</ele>
        <time>2012-01-28T11:55:05Z</time>
      </trkpt>
      <trkpt lat="42.77962" lon="0.44852">
        <ele>2084.506882</ele>
        <time>2012-01-28T11:55:06Z</time>
      </trkpt>
      <trkpt lat="42.77965" lon="0.44847">
        <ele>2084.506886</ele>
        <time>2012-01-28T11:55:07Z</time>
      </trkpt>
      <trkpt lat="42.77968" lon="0.44842">
        <ele>2083.506882</ele>
        <time>2012-01-28T11:55:08Z</time>
      </trkpt>
      <trkpt lat="42.7797" lon="0.44836">
        <ele>2082.506882</ele>
        <time>2012-01-28T11:55:09Z</time>
      </trkpt>
      <trkpt lat="42.77973" lon="0.44831">
        <ele>2082.506874</ele>
        <time>2012-01-28T11:55:10Z</time>
      </trkpt>
      <trkpt lat="42.77978" lon="0.44813">
        <ele>2081.506859</ele>
        <time>2012-01-28T11:55:12Z</time>
      </trkpt>
      <trkpt lat="42.77981" lon="0.44803">
        <ele>2081.506847</ele>
        <time>2012-01-28T11:55:13Z</time>
      </trkpt>
      <trkpt lat="42.77985" lon="0.44794">
        <ele>2080.506844</ele>
        <time>2012-01-28T11:55:14Z</time>
      </trkpt>
      <trkpt lat="42.77988" lon="0.44786">
        <ele>2080.50684</ele>
        <time>2012-01-28T11:55:15Z</time>
      </trkpt>
      <trkpt lat="42.77991" lon="0.44778">
        <ele>2079.506828</ele>
        <time>2012-01-28T11:55:16Z</time>
      </trkpt>
      <trkpt lat="42.77994" lon="0.4477">
        <ele>2079.506821</ele>
        <time>2012-01-28T11:55:17Z</time>
      </trkpt>
      <trkpt lat="42.77996" lon="0.44756">
        <ele>2079.50679</ele>
        <time>2012-01-28T11:55:18Z</time>
      </trkpt>
      <trkpt lat="42.77999" lon="0.44744">
        <ele>2078.506779</ele>
        <time>2012-01-28T11:55:19Z</time>
      </trkpt>
      <trkpt lat="42.78002" lon="0.44734">
        <ele>2077.506763</ele>
        <time>2012-01-28T11:55:20Z</time>
      </trkpt>
      <trkpt lat="42.78004" lon="0.44724">
        <ele>2077.506748</ele>
        <time>2012-01-28T11:55:21Z</time>
      </trkpt>
      <trkpt lat="42.78007" lon="0.44712">
        <ele>2076.506729</ele>
        <time>2012-01-28T11:55:22Z</time>
      </trkpt>
      <trkpt lat="42.7801" lon="0.44702">
        <ele>2076.506721</ele>
        <time>2012-01-28T11:55:23Z</time>
      </trkpt>
      <trkpt lat="42.78016" lon="0.44706">
        <ele>2074.50676</ele>
        <time>2012-01-28T11:55:26Z</time>
      </trkpt>
      <trkpt lat="42.78021" lon="0.44708">
        <ele>2073.50679</ele>
        <time>2012-01-28T11:55:28Z</time>
      </trkpt>
      <trkpt lat="42.78029" lon="0.4471">
        <ele>2071.506836</ele>
        <time>2012-01-28T11:55:31Z</time>
      </trkpt>
      <trkpt lat="42.78035" lon="0.44714">
        <ele>2069.50687</ele>
        <time>2012-01-28T11:55:33Z</time>
      </trkpt>
      <trkpt lat="42.78041" lon="0.44716">
        <ele>2068.506901</ele>
        <time>2012-01-28T11:55:35Z</time>
      </trkpt>
      <trkpt lat="42.78046" lon="0.44715">
        <ele>2067.506927</ele>
        <time>2012-01-28T11:55:37Z</time>
      </trkpt>
      <trkpt lat="42.78051" lon="0.44714">
        <ele>2066.506943</ele>
        <time>2012-01-28T11:55:39Z</time>
      </trkpt>
      <trkpt lat="42.78057" lon="0.44717">
        <ele>2063.506981</ele>
        <time>2012-01-28T11:55:41Z</time>
      </trkpt>
      <trkpt lat="42.78059" lon="0.44723">
        <ele>2060.507004</ele>
        <time>2012-01-28T11:55:44Z</time>
      </trkpt>
      <trkpt lat="42.78087" lon="0.44741">
        <ele>2032.507187</ele>
        <time>2012-01-28T11:56:21Z</time>
      </trkpt>
      <trkpt lat="42.78095" lon="0.44745">
        <ele>2030.507236</ele>
        <time>2012-01-28T11:56:23Z</time>
      </trkpt>
      <trkpt lat="42.781" lon="0.44747">
        <ele>2029.507267</ele>
        <time>2012-01-28T11:56:24Z</time>
      </trkpt>
      <trkpt lat="42.781" lon="0.44747">
        <ele>2029.507267</ele>
        <time>2012-01-28T11:56:26Z</time>
      </trkpt>
      <trkpt lat="42.78126" lon="0.44747">
        <ele>2024.507393</ele>
        <time>2012-01-28T11:56:33Z</time>
      </trkpt>
      <trkpt lat="42.78134" lon="0.44744">
        <ele>2023.507423</ele>
        <time>2012-01-28T11:56:35Z</time>
      </trkpt>
      <trkpt lat="42.78142" lon="0.44742">
        <ele>2022.507458</ele>
        <time>2012-01-28T11:56:37Z</time>
      </trkpt>
      <trkpt lat="42.78149" lon="0.44741">
        <ele>2022.507484</ele>
        <time>2012-01-28T11:56:39Z</time>
      </trkpt>
      <trkpt lat="42.78155" lon="0.44745">
        <ele>2021.507526</ele>
        <time>2012-01-28T11:56:41Z</time>
      </trkpt>
      <trkpt lat="42.78161" lon="0.44747">
        <ele>2020.507561</ele>
        <time>2012-01-28T11:56:43Z</time>
      </trkpt>
      <trkpt lat="42.78168" lon="0.44748">
        <ele>2018.507599</ele>
        <time>2012-01-28T11:56:45Z</time>
      </trkpt>
      <trkpt lat="42.78175" lon="0.44749">
        <ele>2018.507633</ele>
        <time>2012-01-28T11:56:47Z</time>
      </trkpt>
      <trkpt lat="42.78183" lon="0.44751">
        <ele>2016.507671</ele>
        <time>2012-01-28T11:56:49Z</time>
      </trkpt>
      <trkpt lat="42.7819" lon="0.44753">
        <ele>2015.507717</ele>
        <time>2012-01-28T11:56:51Z</time>
      </trkpt>
      <trkpt lat="42.78197" lon="0.44755">
        <ele>2014.507751</ele>
        <time>2012-01-28T11:56:53Z</time>
      </trkpt>
      <trkpt lat="42.782" lon="0.4475">
        <ele>2013.507755</ele>
        <time>2012-01-28T11:56:55Z</time>
      </trkpt>
      <trkpt lat="42.78202" lon="0.44743">
        <ele>2013.507744</ele>
        <time>2012-01-28T11:56:57Z</time>
      </trkpt>
      <trkpt lat="42.78208" lon="0.44744">
        <ele>2011.507774</ele>
        <time>2012-01-28T11:57:00Z</time>
      </trkpt>
      <trkpt lat="42.78215" lon="0.44745">
        <ele>2009.507809</ele>
        <time>2012-01-28T11:57:03Z</time>
      </trkpt>
      <trkpt lat="42.78222" lon="0.44722">
        <ele>2000.507786</ele>
        <time>2012-01-28T11:57:15Z</time>
      </trkpt>
      <trkpt lat="42.78223" lon="0.44716">
        <ele>1998.507774</ele>
        <time>2012-01-28T11:57:16Z</time>
      </trkpt>
      <trkpt lat="42.78245" lon="0.44689">
        <ele>1990.507812</ele>
        <time>2012-01-28T11:57:27Z</time>
      </trkpt>
      <trkpt lat="42.78261" lon="0.44678">
        <ele>1986.507858</ele>
        <time>2012-01-28T11:57:32Z</time>
      </trkpt>
      <trkpt lat="42.78269" lon="0.44675">
        <ele>1985.507885</ele>
        <time>2012-01-28T11:57:34Z</time>
      </trkpt>
      <trkpt lat="42.78275" lon="0.44669">
        <ele>1984.507904</ele>
        <time>2012-01-28T11:57:36Z</time>
      </trkpt>
      <trkpt lat="42.78283" lon="0.44667">
        <ele>1982.507931</ele>
        <time>2012-01-28T11:57:38Z</time>
      </trkpt>
      <trkpt lat="42.7829" lon="0.44666">
        <ele>1981.507965</ele>
        <time>2012-01-28T11:57:40Z</time>
      </trkpt>
      <trkpt lat="42.78313" lon="0.44664">
        <ele>1974.508072</ele>
        <time>2012-01-28T11:57:52Z</time>
      </trkpt>
      <trkpt lat="42.78305" lon="0.44658">
        <ele>1962.508018</ele>
        <time>2012-01-28T11:58:17Z</time>
      </trkpt>
      <trkpt lat="42.78301" lon="0.44654">
        <ele>1957.507988</ele>
        <time>2012-01-28T11:58:25Z</time>
      </trkpt>
      <trkpt lat="42.78299" lon="0.44646">
        <ele>1951.50795</ele>
        <time>2012-01-28T11:58:39Z</time>
      </trkpt>
      <trkpt lat="42.78302" lon="0.44642">
        <ele>1947.507957</ele>
        <time>2012-01-28T11:59:20Z</time>
      </trkpt>
      <trkpt lat="42.783" lon="0.44635">
        <ele>1943.507931</ele>
        <time>2012-01-28T11:59:22Z</time>
      </trkpt>
      <trkpt lat="42.783" lon="0.44635">
        <ele>1942.507931</ele>
        <time>2012-01-28T11:59:25Z</time>
      </trkpt>
      <trkpt lat="42.78308" lon="0.44642">
        <ele>1933.507984</ele>
        <time>2012-01-28T12:00:09Z</time>
      </trkpt>
      <trkpt lat="42.78309" lon="0.44641">
        <ele>1932.507984</ele>
        <time>2012-01-28T12:00:13Z</time>
      </trkpt>
      <trkpt lat="42.78315" lon="0.44642">
        <ele>1894.508015</ele>
        <time>2012-01-28T12:00:46Z</time>
      </trkpt>
      <trkpt lat="42.78321" lon="0.44652">
        <ele>1916.508076</ele>
        <time>2012-01-28T12:01:39Z</time>
      </trkpt>
      <trkpt lat="42.78316" lon="0.4465">
        <ele>1904.508041</ele>
        <time>2012-01-28T12:01:58Z</time>
      </trkpt>
      <trkpt lat="42.78315" lon="0.4465">
        <ele>1898.508045</ele>
        <time>2012-01-28T12:02:03Z</time>
      </trkpt>
      <trkpt lat="42.78313" lon="0.44681">
        <ele>1885.50811</ele>
        <time>2012-01-28T12:02:42Z</time>
      </trkpt>
      <trkpt lat="42.78313" lon="0.44695">
        <ele>1882.508148</ele>
        <time>2012-01-28T12:02:53Z</time>
      </trkpt>
      <trkpt lat="42.78313" lon="0.44702">
        <ele>1880.508171</ele>
        <time>2012-01-28T12:02:58Z</time>
      </trkpt>
      <trkpt lat="42.78313" lon="0.44702">
        <ele>1880.508171</ele>
        <time>2012-01-28T12:03:01Z</time>
      </trkpt>
      <trkpt lat="42.78314" lon="0.44708">
        <ele>1870.508186</ele>
        <time>2012-01-28T12:03:17Z</time>
      </trkpt>
      <trkpt lat="42.78314" lon="0.44708">
        <ele>1869.508186</ele>
        <time>2012-01-28T12:03:18Z</time>
      </trkpt>
      <trkpt lat="42.78317" lon="0.44697">
        <ele>1849.508171</ele>
        <time>2012-01-28T12:03:52Z</time>
      </trkpt>
      <trkpt lat="42.78317" lon="0.44696">
        <ele>1849.508171</ele>
        <time>2012-01-28T12:03:53Z</time>
      </trkpt>
      <trkpt lat="42.78318" lon="0.4469">
        <ele>1847.50816</ele>
        <time>2012-01-28T12:04:00Z</time>
      </trkpt>
      <trkpt lat="42.78319" lon="0.44684">
        <ele>1842.508148</ele>
        <time>2012-01-28T12:04:07Z</time>
      </trkpt>
      <trkpt lat="42.78322" lon="0.44678">
        <ele>1839.508148</ele>
        <time>2012-01-28T12:04:23Z</time>
      </trkpt>
      <trkpt lat="42.78322" lon="0.44674">
        <ele>1830.508133</ele>
        <time>2012-01-28T12:04:40Z</time>
      </trkpt>
      <trkpt lat="42.78324" lon="0.44669">
        <ele>1819.508141</ele>
        <time>2012-01-28T12:05:30Z</time>
      </trkpt>
      <trkpt lat="42.78329" lon="0.44672">
        <ele>1797.508167</ele>
        <time>2012-01-28T12:06:21Z</time>
      </trkpt>
      <trkpt lat="42.78327" lon="0.44677">
        <ele>1789.508171</ele>
        <time>2012-01-28T12:07:25Z</time>
      </trkpt>
      <trkpt lat="42.78329" lon="0.4467">
        <ele>1793.50816</ele>
        <time>2012-01-28T12:08:21Z</time>
      </trkpt>
      <trkpt lat="42.78329" lon="0.4467">
        <ele>1792.50816</ele>
        <time>2012-01-28T12:08:30Z</time>
      </trkpt>
      <trkpt lat="42.78332" lon="0.44665">
        <ele>1793.50816</ele>
        <time>2012-01-28T12:08:45Z</time>
      </trkpt>
      <trkpt lat="42.78339" lon="0.44663">
        <ele>1793.50819</ele>
        <time>2012-01-28T12:08:47Z</time>
      </trkpt>
      <trkpt lat="42.78344" lon="0.44662">
        <ele>1793.508213</ele>
        <time>2012-01-28T12:08:48Z</time>
      </trkpt>
      <trkpt lat="42.78353" lon="0.44658">
        <ele>1792.508244</ele>
        <time>2012-01-28T12:08:50Z</time>
      </trkpt>
      <trkpt lat="42.78357" lon="0.44657">
        <ele>1793.508259</ele>
        <time>2012-01-28T12:08:51Z</time>
      </trkpt>
      <trkpt lat="42.78365" lon="0.44652">
        <ele>1792.508286</ele>
        <time>2012-01-28T12:08:53Z</time>
      </trkpt>
      <trkpt lat="42.78373" lon="0.44649">
        <ele>1793.508316</ele>
        <time>2012-01-28T12:08:55Z</time>
      </trkpt>
      <trkpt lat="42.78379" lon="0.44645">
        <ele>1792.508335</ele>
        <time>2012-01-28T12:08:57Z</time>
      </trkpt>
      <trkpt lat="42.78388" lon="0.44643">
        <ele>1792.508373</ele>
        <time>2012-01-28T12:08:59Z</time>
      </trkpt>
      <trkpt lat="42.78396" lon="0.44643">
        <ele>1792.508411</ele>
        <time>2012-01-28T12:09:01Z</time>
      </trkpt>
      <trkpt lat="42.78403" lon="0.44643">
        <ele>1792.508442</ele>
        <time>2012-01-28T12:09:03Z</time>
      </trkpt>
      <trkpt lat="42.78409" lon="0.44639">
        <ele>1792.508461</ele>
        <time>2012-01-28T12:09:05Z</time>
      </trkpt>
      <trkpt lat="42.78413" lon="0.44636">
        <ele>1792.508472</ele>
        <time>2012-01-28T12:09:07Z</time>
      </trkpt>
      <trkpt lat="42.78417" lon="0.44627">
        <ele>1790.508465</ele>
        <time>2012-01-28T12:09:09Z</time>
      </trkpt>
      <trkpt lat="42.78419" lon="0.44621">
        <ele>1790.508461</ele>
        <time>2012-01-28T12:09:10Z</time>
      </trkpt>
      <trkpt lat="42.78423" lon="0.44612">
        <ele>1789.508457</ele>
        <time>2012-01-28T12:09:12Z</time>
      </trkpt>
      <trkpt lat="42.78421" lon="0.44604">
        <ele>1788.508434</ele>
        <time>2012-01-28T12:09:14Z</time>
      </trkpt>
      <trkpt lat="42.78419" lon="0.44598">
        <ele>1788.508404</ele>
        <time>2012-01-28T12:09:16Z</time>
      </trkpt>
      <trkpt lat="42.78415" lon="0.44593">
        <ele>1787.508369</ele>
        <time>2012-01-28T12:09:17Z</time>
      </trkpt>
      <trkpt lat="42.7841" lon="0.44585">
        <ele>1786.508324</ele>
        <time>2012-01-28T12:09:19Z</time>
      </trkpt>
      <trkpt lat="42.78414" lon="0.44573">
        <ele>1785.508308</ele>
        <time>2012-01-28T12:09:21Z</time>
      </trkpt>
      <trkpt lat="42.78419" lon="0.44559">
        <ele>1783.508305</ele>
        <time>2012-01-28T12:09:23Z</time>
      </trkpt>
      <trkpt lat="42.78423" lon="0.44552">
        <ele>1782.508301</ele>
        <time>2012-01-28T12:09:24Z</time>
      </trkpt>
      <trkpt lat="42.78429" lon="0.44548">
        <ele>1780.508316</ele>
        <time>2012-01-28T12:09:25Z</time>
      </trkpt>
      <trkpt lat="42.78435" lon="0.44544">
        <ele>1779.508343</ele>
        <time>2012-01-28T12:09:26Z</time>
      </trkpt>
      <trkpt lat="42.78442" lon="0.44541">
        <ele>1777.508362</ele>
        <time>2012-01-28T12:09:27Z</time>
      </trkpt>
      <trkpt lat="42.78448" lon="0.44537">
        <ele>1776.508377</ele>
        <time>2012-01-28T12:09:28Z</time>
      </trkpt>
      <trkpt lat="42.78453" lon="0.44533">
        <ele>1776.508396</ele>
        <time>2012-01-28T12:09:29Z</time>
      </trkpt>
      <trkpt lat="42.7846" lon="0.44529">
        <ele>1775.508415</ele>
        <time>2012-01-28T12:09:30Z</time>
      </trkpt>
      <trkpt lat="42.78465" lon="0.44524">
        <ele>1774.508427</ele>
        <time>2012-01-28T12:09:31Z</time>
      </trkpt>
      <trkpt lat="42.78472" lon="0.4452">
        <ele>1774.50845</ele>
        <time>2012-01-28T12:09:32Z</time>
      </trkpt>
      <trkpt lat="42.78477" lon="0.44517">
        <ele>1773.508476</ele>
        <time>2012-01-28T12:09:33Z</time>
      </trkpt>
      <trkpt lat="42.78483" lon="0.44514">
        <ele>1772.508488</ele>
        <time>2012-01-28T12:09:34Z</time>
      </trkpt>
      <trkpt lat="42.78488" lon="0.4451">
        <ele>1772.508503</ele>
        <time>2012-01-28T12:09:35Z</time>
      </trkpt>
      <trkpt lat="42.78494" lon="0.44508">
        <ele>1771.508522</ele>
        <time>2012-01-28T12:09:36Z</time>
      </trkpt>
      <trkpt lat="42.78501" lon="0.44509">
        <ele>1771.508556</ele>
        <time>2012-01-28T12:09:37Z</time>
      </trkpt>
      <trkpt lat="42.7851" lon="0.44515">
        <ele>1770.508617</ele>
        <time>2012-01-28T12:09:38Z</time>
      </trkpt>
      <trkpt lat="42.78517" lon="0.44517">
        <ele>1770.508659</ele>
        <time>2012-01-28T12:09:39Z</time>
      </trkpt>
      <trkpt lat="42.78524" lon="0.44517">
        <ele>1770.508694</ele>
        <time>2012-01-28T12:09:40Z</time>
      </trkpt>
      <trkpt lat="42.78531" lon="0.44515">
        <ele>1770.50872</ele>
        <time>2012-01-28T12:09:41Z</time>
      </trkpt>
      <trkpt lat="42.78539" lon="0.44523">
        <ele>1769.508781</ele>
        <time>2012-01-28T12:09:42Z</time>
      </trkpt>
      <trkpt lat="42.78546" lon="0.44525">
        <ele>1769.50882</ele>
        <time>2012-01-28T12:09:43Z</time>
      </trkpt>
      <trkpt lat="42.78553" lon="0.44526">
        <ele>1769.508854</ele>
        <time>2012-01-28T12:09:44Z</time>
      </trkpt>
      <trkpt lat="42.78564" lon="0.44539">
        <ele>1768.508938</ele>
        <time>2012-01-28T12:09:45Z</time>
      </trkpt>
      <trkpt lat="42.78571" lon="0.44542">
        <ele>1768.508984</ele>
        <time>2012-01-28T12:09:46Z</time>
      </trkpt>
      <trkpt lat="42.78581" lon="0.44552">
        <ele>1767.509056</ele>
        <time>2012-01-28T12:09:47Z</time>
      </trkpt>
      <trkpt lat="42.7861" lon="0.44555">
        <ele>1763.509205</ele>
        <time>2012-01-28T12:09:50Z</time>
      </trkpt>
      <trkpt lat="42.7862" lon="0.44552">
        <ele>1761.509243</ele>
        <time>2012-01-28T12:09:51Z</time>
      </trkpt>
      <trkpt lat="42.78632" lon="0.44547">
        <ele>1759.509285</ele>
        <time>2012-01-28T12:09:52Z</time>
      </trkpt>
      <trkpt lat="42.78642" lon="0.44538">
        <ele>1757.509315</ele>
        <time>2012-01-28T12:09:53Z</time>
      </trkpt>
      <trkpt lat="42.78652" lon="0.44533">
        <ele>1756.509346</ele>
        <time>2012-01-28T12:09:54Z</time>
      </trkpt>
      <trkpt lat="42.78658" lon="0.44521">
        <ele>1755.509342</ele>
        <time>2012-01-28T12:09:55Z</time>
      </trkpt>
      <trkpt lat="42.78665" lon="0.44513">
        <ele>1754.509354</ele>
        <time>2012-01-28T12:09:56Z</time>
      </trkpt>
      <trkpt lat="42.78669" lon="0.44505">
        <ele>1753.509357</ele>
        <time>2012-01-28T12:09:57Z</time>
      </trkpt>
      <trkpt lat="42.78672" lon="0.44499">
        <ele>1752.509354</ele>
        <time>2012-01-28T12:09:58Z</time>
      </trkpt>
      <trkpt lat="42.7867" lon="0.44489">
        <ele>1751.509319</ele>
        <time>2012-01-28T12:10:00Z</time>
      </trkpt>
      <trkpt lat="42.78669" lon="0.44487">
        <ele>1750.509308</ele>
        <time>2012-01-28T12:10:03Z</time>
      </trkpt>
      <trkpt lat="42.78648" lon="0.44481">
        <ele>1723.50919</ele>
        <time>2012-01-28T12:10:27Z</time>
      </trkpt>
      <trkpt lat="42.78637" lon="0.44485">
        <ele>1699.509144</ele>
        <time>2012-01-28T12:11:21Z</time>
      </trkpt>
      <trkpt lat="42.78635" lon="0.44486">
        <ele>1699.509136</ele>
        <time>2012-01-28T12:11:22Z</time>
      </trkpt>
      <trkpt lat="42.78629" lon="0.44489">
        <ele>1698.509117</ele>
        <time>2012-01-28T12:11:24Z</time>
      </trkpt>
      <trkpt lat="42.78623" lon="0.44493">
        <ele>1698.509102</ele>
        <time>2012-01-28T12:11:26Z</time>
      </trkpt>
      <trkpt lat="42.78617" lon="0.44497">
        <ele>1697.509087</ele>
        <time>2012-01-28T12:11:28Z</time>
      </trkpt>
      <trkpt lat="42.78609" lon="0.44503">
        <ele>1695.509056</ele>
        <time>2012-01-28T12:11:32Z</time>
      </trkpt>
      <trkpt lat="42.78609" lon="0.44503">
        <ele>1695.509056</ele>
        <time>2012-01-28T12:11:34Z</time>
      </trkpt>
      <trkpt lat="42.78603" lon="0.44507">
        <ele>1693.509041</ele>
        <time>2012-01-28T12:11:35Z</time>
      </trkpt>
      <trkpt lat="42.78601" lon="0.44507">
        <ele>1692.509037</ele>
        <time>2012-01-28T12:11:37Z</time>
      </trkpt>
      <trkpt lat="42.78592" lon="0.44511">
        <ele>1691.509003</ele>
        <time>2012-01-28T12:11:41Z</time>
      </trkpt>
      <trkpt lat="42.78586" lon="0.44514">
        <ele>1690.508984</ele>
        <time>2012-01-28T12:11:44Z</time>
      </trkpt>
      <trkpt lat="42.78576" lon="0.44521">
        <ele>1691.508957</ele>
        <time>2012-01-28T12:11:50Z</time>
      </trkpt>
      <trkpt lat="42.78572" lon="0.44522">
        <ele>1692.508934</ele>
        <time>2012-01-28T12:11:52Z</time>
      </trkpt>
      <trkpt lat="42.78566" lon="0.44524">
        <ele>1693.508915</ele>
        <time>2012-01-28T12:11:56Z</time>
      </trkpt>
      <trkpt lat="42.78561" lon="0.44527">
        <ele>1694.508896</ele>
        <time>2012-01-28T12:11:58Z</time>
      </trkpt>
      <trkpt lat="42.78557" lon="0.44529">
        <ele>1695.508884</ele>
        <time>2012-01-28T12:12:01Z</time>
      </trkpt>
      <trkpt lat="42.78552" lon="0.44532">
        <ele>1696.508869</ele>
        <time>2012-01-28T12:12:03Z</time>
      </trkpt>
      <trkpt lat="42.78547" lon="0.44535">
        <ele>1697.50885</ele>
        <time>2012-01-28T12:12:06Z</time>
      </trkpt>
      <trkpt lat="42.78546" lon="0.44536">
        <ele>1698.508839</ele>
        <time>2012-01-28T12:12:07Z</time>
      </trkpt>
      <trkpt lat="42.78541" lon="0.44539">
        <ele>1700.508831</ele>
        <time>2012-01-28T12:12:10Z</time>
      </trkpt>
      <trkpt lat="42.78539" lon="0.44539">
        <ele>1700.50882</ele>
        <time>2012-01-28T12:12:11Z</time>
      </trkpt>
      <trkpt lat="42.78532" lon="0.44544">
        <ele>1703.508801</ele>
        <time>2012-01-28T12:12:19Z</time>
      </trkpt>
      <trkpt lat="42.78522" lon="0.4455">
        <ele>1706.50877</ele>
        <time>2012-01-28T12:12:30Z</time>
      </trkpt>
      <trkpt lat="42.78518" lon="0.44552">
        <ele>1707.508755</ele>
        <time>2012-01-28T12:12:33Z</time>
      </trkpt>
      <trkpt lat="42.78512" lon="0.44555">
        <ele>1708.508736</ele>
        <time>2012-01-28T12:12:36Z</time>
      </trkpt>
      <trkpt lat="42.785" lon="0.44561">
        <ele>1711.508694</ele>
        <time>2012-01-28T12:12:42Z</time>
      </trkpt>
      <trkpt lat="42.78494" lon="0.44564">
        <ele>1712.508671</ele>
        <time>2012-01-28T12:12:45Z</time>
      </trkpt>
      <trkpt lat="42.78488" lon="0.44567">
        <ele>1713.508652</ele>
        <time>2012-01-28T12:12:48Z</time>
      </trkpt>
      <trkpt lat="42.78478" lon="0.44572">
        <ele>1716.508621</ele>
        <time>2012-01-28T12:12:53Z</time>
      </trkpt>
      <trkpt lat="42.78476" lon="0.44573">
        <ele>1716.50861</ele>
        <time>2012-01-28T12:12:54Z</time>
      </trkpt>
      <trkpt lat="42.78471" lon="0.44577">
        <ele>1716.508591</ele>
        <time>2012-01-28T12:12:57Z</time>
      </trkpt>
      <trkpt lat="42.78465" lon="0.4458">
        <ele>1717.508579</ele>
        <time>2012-01-28T12:13:00Z</time>
      </trkpt>
      <trkpt lat="42.7846" lon="0.44583">
        <ele>1718.508553</ele>
        <time>2012-01-28T12:13:03Z</time>
      </trkpt>
      <trkpt lat="42.78454" lon="0.44586">
        <ele>1719.508533</ele>
        <time>2012-01-28T12:13:07Z</time>
      </trkpt>
      <trkpt lat="42.78448" lon="0.4459">
        <ele>1720.508518</ele>
        <time>2012-01-28T12:13:11Z</time>
      </trkpt>
      <trkpt lat="42.78443" lon="0.44593">
        <ele>1721.508507</ele>
        <time>2012-01-28T12:13:14Z</time>
      </trkpt>
      <trkpt lat="42.78441" lon="0.44594">
        <ele>1721.508499</ele>
        <time>2012-01-28T12:13:16Z</time>
      </trkpt>
      <trkpt lat="42.78436" lon="0.44597">
        <ele>1723.50848</ele>
        <time>2012-01-28T12:13:19Z</time>
      </trkpt>
      <trkpt lat="42.78427" lon="0.44602">
        <ele>1725.508453</ele>
        <time>2012-01-28T12:13:27Z</time>
      </trkpt>
      <trkpt lat="42.78418" lon="0.44607">
        <ele>1727.508419</ele>
        <time>2012-01-28T12:13:35Z</time>
      </trkpt>
      <trkpt lat="42.78416" lon="0.44608">
        <ele>1727.508411</ele>
        <time>2012-01-28T12:13:36Z</time>
      </trkpt>
      <trkpt lat="42.78411" lon="0.4461">
        <ele>1729.5084</ele>
        <time>2012-01-28T12:13:40Z</time>
      </trkpt>
      <trkpt lat="42.78407" lon="0.44613">
        <ele>1731.508381</ele>
        <time>2012-01-28T12:13:43Z</time>
      </trkpt>
      <trkpt lat="42.78402" lon="0.44615">
        <ele>1732.508362</ele>
        <time>2012-01-28T12:13:46Z</time>
      </trkpt>
      <trkpt lat="42.784" lon="0.44616">
        <ele>1732.508362</ele>
        <time>2012-01-28T12:13:47Z</time>
      </trkpt>
      <trkpt lat="42.78393" lon="0.44619">
        <ele>1734.508335</ele>
        <time>2012-01-28T12:13:51Z</time>
      </trkpt>
      <trkpt lat="42.78392" lon="0.4462">
        <ele>1734.508331</ele>
        <time>2012-01-28T12:13:52Z</time>
      </trkpt>
      <trkpt lat="42.78386" lon="0.44623">
        <ele>1736.508308</ele>
        <time>2012-01-28T12:13:55Z</time>
      </trkpt>
      <trkpt lat="42.78382" lon="0.44626">
        <ele>1737.508297</ele>
        <time>2012-01-28T12:13:58Z</time>
      </trkpt>
      <trkpt lat="42.78372" lon="0.4463">
        <ele>1739.508259</ele>
        <time>2012-01-28T12:14:03Z</time>
      </trkpt>
      <trkpt lat="42.78366" lon="0.44633">
        <ele>1741.508244</ele>
        <time>2012-01-28T12:14:07Z</time>
      </trkpt>
      <trkpt lat="42.78361" lon="0.44636">
        <ele>1743.508221</ele>
        <time>2012-01-28T12:14:10Z</time>
      </trkpt>
      <trkpt lat="42.78359" lon="0.44637">
        <ele>1744.508213</ele>
        <time>2012-01-28T12:14:11Z</time>
      </trkpt>
      <trkpt lat="42.78354" lon="0.44639">
        <ele>1746.508202</ele>
        <time>2012-01-28T12:14:14Z</time>
      </trkpt>
      <trkpt lat="42.78348" lon="0.44642">
        <ele>1747.508179</ele>
        <time>2012-01-28T12:14:17Z</time>
      </trkpt>
      <trkpt lat="42.78346" lon="0.44643">
        <ele>1749.508171</ele>
        <time>2012-01-28T12:14:18Z</time>
      </trkpt>
      <trkpt lat="42.78342" lon="0.44645">
        <ele>1750.508156</ele>
        <time>2012-01-28T12:14:20Z</time>
      </trkpt>
      <trkpt lat="42.78337" lon="0.44647">
        <ele>1752.508141</ele>
        <time>2012-01-28T12:14:22Z</time>
      </trkpt>
      <trkpt lat="42.78333" lon="0.44649">
        <ele>1754.508125</ele>
        <time>2012-01-28T12:14:24Z</time>
      </trkpt>
      <trkpt lat="42.78328" lon="0.44651">
        <ele>1755.508106</ele>
        <time>2012-01-28T12:14:26Z</time>
      </trkpt>
      <trkpt lat="42.7832" lon="0.44655">
        <ele>1757.50808</ele>
        <time>2012-01-28T12:14:30Z</time>
      </trkpt>
      <trkpt lat="42.78318" lon="0.44656">
        <ele>1758.508072</ele>
        <time>2012-01-28T12:14:31Z</time>
      </trkpt>
      <trkpt lat="42.78312" lon="0.44659">
        <ele>1760.508049</ele>
        <time>2012-01-28T12:14:34Z</time>
      </trkpt>
      <trkpt lat="42.7831" lon="0.44659">
        <ele>1761.508041</ele>
        <time>2012-01-28T12:14:35Z</time>
      </trkpt>
      <trkpt lat="42.78304" lon="0.44662">
        <ele>1763.508018</ele>
        <time>2012-01-28T12:14:40Z</time>
      </trkpt>
      <trkpt lat="42.78299" lon="0.44665">
        <ele>1765.508007</ele>
        <time>2012-01-28T12:14:44Z</time>
      </trkpt>
      <trkpt lat="42.78295" lon="0.44668">
        <ele>1766.507992</ele>
        <time>2012-01-28T12:14:47Z</time>
      </trkpt>
      <trkpt lat="42.78289" lon="0.44673">
        <ele>1769.507977</ele>
        <time>2012-01-28T12:14:51Z</time>
      </trkpt>
      <trkpt lat="42.7828" lon="0.44677">
        <ele>1772.507946</ele>
        <time>2012-01-28T12:14:56Z</time>
      </trkpt>
      <trkpt lat="42.7827" lon="0.44682">
        <ele>1774.507908</ele>
        <time>2012-01-28T12:15:03Z</time>
      </trkpt>
      <trkpt lat="42.78268" lon="0.44683">
        <ele>1774.507904</ele>
        <time>2012-01-28T12:15:04Z</time>
      </trkpt>
      <trkpt lat="42.78263" lon="0.44685">
        <ele>1775.507889</ele>
        <time>2012-01-28T12:15:07Z</time>
      </trkpt>
      <trkpt lat="42.78258" lon="0.44688">
        <ele>1776.507866</ele>
        <time>2012-01-28T12:15:10Z</time>
      </trkpt>
      <trkpt lat="42.78252" lon="0.44691">
        <ele>1778.507847</ele>
        <time>2012-01-28T12:15:13Z</time>
      </trkpt>
      <trkpt lat="42.78246" lon="0.44694">
        <ele>1780.507824</ele>
        <time>2012-01-28T12:15:17Z</time>
      </trkpt>
      <trkpt lat="42.78244" lon="0.44695">
        <ele>1781.50782</ele>
        <time>2012-01-28T12:15:18Z</time>
      </trkpt>
      <trkpt lat="42.78239" lon="0.44697">
        <ele>1782.507797</ele>
        <time>2012-01-28T12:15:21Z</time>
      </trkpt>
      <trkpt lat="42.7823" lon="0.44701">
        <ele>1784.507767</ele>
        <time>2012-01-28T12:15:26Z</time>
      </trkpt>
      <trkpt lat="42.78224" lon="0.44703">
        <ele>1786.507744</ele>
        <time>2012-01-28T12:15:29Z</time>
      </trkpt>
      <trkpt lat="42.78221" lon="0.44705">
        <ele>1786.507729</ele>
        <time>2012-01-28T12:15:31Z</time>
      </trkpt>
      <trkpt lat="42.78215" lon="0.44707">
        <ele>1788.507713</ele>
        <time>2012-01-28T12:15:34Z</time>
      </trkpt>
      <trkpt lat="42.78204" lon="0.44712">
        <ele>1788.507675</ele>
        <time>2012-01-28T12:15:40Z</time>
      </trkpt>
      <trkpt lat="42.78197" lon="0.44715">
        <ele>1790.507648</ele>
        <time>2012-01-28T12:15:44Z</time>
      </trkpt>
      <trkpt lat="42.78187" lon="0.44721">
        <ele>1794.507618</ele>
        <time>2012-01-28T12:15:49Z</time>
      </trkpt>
      <trkpt lat="42.78179" lon="0.44727">
        <ele>1797.507591</ele>
        <time>2012-01-28T12:15:54Z</time>
      </trkpt>
      <trkpt lat="42.78177" lon="0.44727">
        <ele>1798.507584</ele>
        <time>2012-01-28T12:15:55Z</time>
      </trkpt>
      <trkpt lat="42.78173" lon="0.4473">
        <ele>1800.507568</ele>
        <time>2012-01-28T12:15:58Z</time>
      </trkpt>
      <trkpt lat="42.78167" lon="0.44733">
        <ele>1802.507553</ele>
        <time>2012-01-28T12:16:04Z</time>
      </trkpt>
      <trkpt lat="42.78162" lon="0.44736">
        <ele>1807.507534</ele>
        <time>2012-01-28T12:16:09Z</time>
      </trkpt>
      <trkpt lat="42.78161" lon="0.44737">
        <ele>1807.50753</ele>
        <time>2012-01-28T12:16:11Z</time>
      </trkpt>
      <trkpt lat="42.78156" lon="0.4474">
        <ele>1810.507519</ele>
        <time>2012-01-28T12:16:14Z</time>
      </trkpt>
      <trkpt lat="42.78149" lon="0.44744">
        <ele>1813.507492</ele>
        <time>2012-01-28T12:16:19Z</time>
      </trkpt>
      <trkpt lat="42.78148" lon="0.44745">
        <ele>1813.507488</ele>
        <time>2012-01-28T12:16:20Z</time>
      </trkpt>
      <trkpt lat="42.78143" lon="0.44748">
        <ele>1815.507481</ele>
        <time>2012-01-28T12:16:24Z</time>
      </trkpt>
      <trkpt lat="42.78136" lon="0.44753">
        <ele>1820.507454</ele>
        <time>2012-01-28T12:16:32Z</time>
      </trkpt>
      <trkpt lat="42.78135" lon="0.44753">
        <ele>1820.50745</ele>
        <time>2012-01-28T12:16:33Z</time>
      </trkpt>
      <trkpt lat="42.78132" lon="0.44759">
        <ele>1826.507446</ele>
        <time>2012-01-28T12:16:43Z</time>
      </trkpt>
      <trkpt lat="42.78132" lon="0.44759">
        <ele>1826.507446</ele>
        <time>2012-01-28T12:16:45Z</time>
      </trkpt>
      <trkpt lat="42.78127" lon="0.44761">
        <ele>1831.507427</ele>
        <time>2012-01-28T12:16:49Z</time>
      </trkpt>
      <trkpt lat="42.78126" lon="0.44761">
        <ele>1831.507435</ele>
        <time>2012-01-28T12:16:50Z</time>
      </trkpt>
      <trkpt lat="42.78122" lon="0.44763">
        <ele>1833.507416</ele>
        <time>2012-01-28T12:16:54Z</time>
      </trkpt>
      <trkpt lat="42.78117" lon="0.44766">
        <ele>1837.507397</ele>
        <time>2012-01-28T12:16:58Z</time>
      </trkpt>
      <trkpt lat="42.78107" lon="0.44771">
        <ele>1840.507362</ele>
        <time>2012-01-28T12:17:05Z</time>
      </trkpt>
      <trkpt lat="42.78102" lon="0.44774">
        <ele>1842.507347</ele>
        <time>2012-01-28T12:17:09Z</time>
      </trkpt>
      <trkpt lat="42.781" lon="0.44775">
        <ele>1843.507343</ele>
        <time>2012-01-28T12:17:11Z</time>
      </trkpt>
      <trkpt lat="42.78095" lon="0.44778">
        <ele>1845.50732</ele>
        <time>2012-01-28T12:17:13Z</time>
      </trkpt>
      <trkpt lat="42.7809" lon="0.44782">
        <ele>1848.507313</ele>
        <time>2012-01-28T12:17:16Z</time>
      </trkpt>
      <trkpt lat="42.78084" lon="0.44786">
        <ele>1853.50729</ele>
        <time>2012-01-28T12:17:20Z</time>
      </trkpt>
      <trkpt lat="42.78079" lon="0.44789">
        <ele>1858.507275</ele>
        <time>2012-01-28T12:17:23Z</time>
      </trkpt>
      <trkpt lat="42.78074" lon="0.44792">
        <ele>1862.507259</ele>
        <time>2012-01-28T12:17:26Z</time>
      </trkpt>
      <trkpt lat="42.78069" lon="0.44795">
        <ele>1867.507244</ele>
        <time>2012-01-28T12:17:29Z</time>
      </trkpt>
      <trkpt lat="42.78064" lon="0.44797">
        <ele>1872.507221</ele>
        <time>2012-01-28T12:17:32Z</time>
      </trkpt>
      <trkpt lat="42.78059" lon="0.44799">
        <ele>1877.50721</ele>
        <time>2012-01-28T12:17:35Z</time>
      </trkpt>
      <trkpt lat="42.78045" lon="0.44805">
        <ele>1887.507156</ele>
        <time>2012-01-28T12:17:43Z</time>
      </trkpt>
      <trkpt lat="42.7804" lon="0.44807">
        <ele>1890.507137</ele>
        <time>2012-01-28T12:17:46Z</time>
      </trkpt>
      <trkpt lat="42.78036" lon="0.44808">
        <ele>1892.50713</ele>
        <time>2012-01-28T12:17:48Z</time>
      </trkpt>
      <trkpt lat="42.78024" lon="0.44813">
        <ele>1898.507076</ele>
        <time>2012-01-28T12:17:55Z</time>
      </trkpt>
      <trkpt lat="42.7802" lon="0.44815">
        <ele>1900.507061</ele>
        <time>2012-01-28T12:17:58Z</time>
      </trkpt>
      <trkpt lat="42.78009" lon="0.44821">
        <ele>1905.507027</ele>
        <time>2012-01-28T12:18:05Z</time>
      </trkpt>
      <trkpt lat="42.78008" lon="0.44822">
        <ele>1905.507019</ele>
        <time>2012-01-28T12:18:06Z</time>
      </trkpt>
      <trkpt lat="42.78002" lon="0.44825">
        <ele>1907.507004</ele>
        <time>2012-01-28T12:18:09Z</time>
      </trkpt>
      <trkpt lat="42.77998" lon="0.44827">
        <ele>1909.506989</ele>
        <time>2012-01-28T12:18:11Z</time>
      </trkpt>
      <trkpt lat="42.77989" lon="0.44832">
        <ele>1912.506958</ele>
        <time>2012-01-28T12:18:16Z</time>
      </trkpt>
      <trkpt lat="42.77984" lon="0.44836">
        <ele>1913.506943</ele>
        <time>2012-01-28T12:18:19Z</time>
      </trkpt>
      <trkpt lat="42.77978" lon="0.44838">
        <ele>1915.506924</ele>
        <time>2012-01-28T12:18:23Z</time>
      </trkpt>
      <trkpt lat="42.77977" lon="0.44839">
        <ele>1916.506924</ele>
        <time>2012-01-28T12:18:23Z</time>
      </trkpt>
      <trkpt lat="42.77977" lon="0.44839">
        <ele>1916.506924</ele>
        <time>2012-01-28T12:18:27Z</time>
      </trkpt>
      <trkpt lat="42.77966" lon="0.44844">
        <ele>1918.506878</ele>
        <time>2012-01-28T12:18:29Z</time>
      </trkpt>
      <trkpt lat="42.7796" lon="0.44845">
        <ele>1919.506859</ele>
        <time>2012-01-28T12:18:32Z</time>
      </trkpt>
      <trkpt lat="42.77957" lon="0.44847">
        <ele>1920.506844</ele>
        <time>2012-01-28T12:18:34Z</time>
      </trkpt>
      <trkpt lat="42.7795" lon="0.4485">
        <ele>1922.506817</ele>
        <time>2012-01-28T12:18:38Z</time>
      </trkpt>
      <trkpt lat="42.77946" lon="0.44853">
        <ele>1923.506809</ele>
        <time>2012-01-28T12:18:41Z</time>
      </trkpt>
      <trkpt lat="42.7794" lon="0.44857">
        <ele>1922.50679</ele>
        <time>2012-01-28T12:18:44Z</time>
      </trkpt>
      <trkpt lat="42.77937" lon="0.44864">
        <ele>1923.50679</ele>
        <time>2012-01-28T12:18:47Z</time>
      </trkpt>
      <trkpt lat="42.77936" lon="0.4487">
        <ele>1925.506809</ele>
        <time>2012-01-28T12:18:52Z</time>
      </trkpt>
      <trkpt lat="42.77945" lon="0.44872">
        <ele>1929.506851</ele>
        <time>2012-01-28T12:19:04Z</time>
      </trkpt>
      <trkpt lat="42.77954" lon="0.44872">
        <ele>1930.506893</ele>
        <time>2012-01-28T12:19:06Z</time>
      </trkpt>
      <trkpt lat="42.77958" lon="0.44872">
        <ele>1930.50692</ele>
        <time>2012-01-28T12:19:07Z</time>
      </trkpt>
      <trkpt lat="42.77964" lon="0.44871">
        <ele>1930.506943</ele>
        <time>2012-01-28T12:19:08Z</time>
      </trkpt>
      <trkpt lat="42.77969" lon="0.44868">
        <ele>1930.506962</ele>
        <time>2012-01-28T12:19:09Z</time>
      </trkpt>
      <trkpt lat="42.77972" lon="0.44861">
        <ele>1930.506954</ele>
        <time>2012-01-28T12:19:10Z</time>
      </trkpt>
      <trkpt lat="42.77976" lon="0.44856">
        <ele>1930.506958</ele>
        <time>2012-01-28T12:19:11Z</time>
      </trkpt>
      <trkpt lat="42.77988" lon="0.4485">
        <ele>1930.506996</ele>
        <time>2012-01-28T12:19:12Z</time>
      </trkpt>
      <trkpt lat="42.77994" lon="0.44843">
        <ele>1930.507008</ele>
        <time>2012-01-28T12:19:13Z</time>
      </trkpt>
      <trkpt lat="42.78001" lon="0.44836">
        <ele>1929.507023</ele>
        <time>2012-01-28T12:19:14Z</time>
      </trkpt>
      <trkpt lat="42.78007" lon="0.4483">
        <ele>1929.507042</ele>
        <time>2012-01-28T12:19:15Z</time>
      </trkpt>
      <trkpt lat="42.78012" lon="0.44821">
        <ele>1929.507042</ele>
        <time>2012-01-28T12:19:16Z</time>
      </trkpt>
      <trkpt lat="42.78016" lon="0.44812">
        <ele>1928.507038</ele>
        <time>2012-01-28T12:19:17Z</time>
      </trkpt>
      <trkpt lat="42.78023" lon="0.44807">
        <ele>1928.507053</ele>
        <time>2012-01-28T12:19:18Z</time>
      </trkpt>
      <trkpt lat="42.7803" lon="0.44801">
        <ele>1928.507076</ele>
        <time>2012-01-28T12:19:19Z</time>
      </trkpt>
      <trkpt lat="42.78037" lon="0.44795">
        <ele>1928.507092</ele>
        <time>2012-01-28T12:19:20Z</time>
      </trkpt>
      <trkpt lat="42.78042" lon="0.44786">
        <ele>1927.507095</ele>
        <time>2012-01-28T12:19:21Z</time>
      </trkpt>
      <trkpt lat="42.78047" lon="0.44777">
        <ele>1927.507088</ele>
        <time>2012-01-28T12:19:22Z</time>
      </trkpt>
      <trkpt lat="42.7805" lon="0.44768">
        <ele>1926.507084</ele>
        <time>2012-01-28T12:19:23Z</time>
      </trkpt>
      <trkpt lat="42.78054" lon="0.44762">
        <ele>1925.507084</ele>
        <time>2012-01-28T12:19:24Z</time>
      </trkpt>
      <trkpt lat="42.78058" lon="0.44757">
        <ele>1925.507095</ele>
        <time>2012-01-28T12:19:25Z</time>
      </trkpt>
      <trkpt lat="42.78062" lon="0.44753">
        <ele>1924.507099</ele>
        <time>2012-01-28T12:19:26Z</time>
      </trkpt>
      <trkpt lat="42.78068" lon="0.44752">
        <ele>1923.507122</ele>
        <time>2012-01-28T12:19:28Z</time>
      </trkpt>
      <trkpt lat="42.78074" lon="0.44754">
        <ele>1921.50716</ele>
        <time>2012-01-28T12:19:31Z</time>
      </trkpt>
      <trkpt lat="42.7808" lon="0.4475">
        <ele>1921.507179</ele>
        <time>2012-01-28T12:19:33Z</time>
      </trkpt>
      <trkpt lat="42.78085" lon="0.44747">
        <ele>1920.507191</ele>
        <time>2012-01-28T12:19:35Z</time>
      </trkpt>
      <trkpt lat="42.7809" lon="0.4474">
        <ele>1920.507202</ele>
        <time>2012-01-28T12:19:37Z</time>
      </trkpt>
      <trkpt lat="42.78093" lon="0.44735">
        <ele>1919.50721</ele>
        <time>2012-01-28T12:19:39Z</time>
      </trkpt>
      <trkpt lat="42.78095" lon="0.44732">
        <ele>1918.507202</ele>
        <time>2012-01-28T12:19:40Z</time>
      </trkpt>
      <trkpt lat="42.78099" lon="0.44724">
        <ele>1917.507198</ele>
        <time>2012-01-28T12:19:42Z</time>
      </trkpt>
      <trkpt lat="42.78103" lon="0.44716">
        <ele>1916.507198</ele>
        <time>2012-01-28T12:19:44Z</time>
      </trkpt>
      <trkpt lat="42.78107" lon="0.44709">
        <ele>1915.507202</ele>
        <time>2012-01-28T12:19:46Z</time>
      </trkpt>
      <trkpt lat="42.78111" lon="0.4471">
        <ele>1915.507221</ele>
        <time>2012-01-28T12:19:47Z</time>
      </trkpt>
      <trkpt lat="42.78118" lon="0.4471">
        <ele>1914.507259</ele>
        <time>2012-01-28T12:19:49Z</time>
      </trkpt>
      <trkpt lat="42.78124" lon="0.44706">
        <ele>1913.507275</ele>
        <time>2012-01-28T12:19:51Z</time>
      </trkpt>
      <trkpt lat="42.78129" lon="0.447">
        <ele>1912.507282</ele>
        <time>2012-01-28T12:19:53Z</time>
      </trkpt>
      <trkpt lat="42.7813" lon="0.44711">
        <ele>1910.507317</ele>
        <time>2012-01-28T12:19:54Z</time>
      </trkpt>
      <trkpt lat="42.78132" lon="0.44714">
        <ele>1909.507332</ele>
        <time>2012-01-28T12:19:55Z</time>
      </trkpt>
      <trkpt lat="42.78138" lon="0.44715">
        <ele>1905.507362</ele>
        <time>2012-01-28T12:19:58Z</time>
      </trkpt>
      <trkpt lat="42.78145" lon="0.44719">
        <ele>1903.507404</ele>
        <time>2012-01-28T12:20:00Z</time>
      </trkpt>
      <trkpt lat="42.78149" lon="0.44718">
        <ele>1901.507427</ele>
        <time>2012-01-28T12:20:01Z</time>
      </trkpt>
      <trkpt lat="42.78156" lon="0.44718">
        <ele>1899.507458</ele>
        <time>2012-01-28T12:20:03Z</time>
      </trkpt>
      <trkpt lat="42.78161" lon="0.44717">
        <ele>1896.507484</ele>
        <time>2012-01-28T12:20:05Z</time>
      </trkpt>
      <trkpt lat="42.78165" lon="0.44714">
        <ele>1894.507496</ele>
        <time>2012-01-28T12:20:07Z</time>
      </trkpt>
      <trkpt lat="42.78169" lon="0.4471">
        <ele>1893.507504</ele>
        <time>2012-01-28T12:20:09Z</time>
      </trkpt>
      <trkpt lat="42.78174" lon="0.44712">
        <ele>1891.50753</ele>
        <time>2012-01-28T12:20:12Z</time>
      </trkpt>
      <trkpt lat="42.78179" lon="0.44716">
        <ele>1887.507565</ele>
        <time>2012-01-28T12:20:15Z</time>
      </trkpt>
      <trkpt lat="42.78184" lon="0.44715">
        <ele>1885.50758</ele>
        <time>2012-01-28T12:20:17Z</time>
      </trkpt>
      <trkpt lat="42.78189" lon="0.44718">
        <ele>1882.507618</ele>
        <time>2012-01-28T12:20:19Z</time>
      </trkpt>
      <trkpt lat="42.78193" lon="0.44718">
        <ele>1880.507641</ele>
        <time>2012-01-28T12:20:21Z</time>
      </trkpt>
      <trkpt lat="42.78198" lon="0.44713">
        <ele>1879.507645</ele>
        <time>2012-01-28T12:20:23Z</time>
      </trkpt>
      <trkpt lat="42.78203" lon="0.44714">
        <ele>1877.507671</ele>
        <time>2012-01-28T12:20:25Z</time>
      </trkpt>
      <trkpt lat="42.78208" lon="0.44716">
        <ele>1874.507706</ele>
        <time>2012-01-28T12:20:28Z</time>
      </trkpt>
      <trkpt lat="42.78211" lon="0.44709">
        <ele>1871.50769</ele>
        <time>2012-01-28T12:20:30Z</time>
      </trkpt>
      <trkpt lat="42.78217" lon="0.44707">
        <ele>1866.507717</ele>
        <time>2012-01-28T12:20:33Z</time>
      </trkpt>
      <trkpt lat="42.78222" lon="0.44708">
        <ele>1862.507755</ele>
        <time>2012-01-28T12:20:35Z</time>
      </trkpt>
      <trkpt lat="42.78228" lon="0.44708">
        <ele>1861.507778</ele>
        <time>2012-01-28T12:20:37Z</time>
      </trkpt>
      <trkpt lat="42.78234" lon="0.44712">
        <ele>1858.507812</ele>
        <time>2012-01-28T12:20:39Z</time>
      </trkpt>
      <trkpt lat="42.7824" lon="0.4471">
        <ele>1855.507843</ele>
        <time>2012-01-28T12:20:41Z</time>
      </trkpt>
      <trkpt lat="42.78247" lon="0.44702">
        <ele>1851.507854</ele>
        <time>2012-01-28T12:20:43Z</time>
      </trkpt>
      <trkpt lat="42.78252" lon="0.44698">
        <ele>1850.507866</ele>
        <time>2012-01-28T12:20:44Z</time>
      </trkpt>
      <trkpt lat="42.78256" lon="0.44693">
        <ele>1848.50787</ele>
        <time>2012-01-28T12:20:45Z</time>
      </trkpt>
      <trkpt lat="42.78261" lon="0.44688">
        <ele>1847.507881</ele>
        <time>2012-01-28T12:20:46Z</time>
      </trkpt>
      <trkpt lat="42.78266" lon="0.44684">
        <ele>1845.507893</ele>
        <time>2012-01-28T12:20:47Z</time>
      </trkpt>
      <trkpt lat="42.78271" lon="0.44681">
        <ele>1844.507915</ele>
        <time>2012-01-28T12:20:48Z</time>
      </trkpt>
      <trkpt lat="42.78276" lon="0.44676">
        <ele>1843.507923</ele>
        <time>2012-01-28T12:20:49Z</time>
      </trkpt>
      <trkpt lat="42.78281" lon="0.4467">
        <ele>1842.507931</ele>
        <time>2012-01-28T12:20:50Z</time>
      </trkpt>
      <trkpt lat="42.78286" lon="0.44664">
        <ele>1841.507942</ele>
        <time>2012-01-28T12:20:51Z</time>
      </trkpt>
      <trkpt lat="42.7829" lon="0.44659">
        <ele>1839.507942</ele>
        <time>2012-01-28T12:20:52Z</time>
      </trkpt>
      <trkpt lat="42.78295" lon="0.44655">
        <ele>1839.507961</ele>
        <time>2012-01-28T12:20:53Z</time>
      </trkpt>
      <trkpt lat="42.783" lon="0.44651">
        <ele>1838.507973</ele>
        <time>2012-01-28T12:20:54Z</time>
      </trkpt>
      <trkpt lat="42.78305" lon="0.44647">
        <ele>1837.507984</ele>
        <time>2012-01-28T12:20:55Z</time>
      </trkpt>
      <trkpt lat="42.7831" lon="0.44644">
        <ele>1836.507999</ele>
        <time>2012-01-28T12:20:56Z</time>
      </trkpt>
      <trkpt lat="42.78316" lon="0.44642">
        <ele>1834.508026</ele>
        <time>2012-01-28T12:20:57Z</time>
      </trkpt>
      <trkpt lat="42.78322" lon="0.4464">
        <ele>1834.508049</ele>
        <time>2012-01-28T12:20:58Z</time>
      </trkpt>
      <trkpt lat="42.78328" lon="0.44638">
        <ele>1833.508068</ele>
        <time>2012-01-28T12:20:59Z</time>
      </trkpt>
      <trkpt lat="42.78333" lon="0.44636">
        <ele>1832.508091</ele>
        <time>2012-01-28T12:21:00Z</time>
      </trkpt>
      <trkpt lat="42.78339" lon="0.44632">
        <ele>1832.508106</ele>
        <time>2012-01-28T12:21:01Z</time>
      </trkpt>
      <trkpt lat="42.78344" lon="0.44629">
        <ele>1831.508125</ele>
        <time>2012-01-28T12:21:02Z</time>
      </trkpt>
      <trkpt lat="42.78349" lon="0.44626">
        <ele>1831.508144</ele>
        <time>2012-01-28T12:21:03Z</time>
      </trkpt>
      <trkpt lat="42.78355" lon="0.44624">
        <ele>1830.508163</ele>
        <time>2012-01-28T12:21:04Z</time>
      </trkpt>
      <trkpt lat="42.7836" lon="0.44622">
        <ele>1829.508179</ele>
        <time>2012-01-28T12:21:05Z</time>
      </trkpt>
      <trkpt lat="42.78365" lon="0.4462">
        <ele>1829.508202</ele>
        <time>2012-01-28T12:21:06Z</time>
      </trkpt>
      <trkpt lat="42.78369" lon="0.44619">
        <ele>1828.508217</ele>
        <time>2012-01-28T12:21:07Z</time>
      </trkpt>
      <trkpt lat="42.78374" lon="0.44616">
        <ele>1827.508232</ele>
        <time>2012-01-28T12:21:08Z</time>
      </trkpt>
      <trkpt lat="42.78378" lon="0.44613">
        <ele>1827.508251</ele>
        <time>2012-01-28T12:21:09Z</time>
      </trkpt>
      <trkpt lat="42.78383" lon="0.4461">
        <ele>1826.508266</ele>
        <time>2012-01-28T12:21:10Z</time>
      </trkpt>
      <trkpt lat="42.78388" lon="0.44608">
        <ele>1825.508286</ele>
        <time>2012-01-28T12:21:11Z</time>
      </trkpt>
      <trkpt lat="42.78393" lon="0.44604">
        <ele>1824.508293</ele>
        <time>2012-01-28T12:21:12Z</time>
      </trkpt>
      <trkpt lat="42.78399" lon="0.446">
        <ele>1822.508312</ele>
        <time>2012-01-28T12:21:13Z</time>
      </trkpt>
      <trkpt lat="42.78405" lon="0.44596">
        <ele>1821.508327</ele>
        <time>2012-01-28T12:21:14Z</time>
      </trkpt>
      <trkpt lat="42.78413" lon="0.44589">
        <ele>1820.508354</ele>
        <time>2012-01-28T12:21:15Z</time>
      </trkpt>
      <trkpt lat="42.7842" lon="0.44584">
        <ele>1819.508373</ele>
        <time>2012-01-28T12:21:16Z</time>
      </trkpt>
      <trkpt lat="42.78429" lon="0.44577">
        <ele>1817.508392</ele>
        <time>2012-01-28T12:21:17Z</time>
      </trkpt>
      <trkpt lat="42.78437" lon="0.44574">
        <ele>1816.508423</ele>
        <time>2012-01-28T12:21:18Z</time>
      </trkpt>
      <trkpt lat="42.78445" lon="0.44571">
        <ele>1814.508453</ele>
        <time>2012-01-28T12:21:19Z</time>
      </trkpt>
      <trkpt lat="42.78451" lon="0.44574">
        <ele>1811.508499</ele>
        <time>2012-01-28T12:21:20Z</time>
      </trkpt>
      <trkpt lat="42.78457" lon="0.44576">
        <ele>1809.50853</ele>
        <time>2012-01-28T12:21:21Z</time>
      </trkpt>
      <trkpt lat="42.78463" lon="0.44575">
        <ele>1806.508553</ele>
        <time>2012-01-28T12:21:22Z</time>
      </trkpt>
      <trkpt lat="42.78468" lon="0.44565">
        <ele>1803.508553</ele>
        <time>2012-01-28T12:21:23Z</time>
      </trkpt>
      <trkpt lat="42.78472" lon="0.44557">
        <ele>1801.508545</ele>
        <time>2012-01-28T12:21:24Z</time>
      </trkpt>
      <trkpt lat="42.7848" lon="0.4455">
        <ele>1799.508568</ele>
        <time>2012-01-28T12:21:25Z</time>
      </trkpt>
      <trkpt lat="42.78487" lon="0.44546">
        <ele>1799.508587</ele>
        <time>2012-01-28T12:21:26Z</time>
      </trkpt>
      <trkpt lat="42.78495" lon="0.44539">
        <ele>1795.50861</ele>
        <time>2012-01-28T12:21:28Z</time>
      </trkpt>
      <trkpt lat="42.785" lon="0.44536">
        <ele>1792.508625</ele>
        <time>2012-01-28T12:21:29Z</time>
      </trkpt>
      <trkpt lat="42.78506" lon="0.44536">
        <ele>1790.508652</ele>
        <time>2012-01-28T12:21:30Z</time>
      </trkpt>
      <trkpt lat="42.78511" lon="0.44536">
        <ele>1788.508678</ele>
        <time>2012-01-28T12:21:31Z</time>
      </trkpt>
      <trkpt lat="42.78516" lon="0.44538">
        <ele>1786.508709</ele>
        <time>2012-01-28T12:21:32Z</time>
      </trkpt>
      <trkpt lat="42.78523" lon="0.4454">
        <ele>1785.508747</ele>
        <time>2012-01-28T12:21:33Z</time>
      </trkpt>
      <trkpt lat="42.78529" lon="0.44542">
        <ele>1783.508781</ele>
        <time>2012-01-28T12:21:34Z</time>
      </trkpt>
      <trkpt lat="42.78534" lon="0.44545">
        <ele>1781.508808</ele>
        <time>2012-01-28T12:21:35Z</time>
      </trkpt>
      <trkpt lat="42.78539" lon="0.44547">
        <ele>1780.508842</ele>
        <time>2012-01-28T12:21:36Z</time>
      </trkpt>
      <trkpt lat="42.78545" lon="0.44549">
        <ele>1779.508873</ele>
        <time>2012-01-28T12:21:37Z</time>
      </trkpt>
      <trkpt lat="42.7855" lon="0.4455">
        <ele>1778.508904</ele>
        <time>2012-01-28T12:21:38Z</time>
      </trkpt>
      <trkpt lat="42.78556" lon="0.44552">
        <ele>1776.508934</ele>
        <time>2012-01-28T12:21:39Z</time>
      </trkpt>
      <trkpt lat="42.78561" lon="0.44554">
        <ele>1774.508965</ele>
        <time>2012-01-28T12:21:40Z</time>
      </trkpt>
      <trkpt lat="42.78567" lon="0.44556">
        <ele>1773.508999</ele>
        <time>2012-01-28T12:21:41Z</time>
      </trkpt>
      <trkpt lat="42.78573" lon="0.44557">
        <ele>1772.509033</ele>
        <time>2012-01-28T12:21:42Z</time>
      </trkpt>
      <trkpt lat="42.7858" lon="0.44559">
        <ele>1771.509075</ele>
        <time>2012-01-28T12:21:43Z</time>
      </trkpt>
      <trkpt lat="42.78587" lon="0.44561">
        <ele>1769.509106</ele>
        <time>2012-01-28T12:21:44Z</time>
      </trkpt>
      <trkpt lat="42.78595" lon="0.44562">
        <ele>1768.509148</ele>
        <time>2012-01-28T12:21:45Z</time>
      </trkpt>
      <trkpt lat="42.78603" lon="0.44563">
        <ele>1767.509193</ele>
        <time>2012-01-28T12:21:46Z</time>
      </trkpt>
      <trkpt lat="42.78612" lon="0.44564">
        <ele>1766.509235</ele>
        <time>2012-01-28T12:21:47Z</time>
      </trkpt>
      <trkpt lat="42.78621" lon="0.44563">
        <ele>1765.509277</ele>
        <time>2012-01-28T12:21:48Z</time>
      </trkpt>
      <trkpt lat="42.78629" lon="0.44563">
        <ele>1765.509315</ele>
        <time>2012-01-28T12:21:49Z</time>
      </trkpt>
      <trkpt lat="42.7864" lon="0.44553">
        <ele>1763.509342</ele>
        <time>2012-01-28T12:21:50Z</time>
      </trkpt>
      <trkpt lat="42.78651" lon="0.44548">
        <ele>1762.509377</ele>
        <time>2012-01-28T12:21:51Z</time>
      </trkpt>
      <trkpt lat="42.7866" lon="0.44543">
        <ele>1762.509415</ele>
        <time>2012-01-28T12:21:52Z</time>
      </trkpt>
      <trkpt lat="42.78671" lon="0.44538">
        <ele>1760.509449</ele>
        <time>2012-01-28T12:21:53Z</time>
      </trkpt>
      <trkpt lat="42.78682" lon="0.44532">
        <ele>1759.509491</ele>
        <time>2012-01-28T12:21:54Z</time>
      </trkpt>
      <trkpt lat="42.78692" lon="0.44525">
        <ele>1758.509518</ele>
        <time>2012-01-28T12:21:55Z</time>
      </trkpt>
      <trkpt lat="42.78702" lon="0.44518">
        <ele>1757.509548</ele>
        <time>2012-01-28T12:21:56Z</time>
      </trkpt>
      <trkpt lat="42.78711" lon="0.44512">
        <ele>1756.509579</ele>
        <time>2012-01-28T12:21:57Z</time>
      </trkpt>
      <trkpt lat="42.78719" lon="0.44506">
        <ele>1754.509598</ele>
        <time>2012-01-28T12:21:58Z</time>
      </trkpt>
      <trkpt lat="42.78726" lon="0.445">
        <ele>1753.509617</ele>
        <time>2012-01-28T12:21:59Z</time>
      </trkpt>
      <trkpt lat="42.78733" lon="0.44493">
        <ele>1752.509628</ele>
        <time>2012-01-28T12:22:00Z</time>
      </trkpt>
      <trkpt lat="42.7874" lon="0.44488">
        <ele>1752.509644</ele>
        <time>2012-01-28T12:22:01Z</time>
      </trkpt>
      <trkpt lat="42.78745" lon="0.44481">
        <ele>1749.509655</ele>
        <time>2012-01-28T12:22:02Z</time>
      </trkpt>
      <trkpt lat="42.78749" lon="0.44476">
        <ele>1747.509663</ele>
        <time>2012-01-28T12:22:03Z</time>
      </trkpt>
      <trkpt lat="42.78754" lon="0.44472">
        <ele>1745.50967</ele>
        <time>2012-01-28T12:22:04Z</time>
      </trkpt>
      <trkpt lat="42.78758" lon="0.44469">
        <ele>1744.509682</ele>
        <time>2012-01-28T12:22:05Z</time>
      </trkpt>
      <trkpt lat="42.78766" lon="0.44467">
        <ele>1741.509716</ele>
        <time>2012-01-28T12:22:07Z</time>
      </trkpt>
      <trkpt lat="42.78771" lon="0.44466">
        <ele>1741.509739</ele>
        <time>2012-01-28T12:22:08Z</time>
      </trkpt>
      <trkpt lat="42.78772" lon="0.44474">
        <ele>1739.509762</ele>
        <time>2012-01-28T12:22:09Z</time>
      </trkpt>
      <trkpt lat="42.78777" lon="0.4448">
        <ele>1736.509804</ele>
        <time>2012-01-28T12:22:11Z</time>
      </trkpt>
      <trkpt lat="42.78782" lon="0.44487">
        <ele>1732.509846</ele>
        <time>2012-01-28T12:22:13Z</time>
      </trkpt>
      <trkpt lat="42.78786" lon="0.44494">
        <ele>1731.50988</ele>
        <time>2012-01-28T12:22:15Z</time>
      </trkpt>
      <trkpt lat="42.78791" lon="0.445">
        <ele>1729.509922</ele>
        <time>2012-01-28T12:22:17Z</time>
      </trkpt>
      <trkpt lat="42.78794" lon="0.44503">
        <ele>1727.509945</ele>
        <time>2012-01-28T12:22:18Z</time>
      </trkpt>
      <trkpt lat="42.78801" lon="0.44507">
        <ele>1723.509987</ele>
        <time>2012-01-28T12:22:20Z</time>
      </trkpt>
      <trkpt lat="42.78808" lon="0.44508">
        <ele>1714.510029</ele>
        <time>2012-01-28T12:22:22Z</time>
      </trkpt>
      <trkpt lat="42.78813" lon="0.44505">
        <ele>1710.510036</ele>
        <time>2012-01-28T12:22:23Z</time>
      </trkpt>
      <trkpt lat="42.78821" lon="0.44501">
        <ele>1704.510075</ele>
        <time>2012-01-28T12:22:25Z</time>
      </trkpt>
      <trkpt lat="42.78829" lon="0.44506">
        <ele>1701.510117</ele>
        <time>2012-01-28T12:22:27Z</time>
      </trkpt>
      <trkpt lat="42.78838" lon="0.44508">
        <ele>1698.510166</ele>
        <time>2012-01-28T12:22:29Z</time>
      </trkpt>
      <trkpt lat="42.78842" lon="0.44508">
        <ele>1696.510189</ele>
        <time>2012-01-28T12:22:30Z</time>
      </trkpt>
      <trkpt lat="42.78847" lon="0.44509">
        <ele>1694.510216</ele>
        <time>2012-01-28T12:22:31Z</time>
      </trkpt>
      <trkpt lat="42.78851" lon="0.44514">
        <ele>1691.510246</ele>
        <time>2012-01-28T12:22:32Z</time>
      </trkpt>
      <trkpt lat="42.78856" lon="0.44514">
        <ele>1690.510269</ele>
        <time>2012-01-28T12:22:33Z</time>
      </trkpt>
      <trkpt lat="42.78861" lon="0.44514">
        <ele>1688.510292</ele>
        <time>2012-01-28T12:22:34Z</time>
      </trkpt>
      <trkpt lat="42.78866" lon="0.44514">
        <ele>1685.510319</ele>
        <time>2012-01-28T12:22:35Z</time>
      </trkpt>
      <trkpt lat="42.7887" lon="0.44514">
        <ele>1683.510342</ele>
        <time>2012-01-28T12:22:36Z</time>
      </trkpt>
      <trkpt lat="42.78875" lon="0.44515">
        <ele>1681.510368</ele>
        <time>2012-01-28T12:22:37Z</time>
      </trkpt>
      <trkpt lat="42.7888" lon="0.44516">
        <ele>1679.510391</ele>
        <time>2012-01-28T12:22:38Z</time>
      </trkpt>
      <trkpt lat="42.78885" lon="0.44517">
        <ele>1677.51041</ele>
        <time>2012-01-28T12:22:39Z</time>
      </trkpt>
      <trkpt lat="42.7889" lon="0.4452">
        <ele>1675.510452</ele>
        <time>2012-01-28T12:22:40Z</time>
      </trkpt>
      <trkpt lat="42.78896" lon="0.44525">
        <ele>1674.510494</ele>
        <time>2012-01-28T12:22:41Z</time>
      </trkpt>
      <trkpt lat="42.78903" lon="0.4453">
        <ele>1672.510532</ele>
        <time>2012-01-28T12:22:42Z</time>
      </trkpt>
      <trkpt lat="42.78909" lon="0.44534">
        <ele>1671.510582</ele>
        <time>2012-01-28T12:22:43Z</time>
      </trkpt>
      <trkpt lat="42.78915" lon="0.44538">
        <ele>1670.510616</ele>
        <time>2012-01-28T12:22:44Z</time>
      </trkpt>
      <trkpt lat="42.78921" lon="0.44542">
        <ele>1669.510654</ele>
        <time>2012-01-28T12:22:45Z</time>
      </trkpt>
      <trkpt lat="42.78927" lon="0.44546">
        <ele>1668.510693</ele>
        <time>2012-01-28T12:22:46Z</time>
      </trkpt>
      <trkpt lat="42.78933" lon="0.44551">
        <ele>1667.510738</ele>
        <time>2012-01-28T12:22:47Z</time>
      </trkpt>
      <trkpt lat="42.78939" lon="0.44556">
        <ele>1666.510773</ele>
        <time>2012-01-28T12:22:48Z</time>
      </trkpt>
      <trkpt lat="42.78942" lon="0.44564">
        <ele>1665.510815</ele>
        <time>2012-01-28T12:22:49Z</time>
      </trkpt>
      <trkpt lat="42.78945" lon="0.4457">
        <ele>1665.510845</ele>
        <time>2012-01-28T12:22:50Z</time>
      </trkpt>
      <trkpt lat="42.78948" lon="0.44575">
        <ele>1664.510872</ele>
        <time>2012-01-28T12:22:51Z</time>
      </trkpt>
      <trkpt lat="42.78959" lon="0.44566">
        <ele>1656.510899</ele>
        <time>2012-01-28T12:22:56Z</time>
      </trkpt>
      <trkpt lat="42.78964" lon="0.4455">
        <ele>1655.51088</ele>
        <time>2012-01-28T12:22:58Z</time>
      </trkpt>
      <trkpt lat="42.78965" lon="0.44543">
        <ele>1655.510868</ele>
        <time>2012-01-28T12:22:59Z</time>
      </trkpt>
      <trkpt lat="42.7897" lon="0.4453">
        <ele>1653.51086</ele>
        <time>2012-01-28T12:23:00Z</time>
      </trkpt>
      <trkpt lat="42.78975" lon="0.44518">
        <ele>1651.510849</ele>
        <time>2012-01-28T12:23:01Z</time>
      </trkpt>
      <trkpt lat="42.78979" lon="0.44508">
        <ele>1650.510838</ele>
        <time>2012-01-28T12:23:02Z</time>
      </trkpt>
      <trkpt lat="42.7898" lon="0.44501">
        <ele>1650.510834</ele>
        <time>2012-01-28T12:23:03Z</time>
      </trkpt>
      <trkpt lat="42.78984" lon="0.44497">
        <ele>1649.510838</ele>
        <time>2012-01-28T12:23:04Z</time>
      </trkpt>
      <trkpt lat="42.78987" lon="0.44491">
        <ele>1648.510838</ele>
        <time>2012-01-28T12:23:05Z</time>
      </trkpt>
      <trkpt lat="42.78991" lon="0.44483">
        <ele>1646.510838</ele>
        <time>2012-01-28T12:23:07Z</time>
      </trkpt>
      <trkpt lat="42.78986" lon="0.44472">
        <ele>1629.51078</ele>
        <time>2012-01-28T12:23:33Z</time>
      </trkpt>
      <trkpt lat="42.78973" lon="0.44473">
        <ele>1620.510723</ele>
        <time>2012-01-28T12:23:48Z</time>
      </trkpt>
      <trkpt lat="42.78973" lon="0.44473">
        <ele>1620.510723</ele>
        <time>2012-01-28T12:23:52Z</time>
      </trkpt>
      <trkpt lat="42.7896" lon="0.44478">
        <ele>1616.510674</ele>
        <time>2012-01-28T12:24:13Z</time>
      </trkpt>
      <trkpt lat="42.78953" lon="0.44483">
        <ele>1615.510654</ele>
        <time>2012-01-28T12:24:16Z</time>
      </trkpt>
      <trkpt lat="42.7895" lon="0.44487">
        <ele>1615.510647</ele>
        <time>2012-01-28T12:24:17Z</time>
      </trkpt>
      <trkpt lat="42.78946" lon="0.44491">
        <ele>1615.510639</ele>
        <time>2012-01-28T12:24:18Z</time>
      </trkpt>
      <trkpt lat="42.78942" lon="0.44495">
        <ele>1615.510635</ele>
        <time>2012-01-28T12:24:19Z</time>
      </trkpt>
      <trkpt lat="42.78939" lon="0.44498">
        <ele>1615.510624</ele>
        <time>2012-01-28T12:24:20Z</time>
      </trkpt>
      <trkpt lat="42.78932" lon="0.44505">
        <ele>1616.510605</ele>
        <time>2012-01-28T12:24:22Z</time>
      </trkpt>
      <trkpt lat="42.78924" lon="0.44511">
        <ele>1616.510593</ele>
        <time>2012-01-28T12:24:24Z</time>
      </trkpt>
      <trkpt lat="42.78917" lon="0.44517">
        <ele>1616.510574</ele>
        <time>2012-01-28T12:24:26Z</time>
      </trkpt>
      <trkpt lat="42.7891" lon="0.44523">
        <ele>1617.510551</ele>
        <time>2012-01-28T12:24:28Z</time>
      </trkpt>
      <trkpt lat="42.78907" lon="0.44526">
        <ele>1617.51054</ele>
        <time>2012-01-28T12:24:29Z</time>
      </trkpt>
      <trkpt lat="42.789" lon="0.44531">
        <ele>1617.510521</ele>
        <time>2012-01-28T12:24:31Z</time>
      </trkpt>
      <trkpt lat="42.78893" lon="0.44536">
        <ele>1618.510509</ele>
        <time>2012-01-28T12:24:33Z</time>
      </trkpt>
      <trkpt lat="42.78887" lon="0.44541">
        <ele>1619.510483</ele>
        <time>2012-01-28T12:24:35Z</time>
      </trkpt>
      <trkpt lat="42.7888" lon="0.44545">
        <ele>1619.510464</ele>
        <time>2012-01-28T12:24:37Z</time>
      </trkpt>
      <trkpt lat="42.78874" lon="0.44549">
        <ele>1620.510452</ele>
        <time>2012-01-28T12:24:39Z</time>
      </trkpt>
      <trkpt lat="42.78871" lon="0.44551">
        <ele>1620.510441</ele>
        <time>2012-01-28T12:24:40Z</time>
      </trkpt>
      <trkpt lat="42.78865" lon="0.44555">
        <ele>1620.510426</ele>
        <time>2012-01-28T12:24:42Z</time>
      </trkpt>
      <trkpt lat="42.78859" lon="0.44558">
        <ele>1622.510399</ele>
        <time>2012-01-28T12:24:44Z</time>
      </trkpt>
      <trkpt lat="42.78856" lon="0.4456">
        <ele>1622.510387</ele>
        <time>2012-01-28T12:24:45Z</time>
      </trkpt>
      <trkpt lat="42.7885" lon="0.44564">
        <ele>1623.510368</ele>
        <time>2012-01-28T12:24:47Z</time>
      </trkpt>
      <trkpt lat="42.78844" lon="0.44568">
        <ele>1624.510349</ele>
        <time>2012-01-28T12:24:49Z</time>
      </trkpt>
      <trkpt lat="42.78838" lon="0.44571">
        <ele>1625.510334</ele>
        <time>2012-01-28T12:24:51Z</time>
      </trkpt>
      <trkpt lat="42.78834" lon="0.44573">
        <ele>1625.510323</ele>
        <time>2012-01-28T12:24:52Z</time>
      </trkpt>
      <trkpt lat="42.78828" lon="0.44578">
        <ele>1626.5103</ele>
        <time>2012-01-28T12:24:54Z</time>
      </trkpt>
      <trkpt lat="42.78821" lon="0.44583">
        <ele>1627.510284</ele>
        <time>2012-01-28T12:24:56Z</time>
      </trkpt>
      <trkpt lat="42.78814" lon="0.44588">
        <ele>1629.510265</ele>
        <time>2012-01-28T12:24:58Z</time>
      </trkpt>
      <trkpt lat="42.78807" lon="0.44593">
        <ele>1630.51025</ele>
        <time>2012-01-28T12:25:00Z</time>
      </trkpt>
      <trkpt lat="42.78801" lon="0.44598">
        <ele>1631.510223</ele>
        <time>2012-01-28T12:25:02Z</time>
      </trkpt>
      <trkpt lat="42.78798" lon="0.44601">
        <ele>1633.51022</ele>
        <time>2012-01-28T12:25:03Z</time>
      </trkpt>
      <trkpt lat="42.78791" lon="0.44606">
        <ele>1636.510201</ele>
        <time>2012-01-28T12:25:05Z</time>
      </trkpt>
      <trkpt lat="42.78785" lon="0.44611">
        <ele>1638.510185</ele>
        <time>2012-01-28T12:25:07Z</time>
      </trkpt>
      <trkpt lat="42.78778" lon="0.44616">
        <ele>1641.51017</ele>
        <time>2012-01-28T12:25:09Z</time>
      </trkpt>
      <trkpt lat="42.78772" lon="0.44621">
        <ele>1643.510147</ele>
        <time>2012-01-28T12:25:11Z</time>
      </trkpt>
      <trkpt lat="42.78765" lon="0.44625">
        <ele>1645.510128</ele>
        <time>2012-01-28T12:25:13Z</time>
      </trkpt>
      <trkpt lat="42.78759" lon="0.44629">
        <ele>1648.510109</ele>
        <time>2012-01-28T12:25:15Z</time>
      </trkpt>
      <trkpt lat="42.78753" lon="0.44633">
        <ele>1650.51009</ele>
        <time>2012-01-28T12:25:17Z</time>
      </trkpt>
      <trkpt lat="42.78749" lon="0.44636">
        <ele>1650.510078</ele>
        <time>2012-01-28T12:25:18Z</time>
      </trkpt>
      <trkpt lat="42.78743" lon="0.44641">
        <ele>1653.510063</ele>
        <time>2012-01-28T12:25:20Z</time>
      </trkpt>
      <trkpt lat="42.78736" lon="0.44646">
        <ele>1655.51004</ele>
        <time>2012-01-28T12:25:22Z</time>
      </trkpt>
      <trkpt lat="42.7873" lon="0.44651">
        <ele>1657.510025</ele>
        <time>2012-01-28T12:25:24Z</time>
      </trkpt>
      <trkpt lat="42.78726" lon="0.44654">
        <ele>1658.51001</ele>
        <time>2012-01-28T12:25:25Z</time>
      </trkpt>
      <trkpt lat="42.7872" lon="0.44659">
        <ele>1660.509998</ele>
        <time>2012-01-28T12:25:27Z</time>
      </trkpt>
      <trkpt lat="42.78714" lon="0.44664">
        <ele>1662.509983</ele>
        <time>2012-01-28T12:25:29Z</time>
      </trkpt>
      <trkpt lat="42.78707" lon="0.44668">
        <ele>1664.50996</ele>
        <time>2012-01-28T12:25:31Z</time>
      </trkpt>
      <trkpt lat="42.787" lon="0.44673">
        <ele>1666.509937</ele>
        <time>2012-01-28T12:25:33Z</time>
      </trkpt>
      <trkpt lat="42.78693" lon="0.44678">
        <ele>1668.509922</ele>
        <time>2012-01-28T12:25:35Z</time>
      </trkpt>
      <trkpt lat="42.7869" lon="0.4468">
        <ele>1669.509907</ele>
        <time>2012-01-28T12:25:36Z</time>
      </trkpt>
      <trkpt lat="42.78683" lon="0.44685">
        <ele>1670.509895</ele>
        <time>2012-01-28T12:25:38Z</time>
      </trkpt>
      <trkpt lat="42.78676" lon="0.4469">
        <ele>1673.509869</ele>
        <time>2012-01-28T12:25:40Z</time>
      </trkpt>
      <trkpt lat="42.7867" lon="0.44695">
        <ele>1675.509857</ele>
        <time>2012-01-28T12:25:42Z</time>
      </trkpt>
      <trkpt lat="42.78663" lon="0.44701">
        <ele>1677.509834</ele>
        <time>2012-01-28T12:25:44Z</time>
      </trkpt>
      <trkpt lat="42.78656" lon="0.44707">
        <ele>1680.509815</ele>
        <time>2012-01-28T12:25:46Z</time>
      </trkpt>
      <trkpt lat="42.78649" lon="0.44713">
        <ele>1682.509804</ele>
        <time>2012-01-28T12:25:48Z</time>
      </trkpt>
      <trkpt lat="42.78642" lon="0.44718">
        <ele>1685.509781</ele>
        <time>2012-01-28T12:25:50Z</time>
      </trkpt>
      <trkpt lat="42.78639" lon="0.44721">
        <ele>1686.509777</ele>
        <time>2012-01-28T12:25:51Z</time>
      </trkpt>
      <trkpt lat="42.78633" lon="0.44726">
        <ele>1688.509754</ele>
        <time>2012-01-28T12:25:53Z</time>
      </trkpt>
      <trkpt lat="42.78626" lon="0.44731">
        <ele>1689.509739</ele>
        <time>2012-01-28T12:25:55Z</time>
      </trkpt>
      <trkpt lat="42.78619" lon="0.44736">
        <ele>1691.50972</ele>
        <time>2012-01-28T12:25:57Z</time>
      </trkpt>
      <trkpt lat="42.78613" lon="0.44741">
        <ele>1694.509701</ele>
        <time>2012-01-28T12:25:59Z</time>
      </trkpt>
      <trkpt lat="42.78606" lon="0.44746">
        <ele>1696.509682</ele>
        <time>2012-01-28T12:26:01Z</time>
      </trkpt>
      <trkpt lat="42.78599" lon="0.44751">
        <ele>1699.509663</ele>
        <time>2012-01-28T12:26:03Z</time>
      </trkpt>
      <trkpt lat="42.78592" lon="0.44756">
        <ele>1702.509644</ele>
        <time>2012-01-28T12:26:05Z</time>
      </trkpt>
      <trkpt lat="42.78589" lon="0.44758">
        <ele>1703.509632</ele>
        <time>2012-01-28T12:26:06Z</time>
      </trkpt>
      <trkpt lat="42.78582" lon="0.44763">
        <ele>1705.509613</ele>
        <time>2012-01-28T12:26:08Z</time>
      </trkpt>
      <trkpt lat="42.78579" lon="0.44765">
        <ele>1707.509605</ele>
        <time>2012-01-28T12:26:09Z</time>
      </trkpt>
      <trkpt lat="42.78572" lon="0.44769">
        <ele>1710.509579</ele>
        <time>2012-01-28T12:26:11Z</time>
      </trkpt>
      <trkpt lat="42.78565" lon="0.44773">
        <ele>1713.50956</ele>
        <time>2012-01-28T12:26:13Z</time>
      </trkpt>
      <trkpt lat="42.78558" lon="0.44778">
        <ele>1716.509541</ele>
        <time>2012-01-28T12:26:15Z</time>
      </trkpt>
      <trkpt lat="42.78551" lon="0.44783">
        <ele>1718.50951</ele>
        <time>2012-01-28T12:26:17Z</time>
      </trkpt>
      <trkpt lat="42.78544" lon="0.44787">
        <ele>1720.509495</ele>
        <time>2012-01-28T12:26:19Z</time>
      </trkpt>
      <trkpt lat="42.78537" lon="0.44793">
        <ele>1722.509472</ele>
        <time>2012-01-28T12:26:21Z</time>
      </trkpt>
      <trkpt lat="42.78531" lon="0.44799">
        <ele>1725.50946</ele>
        <time>2012-01-28T12:26:23Z</time>
      </trkpt>
      <trkpt lat="42.78524" lon="0.44805">
        <ele>1726.509441</ele>
        <time>2012-01-28T12:26:25Z</time>
      </trkpt>
      <trkpt lat="42.78518" lon="0.44809">
        <ele>1726.509422</ele>
        <time>2012-01-28T12:26:27Z</time>
      </trkpt>
      <trkpt lat="42.78515" lon="0.44812">
        <ele>1727.509415</ele>
        <time>2012-01-28T12:26:28Z</time>
      </trkpt>
      <trkpt lat="42.78509" lon="0.44817">
        <ele>1727.509407</ele>
        <time>2012-01-28T12:26:30Z</time>
      </trkpt>
      <trkpt lat="42.78504" lon="0.44822">
        <ele>1728.509396</ele>
        <time>2012-01-28T12:26:32Z</time>
      </trkpt>
      <trkpt lat="42.78498" lon="0.44826">
        <ele>1729.509377</ele>
        <time>2012-01-28T12:26:34Z</time>
      </trkpt>
      <trkpt lat="42.78492" lon="0.44832">
        <ele>1730.509361</ele>
        <time>2012-01-28T12:26:36Z</time>
      </trkpt>
      <trkpt lat="42.78484" lon="0.44838">
        <ele>1731.509342</ele>
        <time>2012-01-28T12:26:38Z</time>
      </trkpt>
      <trkpt lat="42.78477" lon="0.44845">
        <ele>1733.509315</ele>
        <time>2012-01-28T12:26:40Z</time>
      </trkpt>
      <trkpt lat="42.78468" lon="0.44851">
        <ele>1735.509304</ele>
        <time>2012-01-28T12:26:42Z</time>
      </trkpt>
      <trkpt lat="42.78464" lon="0.44855">
        <ele>1737.509293</ele>
        <time>2012-01-28T12:26:43Z</time>
      </trkpt>
      <trkpt lat="42.78459" lon="0.44859">
        <ele>1740.509277</ele>
        <time>2012-01-28T12:26:44Z</time>
      </trkpt>
      <trkpt lat="42.78455" lon="0.44861">
        <ele>1743.509262</ele>
        <time>2012-01-28T12:26:45Z</time>
      </trkpt>
      <trkpt lat="42.78448" lon="0.44865">
        <ele>1745.509239</ele>
        <time>2012-01-28T12:26:47Z</time>
      </trkpt>
      <trkpt lat="42.78441" lon="0.44867">
        <ele>1746.509209</ele>
        <time>2012-01-28T12:26:49Z</time>
      </trkpt>
      <trkpt lat="42.78434" lon="0.44871">
        <ele>1749.509186</ele>
        <time>2012-01-28T12:26:51Z</time>
      </trkpt>
      <trkpt lat="42.78427" lon="0.44874">
        <ele>1752.509159</ele>
        <time>2012-01-28T12:26:53Z</time>
      </trkpt>
      <trkpt lat="42.7842" lon="0.44877">
        <ele>1753.509132</ele>
        <time>2012-01-28T12:26:55Z</time>
      </trkpt>
      <trkpt lat="42.78413" lon="0.4488">
        <ele>1754.509113</ele>
        <time>2012-01-28T12:26:57Z</time>
      </trkpt>
      <trkpt lat="42.78406" lon="0.44885">
        <ele>1757.509087</ele>
        <time>2012-01-28T12:26:59Z</time>
      </trkpt>
      <trkpt lat="42.78399" lon="0.44889">
        <ele>1760.509068</ele>
        <time>2012-01-28T12:27:01Z</time>
      </trkpt>
      <trkpt lat="42.78392" lon="0.44894">
        <ele>1762.509045</ele>
        <time>2012-01-28T12:27:03Z</time>
      </trkpt>
      <trkpt lat="42.78386" lon="0.44899">
        <ele>1765.509033</ele>
        <time>2012-01-28T12:27:05Z</time>
      </trkpt>
      <trkpt lat="42.7838" lon="0.44904">
        <ele>1768.50901</ele>
        <time>2012-01-28T12:27:07Z</time>
      </trkpt>
      <trkpt lat="42.78373" lon="0.44909">
        <ele>1770.508995</ele>
        <time>2012-01-28T12:27:09Z</time>
      </trkpt>
      <trkpt lat="42.78366" lon="0.44914">
        <ele>1773.508976</ele>
        <time>2012-01-28T12:27:11Z</time>
      </trkpt>
      <trkpt lat="42.78358" lon="0.44919">
        <ele>1776.508953</ele>
        <time>2012-01-28T12:27:13Z</time>
      </trkpt>
      <trkpt lat="42.78351" lon="0.44924">
        <ele>1778.508926</ele>
        <time>2012-01-28T12:27:15Z</time>
      </trkpt>
      <trkpt lat="42.78344" lon="0.44929">
        <ele>1779.508907</ele>
        <time>2012-01-28T12:27:17Z</time>
      </trkpt>
      <trkpt lat="42.78337" lon="0.44934">
        <ele>1782.508888</ele>
        <time>2012-01-28T12:27:19Z</time>
      </trkpt>
      <trkpt lat="42.7833" lon="0.44939">
        <ele>1785.508865</ele>
        <time>2012-01-28T12:27:22Z</time>
      </trkpt>
      <trkpt lat="42.78323" lon="0.44944">
        <ele>1791.50885</ele>
        <time>2012-01-28T12:27:23Z</time>
      </trkpt>
      <trkpt lat="42.78316" lon="0.44948">
        <ele>1798.508823</ele>
        <time>2012-01-28T12:27:25Z</time>
      </trkpt>
      <trkpt lat="42.7831" lon="0.44953">
        <ele>1802.508808</ele>
        <time>2012-01-28T12:27:27Z</time>
      </trkpt>
      <trkpt lat="42.78304" lon="0.44958">
        <ele>1805.508793</ele>
        <time>2012-01-28T12:27:29Z</time>
      </trkpt>
      <trkpt lat="42.78298" lon="0.44963">
        <ele>1810.508778</ele>
        <time>2012-01-28T12:27:31Z</time>
      </trkpt>
      <trkpt lat="42.78292" lon="0.44969">
        <ele>1815.508759</ele>
        <time>2012-01-28T12:27:33Z</time>
      </trkpt>
      <trkpt lat="42.78286" lon="0.44973">
        <ele>1822.508743</ele>
        <time>2012-01-28T12:27:35Z</time>
      </trkpt>
      <trkpt lat="42.78279" lon="0.44977">
        <ele>1829.50872</ele>
        <time>2012-01-28T12:27:37Z</time>
      </trkpt>
      <trkpt lat="42.78272" lon="0.4498">
        <ele>1836.508694</ele>
        <time>2012-01-28T12:27:39Z</time>
      </trkpt>
      <trkpt lat="42.78269" lon="0.44982">
        <ele>1839.508682</ele>
        <time>2012-01-28T12:27:40Z</time>
      </trkpt>
      <trkpt lat="42.78262" lon="0.44986">
        <ele>1845.508667</ele>
        <time>2012-01-28T12:27:42Z</time>
      </trkpt>
      <trkpt lat="42.78256" lon="0.44991">
        <ele>1851.508644</ele>
        <time>2012-01-28T12:27:44Z</time>
      </trkpt>
      <trkpt lat="42.78249" lon="0.44995">
        <ele>1855.508629</ele>
        <time>2012-01-28T12:27:46Z</time>
      </trkpt>
      <trkpt lat="42.78246" lon="0.44998">
        <ele>1858.508617</ele>
        <time>2012-01-28T12:27:47Z</time>
      </trkpt>
      <trkpt lat="42.78239" lon="0.45002">
        <ele>1861.508598</ele>
        <time>2012-01-28T12:27:49Z</time>
      </trkpt>
      <trkpt lat="42.78233" lon="0.45007">
        <ele>1864.508579</ele>
        <time>2012-01-28T12:27:51Z</time>
      </trkpt>
      <trkpt lat="42.78226" lon="0.45011">
        <ele>1866.508556</ele>
        <time>2012-01-28T12:27:53Z</time>
      </trkpt>
      <trkpt lat="42.7822" lon="0.45013">
        <ele>1868.508537</ele>
        <time>2012-01-28T12:27:55Z</time>
      </trkpt>
      <trkpt lat="42.78213" lon="0.45016">
        <ele>1870.508514</ele>
        <time>2012-01-28T12:27:57Z</time>
      </trkpt>
      <trkpt lat="42.78207" lon="0.45019">
        <ele>1872.508488</ele>
        <time>2012-01-28T12:27:59Z</time>
      </trkpt>
      <trkpt lat="42.78201" lon="0.45022">
        <ele>1873.508469</ele>
        <time>2012-01-28T12:28:01Z</time>
      </trkpt>
      <trkpt lat="42.78199" lon="0.45023">
        <ele>1874.508461</ele>
        <time>2012-01-28T12:28:02Z</time>
      </trkpt>
      <trkpt lat="42.78193" lon="0.45027">
        <ele>1875.508442</ele>
        <time>2012-01-28T12:28:04Z</time>
      </trkpt>
      <trkpt lat="42.78187" lon="0.45031">
        <ele>1876.508419</ele>
        <time>2012-01-28T12:28:06Z</time>
      </trkpt>
      <trkpt lat="42.7818" lon="0.45037">
        <ele>1878.508404</ele>
        <time>2012-01-28T12:28:08Z</time>
      </trkpt>
      <trkpt lat="42.78176" lon="0.45039">
        <ele>1879.508392</ele>
        <time>2012-01-28T12:28:09Z</time>
      </trkpt>
      <trkpt lat="42.78168" lon="0.45044">
        <ele>1881.508366</ele>
        <time>2012-01-28T12:28:11Z</time>
      </trkpt>
      <trkpt lat="42.7816" lon="0.45049">
        <ele>1882.508347</ele>
        <time>2012-01-28T12:28:13Z</time>
      </trkpt>
      <trkpt lat="42.78153" lon="0.45054">
        <ele>1883.50832</ele>
        <time>2012-01-28T12:28:15Z</time>
      </trkpt>
      <trkpt lat="42.78145" lon="0.45059">
        <ele>1885.508297</ele>
        <time>2012-01-28T12:28:17Z</time>
      </trkpt>
      <trkpt lat="42.78137" lon="0.45063">
        <ele>1887.508266</ele>
        <time>2012-01-28T12:28:19Z</time>
      </trkpt>
      <trkpt lat="42.78133" lon="0.45066">
        <ele>1888.508255</ele>
        <time>2012-01-28T12:28:20Z</time>
      </trkpt>
      <trkpt lat="42.78126" lon="0.45071">
        <ele>1890.508236</ele>
        <time>2012-01-28T12:28:22Z</time>
      </trkpt>
      <trkpt lat="42.78122" lon="0.45074">
        <ele>1891.508224</ele>
        <time>2012-01-28T12:28:23Z</time>
      </trkpt>
      <trkpt lat="42.78114" lon="0.45079">
        <ele>1893.508205</ele>
        <time>2012-01-28T12:28:25Z</time>
      </trkpt>
      <trkpt lat="42.78107" lon="0.45085">
        <ele>1894.508183</ele>
        <time>2012-01-28T12:28:27Z</time>
      </trkpt>
      <trkpt lat="42.78099" lon="0.4509">
        <ele>1897.508156</ele>
        <time>2012-01-28T12:28:29Z</time>
      </trkpt>
      <trkpt lat="42.78091" lon="0.45094">
        <ele>1899.508129</ele>
        <time>2012-01-28T12:28:31Z</time>
      </trkpt>
      <trkpt lat="42.78084" lon="0.45099">
        <ele>1902.508106</ele>
        <time>2012-01-28T12:28:33Z</time>
      </trkpt>
      <trkpt lat="42.78077" lon="0.45103">
        <ele>1905.508087</ele>
        <time>2012-01-28T12:28:35Z</time>
      </trkpt>
      <trkpt lat="42.78073" lon="0.45105">
        <ele>1907.508072</ele>
        <time>2012-01-28T12:28:36Z</time>
      </trkpt>
      <trkpt lat="42.78067" lon="0.45109">
        <ele>1910.508053</ele>
        <time>2012-01-28T12:28:38Z</time>
      </trkpt>
      <trkpt lat="42.7806" lon="0.45114">
        <ele>1914.508038</ele>
        <time>2012-01-28T12:28:40Z</time>
      </trkpt>
      <trkpt lat="42.78053" lon="0.45118">
        <ele>1919.508011</ele>
        <time>2012-01-28T12:28:42Z</time>
      </trkpt>
      <trkpt lat="42.78047" lon="0.45123">
        <ele>1925.507996</ele>
        <time>2012-01-28T12:28:44Z</time>
      </trkpt>
      <trkpt lat="42.78042" lon="0.45128">
        <ele>1933.507988</ele>
        <time>2012-01-28T12:28:46Z</time>
      </trkpt>
      <trkpt lat="42.7804" lon="0.45131">
        <ele>1937.507984</ele>
        <time>2012-01-28T12:28:47Z</time>
      </trkpt>
      <trkpt lat="42.78035" lon="0.45137">
        <ele>1944.507977</ele>
        <time>2012-01-28T12:28:49Z</time>
      </trkpt>
      <trkpt lat="42.7803" lon="0.45143">
        <ele>1952.507965</ele>
        <time>2012-01-28T12:28:51Z</time>
      </trkpt>
      <trkpt lat="42.78025" lon="0.4515">
        <ele>1959.507957</ele>
        <time>2012-01-28T12:28:53Z</time>
      </trkpt>
      <trkpt lat="42.7802" lon="0.45156">
        <ele>1965.507954</ele>
        <time>2012-01-28T12:28:55Z</time>
      </trkpt>
      <trkpt lat="42.78014" lon="0.45161">
        <ele>1970.507942</ele>
        <time>2012-01-28T12:28:57Z</time>
      </trkpt>
      <trkpt lat="42.78009" lon="0.45167">
        <ele>1975.507935</ele>
        <time>2012-01-28T12:28:59Z</time>
      </trkpt>
      <trkpt lat="42.78003" lon="0.45173">
        <ele>1979.507919</ele>
        <time>2012-01-28T12:29:01Z</time>
      </trkpt>
      <trkpt lat="42.77998" lon="0.45179">
        <ele>1982.507904</ele>
        <time>2012-01-28T12:29:03Z</time>
      </trkpt>
      <trkpt lat="42.77992" lon="0.45184">
        <ele>1985.507893</ele>
        <time>2012-01-28T12:29:05Z</time>
      </trkpt>
      <trkpt lat="42.77985" lon="0.4519">
        <ele>1987.507881</ele>
        <time>2012-01-28T12:29:07Z</time>
      </trkpt>
      <trkpt lat="42.77979" lon="0.45196">
        <ele>1989.507858</ele>
        <time>2012-01-28T12:29:09Z</time>
      </trkpt>
      <trkpt lat="42.77973" lon="0.45201">
        <ele>1991.507843</ele>
        <time>2012-01-28T12:29:11Z</time>
      </trkpt>
      <trkpt lat="42.77967" lon="0.45206">
        <ele>1993.507828</ele>
        <time>2012-01-28T12:29:13Z</time>
      </trkpt>
      <trkpt lat="42.7796" lon="0.45211">
        <ele>1994.507809</ele>
        <time>2012-01-28T12:29:15Z</time>
      </trkpt>
      <trkpt lat="42.77954" lon="0.45216">
        <ele>1996.50779</ele>
        <time>2012-01-28T12:29:17Z</time>
      </trkpt>
      <trkpt lat="42.77947" lon="0.45222">
        <ele>1997.507774</ele>
        <time>2012-01-28T12:29:19Z</time>
      </trkpt>
      <trkpt lat="42.7794" lon="0.45227">
        <ele>1998.507755</ele>
        <time>2012-01-28T12:29:21Z</time>
      </trkpt>
      <trkpt lat="42.77933" lon="0.45232">
        <ele>1998.507732</ele>
        <time>2012-01-28T12:29:23Z</time>
      </trkpt>
      <trkpt lat="42.77927" lon="0.45237">
        <ele>1999.507717</ele>
        <time>2012-01-28T12:29:25Z</time>
      </trkpt>
      <trkpt lat="42.7792" lon="0.45241">
        <ele>2001.507698</ele>
        <time>2012-01-28T12:29:27Z</time>
      </trkpt>
      <trkpt lat="42.77914" lon="0.45247">
        <ele>2002.507679</ele>
        <time>2012-01-28T12:29:29Z</time>
      </trkpt>
      <trkpt lat="42.77907" lon="0.45252">
        <ele>2004.507664</ele>
        <time>2012-01-28T12:29:31Z</time>
      </trkpt>
      <trkpt lat="42.77901" lon="0.45256">
        <ele>2005.507645</ele>
        <time>2012-01-28T12:29:33Z</time>
      </trkpt>
      <trkpt lat="42.77894" lon="0.45261">
        <ele>2007.507626</ele>
        <time>2012-01-28T12:29:35Z</time>
      </trkpt>
      <trkpt lat="42.77887" lon="0.45266">
        <ele>2007.507607</ele>
        <time>2012-01-28T12:29:37Z</time>
      </trkpt>
      <trkpt lat="42.77881" lon="0.4527">
        <ele>2008.507587</ele>
        <time>2012-01-28T12:29:39Z</time>
      </trkpt>
      <trkpt lat="42.77874" lon="0.45275">
        <ele>2009.507565</ele>
        <time>2012-01-28T12:29:41Z</time>
      </trkpt>
      <trkpt lat="42.77867" lon="0.4528">
        <ele>2011.507545</ele>
        <time>2012-01-28T12:29:43Z</time>
      </trkpt>
      <trkpt lat="42.7786" lon="0.45285">
        <ele>2011.507523</ele>
        <time>2012-01-28T12:29:45Z</time>
      </trkpt>
      <trkpt lat="42.77853" lon="0.4529">
        <ele>2012.507507</ele>
        <time>2012-01-28T12:29:47Z</time>
      </trkpt>
      <trkpt lat="42.77849" lon="0.45293">
        <ele>2012.507496</ele>
        <time>2012-01-28T12:29:48Z</time>
      </trkpt>
      <trkpt lat="42.77842" lon="0.45298">
        <ele>2012.507473</ele>
        <time>2012-01-28T12:29:50Z</time>
      </trkpt>
      <trkpt lat="42.77834" lon="0.45304">
        <ele>2013.50745</ele>
        <time>2012-01-28T12:29:52Z</time>
      </trkpt>
      <trkpt lat="42.77827" lon="0.45309">
        <ele>2014.507435</ele>
        <time>2012-01-28T12:29:54Z</time>
      </trkpt>
      <trkpt lat="42.7782" lon="0.45315">
        <ele>2015.507416</ele>
        <time>2012-01-28T12:29:56Z</time>
      </trkpt>
      <trkpt lat="42.77816" lon="0.45317">
        <ele>2015.507397</ele>
        <time>2012-01-28T12:29:57Z</time>
      </trkpt>
      <trkpt lat="42.77809" lon="0.45322">
        <ele>2016.507378</ele>
        <time>2012-01-28T12:29:59Z</time>
      </trkpt>
      <trkpt lat="42.77802" lon="0.45327">
        <ele>2017.507355</ele>
        <time>2012-01-28T12:30:01Z</time>
      </trkpt>
      <trkpt lat="42.77795" lon="0.45331">
        <ele>2018.507336</ele>
        <time>2012-01-28T12:30:03Z</time>
      </trkpt>
      <trkpt lat="42.77788" lon="0.45336">
        <ele>2018.507313</ele>
        <time>2012-01-28T12:30:05Z</time>
      </trkpt>
      <trkpt lat="42.77781" lon="0.45341">
        <ele>2019.507298</ele>
        <time>2012-01-28T12:30:07Z</time>
      </trkpt>
      <trkpt lat="42.77774" lon="0.45345">
        <ele>2020.507275</ele>
        <time>2012-01-28T12:30:09Z</time>
      </trkpt>
      <trkpt lat="42.77768" lon="0.45349">
        <ele>2021.507252</ele>
        <time>2012-01-28T12:30:11Z</time>
      </trkpt>
      <trkpt lat="42.77761" lon="0.45354">
        <ele>2022.507236</ele>
        <time>2012-01-28T12:30:13Z</time>
      </trkpt>
      <trkpt lat="42.77755" lon="0.45358">
        <ele>2024.507217</ele>
        <time>2012-01-28T12:30:15Z</time>
      </trkpt>
      <trkpt lat="42.77748" lon="0.45362">
        <ele>2026.507191</ele>
        <time>2012-01-28T12:30:17Z</time>
      </trkpt>
      <trkpt lat="42.77741" lon="0.45366">
        <ele>2027.507172</ele>
        <time>2012-01-28T12:30:19Z</time>
      </trkpt>
      <trkpt lat="42.77738" lon="0.45369">
        <ele>2027.50716</ele>
        <time>2012-01-28T12:30:20Z</time>
      </trkpt>
      <trkpt lat="42.77731" lon="0.45374">
        <ele>2028.507145</ele>
        <time>2012-01-28T12:30:22Z</time>
      </trkpt>
      <trkpt lat="42.77724" lon="0.45378">
        <ele>2029.507118</ele>
        <time>2012-01-28T12:30:24Z</time>
      </trkpt>
      <trkpt lat="42.77718" lon="0.45383">
        <ele>2031.507107</ele>
        <time>2012-01-28T12:30:26Z</time>
      </trkpt>
      <trkpt lat="42.77711" lon="0.45387">
        <ele>2032.507084</ele>
        <time>2012-01-28T12:30:28Z</time>
      </trkpt>
      <trkpt lat="42.77705" lon="0.45391">
        <ele>2034.507061</ele>
        <time>2012-01-28T12:30:30Z</time>
      </trkpt>
      <trkpt lat="42.77698" lon="0.45395">
        <ele>2034.507038</ele>
        <time>2012-01-28T12:30:32Z</time>
      </trkpt>
      <trkpt lat="42.77694" lon="0.45397">
        <ele>2035.507027</ele>
        <time>2012-01-28T12:30:33Z</time>
      </trkpt>
      <trkpt lat="42.77687" lon="0.45401">
        <ele>2036.507004</ele>
        <time>2012-01-28T12:30:35Z</time>
      </trkpt>
      <trkpt lat="42.77684" lon="0.45403">
        <ele>2037.506992</ele>
        <time>2012-01-28T12:30:36Z</time>
      </trkpt>
      <trkpt lat="42.77677" lon="0.45407">
        <ele>2037.506969</ele>
        <time>2012-01-28T12:30:38Z</time>
      </trkpt>
      <trkpt lat="42.7767" lon="0.45411">
        <ele>2038.50695</ele>
        <time>2012-01-28T12:30:40Z</time>
      </trkpt>
      <trkpt lat="42.77663" lon="0.45416">
        <ele>2039.506931</ele>
        <time>2012-01-28T12:30:42Z</time>
      </trkpt>
      <trkpt lat="42.77656" lon="0.45421">
        <ele>2041.506908</ele>
        <time>2012-01-28T12:30:44Z</time>
      </trkpt>
      <trkpt lat="42.77649" lon="0.45426">
        <ele>2042.506889</ele>
        <time>2012-01-28T12:30:46Z</time>
      </trkpt>
      <trkpt lat="42.77642" lon="0.45431">
        <ele>2044.506866</ele>
        <time>2012-01-28T12:30:48Z</time>
      </trkpt>
      <trkpt lat="42.77635" lon="0.45436">
        <ele>2045.506844</ele>
        <time>2012-01-28T12:30:50Z</time>
      </trkpt>
      <trkpt lat="42.77631" lon="0.45438">
        <ele>2046.506832</ele>
        <time>2012-01-28T12:30:51Z</time>
      </trkpt>
      <trkpt lat="42.77624" lon="0.45443">
        <ele>2048.506809</ele>
        <time>2012-01-28T12:30:53Z</time>
      </trkpt>
      <trkpt lat="42.77617" lon="0.45447">
        <ele>2051.506786</ele>
        <time>2012-01-28T12:30:55Z</time>
      </trkpt>
      <trkpt lat="42.77613" lon="0.4545">
        <ele>2053.506783</ele>
        <time>2012-01-28T12:30:56Z</time>
      </trkpt>
      <trkpt lat="42.77606" lon="0.45454">
        <ele>2056.506756</ele>
        <time>2012-01-28T12:30:58Z</time>
      </trkpt>
      <trkpt lat="42.77603" lon="0.45456">
        <ele>2058.506744</ele>
        <time>2012-01-28T12:30:59Z</time>
      </trkpt>
      <trkpt lat="42.77596" lon="0.45461">
        <ele>2061.506721</ele>
        <time>2012-01-28T12:31:01Z</time>
      </trkpt>
      <trkpt lat="42.77589" lon="0.45467">
        <ele>2064.506706</ele>
        <time>2012-01-28T12:31:03Z</time>
      </trkpt>
      <trkpt lat="42.77582" lon="0.45472">
        <ele>2067.50668</ele>
        <time>2012-01-28T12:31:05Z</time>
      </trkpt>
      <trkpt lat="42.77575" lon="0.45477">
        <ele>2071.506664</ele>
        <time>2012-01-28T12:31:07Z</time>
      </trkpt>
      <trkpt lat="42.77572" lon="0.45479">
        <ele>2073.506653</ele>
        <time>2012-01-28T12:31:08Z</time>
      </trkpt>
      <trkpt lat="42.77566" lon="0.45485">
        <ele>2078.506638</ele>
        <time>2012-01-28T12:31:10Z</time>
      </trkpt>
      <trkpt lat="42.7756" lon="0.4549">
        <ele>2082.50663</ele>
        <time>2012-01-28T12:31:12Z</time>
      </trkpt>
      <trkpt lat="42.77554" lon="0.45495">
        <ele>2085.506615</ele>
        <time>2012-01-28T12:31:14Z</time>
      </trkpt>
      <trkpt lat="42.77548" lon="0.455">
        <ele>2089.506599</ele>
        <time>2012-01-28T12:31:16Z</time>
      </trkpt>
      <trkpt lat="42.77542" lon="0.45505">
        <ele>2092.50658</ele>
        <time>2012-01-28T12:31:18Z</time>
      </trkpt>
      <trkpt lat="42.77538" lon="0.45507">
        <ele>2094.506573</ele>
        <time>2012-01-28T12:31:19Z</time>
      </trkpt>
      <trkpt lat="42.77532" lon="0.45512">
        <ele>2097.50655</ele>
        <time>2012-01-28T12:31:21Z</time>
      </trkpt>
      <trkpt lat="42.77525" lon="0.45517">
        <ele>2101.506535</ele>
        <time>2012-01-28T12:31:23Z</time>
      </trkpt>
      <trkpt lat="42.77519" lon="0.45522">
        <ele>2104.506516</ele>
        <time>2012-01-28T12:31:25Z</time>
      </trkpt>
      <trkpt lat="42.77513" lon="0.45527">
        <ele>2108.506496</ele>
        <time>2012-01-28T12:31:27Z</time>
      </trkpt>
      <trkpt lat="42.77506" lon="0.45531">
        <ele>2111.506481</ele>
        <time>2012-01-28T12:31:29Z</time>
      </trkpt>
      <trkpt lat="42.775" lon="0.45536">
        <ele>2115.506462</ele>
        <time>2012-01-28T12:31:31Z</time>
      </trkpt>
      <trkpt lat="42.77497" lon="0.45539">
        <ele>2116.506454</ele>
        <time>2012-01-28T12:31:32Z</time>
      </trkpt>
      <trkpt lat="42.7749" lon="0.45544">
        <ele>2120.506439</ele>
        <time>2012-01-28T12:31:34Z</time>
      </trkpt>
      <trkpt lat="42.77484" lon="0.45549">
        <ele>2123.506424</ele>
        <time>2012-01-28T12:31:36Z</time>
      </trkpt>
      <trkpt lat="42.77477" lon="0.45554">
        <ele>2127.506397</ele>
        <time>2012-01-28T12:31:38Z</time>
      </trkpt>
      <trkpt lat="42.77474" lon="0.45557">
        <ele>2129.50639</ele>
        <time>2012-01-28T12:31:39Z</time>
      </trkpt>
      <trkpt lat="42.77468" lon="0.45562">
        <ele>2132.506371</ele>
        <time>2012-01-28T12:31:41Z</time>
      </trkpt>
      <trkpt lat="42.77464" lon="0.45564">
        <ele>2134.506367</ele>
        <time>2012-01-28T12:31:42Z</time>
      </trkpt>
      <trkpt lat="42.77458" lon="0.45569">
        <ele>2137.506348</ele>
        <time>2012-01-28T12:31:44Z</time>
      </trkpt>
      <trkpt lat="42.77452" lon="0.45574">
        <ele>2138.506332</ele>
        <time>2012-01-28T12:31:46Z</time>
      </trkpt>
      <trkpt lat="42.77446" lon="0.45578">
        <ele>2139.506313</ele>
        <time>2012-01-28T12:31:48Z</time>
      </trkpt>
      <trkpt lat="42.7744" lon="0.45584">
        <ele>2141.506302</ele>
        <time>2012-01-28T12:31:50Z</time>
      </trkpt>
      <trkpt lat="42.77436" lon="0.4559">
        <ele>2143.506294</ele>
        <time>2012-01-28T12:31:52Z</time>
      </trkpt>
      <trkpt lat="42.77431" lon="0.45595">
        <ele>2144.50629</ele>
        <time>2012-01-28T12:31:54Z</time>
      </trkpt>
      <trkpt lat="42.77427" lon="0.456">
        <ele>2145.506283</ele>
        <time>2012-01-28T12:31:56Z</time>
      </trkpt>
      <trkpt lat="42.77422" lon="0.45606">
        <ele>2145.506279</ele>
        <time>2012-01-28T12:31:59Z</time>
      </trkpt>
      <trkpt lat="42.77419" lon="0.4561">
        <ele>2146.506271</ele>
        <time>2012-01-28T12:32:01Z</time>
      </trkpt>
      <trkpt lat="42.77426" lon="0.4561">
        <ele>2150.506302</ele>
        <time>2012-01-28T12:32:05Z</time>
      </trkpt>
      <trkpt lat="42.77418" lon="0.45578">
        <ele>2206.50618</ele>
        <time>2012-01-28T12:32:42Z</time>
      </trkpt>
      <trkpt lat="42.7741" lon="0.45571">
        <ele>2214.506123</ele>
        <time>2012-01-28T12:32:52Z</time>
      </trkpt>
      <trkpt lat="42.7741" lon="0.45571">
        <ele>2214.506123</ele>
        <time>2012-01-28T12:32:53Z</time>
      </trkpt>
      <trkpt lat="42.77401" lon="0.45572">
        <ele>2231.506092</ele>
        <time>2012-01-28T12:33:58Z</time>
      </trkpt>
      <trkpt lat="42.77396" lon="0.45569">
        <ele>2231.50605</ele>
        <time>2012-01-28T12:34:01Z</time>
      </trkpt>
      <trkpt lat="42.77396" lon="0.45569">
        <ele>2231.50605</ele>
        <time>2012-01-28T12:34:03Z</time>
      </trkpt>
      <trkpt lat="42.77386" lon="0.45564">
        <ele>2231.505997</ele>
        <time>2012-01-28T12:34:05Z</time>
      </trkpt>
      <trkpt lat="42.7738" lon="0.45561">
        <ele>2231.505955</ele>
        <time>2012-01-28T12:34:07Z</time>
      </trkpt>
      <trkpt lat="42.77373" lon="0.45559">
        <ele>2232.505917</ele>
        <time>2012-01-28T12:34:09Z</time>
      </trkpt>
      <trkpt lat="42.77366" lon="0.45556">
        <ele>2232.505867</ele>
        <time>2012-01-28T12:34:11Z</time>
      </trkpt>
      <trkpt lat="42.77358" lon="0.45554">
        <ele>2232.505825</ele>
        <time>2012-01-28T12:34:13Z</time>
      </trkpt>
      <trkpt lat="42.77349" lon="0.45554">
        <ele>2232.505791</ele>
        <time>2012-01-28T12:34:15Z</time>
      </trkpt>
      <trkpt lat="42.77345" lon="0.45554">
        <ele>2232.505768</ele>
        <time>2012-01-28T12:34:16Z</time>
      </trkpt>
      <trkpt lat="42.7734" lon="0.45554">
        <ele>2232.505745</ele>
        <time>2012-01-28T12:34:17Z</time>
      </trkpt>
      <trkpt lat="42.77335" lon="0.45553">
        <ele>2232.505722</ele>
        <time>2012-01-28T12:34:18Z</time>
      </trkpt>
      <trkpt lat="42.7733" lon="0.45552">
        <ele>2232.505695</ele>
        <time>2012-01-28T12:34:19Z</time>
      </trkpt>
      <trkpt lat="42.77326" lon="0.45551">
        <ele>2232.505672</ele>
        <time>2012-01-28T12:34:20Z</time>
      </trkpt>
      <trkpt lat="42.77321" lon="0.45549">
        <ele>2232.505646</ele>
        <time>2012-01-28T12:34:21Z</time>
      </trkpt>
      <trkpt lat="42.77316" lon="0.45547">
        <ele>2233.505611</ele>
        <time>2012-01-28T12:34:22Z</time>
      </trkpt>
      <trkpt lat="42.77311" lon="0.45544">
        <ele>2232.505581</ele>
        <time>2012-01-28T12:34:23Z</time>
      </trkpt>
      <trkpt lat="42.77305" lon="0.45541">
        <ele>2233.505539</ele>
        <time>2012-01-28T12:34:24Z</time>
      </trkpt>
      <trkpt lat="42.77299" lon="0.45537">
        <ele>2233.505512</ele>
        <time>2012-01-28T12:34:25Z</time>
      </trkpt>
      <trkpt lat="42.77294" lon="0.45533">
        <ele>2233.505474</ele>
        <time>2012-01-28T12:34:27Z</time>
      </trkpt>
      <trkpt lat="42.77288" lon="0.45529">
        <ele>2232.505432</ele>
        <time>2012-01-28T12:34:28Z</time>
      </trkpt>
      <trkpt lat="42.77282" lon="0.45525">
        <ele>2232.505394</ele>
        <time>2012-01-28T12:34:28Z</time>
      </trkpt>
      <trkpt lat="42.77277" lon="0.45522">
        <ele>2232.50536</ele>
        <time>2012-01-28T12:34:29Z</time>
      </trkpt>
      <trkpt lat="42.77271" lon="0.45519">
        <ele>2232.505325</ele>
        <time>2012-01-28T12:34:30Z</time>
      </trkpt>
      <trkpt lat="42.77265" lon="0.45517">
        <ele>2233.505295</ele>
        <time>2012-01-28T12:34:31Z</time>
      </trkpt>
      <trkpt lat="42.7726" lon="0.45515">
        <ele>2233.505257</ele>
        <time>2012-01-28T12:34:32Z</time>
      </trkpt>
      <trkpt lat="42.77254" lon="0.45513">
        <ele>2233.50523</ele>
        <time>2012-01-28T12:34:33Z</time>
      </trkpt>
      <trkpt lat="42.77249" lon="0.4551">
        <ele>2233.505196</ele>
        <time>2012-01-28T12:34:34Z</time>
      </trkpt>
      <trkpt lat="42.77244" lon="0.45508">
        <ele>2232.505161</ele>
        <time>2012-01-28T12:34:35Z</time>
      </trkpt>
      <trkpt lat="42.77239" lon="0.45506">
        <ele>2232.505138</ele>
        <time>2012-01-28T12:34:36Z</time>
      </trkpt>
      <trkpt lat="42.77234" lon="0.45504">
        <ele>2232.505112</ele>
        <time>2012-01-28T12:34:37Z</time>
      </trkpt>
      <trkpt lat="42.7723" lon="0.45502">
        <ele>2232.505081</ele>
        <time>2012-01-28T12:34:38Z</time>
      </trkpt>
      <trkpt lat="42.77226" lon="0.455">
        <ele>2231.505054</ele>
        <time>2012-01-28T12:34:39Z</time>
      </trkpt>
      <trkpt lat="42.77219" lon="0.45496">
        <ele>2231.505016</ele>
        <time>2012-01-28T12:34:41Z</time>
      </trkpt>
      <trkpt lat="42.77214" lon="0.45494">
        <ele>2231.50499</ele>
        <time>2012-01-28T12:34:43Z</time>
      </trkpt>
      <trkpt lat="42.77201" lon="0.45487">
        <ele>2230.504906</ele>
        <time>2012-01-28T12:34:56Z</time>
      </trkpt>
      <trkpt lat="42.77197" lon="0.45484">
        <ele>2229.504883</ele>
        <time>2012-01-28T12:34:59Z</time>
      </trkpt>
      <trkpt lat="42.77192" lon="0.45481">
        <ele>2228.504852</ele>
        <time>2012-01-28T12:35:01Z</time>
      </trkpt>
      <trkpt lat="42.77186" lon="0.45476">
        <ele>2228.50481</ele>
        <time>2012-01-28T12:35:03Z</time>
      </trkpt>
      <trkpt lat="42.7718" lon="0.45469">
        <ele>2228.504761</ele>
        <time>2012-01-28T12:35:05Z</time>
      </trkpt>
      <trkpt lat="42.77173" lon="0.45462">
        <ele>2227.504707</ele>
        <time>2012-01-28T12:35:07Z</time>
      </trkpt>
      <trkpt lat="42.77168" lon="0.45455">
        <ele>2227.504665</ele>
        <time>2012-01-28T12:35:09Z</time>
      </trkpt>
      <trkpt lat="42.77163" lon="0.45451">
        <ele>2227.504635</ele>
        <time>2012-01-28T12:35:11Z</time>
      </trkpt>
      <trkpt lat="42.77158" lon="0.45446">
        <ele>2226.504593</ele>
        <time>2012-01-28T12:35:14Z</time>
      </trkpt>
      <trkpt lat="42.77157" lon="0.45445">
        <ele>2226.504585</ele>
        <time>2012-01-28T12:35:15Z</time>
      </trkpt>
      <trkpt lat="42.77152" lon="0.45443">
        <ele>2226.504559</ele>
        <time>2012-01-28T12:35:18Z</time>
      </trkpt>
      <trkpt lat="42.77154" lon="0.45453">
        <ele>2219.504593</ele>
        <time>2012-01-28T12:35:57Z</time>
      </trkpt>
      <trkpt lat="42.77156" lon="0.45465">
        <ele>2219.504642</ele>
        <time>2012-01-28T12:36:32Z</time>
      </trkpt>
      <trkpt lat="42.77162" lon="0.45477">
        <ele>2219.504696</ele>
        <time>2012-01-28T12:36:39Z</time>
      </trkpt>
      <trkpt lat="42.77171" lon="0.45482">
        <ele>2221.504753</ele>
        <time>2012-01-28T12:36:48Z</time>
      </trkpt>
      <trkpt lat="42.77178" lon="0.45486">
        <ele>2221.504795</ele>
        <time>2012-01-28T12:37:42Z</time>
      </trkpt>
      <trkpt lat="42.77178" lon="0.45486">
        <ele>2221.504795</ele>
        <time>2012-01-28T12:37:43Z</time>
      </trkpt>
      <trkpt lat="42.77178" lon="0.45494">
        <ele>2223.504818</ele>
        <time>2012-01-28T12:38:16Z</time>
      </trkpt>
      <trkpt lat="42.7718" lon="0.45499">
        <ele>2222.504841</ele>
        <time>2012-01-28T12:38:17Z</time>
      </trkpt>
      <trkpt lat="42.77186" lon="0.45508">
        <ele>2221.50489</ele>
        <time>2012-01-28T12:38:18Z</time>
      </trkpt>
      <trkpt lat="42.77194" lon="0.45517">
        <ele>2221.504951</ele>
        <time>2012-01-28T12:38:19Z</time>
      </trkpt>
      <trkpt lat="42.77201" lon="0.45526">
        <ele>2220.505013</ele>
        <time>2012-01-28T12:38:20Z</time>
      </trkpt>
      <trkpt lat="42.77209" lon="0.45535">
        <ele>2219.505077</ele>
        <time>2012-01-28T12:38:21Z</time>
      </trkpt>
      <trkpt lat="42.77218" lon="0.45544">
        <ele>2218.505135</ele>
        <time>2012-01-28T12:38:22Z</time>
      </trkpt>
      <trkpt lat="42.77226" lon="0.45552">
        <ele>2218.505203</ele>
        <time>2012-01-28T12:38:23Z</time>
      </trkpt>
      <trkpt lat="42.77234" lon="0.45561">
        <ele>2217.505257</ele>
        <time>2012-01-28T12:38:24Z</time>
      </trkpt>
      <trkpt lat="42.77241" lon="0.4557">
        <ele>2216.505314</ele>
        <time>2012-01-28T12:38:25Z</time>
      </trkpt>
      <trkpt lat="42.77249" lon="0.45578">
        <ele>2215.505375</ele>
        <time>2012-01-28T12:38:26Z</time>
      </trkpt>
      <trkpt lat="42.77255" lon="0.45588">
        <ele>2214.505424</ele>
        <time>2012-01-28T12:38:27Z</time>
      </trkpt>
      <trkpt lat="42.77261" lon="0.45598">
        <ele>2214.505489</ele>
        <time>2012-01-28T12:38:28Z</time>
      </trkpt>
      <trkpt lat="42.77267" lon="0.45608">
        <ele>2213.505539</ele>
        <time>2012-01-28T12:38:29Z</time>
      </trkpt>
      <trkpt lat="42.77273" lon="0.45617">
        <ele>2212.505596</ele>
        <time>2012-01-28T12:38:30Z</time>
      </trkpt>
      <trkpt lat="42.77279" lon="0.45624">
        <ele>2211.505642</ele>
        <time>2012-01-28T12:38:31Z</time>
      </trkpt>
      <trkpt lat="42.77286" lon="0.45631">
        <ele>2211.505692</ele>
        <time>2012-01-28T12:38:32Z</time>
      </trkpt>
      <trkpt lat="42.77293" lon="0.45638">
        <ele>2210.505737</ele>
        <time>2012-01-28T12:38:33Z</time>
      </trkpt>
      <trkpt lat="42.773" lon="0.45645">
        <ele>2210.505787</ele>
        <time>2012-01-28T12:38:34Z</time>
      </trkpt>
      <trkpt lat="42.77306" lon="0.45652">
        <ele>2209.50584</ele>
        <time>2012-01-28T12:38:35Z</time>
      </trkpt>
      <trkpt lat="42.77313" lon="0.4566">
        <ele>2209.50589</ele>
        <time>2012-01-28T12:38:36Z</time>
      </trkpt>
      <trkpt lat="42.77319" lon="0.45668">
        <ele>2208.505943</ele>
        <time>2012-01-28T12:38:37Z</time>
      </trkpt>
      <trkpt lat="42.77325" lon="0.45677">
        <ele>2207.505993</ele>
        <time>2012-01-28T12:38:38Z</time>
      </trkpt>
      <trkpt lat="42.7733" lon="0.45686">
        <ele>2206.506046</ele>
        <time>2012-01-28T12:38:39Z</time>
      </trkpt>
      <trkpt lat="42.77336" lon="0.45695">
        <ele>2205.506092</ele>
        <time>2012-01-28T12:38:40Z</time>
      </trkpt>
      <trkpt lat="42.77341" lon="0.45704">
        <ele>2205.506149</ele>
        <time>2012-01-28T12:38:41Z</time>
      </trkpt>
      <trkpt lat="42.77347" lon="0.45712">
        <ele>2204.506195</ele>
        <time>2012-01-28T12:38:42Z</time>
      </trkpt>
      <trkpt lat="42.77354" lon="0.4572">
        <ele>2204.506241</ele>
        <time>2012-01-28T12:38:43Z</time>
      </trkpt>
      <trkpt lat="42.7736" lon="0.45727">
        <ele>2204.506298</ele>
        <time>2012-01-28T12:38:44Z</time>
      </trkpt>
      <trkpt lat="42.77367" lon="0.45735">
        <ele>2203.506348</ele>
        <time>2012-01-28T12:38:45Z</time>
      </trkpt>
      <trkpt lat="42.77373" lon="0.45742">
        <ele>2203.506397</ele>
        <time>2012-01-28T12:38:46Z</time>
      </trkpt>
      <trkpt lat="42.77379" lon="0.45749">
        <ele>2203.506443</ele>
        <time>2012-01-28T12:38:47Z</time>
      </trkpt>
      <trkpt lat="42.77386" lon="0.45756">
        <ele>2202.506493</ele>
        <time>2012-01-28T12:38:48Z</time>
      </trkpt>
      <trkpt lat="42.77391" lon="0.45763">
        <ele>2202.506538</ele>
        <time>2012-01-28T12:38:49Z</time>
      </trkpt>
      <trkpt lat="42.77396" lon="0.45771">
        <ele>2201.506577</ele>
        <time>2012-01-28T12:38:50Z</time>
      </trkpt>
      <trkpt lat="42.774" lon="0.45779">
        <ele>2200.506626</ele>
        <time>2012-01-28T12:38:51Z</time>
      </trkpt>
      <trkpt lat="42.77405" lon="0.45787">
        <ele>2199.506664</ele>
        <time>2012-01-28T12:38:52Z</time>
      </trkpt>
      <trkpt lat="42.77411" lon="0.45794">
        <ele>2198.50671</ele>
        <time>2012-01-28T12:38:53Z</time>
      </trkpt>
      <trkpt lat="42.77418" lon="0.45793">
        <ele>2198.506744</ele>
        <time>2012-01-28T12:38:54Z</time>
      </trkpt>
      <trkpt lat="42.77424" lon="0.45789">
        <ele>2197.506763</ele>
        <time>2012-01-28T12:38:55Z</time>
      </trkpt>
      <trkpt lat="42.7743" lon="0.45786">
        <ele>2197.506783</ele>
        <time>2012-01-28T12:38:56Z</time>
      </trkpt>
      <trkpt lat="42.77436" lon="0.45784">
        <ele>2196.506805</ele>
        <time>2012-01-28T12:38:57Z</time>
      </trkpt>
      <trkpt lat="42.77442" lon="0.45781">
        <ele>2195.506824</ele>
        <time>2012-01-28T12:38:58Z</time>
      </trkpt>
      <trkpt lat="42.77448" lon="0.45777">
        <ele>2194.506844</ele>
        <time>2012-01-28T12:38:59Z</time>
      </trkpt>
      <trkpt lat="42.77454" lon="0.45774">
        <ele>2194.506859</ele>
        <time>2012-01-28T12:39:00Z</time>
      </trkpt>
      <trkpt lat="42.77459" lon="0.45771">
        <ele>2193.506878</ele>
        <time>2012-01-28T12:39:01Z</time>
      </trkpt>
      <trkpt lat="42.77464" lon="0.45773">
        <ele>2192.506908</ele>
        <time>2012-01-28T12:39:03Z</time>
      </trkpt>
      <trkpt lat="42.77471" lon="0.45775">
        <ele>2191.506943</ele>
        <time>2012-01-28T12:39:05Z</time>
      </trkpt>
      <trkpt lat="42.77478" lon="0.45776">
        <ele>2190.506985</ele>
        <time>2012-01-28T12:39:07Z</time>
      </trkpt>
      <trkpt lat="42.77481" lon="0.45782">
        <ele>2189.507015</ele>
        <time>2012-01-28T12:39:08Z</time>
      </trkpt>
      <trkpt lat="42.77488" lon="0.45787">
        <ele>2187.507057</ele>
        <time>2012-01-28T12:39:10Z</time>
      </trkpt>
      <trkpt lat="42.77495" lon="0.4579">
        <ele>2186.507103</ele>
        <time>2012-01-28T12:39:12Z</time>
      </trkpt>
      <trkpt lat="42.77504" lon="0.4579">
        <ele>2184.507145</ele>
        <time>2012-01-28T12:39:14Z</time>
      </trkpt>
      <trkpt lat="42.77509" lon="0.45791">
        <ele>2184.507168</ele>
        <time>2012-01-28T12:39:15Z</time>
      </trkpt>
      <trkpt lat="42.77512" lon="0.45795">
        <ele>2184.507202</ele>
        <time>2012-01-28T12:39:16Z</time>
      </trkpt>
      <trkpt lat="42.77515" lon="0.458">
        <ele>2183.507225</ele>
        <time>2012-01-28T12:39:17Z</time>
      </trkpt>
      <trkpt lat="42.7752" lon="0.45803">
        <ele>2182.507252</ele>
        <time>2012-01-28T12:39:18Z</time>
      </trkpt>
      <trkpt lat="42.77524" lon="0.45805">
        <ele>2181.507282</ele>
        <time>2012-01-28T12:39:19Z</time>
      </trkpt>
      <trkpt lat="42.77528" lon="0.45809">
        <ele>2180.507313</ele>
        <time>2012-01-28T12:39:20Z</time>
      </trkpt>
      <trkpt lat="42.77531" lon="0.45816">
        <ele>2180.507347</ele>
        <time>2012-01-28T12:39:21Z</time>
      </trkpt>
      <trkpt lat="42.77535" lon="0.45822">
        <ele>2178.507378</ele>
        <time>2012-01-28T12:39:22Z</time>
      </trkpt>
      <trkpt lat="42.7754" lon="0.45828">
        <ele>2177.507416</ele>
        <time>2012-01-28T12:39:23Z</time>
      </trkpt>
      <trkpt lat="42.77544" lon="0.45833">
        <ele>2176.50745</ele>
        <time>2012-01-28T12:39:24Z</time>
      </trkpt>
      <trkpt lat="42.77549" lon="0.45838">
        <ele>2175.507484</ele>
        <time>2012-01-28T12:39:25Z</time>
      </trkpt>
      <trkpt lat="42.77553" lon="0.45841">
        <ele>2174.507515</ele>
        <time>2012-01-28T12:39:26Z</time>
      </trkpt>
      <trkpt lat="42.77558" lon="0.45841">
        <ele>2173.507538</ele>
        <time>2012-01-28T12:39:27Z</time>
      </trkpt>
      <trkpt lat="42.77565" lon="0.45847">
        <ele>2171.507587</ele>
        <time>2012-01-28T12:39:29Z</time>
      </trkpt>
      <trkpt lat="42.77569" lon="0.45851">
        <ele>2170.50761</ele>
        <time>2012-01-28T12:39:30Z</time>
      </trkpt>
      <trkpt lat="42.77572" lon="0.45859">
        <ele>2168.507648</ele>
        <time>2012-01-28T12:39:32Z</time>
      </trkpt>
      <trkpt lat="42.77579" lon="0.45864">
        <ele>2166.507698</ele>
        <time>2012-01-28T12:39:34Z</time>
      </trkpt>
      <trkpt lat="42.77585" lon="0.4587">
        <ele>2165.50774</ele>
        <time>2012-01-28T12:39:36Z</time>
      </trkpt>
      <trkpt lat="42.77592" lon="0.45876">
        <ele>2163.507793</ele>
        <time>2012-01-28T12:39:38Z</time>
      </trkpt>
      <trkpt lat="42.77596" lon="0.4588">
        <ele>2163.507816</ele>
        <time>2012-01-28T12:39:39Z</time>
      </trkpt>
      <trkpt lat="42.77596" lon="0.45893">
        <ele>2162.507851</ele>
        <time>2012-01-28T12:39:40Z</time>
      </trkpt>
      <trkpt lat="42.77598" lon="0.45901">
        <ele>2162.507885</ele>
        <time>2012-01-28T12:39:41Z</time>
      </trkpt>
      <trkpt lat="42.77604" lon="0.4591">
        <ele>2161.507935</ele>
        <time>2012-01-28T12:39:42Z</time>
      </trkpt>
      <trkpt lat="42.77608" lon="0.45919">
        <ele>2161.50798</ele>
        <time>2012-01-28T12:39:43Z</time>
      </trkpt>
      <trkpt lat="42.7762" lon="0.45925">
        <ele>2159.508053</ele>
        <time>2012-01-28T12:39:44Z</time>
      </trkpt>
      <trkpt lat="42.77629" lon="0.45932">
        <ele>2159.50811</ele>
        <time>2012-01-28T12:39:45Z</time>
      </trkpt>
      <trkpt lat="42.77637" lon="0.4594">
        <ele>2159.508171</ele>
        <time>2012-01-28T12:39:46Z</time>
      </trkpt>
      <trkpt lat="42.77644" lon="0.45951">
        <ele>2156.508228</ele>
        <time>2012-01-28T12:39:47Z</time>
      </trkpt>
      <trkpt lat="42.77651" lon="0.4596">
        <ele>2154.508289</ele>
        <time>2012-01-28T12:39:48Z</time>
      </trkpt>
      <trkpt lat="42.77657" lon="0.45969">
        <ele>2152.508339</ele>
        <time>2012-01-28T12:39:49Z</time>
      </trkpt>
      <trkpt lat="42.77661" lon="0.45977">
        <ele>2151.508381</ele>
        <time>2012-01-28T12:39:50Z</time>
      </trkpt>
      <trkpt lat="42.77665" lon="0.45985">
        <ele>2150.508423</ele>
        <time>2012-01-28T12:39:51Z</time>
      </trkpt>
      <trkpt lat="42.7767" lon="0.45989">
        <ele>2147.508457</ele>
        <time>2012-01-28T12:39:52Z</time>
      </trkpt>
      <trkpt lat="42.77675" lon="0.45992">
        <ele>2145.508488</ele>
        <time>2012-01-28T12:39:53Z</time>
      </trkpt>
      <trkpt lat="42.7768" lon="0.4599">
        <ele>2142.508507</ele>
        <time>2012-01-28T12:39:54Z</time>
      </trkpt>
      <trkpt lat="42.77685" lon="0.45989">
        <ele>2139.508526</ele>
        <time>2012-01-28T12:39:55Z</time>
      </trkpt>
      <trkpt lat="42.7769" lon="0.45986">
        <ele>2137.508541</ele>
        <time>2012-01-28T12:39:56Z</time>
      </trkpt>
      <trkpt lat="42.77697" lon="0.45983">
        <ele>2134.508575</ele>
        <time>2012-01-28T12:39:58Z</time>
      </trkpt>
      <trkpt lat="42.777" lon="0.45982">
        <ele>2132.508583</ele>
        <time>2012-01-28T12:39:59Z</time>
      </trkpt>
      <trkpt lat="42.77705" lon="0.45979">
        <ele>2128.508591</ele>
        <time>2012-01-28T12:40:01Z</time>
      </trkpt>
      <trkpt lat="42.77705" lon="0.45977">
        <ele>2120.508595</ele>
        <time>2012-01-28T12:40:09Z</time>
      </trkpt>
      <trkpt lat="42.77702" lon="0.45966">
        <ele>2110.508549</ele>
        <time>2012-01-28T12:40:13Z</time>
      </trkpt>
      <trkpt lat="42.77697" lon="0.45954">
        <ele>2103.508495</ele>
        <time>2012-01-28T12:40:20Z</time>
      </trkpt>
      <trkpt lat="42.77687" lon="0.45952">
        <ele>2096.508442</ele>
        <time>2012-01-28T12:40:31Z</time>
      </trkpt>
      <trkpt lat="42.77683" lon="0.45959">
        <ele>2096.508442</ele>
        <time>2012-01-28T12:40:34Z</time>
      </trkpt>
      <trkpt lat="42.77679" lon="0.45965">
        <ele>2093.508438</ele>
        <time>2012-01-28T12:40:37Z</time>
      </trkpt>
      <trkpt lat="42.77677" lon="0.45967">
        <ele>2090.50843</ele>
        <time>2012-01-28T12:40:39Z</time>
      </trkpt>
      <trkpt lat="42.77673" lon="0.45973">
        <ele>2087.50843</ele>
        <time>2012-01-28T12:40:43Z</time>
      </trkpt>
      <trkpt lat="42.7767" lon="0.45984">
        <ele>2085.50845</ele>
        <time>2012-01-28T12:40:53Z</time>
      </trkpt>
      <trkpt lat="42.77653" lon="0.45979">
        <ele>2075.508354</ele>
        <time>2012-01-28T12:41:25Z</time>
      </trkpt>
      <trkpt lat="42.77646" lon="0.45974">
        <ele>2076.508305</ele>
        <time>2012-01-28T12:41:27Z</time>
      </trkpt>
      <trkpt lat="42.77639" lon="0.45969">
        <ele>2076.508259</ele>
        <time>2012-01-28T12:41:29Z</time>
      </trkpt>
      <trkpt lat="42.77632" lon="0.45963">
        <ele>2077.508205</ele>
        <time>2012-01-28T12:41:31Z</time>
      </trkpt>
      <trkpt lat="42.77625" lon="0.45957">
        <ele>2077.508152</ele>
        <time>2012-01-28T12:41:33Z</time>
      </trkpt>
      <trkpt lat="42.77618" lon="0.4595">
        <ele>2076.508106</ele>
        <time>2012-01-28T12:41:35Z</time>
      </trkpt>
      <trkpt lat="42.77611" lon="0.45944">
        <ele>2076.508057</ele>
        <time>2012-01-28T12:41:37Z</time>
      </trkpt>
      <trkpt lat="42.77604" lon="0.45938">
        <ele>2078.508011</ele>
        <time>2012-01-28T12:41:39Z</time>
      </trkpt>
      <trkpt lat="42.77598" lon="0.45933">
        <ele>2078.507969</ele>
        <time>2012-01-28T12:41:41Z</time>
      </trkpt>
      <trkpt lat="42.77592" lon="0.45928">
        <ele>2078.507923</ele>
        <time>2012-01-28T12:41:43Z</time>
      </trkpt>
      <trkpt lat="42.77591" lon="0.45926">
        <ele>2078.507912</ele>
        <time>2012-01-28T12:41:45Z</time>
      </trkpt>
      <trkpt lat="42.77585" lon="0.45916">
        <ele>2079.507858</ele>
        <time>2012-01-28T12:41:50Z</time>
      </trkpt>
      <trkpt lat="42.77574" lon="0.45905">
        <ele>2079.507778</ele>
        <time>2012-01-28T12:41:54Z</time>
      </trkpt>
      <trkpt lat="42.77563" lon="0.45897">
        <ele>2079.507706</ele>
        <time>2012-01-28T12:41:57Z</time>
      </trkpt>
      <trkpt lat="42.77558" lon="0.45893">
        <ele>2079.507671</ele>
        <time>2012-01-28T12:41:59Z</time>
      </trkpt>
      <trkpt lat="42.77555" lon="0.45892">
        <ele>2079.507648</ele>
        <time>2012-01-28T12:42:00Z</time>
      </trkpt>
      <trkpt lat="42.77549" lon="0.45889">
        <ele>2079.507618</ele>
        <time>2012-01-28T12:42:02Z</time>
      </trkpt>
      <trkpt lat="42.77538" lon="0.45885">
        <ele>2085.507557</ele>
        <time>2012-01-28T12:42:08Z</time>
      </trkpt>
      <trkpt lat="42.77529" lon="0.45881">
        <ele>2087.507504</ele>
        <time>2012-01-28T12:42:11Z</time>
      </trkpt>
      <trkpt lat="42.77523" lon="0.45876">
        <ele>2088.507458</ele>
        <time>2012-01-28T12:42:13Z</time>
      </trkpt>
      <trkpt lat="42.77516" lon="0.45871">
        <ele>2089.507408</ele>
        <time>2012-01-28T12:42:15Z</time>
      </trkpt>
      <trkpt lat="42.77509" lon="0.45866">
        <ele>2090.507362</ele>
        <time>2012-01-28T12:42:17Z</time>
      </trkpt>
      <trkpt lat="42.77502" lon="0.4586">
        <ele>2090.507317</ele>
        <time>2012-01-28T12:42:19Z</time>
      </trkpt>
      <trkpt lat="42.77495" lon="0.45856">
        <ele>2091.507278</ele>
        <time>2012-01-28T12:42:21Z</time>
      </trkpt>
      <trkpt lat="42.77489" lon="0.45851">
        <ele>2092.507229</ele>
        <time>2012-01-28T12:42:23Z</time>
      </trkpt>
      <trkpt lat="42.77482" lon="0.45847">
        <ele>2093.507191</ele>
        <time>2012-01-28T12:42:25Z</time>
      </trkpt>
      <trkpt lat="42.77477" lon="0.45843">
        <ele>2095.507149</ele>
        <time>2012-01-28T12:42:27Z</time>
      </trkpt>
      <trkpt lat="42.77471" lon="0.45839">
        <ele>2097.507114</ele>
        <time>2012-01-28T12:42:29Z</time>
      </trkpt>
      <trkpt lat="42.77468" lon="0.45837">
        <ele>2098.507099</ele>
        <time>2012-01-28T12:42:30Z</time>
      </trkpt>
      <trkpt lat="42.77462" lon="0.45834">
        <ele>2099.507057</ele>
        <time>2012-01-28T12:42:32Z</time>
      </trkpt>
      <trkpt lat="42.77456" lon="0.4583">
        <ele>2099.507019</ele>
        <time>2012-01-28T12:42:34Z</time>
      </trkpt>
      <trkpt lat="42.7745" lon="0.45826">
        <ele>2099.506981</ele>
        <time>2012-01-28T12:42:36Z</time>
      </trkpt>
      <trkpt lat="42.77444" lon="0.45823">
        <ele>2099.506943</ele>
        <time>2012-01-28T12:42:38Z</time>
      </trkpt>
      <trkpt lat="42.77438" lon="0.45819">
        <ele>2100.506908</ele>
        <time>2012-01-28T12:42:40Z</time>
      </trkpt>
      <trkpt lat="42.77432" lon="0.45815">
        <ele>2101.506866</ele>
        <time>2012-01-28T12:42:42Z</time>
      </trkpt>
      <trkpt lat="42.77427" lon="0.45811">
        <ele>2104.506832</ele>
        <time>2012-01-28T12:42:44Z</time>
      </trkpt>
      <trkpt lat="42.77421" lon="0.45808">
        <ele>2106.506802</ele>
        <time>2012-01-28T12:42:46Z</time>
      </trkpt>
      <trkpt lat="42.77416" lon="0.45805">
        <ele>2109.506763</ele>
        <time>2012-01-28T12:42:48Z</time>
      </trkpt>
      <trkpt lat="42.7741" lon="0.45801">
        <ele>2112.506729</ele>
        <time>2012-01-28T12:42:50Z</time>
      </trkpt>
      <trkpt lat="42.77404" lon="0.45798">
        <ele>2114.506691</ele>
        <time>2012-01-28T12:42:52Z</time>
      </trkpt>
      <trkpt lat="42.77401" lon="0.45796">
        <ele>2115.506676</ele>
        <time>2012-01-28T12:42:53Z</time>
      </trkpt>
      <trkpt lat="42.77397" lon="0.45793">
        <ele>2119.506641</ele>
        <time>2012-01-28T12:42:55Z</time>
      </trkpt>
      <trkpt lat="42.77393" lon="0.4579">
        <ele>2122.506615</ele>
        <time>2012-01-28T12:42:59Z</time>
      </trkpt>
      <trkpt lat="42.77404" lon="0.45779">
        <ele>2127.506638</ele>
        <time>2012-01-28T12:43:04Z</time>
      </trkpt>
      <trkpt lat="42.7741" lon="0.45774">
        <ele>2128.50666</ele>
        <time>2012-01-28T12:43:06Z</time>
      </trkpt>
      <trkpt lat="42.77417" lon="0.4577">
        <ele>2131.50668</ele>
        <time>2012-01-28T12:43:08Z</time>
      </trkpt>
      <trkpt lat="42.77425" lon="0.45766">
        <ele>2133.506702</ele>
        <time>2012-01-28T12:43:10Z</time>
      </trkpt>
      <trkpt lat="42.77434" lon="0.45761">
        <ele>2135.506741</ele>
        <time>2012-01-28T12:43:12Z</time>
      </trkpt>
      <trkpt lat="42.7744" lon="0.45758">
        <ele>2135.506752</ele>
        <time>2012-01-28T12:43:13Z</time>
      </trkpt>
      <trkpt lat="42.77446" lon="0.45755">
        <ele>2135.506775</ele>
        <time>2012-01-28T12:43:14Z</time>
      </trkpt>
      <trkpt lat="42.7745" lon="0.45752">
        <ele>2135.506786</ele>
        <time>2012-01-28T12:43:15Z</time>
      </trkpt>
      <trkpt lat="42.77461" lon="0.4575">
        <ele>2135.506832</ele>
        <time>2012-01-28T12:43:16Z</time>
      </trkpt>
      <trkpt lat="42.77468" lon="0.45748">
        <ele>2136.506866</ele>
        <time>2012-01-28T12:43:17Z</time>
      </trkpt>
      <trkpt lat="42.77478" lon="0.45745">
        <ele>2136.506908</ele>
        <time>2012-01-28T12:43:18Z</time>
      </trkpt>
      <trkpt lat="42.77486" lon="0.45742">
        <ele>2136.506935</ele>
        <time>2012-01-28T12:43:19Z</time>
      </trkpt>
      <trkpt lat="42.77493" lon="0.4574">
        <ele>2137.506962</ele>
        <time>2012-01-28T12:43:20Z</time>
      </trkpt>
      <trkpt lat="42.77503" lon="0.45739">
        <ele>2137.507011</ele>
        <time>2012-01-28T12:43:21Z</time>
      </trkpt>
      <trkpt lat="42.77512" lon="0.45737">
        <ele>2137.50705</ele>
        <time>2012-01-28T12:43:22Z</time>
      </trkpt>
      <trkpt lat="42.77521" lon="0.45736">
        <ele>2138.507084</ele>
        <time>2012-01-28T12:43:23Z</time>
      </trkpt>
      <trkpt lat="42.7753" lon="0.45735">
        <ele>2138.507126</ele>
        <time>2012-01-28T12:43:24Z</time>
      </trkpt>
      <trkpt lat="42.77539" lon="0.45734">
        <ele>2139.507168</ele>
        <time>2012-01-28T12:43:25Z</time>
      </trkpt>
      <trkpt lat="42.77548" lon="0.45734">
        <ele>2139.50721</ele>
        <time>2012-01-28T12:43:26Z</time>
      </trkpt>
      <trkpt lat="42.77557" lon="0.45735">
        <ele>2140.507252</ele>
        <time>2012-01-28T12:43:27Z</time>
      </trkpt>
      <trkpt lat="42.77565" lon="0.45737">
        <ele>2140.507298</ele>
        <time>2012-01-28T12:43:28Z</time>
      </trkpt>
      <trkpt lat="42.77574" lon="0.45739">
        <ele>2141.507339</ele>
        <time>2012-01-28T12:43:29Z</time>
      </trkpt>
      <trkpt lat="42.77582" lon="0.45743">
        <ele>2142.507389</ele>
        <time>2012-01-28T12:43:30Z</time>
      </trkpt>
      <trkpt lat="42.77589" lon="0.45746">
        <ele>2142.507439</ele>
        <time>2012-01-28T12:43:31Z</time>
      </trkpt>
      <trkpt lat="42.77597" lon="0.4575">
        <ele>2143.507484</ele>
        <time>2012-01-28T12:43:32Z</time>
      </trkpt>
      <trkpt lat="42.77604" lon="0.45753">
        <ele>2143.50753</ele>
        <time>2012-01-28T12:43:33Z</time>
      </trkpt>
      <trkpt lat="42.77612" lon="0.45756">
        <ele>2144.507572</ele>
        <time>2012-01-28T12:43:34Z</time>
      </trkpt>
      <trkpt lat="42.77619" lon="0.4576">
        <ele>2144.507614</ele>
        <time>2012-01-28T12:43:35Z</time>
      </trkpt>
      <trkpt lat="42.77626" lon="0.45763">
        <ele>2144.50766</ele>
        <time>2012-01-28T12:43:36Z</time>
      </trkpt>
      <trkpt lat="42.77634" lon="0.45766">
        <ele>2144.507698</ele>
        <time>2012-01-28T12:43:37Z</time>
      </trkpt>
      <trkpt lat="42.77642" lon="0.45768">
        <ele>2144.507748</ele>
        <time>2012-01-28T12:43:38Z</time>
      </trkpt>
      <trkpt lat="42.7765" lon="0.4577">
        <ele>2144.507793</ele>
        <time>2012-01-28T12:43:39Z</time>
      </trkpt>
      <trkpt lat="42.7766" lon="0.45772">
        <ele>2144.507843</ele>
        <time>2012-01-28T12:43:40Z</time>
      </trkpt>
      <trkpt lat="42.77669" lon="0.45775">
        <ele>2144.507893</ele>
        <time>2012-01-28T12:43:41Z</time>
      </trkpt>
      <trkpt lat="42.77679" lon="0.45778">
        <ele>2144.507954</ele>
        <time>2012-01-28T12:43:42Z</time>
      </trkpt>
      <trkpt lat="42.77688" lon="0.45782">
        <ele>2143.508007</ele>
        <time>2012-01-28T12:43:43Z</time>
      </trkpt>
      <trkpt lat="42.77698" lon="0.45787">
        <ele>2143.50806</ele>
        <time>2012-01-28T12:43:44Z</time>
      </trkpt>
      <trkpt lat="42.77706" lon="0.45791">
        <ele>2143.508118</ele>
        <time>2012-01-28T12:43:45Z</time>
      </trkpt>
      <trkpt lat="42.77714" lon="0.45796">
        <ele>2143.508163</ele>
        <time>2012-01-28T12:43:46Z</time>
      </trkpt>
      <trkpt lat="42.77722" lon="0.45801">
        <ele>2142.508209</ele>
        <time>2012-01-28T12:43:47Z</time>
      </trkpt>
      <trkpt lat="42.77728" lon="0.45805">
        <ele>2142.508251</ele>
        <time>2012-01-28T12:43:48Z</time>
      </trkpt>
      <trkpt lat="42.77734" lon="0.4581">
        <ele>2142.508297</ele>
        <time>2012-01-28T12:43:49Z</time>
      </trkpt>
      <trkpt lat="42.77739" lon="0.45814">
        <ele>2142.508331</ele>
        <time>2012-01-28T12:43:50Z</time>
      </trkpt>
      <trkpt lat="42.77744" lon="0.45819">
        <ele>2142.508362</ele>
        <time>2012-01-28T12:43:51Z</time>
      </trkpt>
      <trkpt lat="42.77748" lon="0.45824">
        <ele>2142.508404</ele>
        <time>2012-01-28T12:43:52Z</time>
      </trkpt>
      <trkpt lat="42.77752" lon="0.45828">
        <ele>2142.508427</ele>
        <time>2012-01-28T12:43:53Z</time>
      </trkpt>
      <trkpt lat="42.77757" lon="0.45833">
        <ele>2142.508465</ele>
        <time>2012-01-28T12:43:54Z</time>
      </trkpt>
      <trkpt lat="42.77762" lon="0.45837">
        <ele>2142.508499</ele>
        <time>2012-01-28T12:43:55Z</time>
      </trkpt>
      <trkpt lat="42.77767" lon="0.4584">
        <ele>2142.50853</ele>
        <time>2012-01-28T12:43:56Z</time>
      </trkpt>
      <trkpt lat="42.77772" lon="0.4584">
        <ele>2141.508556</ele>
        <time>2012-01-28T12:43:57Z</time>
      </trkpt>
      <trkpt lat="42.77777" lon="0.45841">
        <ele>2141.508583</ele>
        <time>2012-01-28T12:43:58Z</time>
      </trkpt>
      <trkpt lat="42.77782" lon="0.45842">
        <ele>2141.508606</ele>
        <time>2012-01-28T12:43:59Z</time>
      </trkpt>
      <trkpt lat="42.77787" lon="0.45843">
        <ele>2140.508636</ele>
        <time>2012-01-28T12:44:00Z</time>
      </trkpt>
      <trkpt lat="42.77791" lon="0.45845">
        <ele>2140.508659</ele>
        <time>2012-01-28T12:44:01Z</time>
      </trkpt>
      <trkpt lat="42.77799" lon="0.45848">
        <ele>2139.508705</ele>
        <time>2012-01-28T12:44:03Z</time>
      </trkpt>
      <trkpt lat="42.77806" lon="0.45852">
        <ele>2139.508751</ele>
        <time>2012-01-28T12:44:05Z</time>
      </trkpt>
      <trkpt lat="42.77816" lon="0.45856">
        <ele>2138.508804</ele>
        <time>2012-01-28T12:44:13Z</time>
      </trkpt>
      <trkpt lat="42.7782" lon="0.45858">
        <ele>2138.508831</ele>
        <time>2012-01-28T12:44:14Z</time>
      </trkpt>
      <trkpt lat="42.77825" lon="0.4586">
        <ele>2138.508858</ele>
        <time>2012-01-28T12:44:15Z</time>
      </trkpt>
      <trkpt lat="42.7783" lon="0.45863">
        <ele>2138.508888</ele>
        <time>2012-01-28T12:44:16Z</time>
      </trkpt>
      <trkpt lat="42.77837" lon="0.45867">
        <ele>2137.508934</ele>
        <time>2012-01-28T12:44:17Z</time>
      </trkpt>
      <trkpt lat="42.77844" lon="0.4587">
        <ele>2137.508976</ele>
        <time>2012-01-28T12:44:18Z</time>
      </trkpt>
      <trkpt lat="42.7785" lon="0.45874">
        <ele>2136.509014</ele>
        <time>2012-01-28T12:44:19Z</time>
      </trkpt>
      <trkpt lat="42.77855" lon="0.45881">
        <ele>2136.509056</ele>
        <time>2012-01-28T12:44:20Z</time>
      </trkpt>
      <trkpt lat="42.7786" lon="0.45887">
        <ele>2136.509098</ele>
        <time>2012-01-28T12:44:21Z</time>
      </trkpt>
      <trkpt lat="42.77869" lon="0.45886">
        <ele>2135.509136</ele>
        <time>2012-01-28T12:44:22Z</time>
      </trkpt>
      <trkpt lat="42.77875" lon="0.45887">
        <ele>2135.509171</ele>
        <time>2012-01-28T12:44:23Z</time>
      </trkpt>
      <trkpt lat="42.77882" lon="0.45892">
        <ele>2135.509216</ele>
        <time>2012-01-28T12:44:24Z</time>
      </trkpt>
      <trkpt lat="42.77888" lon="0.45894">
        <ele>2135.509251</ele>
        <time>2012-01-28T12:44:25Z</time>
      </trkpt>
      <trkpt lat="42.77897" lon="0.45901">
        <ele>2133.509315</ele>
        <time>2012-01-28T12:44:28Z</time>
      </trkpt>
      <trkpt lat="42.77903" lon="0.45903">
        <ele>2133.509338</ele>
        <time>2012-01-28T12:44:29Z</time>
      </trkpt>
      <trkpt lat="42.77911" lon="0.45907">
        <ele>2132.509396</ele>
        <time>2012-01-28T12:44:30Z</time>
      </trkpt>
      <trkpt lat="42.77917" lon="0.45909">
        <ele>2132.509426</ele>
        <time>2012-01-28T12:44:31Z</time>
      </trkpt>
      <trkpt lat="42.77925" lon="0.45914">
        <ele>2131.509476</ele>
        <time>2012-01-28T12:44:32Z</time>
      </trkpt>
      <trkpt lat="42.77931" lon="0.45917">
        <ele>2131.509514</ele>
        <time>2012-01-28T12:44:33Z</time>
      </trkpt>
      <trkpt lat="42.77937" lon="0.45918">
        <ele>2131.509544</ele>
        <time>2012-01-28T12:44:34Z</time>
      </trkpt>
      <trkpt lat="42.77954" lon="0.45927">
        <ele>2130.509655</ele>
        <time>2012-01-28T12:44:35Z</time>
      </trkpt>
      <trkpt lat="42.77962" lon="0.45931">
        <ele>2130.509701</ele>
        <time>2012-01-28T12:44:36Z</time>
      </trkpt>
      <trkpt lat="42.77975" lon="0.45929">
        <ele>2128.509754</ele>
        <time>2012-01-28T12:44:37Z</time>
      </trkpt>
      <trkpt lat="42.77983" lon="0.45928">
        <ele>2128.509785</ele>
        <time>2012-01-28T12:44:38Z</time>
      </trkpt>
      <trkpt lat="42.77993" lon="0.45939">
        <ele>2126.509869</ele>
        <time>2012-01-28T12:44:39Z</time>
      </trkpt>
      <trkpt lat="42.78002" lon="0.45943">
        <ele>2126.509914</ele>
        <time>2012-01-28T12:44:40Z</time>
      </trkpt>
      <trkpt lat="42.78006" lon="0.45943">
        <ele>2122.509941</ele>
        <time>2012-01-28T12:44:44Z</time>
      </trkpt>
      <trkpt lat="42.78023" lon="0.45945">
        <ele>2120.510025</ele>
        <time>2012-01-28T12:44:45Z</time>
      </trkpt>
      <trkpt lat="42.7803" lon="0.45946">
        <ele>2119.510059</ele>
        <time>2012-01-28T12:44:46Z</time>
      </trkpt>
      <trkpt lat="42.78041" lon="0.45951">
        <ele>2118.510128</ele>
        <time>2012-01-28T12:44:47Z</time>
      </trkpt>
      <trkpt lat="42.78049" lon="0.45954">
        <ele>2117.510174</ele>
        <time>2012-01-28T12:44:48Z</time>
      </trkpt>
      <trkpt lat="42.78055" lon="0.45958">
        <ele>2117.510216</ele>
        <time>2012-01-28T12:44:49Z</time>
      </trkpt>
      <trkpt lat="42.78067" lon="0.45952">
        <ele>2113.510254</ele>
        <time>2012-01-28T12:44:52Z</time>
      </trkpt>
      <trkpt lat="42.78097" lon="0.45958">
        <ele>2111.51041</ele>
        <time>2012-01-28T12:44:54Z</time>
      </trkpt>
      <trkpt lat="42.78107" lon="0.4596">
        <ele>2111.51046</ele>
        <time>2012-01-28T12:44:55Z</time>
      </trkpt>
      <trkpt lat="42.78122" lon="0.45962">
        <ele>2109.510536</ele>
        <time>2012-01-28T12:44:56Z</time>
      </trkpt>
      <trkpt lat="42.78131" lon="0.45965">
        <ele>2109.510597</ele>
        <time>2012-01-28T12:44:57Z</time>
      </trkpt>
      <trkpt lat="42.78144" lon="0.45966">
        <ele>2107.510662</ele>
        <time>2012-01-28T12:44:58Z</time>
      </trkpt>
      <trkpt lat="42.78154" lon="0.45969">
        <ele>2107.510715</ele>
        <time>2012-01-28T12:44:59Z</time>
      </trkpt>
      <trkpt lat="42.78166" lon="0.45971">
        <ele>2106.510773</ele>
        <time>2012-01-28T12:45:00Z</time>
      </trkpt>
      <trkpt lat="42.78176" lon="0.45974">
        <ele>2105.510838</ele>
        <time>2012-01-28T12:45:01Z</time>
      </trkpt>
      <trkpt lat="42.78191" lon="0.45976">
        <ele>2102.510914</ele>
        <time>2012-01-28T12:45:04Z</time>
      </trkpt>
      <trkpt lat="42.782" lon="0.45978">
        <ele>2102.51096</ele>
        <time>2012-01-28T12:45:05Z</time>
      </trkpt>
      <trkpt lat="42.78208" lon="0.45981">
        <ele>2102.511002</ele>
        <time>2012-01-28T12:45:06Z</time>
      </trkpt>
      <trkpt lat="42.78228" lon="0.45975">
        <ele>2100.511086</ele>
        <time>2012-01-28T12:45:07Z</time>
      </trkpt>
      <trkpt lat="42.78238" lon="0.45975">
        <ele>2100.511127</ele>
        <time>2012-01-28T12:45:08Z</time>
      </trkpt>
      <trkpt lat="42.78253" lon="0.45969">
        <ele>2097.511185</ele>
        <time>2012-01-28T12:45:09Z</time>
      </trkpt>
      <trkpt lat="42.78265" lon="0.45969">
        <ele>2093.511242</ele>
        <time>2012-01-28T12:45:10Z</time>
      </trkpt>
      <trkpt lat="42.78275" lon="0.4597">
        <ele>2092.511292</ele>
        <time>2012-01-28T12:45:11Z</time>
      </trkpt>
      <trkpt lat="42.78285" lon="0.45971">
        <ele>2090.511345</ele>
        <time>2012-01-28T12:45:12Z</time>
      </trkpt>
      <trkpt lat="42.78295" lon="0.45971">
        <ele>2090.511398</ele>
        <time>2012-01-28T12:45:13Z</time>
      </trkpt>
      <trkpt lat="42.78305" lon="0.45974">
        <ele>2088.511448</ele>
        <time>2012-01-28T12:45:14Z</time>
      </trkpt>
      <trkpt lat="42.78309" lon="0.45979">
        <ele>2087.511475</ele>
        <time>2012-01-28T12:45:15Z</time>
      </trkpt>
      <trkpt lat="42.78307" lon="0.45989">
        <ele>2085.51149</ele>
        <time>2012-01-28T12:45:16Z</time>
      </trkpt>
      <trkpt lat="42.78316" lon="0.4599">
        <ele>2082.511543</ele>
        <time>2012-01-28T12:45:19Z</time>
      </trkpt>
      <trkpt lat="42.78321" lon="0.4599">
        <ele>2081.511562</ele>
        <time>2012-01-28T12:45:20Z</time>
      </trkpt>
      <trkpt lat="42.78327" lon="0.45983">
        <ele>2081.511574</ele>
        <time>2012-01-28T12:45:21Z</time>
      </trkpt>
      <trkpt lat="42.78333" lon="0.45978">
        <ele>2081.511597</ele>
        <time>2012-01-28T12:45:22Z</time>
      </trkpt>
      <trkpt lat="42.78337" lon="0.45973">
        <ele>2080.511597</ele>
        <time>2012-01-28T12:45:24Z</time>
      </trkpt>
      <trkpt lat="42.78338" lon="0.45969">
        <ele>2079.511593</ele>
        <time>2012-01-28T12:45:25Z</time>
      </trkpt>
      <trkpt lat="42.78336" lon="0.45963">
        <ele>2077.511562</ele>
        <time>2012-01-28T12:45:28Z</time>
      </trkpt>
      <trkpt lat="42.78327" lon="0.45973">
        <ele>2057.511543</ele>
        <time>2012-01-28T12:45:42Z</time>
      </trkpt>
      <trkpt lat="42.78331" lon="0.45974">
        <ele>2054.51157</ele>
        <time>2012-01-28T12:45:42Z</time>
      </trkpt>
      <trkpt lat="42.78335" lon="0.45974">
        <ele>2051.511593</ele>
        <time>2012-01-28T12:45:43Z</time>
      </trkpt>
      <trkpt lat="42.78344" lon="0.45972">
        <ele>2045.511627</ele>
        <time>2012-01-28T12:45:45Z</time>
      </trkpt>
      <trkpt lat="42.78347" lon="0.45974">
        <ele>2043.511642</ele>
        <time>2012-01-28T12:45:46Z</time>
      </trkpt>
      <trkpt lat="42.78354" lon="0.45978">
        <ele>2042.511692</ele>
        <time>2012-01-28T12:45:48Z</time>
      </trkpt>
      <trkpt lat="42.78362" lon="0.45979">
        <ele>2040.511734</ele>
        <time>2012-01-28T12:45:50Z</time>
      </trkpt>
      <trkpt lat="42.78366" lon="0.45988">
        <ele>2038.511772</ele>
        <time>2012-01-28T12:45:52Z</time>
      </trkpt>
      <trkpt lat="42.78374" lon="0.45989">
        <ele>2036.51181</ele>
        <time>2012-01-28T12:45:53Z</time>
      </trkpt>
      <trkpt lat="42.78378" lon="0.45991">
        <ele>2036.511837</ele>
        <time>2012-01-28T12:45:54Z</time>
      </trkpt>
      <trkpt lat="42.78384" lon="0.45995">
        <ele>2034.511875</ele>
        <time>2012-01-28T12:45:55Z</time>
      </trkpt>
      <trkpt lat="42.78389" lon="0.45998">
        <ele>2033.511913</ele>
        <time>2012-01-28T12:45:56Z</time>
      </trkpt>
      <trkpt lat="42.78395" lon="0.46002">
        <ele>2032.511948</ele>
        <time>2012-01-28T12:45:57Z</time>
      </trkpt>
      <trkpt lat="42.784" lon="0.46006">
        <ele>2031.51199</ele>
        <time>2012-01-28T12:45:58Z</time>
      </trkpt>
      <trkpt lat="42.78405" lon="0.46009">
        <ele>2031.512012</ele>
        <time>2012-01-28T12:45:59Z</time>
      </trkpt>
      <trkpt lat="42.7841" lon="0.46014">
        <ele>2030.512051</ele>
        <time>2012-01-28T12:46:00Z</time>
      </trkpt>
      <trkpt lat="42.78415" lon="0.46017">
        <ele>2030.512081</ele>
        <time>2012-01-28T12:46:01Z</time>
      </trkpt>
      <trkpt lat="42.7843" lon="0.46016">
        <ele>2029.512157</ele>
        <time>2012-01-28T12:46:02Z</time>
      </trkpt>
      <trkpt lat="42.78439" lon="0.46017">
        <ele>2028.512196</ele>
        <time>2012-01-28T12:46:03Z</time>
      </trkpt>
      <trkpt lat="42.78443" lon="0.46027">
        <ele>2027.512238</ele>
        <time>2012-01-28T12:46:04Z</time>
      </trkpt>
      <trkpt lat="42.78448" lon="0.46033">
        <ele>2027.512283</ele>
        <time>2012-01-28T12:46:05Z</time>
      </trkpt>
      <trkpt lat="42.78453" lon="0.4604">
        <ele>2026.512325</ele>
        <time>2012-01-28T12:46:06Z</time>
      </trkpt>
      <trkpt lat="42.78459" lon="0.46046">
        <ele>2026.512363</ele>
        <time>2012-01-28T12:46:08Z</time>
      </trkpt>
      <trkpt lat="42.78464" lon="0.46052">
        <ele>2026.512405</ele>
        <time>2012-01-28T12:46:08Z</time>
      </trkpt>
      <trkpt lat="42.78468" lon="0.4606">
        <ele>2024.512447</ele>
        <time>2012-01-28T12:46:09Z</time>
      </trkpt>
      <trkpt lat="42.78472" lon="0.46068">
        <ele>2023.512489</ele>
        <time>2012-01-28T12:46:10Z</time>
      </trkpt>
      <trkpt lat="42.78476" lon="0.46073">
        <ele>2022.51252</ele>
        <time>2012-01-28T12:46:11Z</time>
      </trkpt>
      <trkpt lat="42.7848" lon="0.46078">
        <ele>2019.51255</ele>
        <time>2012-01-28T12:46:12Z</time>
      </trkpt>
      <trkpt lat="42.78482" lon="0.46084">
        <ele>2017.512573</ele>
        <time>2012-01-28T12:46:13Z</time>
      </trkpt>
      <trkpt lat="42.7848" lon="0.46082">
        <ele>2013.512562</ele>
        <time>2012-01-28T12:46:15Z</time>
      </trkpt>
      <trkpt lat="42.78455" lon="0.46082">
        <ele>1995.512444</ele>
        <time>2012-01-28T12:46:24Z</time>
      </trkpt>
      <trkpt lat="42.78456" lon="0.46089">
        <ele>1994.512466</ele>
        <time>2012-01-28T12:46:26Z</time>
      </trkpt>
      <trkpt lat="42.78455" lon="0.46095">
        <ele>1994.512474</ele>
        <time>2012-01-28T12:46:27Z</time>
      </trkpt>
      <trkpt lat="42.78453" lon="0.46104">
        <ele>1996.512493</ele>
        <time>2012-01-28T12:46:29Z</time>
      </trkpt>
      <trkpt lat="42.7845" lon="0.46116">
        <ele>1997.512512</ele>
        <time>2012-01-28T12:46:31Z</time>
      </trkpt>
      <trkpt lat="42.7844" lon="0.46125">
        <ele>1997.512482</ele>
        <time>2012-01-28T12:46:33Z</time>
      </trkpt>
      <trkpt lat="42.78436" lon="0.4613">
        <ele>1997.512482</ele>
        <time>2012-01-28T12:46:34Z</time>
      </trkpt>
      <trkpt lat="42.7843" lon="0.46134">
        <ele>1996.512463</ele>
        <time>2012-01-28T12:46:35Z</time>
      </trkpt>
      <trkpt lat="42.78426" lon="0.46139">
        <ele>1996.512451</ele>
        <time>2012-01-28T12:46:36Z</time>
      </trkpt>
      <trkpt lat="42.78421" lon="0.46143">
        <ele>1995.51244</ele>
        <time>2012-01-28T12:46:37Z</time>
      </trkpt>
      <trkpt lat="42.78418" lon="0.46148">
        <ele>1995.51244</ele>
        <time>2012-01-28T12:46:38Z</time>
      </trkpt>
      <trkpt lat="42.78417" lon="0.46154">
        <ele>1994.512451</ele>
        <time>2012-01-28T12:46:39Z</time>
      </trkpt>
      <trkpt lat="42.78416" lon="0.46167">
        <ele>1993.512482</ele>
        <time>2012-01-28T12:46:41Z</time>
      </trkpt>
      <trkpt lat="42.78417" lon="0.46174">
        <ele>1992.512505</ele>
        <time>2012-01-28T12:46:42Z</time>
      </trkpt>
      <trkpt lat="42.78418" lon="0.46181">
        <ele>1992.512524</ele>
        <time>2012-01-28T12:46:43Z</time>
      </trkpt>
      <trkpt lat="42.78419" lon="0.46188">
        <ele>1990.512543</ele>
        <time>2012-01-28T12:46:45Z</time>
      </trkpt>
      <trkpt lat="42.78416" lon="0.46198">
        <ele>1987.512558</ele>
        <time>2012-01-28T12:46:46Z</time>
      </trkpt>
      <trkpt lat="42.78415" lon="0.46204">
        <ele>1987.512573</ele>
        <time>2012-01-28T12:46:47Z</time>
      </trkpt>
      <trkpt lat="42.78419" lon="0.4621">
        <ele>1985.512604</ele>
        <time>2012-01-28T12:46:48Z</time>
      </trkpt>
      <trkpt lat="42.78418" lon="0.46222">
        <ele>1982.512638</ele>
        <time>2012-01-28T12:46:50Z</time>
      </trkpt>
      <trkpt lat="42.78418" lon="0.46229">
        <ele>1982.51265</ele>
        <time>2012-01-28T12:46:51Z</time>
      </trkpt>
      <trkpt lat="42.7842" lon="0.46237">
        <ele>1979.512684</ele>
        <time>2012-01-28T12:46:52Z</time>
      </trkpt>
      <trkpt lat="42.78422" lon="0.46244">
        <ele>1976.512711</ele>
        <time>2012-01-28T12:46:53Z</time>
      </trkpt>
      <trkpt lat="42.78423" lon="0.46251">
        <ele>1974.51273</ele>
        <time>2012-01-28T12:46:54Z</time>
      </trkpt>
      <trkpt lat="42.78423" lon="0.46256">
        <ele>1972.512753</ele>
        <time>2012-01-28T12:46:55Z</time>
      </trkpt>
      <trkpt lat="42.78423" lon="0.46263">
        <ele>1972.512764</ele>
        <time>2012-01-28T12:46:56Z</time>
      </trkpt>
      <trkpt lat="42.78427" lon="0.46263">
        <ele>1970.512787</ele>
        <time>2012-01-28T12:46:57Z</time>
      </trkpt>
      <trkpt lat="42.78448" lon="0.46251">
        <ele>1955.512856</ele>
        <time>2012-01-28T12:47:05Z</time>
      </trkpt>
      <trkpt lat="42.78458" lon="0.46252">
        <ele>1909.512901</ele>
        <time>2012-01-28T12:47:42Z</time>
      </trkpt>
      <trkpt lat="42.78463" lon="0.46265">
        <ele>1908.512955</ele>
        <time>2012-01-28T12:47:44Z</time>
      </trkpt>
      <trkpt lat="42.78465" lon="0.46271">
        <ele>1907.512981</ele>
        <time>2012-01-28T12:47:45Z</time>
      </trkpt>
      <trkpt lat="42.78468" lon="0.46277">
        <ele>1907.51302</ele>
        <time>2012-01-28T12:47:46Z</time>
      </trkpt>
      <trkpt lat="42.78471" lon="0.46284">
        <ele>1905.513046</ele>
        <time>2012-01-28T12:47:47Z</time>
      </trkpt>
      <trkpt lat="42.78473" lon="0.46289">
        <ele>1905.513069</ele>
        <time>2012-01-28T12:47:48Z</time>
      </trkpt>
      <trkpt lat="42.78479" lon="0.46295">
        <ele>1905.513115</ele>
        <time>2012-01-28T12:47:49Z</time>
      </trkpt>
      <trkpt lat="42.78483" lon="0.463">
        <ele>1905.513142</ele>
        <time>2012-01-28T12:47:50Z</time>
      </trkpt>
      <trkpt lat="42.78486" lon="0.46307">
        <ele>1904.513176</ele>
        <time>2012-01-28T12:47:51Z</time>
      </trkpt>
      <trkpt lat="42.78489" lon="0.46313">
        <ele>1904.513206</ele>
        <time>2012-01-28T12:47:52Z</time>
      </trkpt>
      <trkpt lat="42.78492" lon="0.46319">
        <ele>1903.513241</ele>
        <time>2012-01-28T12:47:53Z</time>
      </trkpt>
      <trkpt lat="42.78495" lon="0.46325">
        <ele>1903.513264</ele>
        <time>2012-01-28T12:47:54Z</time>
      </trkpt>
      <trkpt lat="42.78498" lon="0.4633">
        <ele>1902.513294</ele>
        <time>2012-01-28T12:47:55Z</time>
      </trkpt>
      <trkpt lat="42.78501" lon="0.46335">
        <ele>1901.513325</ele>
        <time>2012-01-28T12:47:56Z</time>
      </trkpt>
      <trkpt lat="42.78504" lon="0.46346">
        <ele>1900.513367</ele>
        <time>2012-01-28T12:47:58Z</time>
      </trkpt>
      <trkpt lat="42.78508" lon="0.46355">
        <ele>1899.513409</ele>
        <time>2012-01-28T12:48:00Z</time>
      </trkpt>
      <trkpt lat="42.78509" lon="0.46365">
        <ele>1898.513439</ele>
        <time>2012-01-28T12:48:02Z</time>
      </trkpt>
      <trkpt lat="42.78516" lon="0.46371">
        <ele>1897.513493</ele>
        <time>2012-01-28T12:48:04Z</time>
      </trkpt>
      <trkpt lat="42.78518" lon="0.46386">
        <ele>1896.513542</ele>
        <time>2012-01-28T12:48:06Z</time>
      </trkpt>
      <trkpt lat="42.78519" lon="0.46394">
        <ele>1896.513569</ele>
        <time>2012-01-28T12:48:07Z</time>
      </trkpt>
      <trkpt lat="42.78527" lon="0.46402">
        <ele>1895.513622</ele>
        <time>2012-01-28T12:48:08Z</time>
      </trkpt>
      <trkpt lat="42.78532" lon="0.46409">
        <ele>1895.513668</ele>
        <time>2012-01-28T12:48:09Z</time>
      </trkpt>
      <trkpt lat="42.78534" lon="0.46418">
        <ele>1893.513699</ele>
        <time>2012-01-28T12:48:10Z</time>
      </trkpt>
      <trkpt lat="42.78537" lon="0.46427">
        <ele>1893.513737</ele>
        <time>2012-01-28T12:48:11Z</time>
      </trkpt>
      <trkpt lat="42.78542" lon="0.46436">
        <ele>1892.513779</ele>
        <time>2012-01-28T12:48:12Z</time>
      </trkpt>
      <trkpt lat="42.78546" lon="0.46445">
        <ele>1890.513828</ele>
        <time>2012-01-28T12:48:13Z</time>
      </trkpt>
      <trkpt lat="42.78549" lon="0.46455">
        <ele>1889.513866</ele>
        <time>2012-01-28T12:48:14Z</time>
      </trkpt>
      <trkpt lat="42.78553" lon="0.46465">
        <ele>1887.513908</ele>
        <time>2012-01-28T12:48:15Z</time>
      </trkpt>
      <trkpt lat="42.78558" lon="0.46474">
        <ele>1887.513954</ele>
        <time>2012-01-28T12:48:16Z</time>
      </trkpt>
      <trkpt lat="42.78562" lon="0.46483">
        <ele>1886.513996</ele>
        <time>2012-01-28T12:48:17Z</time>
      </trkpt>
      <trkpt lat="42.78566" lon="0.46491">
        <ele>1886.514042</ele>
        <time>2012-01-28T12:48:18Z</time>
      </trkpt>
      <trkpt lat="42.7857" lon="0.46502">
        <ele>1884.514088</ele>
        <time>2012-01-28T12:48:19Z</time>
      </trkpt>
      <trkpt lat="42.78574" lon="0.46511">
        <ele>1884.514126</ele>
        <time>2012-01-28T12:48:20Z</time>
      </trkpt>
      <trkpt lat="42.78578" lon="0.46521">
        <ele>1883.514168</ele>
        <time>2012-01-28T12:48:21Z</time>
      </trkpt>
      <trkpt lat="42.78582" lon="0.4653">
        <ele>1883.514214</ele>
        <time>2012-01-28T12:48:22Z</time>
      </trkpt>
      <trkpt lat="42.78581" lon="0.46537">
        <ele>1881.514229</ele>
        <time>2012-01-28T12:48:23Z</time>
      </trkpt>
      <trkpt lat="42.78584" lon="0.46545">
        <ele>1881.514267</ele>
        <time>2012-01-28T12:48:24Z</time>
      </trkpt>
      <trkpt lat="42.78584" lon="0.46554">
        <ele>1880.51429</ele>
        <time>2012-01-28T12:48:25Z</time>
      </trkpt>
      <trkpt lat="42.78588" lon="0.46562">
        <ele>1880.514324</ele>
        <time>2012-01-28T12:48:26Z</time>
      </trkpt>
      <trkpt lat="42.78584" lon="0.46567">
        <ele>1878.514324</ele>
        <time>2012-01-28T12:48:27Z</time>
      </trkpt>
      <trkpt lat="42.78582" lon="0.46573">
        <ele>1876.514336</ele>
        <time>2012-01-28T12:48:28Z</time>
      </trkpt>
      <trkpt lat="42.78582" lon="0.4658">
        <ele>1874.514347</ele>
        <time>2012-01-28T12:48:29Z</time>
      </trkpt>
      <trkpt lat="42.78581" lon="0.46588">
        <ele>1872.514366</ele>
        <time>2012-01-28T12:48:30Z</time>
      </trkpt>
      <trkpt lat="42.78577" lon="0.46598">
        <ele>1871.51437</ele>
        <time>2012-01-28T12:48:31Z</time>
      </trkpt>
      <trkpt lat="42.78572" lon="0.46608">
        <ele>1870.51437</ele>
        <time>2012-01-28T12:48:32Z</time>
      </trkpt>
      <trkpt lat="42.78568" lon="0.46618">
        <ele>1869.514378</ele>
        <time>2012-01-28T12:48:33Z</time>
      </trkpt>
      <trkpt lat="42.78565" lon="0.46627">
        <ele>1868.514389</ele>
        <time>2012-01-28T12:48:34Z</time>
      </trkpt>
      <trkpt lat="42.78562" lon="0.46635">
        <ele>1868.514397</ele>
        <time>2012-01-28T12:48:35Z</time>
      </trkpt>
      <trkpt lat="42.78559" lon="0.46644">
        <ele>1867.514404</ele>
        <time>2012-01-28T12:48:36Z</time>
      </trkpt>
      <trkpt lat="42.78557" lon="0.46653">
        <ele>1867.51442</ele>
        <time>2012-01-28T12:48:37Z</time>
      </trkpt>
      <trkpt lat="42.78559" lon="0.46663">
        <ele>1865.514458</ele>
        <time>2012-01-28T12:48:38Z</time>
      </trkpt>
      <trkpt lat="42.78559" lon="0.46672">
        <ele>1865.514481</ele>
        <time>2012-01-28T12:48:39Z</time>
      </trkpt>
      <trkpt lat="42.78555" lon="0.4668">
        <ele>1863.514481</ele>
        <time>2012-01-28T12:48:40Z</time>
      </trkpt>
      <trkpt lat="42.78555" lon="0.46689">
        <ele>1863.514507</ele>
        <time>2012-01-28T12:48:41Z</time>
      </trkpt>
      <trkpt lat="42.78551" lon="0.46698">
        <ele>1861.514503</ele>
        <time>2012-01-28T12:48:42Z</time>
      </trkpt>
      <trkpt lat="42.78551" lon="0.46707">
        <ele>1861.514534</ele>
        <time>2012-01-28T12:48:43Z</time>
      </trkpt>
      <trkpt lat="42.78544" lon="0.46719">
        <ele>1859.514534</ele>
        <time>2012-01-28T12:48:44Z</time>
      </trkpt>
      <trkpt lat="42.78542" lon="0.4673">
        <ele>1858.514549</ele>
        <time>2012-01-28T12:48:45Z</time>
      </trkpt>
      <trkpt lat="42.78538" lon="0.46742">
        <ele>1856.514561</ele>
        <time>2012-01-28T12:48:46Z</time>
      </trkpt>
      <trkpt lat="42.78535" lon="0.46754">
        <ele>1854.51458</ele>
        <time>2012-01-28T12:48:47Z</time>
      </trkpt>
      <trkpt lat="42.78533" lon="0.46767">
        <ele>1853.514599</ele>
        <time>2012-01-28T12:48:48Z</time>
      </trkpt>
      <trkpt lat="42.78532" lon="0.46779">
        <ele>1853.514629</ele>
        <time>2012-01-28T12:48:49Z</time>
      </trkpt>
      <trkpt lat="42.78533" lon="0.46791">
        <ele>1851.514664</ele>
        <time>2012-01-28T12:48:50Z</time>
      </trkpt>
      <trkpt lat="42.78534" lon="0.46803">
        <ele>1851.514694</ele>
        <time>2012-01-28T12:48:51Z</time>
      </trkpt>
      <trkpt lat="42.78535" lon="0.46815">
        <ele>1851.514729</ele>
        <time>2012-01-28T12:48:52Z</time>
      </trkpt>
      <trkpt lat="42.78531" lon="0.46826">
        <ele>1849.514748</ele>
        <time>2012-01-28T12:48:53Z</time>
      </trkpt>
      <trkpt lat="42.78532" lon="0.46838">
        <ele>1849.514774</ele>
        <time>2012-01-28T12:48:54Z</time>
      </trkpt>
      <trkpt lat="42.78528" lon="0.46848">
        <ele>1846.51479</ele>
        <time>2012-01-28T12:48:55Z</time>
      </trkpt>
      <trkpt lat="42.78528" lon="0.4686">
        <ele>1846.51482</ele>
        <time>2012-01-28T12:48:56Z</time>
      </trkpt>
      <trkpt lat="42.78523" lon="0.46871">
        <ele>1843.514824</ele>
        <time>2012-01-28T12:48:57Z</time>
      </trkpt>
      <trkpt lat="42.78522" lon="0.46882">
        <ele>1843.514854</ele>
        <time>2012-01-28T12:48:58Z</time>
      </trkpt>
      <trkpt lat="42.78516" lon="0.46884">
        <ele>1840.514828</ele>
        <time>2012-01-28T12:48:59Z</time>
      </trkpt>
      <trkpt lat="42.78514" lon="0.46893">
        <ele>1840.514835</ele>
        <time>2012-01-28T12:49:00Z</time>
      </trkpt>
      <trkpt lat="42.78507" lon="0.46901">
        <ele>1835.514824</ele>
        <time>2012-01-28T12:49:02Z</time>
      </trkpt>
      <trkpt lat="42.78505" lon="0.46908">
        <ele>1835.514839</ele>
        <time>2012-01-28T12:49:03Z</time>
      </trkpt>
      <trkpt lat="42.78496" lon="0.46915">
        <ele>1832.514812</ele>
        <time>2012-01-28T12:49:04Z</time>
      </trkpt>
      <trkpt lat="42.78491" lon="0.46923">
        <ele>1830.514809</ele>
        <time>2012-01-28T12:49:05Z</time>
      </trkpt>
      <trkpt lat="42.78489" lon="0.46933">
        <ele>1827.514824</ele>
        <time>2012-01-28T12:49:06Z</time>
      </trkpt>
      <trkpt lat="42.78487" lon="0.46943">
        <ele>1826.514847</ele>
        <time>2012-01-28T12:49:07Z</time>
      </trkpt>
      <trkpt lat="42.78483" lon="0.46951">
        <ele>1823.514843</ele>
        <time>2012-01-28T12:49:08Z</time>
      </trkpt>
      <trkpt lat="42.7848" lon="0.46961">
        <ele>1823.514858</ele>
        <time>2012-01-28T12:49:09Z</time>
      </trkpt>
      <trkpt lat="42.78483" lon="0.46972">
        <ele>1820.514896</ele>
        <time>2012-01-28T12:49:10Z</time>
      </trkpt>
      <trkpt lat="42.78484" lon="0.46982">
        <ele>1819.514931</ele>
        <time>2012-01-28T12:49:11Z</time>
      </trkpt>
      <trkpt lat="42.7848" lon="0.46988">
        <ele>1817.514927</ele>
        <time>2012-01-28T12:49:12Z</time>
      </trkpt>
      <trkpt lat="42.78479" lon="0.46996">
        <ele>1816.514938</ele>
        <time>2012-01-28T12:49:13Z</time>
      </trkpt>
      <trkpt lat="42.78479" lon="0.47005">
        <ele>1813.514961</ele>
        <time>2012-01-28T12:49:15Z</time>
      </trkpt>
      <trkpt lat="42.78478" lon="0.47015">
        <ele>1812.514988</ele>
        <time>2012-01-28T12:49:16Z</time>
      </trkpt>
      <trkpt lat="42.78479" lon="0.47036">
        <ele>1809.515045</ele>
        <time>2012-01-28T12:49:19Z</time>
      </trkpt>
      <trkpt lat="42.7848" lon="0.47052">
        <ele>1807.515095</ele>
        <time>2012-01-28T12:49:21Z</time>
      </trkpt>
      <trkpt lat="42.78482" lon="0.4706">
        <ele>1805.515121</ele>
        <time>2012-01-28T12:49:22Z</time>
      </trkpt>
      <trkpt lat="42.78483" lon="0.4707">
        <ele>1804.515152</ele>
        <time>2012-01-28T12:49:23Z</time>
      </trkpt>
      <trkpt lat="42.78484" lon="0.47078">
        <ele>1804.515175</ele>
        <time>2012-01-28T12:49:24Z</time>
      </trkpt>
      <trkpt lat="42.78487" lon="0.4709">
        <ele>1802.515221</ele>
        <time>2012-01-28T12:49:25Z</time>
      </trkpt>
      <trkpt lat="42.78488" lon="0.47098">
        <ele>1802.515255</ele>
        <time>2012-01-28T12:49:26Z</time>
      </trkpt>
      <trkpt lat="42.7849" lon="0.47104">
        <ele>1801.515278</ele>
        <time>2012-01-28T12:49:27Z</time>
      </trkpt>
      <trkpt lat="42.78491" lon="0.47112">
        <ele>1801.515297</ele>
        <time>2012-01-28T12:49:28Z</time>
      </trkpt>
      <trkpt lat="42.78492" lon="0.47123">
        <ele>1800.515335</ele>
        <time>2012-01-28T12:49:30Z</time>
      </trkpt>
      <trkpt lat="42.78499" lon="0.47124">
        <ele>1800.515373</ele>
        <time>2012-01-28T12:49:31Z</time>
      </trkpt>
      <trkpt lat="42.78507" lon="0.47124">
        <ele>1800.515408</ele>
        <time>2012-01-28T12:49:32Z</time>
      </trkpt>
      <trkpt lat="42.78515" lon="0.47122">
        <ele>1799.515442</ele>
        <time>2012-01-28T12:49:33Z</time>
      </trkpt>
      <trkpt lat="42.7852" lon="0.47123">
        <ele>1799.515469</ele>
        <time>2012-01-28T12:49:34Z</time>
      </trkpt>
      <trkpt lat="42.78526" lon="0.47122">
        <ele>1798.515495</ele>
        <time>2012-01-28T12:49:35Z</time>
      </trkpt>
      <trkpt lat="42.78531" lon="0.47123">
        <ele>1797.515522</ele>
        <time>2012-01-28T12:49:36Z</time>
      </trkpt>
      <trkpt lat="42.78536" lon="0.47133">
        <ele>1795.515572</ele>
        <time>2012-01-28T12:49:38Z</time>
      </trkpt>
      <trkpt lat="42.78544" lon="0.47139">
        <ele>1793.515629</ele>
        <time>2012-01-28T12:49:40Z</time>
      </trkpt>
      <trkpt lat="42.78548" lon="0.47147">
        <ele>1792.515663</ele>
        <time>2012-01-28T12:49:42Z</time>
      </trkpt>
      <trkpt lat="42.78551" lon="0.47156">
        <ele>1791.515701</ele>
        <time>2012-01-28T12:49:44Z</time>
      </trkpt>
      <trkpt lat="42.78556" lon="0.47155">
        <ele>1788.51572</ele>
        <time>2012-01-28T12:49:45Z</time>
      </trkpt>
      <trkpt lat="42.7856" lon="0.47159">
        <ele>1784.515755</ele>
        <time>2012-01-28T12:49:47Z</time>
      </trkpt>
      <trkpt lat="42.78562" lon="0.4717">
        <ele>1783.515793</ele>
        <time>2012-01-28T12:49:49Z</time>
      </trkpt>
      <trkpt lat="42.78563" lon="0.47182">
        <ele>1781.515831</ele>
        <time>2012-01-28T12:49:51Z</time>
      </trkpt>
      <trkpt lat="42.78564" lon="0.47188">
        <ele>1780.515846</ele>
        <time>2012-01-28T12:49:52Z</time>
      </trkpt>
      <trkpt lat="42.78564" lon="0.472">
        <ele>1778.515881</ele>
        <time>2012-01-28T12:49:54Z</time>
      </trkpt>
      <trkpt lat="42.78564" lon="0.4721">
        <ele>1776.515896</ele>
        <time>2012-01-28T12:49:56Z</time>
      </trkpt>
      <trkpt lat="42.78563" lon="0.47221">
        <ele>1774.515926</ele>
        <time>2012-01-28T12:49:58Z</time>
      </trkpt>
      <trkpt lat="42.78562" lon="0.47232">
        <ele>1771.515953</ele>
        <time>2012-01-28T12:50:00Z</time>
      </trkpt>
      <trkpt lat="42.78562" lon="0.47243">
        <ele>1769.51598</ele>
        <time>2012-01-28T12:50:02Z</time>
      </trkpt>
      <trkpt lat="42.78564" lon="0.47254">
        <ele>1767.516022</ele>
        <time>2012-01-28T12:50:04Z</time>
      </trkpt>
      <trkpt lat="42.78567" lon="0.47268">
        <ele>1764.516068</ele>
        <time>2012-01-28T12:50:06Z</time>
      </trkpt>
      <trkpt lat="42.78568" lon="0.47276">
        <ele>1764.516098</ele>
        <time>2012-01-28T12:50:07Z</time>
      </trkpt>
      <trkpt lat="42.78568" lon="0.47283">
        <ele>1762.516117</ele>
        <time>2012-01-28T12:50:08Z</time>
      </trkpt>
      <trkpt lat="42.78569" lon="0.4729">
        <ele>1760.51614</ele>
        <time>2012-01-28T12:50:09Z</time>
      </trkpt>
      <trkpt lat="42.7857" lon="0.47296">
        <ele>1759.516163</ele>
        <time>2012-01-28T12:50:10Z</time>
      </trkpt>
      <trkpt lat="42.78571" lon="0.47303">
        <ele>1757.516182</ele>
        <time>2012-01-28T12:50:11Z</time>
      </trkpt>
      <trkpt lat="42.78572" lon="0.4731">
        <ele>1756.516205</ele>
        <time>2012-01-28T12:50:12Z</time>
      </trkpt>
      <trkpt lat="42.78574" lon="0.47317">
        <ele>1756.516228</ele>
        <time>2012-01-28T12:50:13Z</time>
      </trkpt>
      <trkpt lat="42.78578" lon="0.47321">
        <ele>1754.516266</ele>
        <time>2012-01-28T12:50:14Z</time>
      </trkpt>
      <trkpt lat="42.78582" lon="0.47325">
        <ele>1753.516296</ele>
        <time>2012-01-28T12:50:15Z</time>
      </trkpt>
      <trkpt lat="42.78586" lon="0.47329">
        <ele>1752.516319</ele>
        <time>2012-01-28T12:50:16Z</time>
      </trkpt>
      <trkpt lat="42.7859" lon="0.47333">
        <ele>1752.51635</ele>
        <time>2012-01-28T12:50:17Z</time>
      </trkpt>
      <trkpt lat="42.78595" lon="0.47337">
        <ele>1751.516384</ele>
        <time>2012-01-28T12:50:18Z</time>
      </trkpt>
      <trkpt lat="42.78599" lon="0.47341">
        <ele>1751.516411</ele>
        <time>2012-01-28T12:50:19Z</time>
      </trkpt>
      <trkpt lat="42.78603" lon="0.47346">
        <ele>1749.516445</ele>
        <time>2012-01-28T12:50:20Z</time>
      </trkpt>
      <trkpt lat="42.78607" lon="0.4735">
        <ele>1749.516476</ele>
        <time>2012-01-28T12:50:21Z</time>
      </trkpt>
      <trkpt lat="42.78609" lon="0.47357">
        <ele>1748.516506</ele>
        <time>2012-01-28T12:50:22Z</time>
      </trkpt>
      <trkpt lat="42.78613" lon="0.47362">
        <ele>1747.516533</ele>
        <time>2012-01-28T12:50:23Z</time>
      </trkpt>
      <trkpt lat="42.78615" lon="0.47371">
        <ele>1746.516563</ele>
        <time>2012-01-28T12:50:24Z</time>
      </trkpt>
      <trkpt lat="42.78619" lon="0.47377">
        <ele>1746.516594</ele>
        <time>2012-01-28T12:50:25Z</time>
      </trkpt>
      <trkpt lat="42.7862" lon="0.47389">
        <ele>1744.516636</ele>
        <time>2012-01-28T12:50:26Z</time>
      </trkpt>
      <trkpt lat="42.78622" lon="0.47396">
        <ele>1744.51667</ele>
        <time>2012-01-28T12:50:27Z</time>
      </trkpt>
      <trkpt lat="42.78622" lon="0.4741">
        <ele>1743.516701</ele>
        <time>2012-01-28T12:50:28Z</time>
      </trkpt>
      <trkpt lat="42.78624" lon="0.4742">
        <ele>1742.516735</ele>
        <time>2012-01-28T12:50:29Z</time>
      </trkpt>
      <trkpt lat="42.78625" lon="0.4743">
        <ele>1742.516769</ele>
        <time>2012-01-28T12:50:30Z</time>
      </trkpt>
      <trkpt lat="42.7863" lon="0.4744">
        <ele>1740.516815</ele>
        <time>2012-01-28T12:50:31Z</time>
      </trkpt>
      <trkpt lat="42.78634" lon="0.47449">
        <ele>1740.516861</ele>
        <time>2012-01-28T12:50:32Z</time>
      </trkpt>
      <trkpt lat="42.78633" lon="0.47464">
        <ele>1738.516895</ele>
        <time>2012-01-28T12:50:33Z</time>
      </trkpt>
      <trkpt lat="42.78635" lon="0.47476">
        <ele>1738.516937</ele>
        <time>2012-01-28T12:50:34Z</time>
      </trkpt>
      <trkpt lat="42.78641" lon="0.47487">
        <ele>1736.516998</ele>
        <time>2012-01-28T12:50:35Z</time>
      </trkpt>
      <trkpt lat="42.78644" lon="0.47498">
        <ele>1736.517036</ele>
        <time>2012-01-28T12:50:36Z</time>
      </trkpt>
      <trkpt lat="42.78649" lon="0.4751">
        <ele>1734.517094</ele>
        <time>2012-01-28T12:50:37Z</time>
      </trkpt>
      <trkpt lat="42.78653" lon="0.4752">
        <ele>1733.517139</ele>
        <time>2012-01-28T12:50:38Z</time>
      </trkpt>
      <trkpt lat="42.78658" lon="0.47533">
        <ele>1731.517193</ele>
        <time>2012-01-28T12:50:39Z</time>
      </trkpt>
      <trkpt lat="42.78662" lon="0.47545">
        <ele>1731.517246</ele>
        <time>2012-01-28T12:50:40Z</time>
      </trkpt>
      <trkpt lat="42.78665" lon="0.47557">
        <ele>1729.517292</ele>
        <time>2012-01-28T12:50:41Z</time>
      </trkpt>
      <trkpt lat="42.78669" lon="0.47569">
        <ele>1728.517342</ele>
        <time>2012-01-28T12:50:42Z</time>
      </trkpt>
      <trkpt lat="42.78671" lon="0.47582">
        <ele>1726.51738</ele>
        <time>2012-01-28T12:50:43Z</time>
      </trkpt>
      <trkpt lat="42.78674" lon="0.47594">
        <ele>1725.517429</ele>
        <time>2012-01-28T12:50:44Z</time>
      </trkpt>
      <trkpt lat="42.78677" lon="0.47605">
        <ele>1725.517471</ele>
        <time>2012-01-28T12:50:45Z</time>
      </trkpt>
      <trkpt lat="42.78687" lon="0.47611">
        <ele>1723.517536</ele>
        <time>2012-01-28T12:50:46Z</time>
      </trkpt>
      <trkpt lat="42.78693" lon="0.4762">
        <ele>1723.517586</ele>
        <time>2012-01-28T12:50:47Z</time>
      </trkpt>
      <trkpt lat="42.78691" lon="0.47637">
        <ele>1720.517624</ele>
        <time>2012-01-28T12:50:48Z</time>
      </trkpt>
      <trkpt lat="42.78695" lon="0.47648">
        <ele>1720.51767</ele>
        <time>2012-01-28T12:50:49Z</time>
      </trkpt>
      <trkpt lat="42.78702" lon="0.47656">
        <ele>1717.517727</ele>
        <time>2012-01-28T12:50:50Z</time>
      </trkpt>
      <trkpt lat="42.78708" lon="0.47665">
        <ele>1717.517776</ele>
        <time>2012-01-28T12:50:51Z</time>
      </trkpt>
      <trkpt lat="42.78712" lon="0.47675">
        <ele>1715.517815</ele>
        <time>2012-01-28T12:50:52Z</time>
      </trkpt>
      <trkpt lat="42.78717" lon="0.47684">
        <ele>1714.517868</ele>
        <time>2012-01-28T12:50:53Z</time>
      </trkpt>
      <trkpt lat="42.78719" lon="0.47692">
        <ele>1712.517899</ele>
        <time>2012-01-28T12:50:54Z</time>
      </trkpt>
      <trkpt lat="42.78723" lon="0.477">
        <ele>1712.517944</ele>
        <time>2012-01-28T12:50:55Z</time>
      </trkpt>
      <trkpt lat="42.7872" lon="0.47712">
        <ele>1710.517963</ele>
        <time>2012-01-28T12:50:56Z</time>
      </trkpt>
      <trkpt lat="42.78721" lon="0.47722">
        <ele>1710.517986</ele>
        <time>2012-01-28T12:50:57Z</time>
      </trkpt>
      <trkpt lat="42.78722" lon="0.47731">
        <ele>1710.518017</ele>
        <time>2012-01-28T12:50:58Z</time>
      </trkpt>
      <trkpt lat="42.7872" lon="0.47741">
        <ele>1706.518032</ele>
        <time>2012-01-28T12:50:59Z</time>
      </trkpt>
      <trkpt lat="42.78721" lon="0.4775">
        <ele>1704.518063</ele>
        <time>2012-01-28T12:51:00Z</time>
      </trkpt>
      <trkpt lat="42.78722" lon="0.47756">
        <ele>1701.518078</ele>
        <time>2012-01-28T12:51:01Z</time>
      </trkpt>
      <trkpt lat="42.78726" lon="0.47767">
        <ele>1695.518124</ele>
        <time>2012-01-28T12:51:03Z</time>
      </trkpt>
      <trkpt lat="42.78734" lon="0.47767">
        <ele>1692.518169</ele>
        <time>2012-01-28T12:51:05Z</time>
      </trkpt>
      <trkpt lat="42.78739" lon="0.47739">
        <ele>1623.518116</ele>
        <time>2012-01-28T12:51:30Z</time>
      </trkpt>
      <trkpt lat="42.78746" lon="0.4773">
        <ele>1609.518127</ele>
        <time>2012-01-28T12:51:38Z</time>
      </trkpt>
      <trkpt lat="42.78729" lon="0.477">
        <ele>1599.517971</ele>
        <time>2012-01-28T12:52:07Z</time>
      </trkpt>
      <trkpt lat="42.78717" lon="0.47685">
        <ele>1598.517876</ele>
        <time>2012-01-28T12:52:10Z</time>
      </trkpt>
      <trkpt lat="42.78713" lon="0.4768">
        <ele>1598.517838</ele>
        <time>2012-01-28T12:52:11Z</time>
      </trkpt>
      <trkpt lat="42.78709" lon="0.47674">
        <ele>1598.517807</ele>
        <time>2012-01-28T12:52:12Z</time>
      </trkpt>
      <trkpt lat="42.78705" lon="0.47669">
        <ele>1598.517769</ele>
        <time>2012-01-28T12:52:13Z</time>
      </trkpt>
      <trkpt lat="42.78701" lon="0.47664">
        <ele>1598.517746</ele>
        <time>2012-01-28T12:52:14Z</time>
      </trkpt>
      <trkpt lat="42.78697" lon="0.47659">
        <ele>1599.517708</ele>
        <time>2012-01-28T12:52:15Z</time>
      </trkpt>
      <trkpt lat="42.78693" lon="0.47654">
        <ele>1599.517673</ele>
        <time>2012-01-28T12:52:16Z</time>
      </trkpt>
      <trkpt lat="42.7869" lon="0.47649">
        <ele>1598.517654</ele>
        <time>2012-01-28T12:52:17Z</time>
      </trkpt>
      <trkpt lat="42.78687" lon="0.47645">
        <ele>1598.517624</ele>
        <time>2012-01-28T12:52:18Z</time>
      </trkpt>
      <trkpt lat="42.78683" lon="0.4764">
        <ele>1598.517593</ele>
        <time>2012-01-28T12:52:19Z</time>
      </trkpt>
      <trkpt lat="42.7868" lon="0.47634">
        <ele>1598.517563</ele>
        <time>2012-01-28T12:52:20Z</time>
      </trkpt>
      <trkpt lat="42.78676" lon="0.47629">
        <ele>1598.517532</ele>
        <time>2012-01-28T12:52:21Z</time>
      </trkpt>
      <trkpt lat="42.78673" lon="0.47624">
        <ele>1599.517506</ele>
        <time>2012-01-28T12:52:22Z</time>
      </trkpt>
      <trkpt lat="42.7867" lon="0.47619">
        <ele>1599.517471</ele>
        <time>2012-01-28T12:52:23Z</time>
      </trkpt>
      <trkpt lat="42.78667" lon="0.47614">
        <ele>1599.517445</ele>
        <time>2012-01-28T12:52:24Z</time>
      </trkpt>
      <trkpt lat="42.78664" lon="0.47609">
        <ele>1599.517422</ele>
        <time>2012-01-28T12:52:25Z</time>
      </trkpt>
      <trkpt lat="42.78658" lon="0.47601">
        <ele>1599.517372</ele>
        <time>2012-01-28T12:52:27Z</time>
      </trkpt>
      <trkpt lat="42.78652" lon="0.47593">
        <ele>1598.51733</ele>
        <time>2012-01-28T12:52:29Z</time>
      </trkpt>
      <trkpt lat="42.78646" lon="0.47585">
        <ele>1598.517273</ele>
        <time>2012-01-28T12:52:31Z</time>
      </trkpt>
      <trkpt lat="42.78643" lon="0.4758">
        <ele>1598.51725</ele>
        <time>2012-01-28T12:52:32Z</time>
      </trkpt>
      <trkpt lat="42.7864" lon="0.47575">
        <ele>1598.517216</ele>
        <time>2012-01-28T12:52:33Z</time>
      </trkpt>
      <trkpt lat="42.78636" lon="0.47569">
        <ele>1598.517181</ele>
        <time>2012-01-28T12:52:34Z</time>
      </trkpt>
      <trkpt lat="42.78633" lon="0.47565">
        <ele>1598.517159</ele>
        <time>2012-01-28T12:52:35Z</time>
      </trkpt>
      <trkpt lat="42.78627" lon="0.47555">
        <ele>1598.517105</ele>
        <time>2012-01-28T12:52:37Z</time>
      </trkpt>
      <trkpt lat="42.78624" lon="0.4755">
        <ele>1598.517078</ele>
        <time>2012-01-28T12:52:38Z</time>
      </trkpt>
      <trkpt lat="42.78619" lon="0.47541">
        <ele>1598.517029</ele>
        <time>2012-01-28T12:52:40Z</time>
      </trkpt>
      <trkpt lat="42.78613" lon="0.47534">
        <ele>1599.516983</ele>
        <time>2012-01-28T12:52:42Z</time>
      </trkpt>
      <trkpt lat="42.78611" lon="0.4753">
        <ele>1599.51696</ele>
        <time>2012-01-28T12:52:43Z</time>
      </trkpt>
      <trkpt lat="42.78605" lon="0.47522">
        <ele>1599.516914</ele>
        <time>2012-01-28T12:52:45Z</time>
      </trkpt>
      <trkpt lat="42.786" lon="0.47513">
        <ele>1600.516861</ele>
        <time>2012-01-28T12:52:47Z</time>
      </trkpt>
      <trkpt lat="42.78594" lon="0.47504">
        <ele>1601.516815</ele>
        <time>2012-01-28T12:52:49Z</time>
      </trkpt>
      <trkpt lat="42.78591" lon="0.47499">
        <ele>1601.516785</ele>
        <time>2012-01-28T12:52:50Z</time>
      </trkpt>
      <trkpt lat="42.78586" lon="0.47491">
        <ele>1603.516739</ele>
        <time>2012-01-28T12:52:52Z</time>
      </trkpt>
      <trkpt lat="42.7858" lon="0.47483">
        <ele>1603.516689</ele>
        <time>2012-01-28T12:52:54Z</time>
      </trkpt>
      <trkpt lat="42.78575" lon="0.47475">
        <ele>1603.516647</ele>
        <time>2012-01-28T12:52:56Z</time>
      </trkpt>
      <trkpt lat="42.78569" lon="0.47467">
        <ele>1603.516598</ele>
        <time>2012-01-28T12:52:58Z</time>
      </trkpt>
      <trkpt lat="42.78564" lon="0.47459">
        <ele>1603.516556</ele>
        <time>2012-01-28T12:53:00Z</time>
      </trkpt>
      <trkpt lat="42.78559" lon="0.47453">
        <ele>1603.516514</ele>
        <time>2012-01-28T12:53:02Z</time>
      </trkpt>
      <trkpt lat="42.78554" lon="0.47446">
        <ele>1603.516464</ele>
        <time>2012-01-28T12:53:04Z</time>
      </trkpt>
      <trkpt lat="42.78551" lon="0.47442">
        <ele>1604.516449</ele>
        <time>2012-01-28T12:53:05Z</time>
      </trkpt>
      <trkpt lat="42.78546" lon="0.47435">
        <ele>1605.516407</ele>
        <time>2012-01-28T12:53:07Z</time>
      </trkpt>
      <trkpt lat="42.78542" lon="0.47428">
        <ele>1607.516365</ele>
        <time>2012-01-28T12:53:09Z</time>
      </trkpt>
      <trkpt lat="42.78537" lon="0.47421">
        <ele>1607.516323</ele>
        <time>2012-01-28T12:53:11Z</time>
      </trkpt>
      <trkpt lat="42.78532" lon="0.47414">
        <ele>1608.516281</ele>
        <time>2012-01-28T12:53:13Z</time>
      </trkpt>
      <trkpt lat="42.78528" lon="0.47406">
        <ele>1609.516243</ele>
        <time>2012-01-28T12:53:15Z</time>
      </trkpt>
      <trkpt lat="42.78523" lon="0.47399">
        <ele>1610.516205</ele>
        <time>2012-01-28T12:53:17Z</time>
      </trkpt>
      <trkpt lat="42.78518" lon="0.47392">
        <ele>1610.516155</ele>
        <time>2012-01-28T12:53:19Z</time>
      </trkpt>
      <trkpt lat="42.78515" lon="0.47388">
        <ele>1611.51614</ele>
        <time>2012-01-28T12:53:20Z</time>
      </trkpt>
      <trkpt lat="42.7851" lon="0.47381">
        <ele>1612.516094</ele>
        <time>2012-01-28T12:53:22Z</time>
      </trkpt>
      <trkpt lat="42.78504" lon="0.47374">
        <ele>1612.516052</ele>
        <time>2012-01-28T12:53:24Z</time>
      </trkpt>
      <trkpt lat="42.78499" lon="0.47367">
        <ele>1613.516006</ele>
        <time>2012-01-28T12:53:26Z</time>
      </trkpt>
      <trkpt lat="42.78493" lon="0.4736">
        <ele>1614.515949</ele>
        <time>2012-01-28T12:53:28Z</time>
      </trkpt>
      <trkpt lat="42.7849" lon="0.47357">
        <ele>1614.51593</ele>
        <time>2012-01-28T12:53:29Z</time>
      </trkpt>
      <trkpt lat="42.78484" lon="0.47349">
        <ele>1614.515881</ele>
        <time>2012-01-28T12:53:31Z</time>
      </trkpt>
      <trkpt lat="42.78478" lon="0.47341">
        <ele>1615.515839</ele>
        <time>2012-01-28T12:53:33Z</time>
      </trkpt>
      <trkpt lat="42.78472" lon="0.47333">
        <ele>1615.515793</ele>
        <time>2012-01-28T12:53:35Z</time>
      </trkpt>
      <trkpt lat="42.78467" lon="0.47326">
        <ele>1615.515743</ele>
        <time>2012-01-28T12:53:37Z</time>
      </trkpt>
      <trkpt lat="42.78462" lon="0.47319">
        <ele>1616.515705</ele>
        <time>2012-01-28T12:53:39Z</time>
      </trkpt>
      <trkpt lat="42.78457" lon="0.47312">
        <ele>1617.515659</ele>
        <time>2012-01-28T12:53:41Z</time>
      </trkpt>
      <trkpt lat="42.78452" lon="0.47306">
        <ele>1617.515621</ele>
        <time>2012-01-28T12:53:43Z</time>
      </trkpt>
      <trkpt lat="42.78446" lon="0.47298">
        <ele>1618.515572</ele>
        <time>2012-01-28T12:53:45Z</time>
      </trkpt>
      <trkpt lat="42.78441" lon="0.47291">
        <ele>1619.51553</ele>
        <time>2012-01-28T12:53:47Z</time>
      </trkpt>
      <trkpt lat="42.78436" lon="0.47284">
        <ele>1620.515484</ele>
        <time>2012-01-28T12:53:49Z</time>
      </trkpt>
      <trkpt lat="42.78431" lon="0.47278">
        <ele>1620.515446</ele>
        <time>2012-01-28T12:53:51Z</time>
      </trkpt>
      <trkpt lat="42.78426" lon="0.47271">
        <ele>1621.5154</ele>
        <time>2012-01-28T12:53:53Z</time>
      </trkpt>
      <trkpt lat="42.7842" lon="0.47263">
        <ele>1623.515354</ele>
        <time>2012-01-28T12:53:55Z</time>
      </trkpt>
      <trkpt lat="42.78414" lon="0.47254">
        <ele>1624.515308</ele>
        <time>2012-01-28T12:53:57Z</time>
      </trkpt>
      <trkpt lat="42.78411" lon="0.47249">
        <ele>1624.515278</ele>
        <time>2012-01-28T12:53:58Z</time>
      </trkpt>
      <trkpt lat="42.78408" lon="0.47244">
        <ele>1625.515255</ele>
        <time>2012-01-28T12:53:59Z</time>
      </trkpt>
      <trkpt lat="42.78405" lon="0.47239">
        <ele>1625.515221</ele>
        <time>2012-01-28T12:54:00Z</time>
      </trkpt>
      <trkpt lat="42.78402" lon="0.47234">
        <ele>1626.515198</ele>
        <time>2012-01-28T12:54:01Z</time>
      </trkpt>
      <trkpt lat="42.784" lon="0.47229">
        <ele>1627.515167</ele>
        <time>2012-01-28T12:54:02Z</time>
      </trkpt>
      <trkpt lat="42.78394" lon="0.47219">
        <ele>1628.515121</ele>
        <time>2012-01-28T12:54:04Z</time>
      </trkpt>
      <trkpt lat="42.78391" lon="0.47214">
        <ele>1628.515095</ele>
        <time>2012-01-28T12:54:05Z</time>
      </trkpt>
      <trkpt lat="42.78386" lon="0.47206">
        <ele>1629.515049</ele>
        <time>2012-01-28T12:54:07Z</time>
      </trkpt>
      <trkpt lat="42.78381" lon="0.47198">
        <ele>1630.515003</ele>
        <time>2012-01-28T12:54:09Z</time>
      </trkpt>
      <trkpt lat="42.78376" lon="0.4719">
        <ele>1630.514957</ele>
        <time>2012-01-28T12:54:11Z</time>
      </trkpt>
      <trkpt lat="42.78371" lon="0.47183">
        <ele>1631.514915</ele>
        <time>2012-01-28T12:54:13Z</time>
      </trkpt>
      <trkpt lat="42.78367" lon="0.47175">
        <ele>1633.514874</ele>
        <time>2012-01-28T12:54:15Z</time>
      </trkpt>
      <trkpt lat="42.78363" lon="0.47168">
        <ele>1635.514839</ele>
        <time>2012-01-28T12:54:17Z</time>
      </trkpt>
      <trkpt lat="42.78358" lon="0.47161">
        <ele>1636.514793</ele>
        <time>2012-01-28T12:54:19Z</time>
      </trkpt>
      <trkpt lat="42.78353" lon="0.47153">
        <ele>1637.514755</ele>
        <time>2012-01-28T12:54:21Z</time>
      </trkpt>
      <trkpt lat="42.78348" lon="0.47146">
        <ele>1637.514709</ele>
        <time>2012-01-28T12:54:23Z</time>
      </trkpt>
      <trkpt lat="42.78343" lon="0.47139">
        <ele>1638.514668</ele>
        <time>2012-01-28T12:54:25Z</time>
      </trkpt>
      <trkpt lat="42.78338" lon="0.47133">
        <ele>1639.514626</ele>
        <time>2012-01-28T12:54:27Z</time>
      </trkpt>
      <trkpt lat="42.78333" lon="0.47127">
        <ele>1640.514587</ele>
        <time>2012-01-28T12:54:29Z</time>
      </trkpt>
      <trkpt lat="42.78328" lon="0.47121">
        <ele>1641.514549</ele>
        <time>2012-01-28T12:54:31Z</time>
      </trkpt>
      <trkpt lat="42.78323" lon="0.47116">
        <ele>1642.514515</ele>
        <time>2012-01-28T12:54:33Z</time>
      </trkpt>
      <trkpt lat="42.78319" lon="0.47112">
        <ele>1643.514477</ele>
        <time>2012-01-28T12:54:35Z</time>
      </trkpt>
      <trkpt lat="42.78314" lon="0.47106">
        <ele>1644.514442</ele>
        <time>2012-01-28T12:54:37Z</time>
      </trkpt>
      <trkpt lat="42.78309" lon="0.47101">
        <ele>1645.514404</ele>
        <time>2012-01-28T12:54:39Z</time>
      </trkpt>
      <trkpt lat="42.78305" lon="0.47095">
        <ele>1646.514366</ele>
        <time>2012-01-28T12:54:41Z</time>
      </trkpt>
      <trkpt lat="42.783" lon="0.4709">
        <ele>1647.514336</ele>
        <time>2012-01-28T12:54:43Z</time>
      </trkpt>
      <trkpt lat="42.78296" lon="0.47084">
        <ele>1648.514301</ele>
        <time>2012-01-28T12:54:45Z</time>
      </trkpt>
      <trkpt lat="42.78291" lon="0.47078">
        <ele>1649.514263</ele>
        <time>2012-01-28T12:54:47Z</time>
      </trkpt>
      <trkpt lat="42.78286" lon="0.47073">
        <ele>1649.514221</ele>
        <time>2012-01-28T12:54:49Z</time>
      </trkpt>
      <trkpt lat="42.78278" lon="0.47064">
        <ele>1650.51416</ele>
        <time>2012-01-28T12:54:52Z</time>
      </trkpt>
      <trkpt lat="42.78273" lon="0.47058">
        <ele>1652.514122</ele>
        <time>2012-01-28T12:54:54Z</time>
      </trkpt>
      <trkpt lat="42.78268" lon="0.47052">
        <ele>1652.514084</ele>
        <time>2012-01-28T12:54:56Z</time>
      </trkpt>
      <trkpt lat="42.78263" lon="0.47045">
        <ele>1653.514038</ele>
        <time>2012-01-28T12:54:58Z</time>
      </trkpt>
      <trkpt lat="42.78258" lon="0.47039">
        <ele>1654.513996</ele>
        <time>2012-01-28T12:55:00Z</time>
      </trkpt>
      <trkpt lat="42.78255" lon="0.47035">
        <ele>1654.513981</ele>
        <time>2012-01-28T12:55:01Z</time>
      </trkpt>
      <trkpt lat="42.7825" lon="0.47029">
        <ele>1655.513939</ele>
        <time>2012-01-28T12:55:03Z</time>
      </trkpt>
      <trkpt lat="42.78245" lon="0.47022">
        <ele>1656.513893</ele>
        <time>2012-01-28T12:55:05Z</time>
      </trkpt>
      <trkpt lat="42.78242" lon="0.47018">
        <ele>1656.51387</ele>
        <time>2012-01-28T12:55:06Z</time>
      </trkpt>
      <trkpt lat="42.78237" lon="0.4701">
        <ele>1657.513824</ele>
        <time>2012-01-28T12:55:08Z</time>
      </trkpt>
      <trkpt lat="42.78231" lon="0.47002">
        <ele>1657.513779</ele>
        <time>2012-01-28T12:55:10Z</time>
      </trkpt>
      <trkpt lat="42.78226" lon="0.46995">
        <ele>1657.513737</ele>
        <time>2012-01-28T12:55:12Z</time>
      </trkpt>
      <trkpt lat="42.78221" lon="0.46988">
        <ele>1657.513691</ele>
        <time>2012-01-28T12:55:14Z</time>
      </trkpt>
      <trkpt lat="42.78217" lon="0.46982">
        <ele>1658.513653</ele>
        <time>2012-01-28T12:55:16Z</time>
      </trkpt>
      <trkpt lat="42.7821" lon="0.46974">
        <ele>1658.513603</ele>
        <time>2012-01-28T12:55:18Z</time>
      </trkpt>
      <trkpt lat="42.78205" lon="0.46969">
        <ele>1658.513561</ele>
        <time>2012-01-28T12:55:20Z</time>
      </trkpt>
      <trkpt lat="42.78199" lon="0.46961">
        <ele>1658.513519</ele>
        <time>2012-01-28T12:55:22Z</time>
      </trkpt>
      <trkpt lat="42.78196" lon="0.46956">
        <ele>1658.513493</ele>
        <time>2012-01-28T12:55:23Z</time>
      </trkpt>
      <trkpt lat="42.78193" lon="0.46952">
        <ele>1658.513466</ele>
        <time>2012-01-28T12:55:24Z</time>
      </trkpt>
      <trkpt lat="42.7819" lon="0.46947">
        <ele>1658.513439</ele>
        <time>2012-01-28T12:55:25Z</time>
      </trkpt>
      <trkpt lat="42.78187" lon="0.46942">
        <ele>1658.513409</ele>
        <time>2012-01-28T12:55:26Z</time>
      </trkpt>
      <trkpt lat="42.78184" lon="0.46937">
        <ele>1657.513382</ele>
        <time>2012-01-28T12:55:27Z</time>
      </trkpt>
      <trkpt lat="42.78179" lon="0.46928">
        <ele>1657.513332</ele>
        <time>2012-01-28T12:55:29Z</time>
      </trkpt>
      <trkpt lat="42.78173" lon="0.46919">
        <ele>1657.513283</ele>
        <time>2012-01-28T12:55:31Z</time>
      </trkpt>
      <trkpt lat="42.78167" lon="0.46909">
        <ele>1657.513229</ele>
        <time>2012-01-28T12:55:33Z</time>
      </trkpt>
      <trkpt lat="42.78165" lon="0.46903">
        <ele>1657.513203</ele>
        <time>2012-01-28T12:55:34Z</time>
      </trkpt>
      <trkpt lat="42.78162" lon="0.46898">
        <ele>1657.51318</ele>
        <time>2012-01-28T12:55:35Z</time>
      </trkpt>
      <trkpt lat="42.78157" lon="0.46888">
        <ele>1657.513123</ele>
        <time>2012-01-28T12:55:37Z</time>
      </trkpt>
      <trkpt lat="42.78154" lon="0.46881">
        <ele>1657.513092</ele>
        <time>2012-01-28T12:55:38Z</time>
      </trkpt>
      <trkpt lat="42.78151" lon="0.46873">
        <ele>1657.513058</ele>
        <time>2012-01-28T12:55:39Z</time>
      </trkpt>
      <trkpt lat="42.78148" lon="0.46866">
        <ele>1657.51302</ele>
        <time>2012-01-28T12:55:40Z</time>
      </trkpt>
      <trkpt lat="42.78145" lon="0.46859">
        <ele>1657.512993</ele>
        <time>2012-01-28T12:55:41Z</time>
      </trkpt>
      <trkpt lat="42.78142" lon="0.46852">
        <ele>1657.512962</ele>
        <time>2012-01-28T12:55:42Z</time>
      </trkpt>
      <trkpt lat="42.78139" lon="0.46845">
        <ele>1657.512924</ele>
        <time>2012-01-28T12:55:43Z</time>
      </trkpt>
      <trkpt lat="42.78136" lon="0.46838">
        <ele>1657.512897</ele>
        <time>2012-01-28T12:55:44Z</time>
      </trkpt>
      <trkpt lat="42.78133" lon="0.46832">
        <ele>1657.512863</ele>
        <time>2012-01-28T12:55:45Z</time>
      </trkpt>
      <trkpt lat="42.7813" lon="0.46825">
        <ele>1658.512833</ele>
        <time>2012-01-28T12:55:46Z</time>
      </trkpt>
      <trkpt lat="42.78127" lon="0.46819">
        <ele>1658.512802</ele>
        <time>2012-01-28T12:55:47Z</time>
      </trkpt>
      <trkpt lat="42.78124" lon="0.46812">
        <ele>1658.512772</ele>
        <time>2012-01-28T12:55:48Z</time>
      </trkpt>
      <trkpt lat="42.78121" lon="0.46806">
        <ele>1658.512741</ele>
        <time>2012-01-28T12:55:49Z</time>
      </trkpt>
      <trkpt lat="42.78118" lon="0.46799">
        <ele>1658.512711</ele>
        <time>2012-01-28T12:55:50Z</time>
      </trkpt>
      <trkpt lat="42.78115" lon="0.46793">
        <ele>1658.51268</ele>
        <time>2012-01-28T12:55:51Z</time>
      </trkpt>
      <trkpt lat="42.78112" lon="0.46786">
        <ele>1658.512646</ele>
        <time>2012-01-28T12:55:52Z</time>
      </trkpt>
      <trkpt lat="42.78109" lon="0.4678">
        <ele>1658.512615</ele>
        <time>2012-01-28T12:55:53Z</time>
      </trkpt>
      <trkpt lat="42.78106" lon="0.46773">
        <ele>1658.512581</ele>
        <time>2012-01-28T12:55:54Z</time>
      </trkpt>
      <trkpt lat="42.78102" lon="0.46767">
        <ele>1658.512547</ele>
        <time>2012-01-28T12:55:55Z</time>
      </trkpt>
      <trkpt lat="42.78099" lon="0.4676">
        <ele>1658.512516</ele>
        <time>2012-01-28T12:55:56Z</time>
      </trkpt>
      <trkpt lat="42.78096" lon="0.46754">
        <ele>1658.512486</ele>
        <time>2012-01-28T12:55:57Z</time>
      </trkpt>
      <trkpt lat="42.78093" lon="0.46747">
        <ele>1658.512455</ele>
        <time>2012-01-28T12:55:58Z</time>
      </trkpt>
      <trkpt lat="42.7809" lon="0.46741">
        <ele>1657.512424</ele>
        <time>2012-01-28T12:55:59Z</time>
      </trkpt>
      <trkpt lat="42.78088" lon="0.46735">
        <ele>1657.512394</ele>
        <time>2012-01-28T12:56:00Z</time>
      </trkpt>
      <trkpt lat="42.78085" lon="0.46728">
        <ele>1657.512363</ele>
        <time>2012-01-28T12:56:01Z</time>
      </trkpt>
      <trkpt lat="42.78082" lon="0.46722">
        <ele>1657.512333</ele>
        <time>2012-01-28T12:56:02Z</time>
      </trkpt>
      <trkpt lat="42.78079" lon="0.46716">
        <ele>1657.512306</ele>
        <time>2012-01-28T12:56:03Z</time>
      </trkpt>
      <trkpt lat="42.78076" lon="0.4671">
        <ele>1657.51228</ele>
        <time>2012-01-28T12:56:04Z</time>
      </trkpt>
      <trkpt lat="42.78074" lon="0.46704">
        <ele>1657.512249</ele>
        <time>2012-01-28T12:56:05Z</time>
      </trkpt>
      <trkpt lat="42.78071" lon="0.46698">
        <ele>1657.512215</ele>
        <time>2012-01-28T12:56:06Z</time>
      </trkpt>
      <trkpt lat="42.78068" lon="0.46692">
        <ele>1657.512196</ele>
        <time>2012-01-28T12:56:07Z</time>
      </trkpt>
      <trkpt lat="42.78066" lon="0.46687">
        <ele>1657.512165</ele>
        <time>2012-01-28T12:56:08Z</time>
      </trkpt>
      <trkpt lat="42.78063" lon="0.46681">
        <ele>1657.512135</ele>
        <time>2012-01-28T12:56:09Z</time>
      </trkpt>
      <trkpt lat="42.7806" lon="0.46676">
        <ele>1657.512108</ele>
        <time>2012-01-28T12:56:10Z</time>
      </trkpt>
      <trkpt lat="42.78057" lon="0.4667">
        <ele>1657.512077</ele>
        <time>2012-01-28T12:56:11Z</time>
      </trkpt>
      <trkpt lat="42.78054" lon="0.46664">
        <ele>1657.512047</ele>
        <time>2012-01-28T12:56:12Z</time>
      </trkpt>
      <trkpt lat="42.7805" lon="0.46658">
        <ele>1657.512016</ele>
        <time>2012-01-28T12:56:13Z</time>
      </trkpt>
      <trkpt lat="42.78047" lon="0.46652">
        <ele>1657.511986</ele>
        <time>2012-01-28T12:56:14Z</time>
      </trkpt>
      <trkpt lat="42.78044" lon="0.46646">
        <ele>1657.511955</ele>
        <time>2012-01-28T12:56:15Z</time>
      </trkpt>
      <trkpt lat="42.7804" lon="0.4664">
        <ele>1657.511925</ele>
        <time>2012-01-28T12:56:16Z</time>
      </trkpt>
      <trkpt lat="42.78037" lon="0.46634">
        <ele>1657.511894</ele>
        <time>2012-01-28T12:56:17Z</time>
      </trkpt>
      <trkpt lat="42.78033" lon="0.46628">
        <ele>1657.51186</ele>
        <time>2012-01-28T12:56:18Z</time>
      </trkpt>
      <trkpt lat="42.7803" lon="0.46623">
        <ele>1658.511826</ele>
        <time>2012-01-28T12:56:19Z</time>
      </trkpt>
      <trkpt lat="42.78026" lon="0.46617">
        <ele>1658.511795</ele>
        <time>2012-01-28T12:56:20Z</time>
      </trkpt>
      <trkpt lat="42.78023" lon="0.46611">
        <ele>1658.511768</ele>
        <time>2012-01-28T12:56:21Z</time>
      </trkpt>
      <trkpt lat="42.7802" lon="0.46605">
        <ele>1658.511734</ele>
        <time>2012-01-28T12:56:22Z</time>
      </trkpt>
      <trkpt lat="42.78016" lon="0.46599">
        <ele>1658.5117</ele>
        <time>2012-01-28T12:56:23Z</time>
      </trkpt>
      <trkpt lat="42.78014" lon="0.46593">
        <ele>1658.511673</ele>
        <time>2012-01-28T12:56:24Z</time>
      </trkpt>
      <trkpt lat="42.78011" lon="0.46588">
        <ele>1657.511646</ele>
        <time>2012-01-28T12:56:25Z</time>
      </trkpt>
      <trkpt lat="42.78008" lon="0.46582">
        <ele>1657.511616</ele>
        <time>2012-01-28T12:56:26Z</time>
      </trkpt>
      <trkpt lat="42.78006" lon="0.46576">
        <ele>1657.511589</ele>
        <time>2012-01-28T12:56:27Z</time>
      </trkpt>
      <trkpt lat="42.78003" lon="0.46571">
        <ele>1657.511566</ele>
        <time>2012-01-28T12:56:28Z</time>
      </trkpt>
      <trkpt lat="42.78001" lon="0.46565">
        <ele>1657.511536</ele>
        <time>2012-01-28T12:56:29Z</time>
      </trkpt>
      <trkpt lat="42.77998" lon="0.4656">
        <ele>1658.511509</ele>
        <time>2012-01-28T12:56:30Z</time>
      </trkpt>
      <trkpt lat="42.77995" lon="0.46554">
        <ele>1658.511482</ele>
        <time>2012-01-28T12:56:31Z</time>
      </trkpt>
      <trkpt lat="42.77992" lon="0.46549">
        <ele>1658.511459</ele>
        <time>2012-01-28T12:56:32Z</time>
      </trkpt>
      <trkpt lat="42.77989" lon="0.46543">
        <ele>1658.511425</ele>
        <time>2012-01-28T12:56:33Z</time>
      </trkpt>
      <trkpt lat="42.77986" lon="0.46538">
        <ele>1658.511395</ele>
        <time>2012-01-28T12:56:34Z</time>
      </trkpt>
      <trkpt lat="42.77982" lon="0.46532">
        <ele>1658.51136</ele>
        <time>2012-01-28T12:56:35Z</time>
      </trkpt>
      <trkpt lat="42.77979" lon="0.46527">
        <ele>1658.511337</ele>
        <time>2012-01-28T12:56:36Z</time>
      </trkpt>
      <trkpt lat="42.77976" lon="0.46521">
        <ele>1658.511303</ele>
        <time>2012-01-28T12:56:37Z</time>
      </trkpt>
      <trkpt lat="42.77973" lon="0.46515">
        <ele>1657.511276</ele>
        <time>2012-01-28T12:56:38Z</time>
      </trkpt>
      <trkpt lat="42.77971" lon="0.4651">
        <ele>1657.511253</ele>
        <time>2012-01-28T12:56:39Z</time>
      </trkpt>
      <trkpt lat="42.77968" lon="0.46504">
        <ele>1657.511227</ele>
        <time>2012-01-28T12:56:40Z</time>
      </trkpt>
      <trkpt lat="42.77966" lon="0.46499">
        <ele>1657.5112</ele>
        <time>2012-01-28T12:56:41Z</time>
      </trkpt>
      <trkpt lat="42.77963" lon="0.46493">
        <ele>1657.511173</ele>
        <time>2012-01-28T12:56:42Z</time>
      </trkpt>
      <trkpt lat="42.77959" lon="0.4649">
        <ele>1658.511147</ele>
        <time>2012-01-28T12:56:44Z</time>
      </trkpt>
      <trkpt lat="42.77954" lon="0.46489">
        <ele>1658.511124</ele>
        <time>2012-01-28T12:56:46Z</time>
      </trkpt>
      <trkpt lat="42.7795" lon="0.46487">
        <ele>1658.511093</ele>
        <time>2012-01-28T12:56:48Z</time>
      </trkpt>
      <trkpt lat="42.77945" lon="0.46485">
        <ele>1659.511059</ele>
        <time>2012-01-28T12:56:50Z</time>
      </trkpt>
      <trkpt lat="42.7794" lon="0.46481">
        <ele>1658.511028</ele>
        <time>2012-01-28T12:56:52Z</time>
      </trkpt>
      <trkpt lat="42.77935" lon="0.46476">
        <ele>1658.51099</ele>
        <time>2012-01-28T12:56:54Z</time>
      </trkpt>
      <trkpt lat="42.77931" lon="0.4647">
        <ele>1658.510956</ele>
        <time>2012-01-28T12:56:56Z</time>
      </trkpt>
      <trkpt lat="42.77926" lon="0.46464">
        <ele>1658.510914</ele>
        <time>2012-01-28T12:56:58Z</time>
      </trkpt>
      <trkpt lat="42.77921" lon="0.46457">
        <ele>1658.51088</ele>
        <time>2012-01-28T12:57:00Z</time>
      </trkpt>
      <trkpt lat="42.77916" lon="0.46449">
        <ele>1658.510834</ele>
        <time>2012-01-28T12:57:02Z</time>
      </trkpt>
      <trkpt lat="42.77911" lon="0.46441">
        <ele>1658.510792</ele>
        <time>2012-01-28T12:57:04Z</time>
      </trkpt>
      <trkpt lat="42.77905" lon="0.46433">
        <ele>1658.510735</ele>
        <time>2012-01-28T12:57:06Z</time>
      </trkpt>
      <trkpt lat="42.77902" lon="0.46428">
        <ele>1658.510712</ele>
        <time>2012-01-28T12:57:07Z</time>
      </trkpt>
      <trkpt lat="42.77899" lon="0.46424">
        <ele>1658.510685</ele>
        <time>2012-01-28T12:57:08Z</time>
      </trkpt>
      <trkpt lat="42.77894" lon="0.46414">
        <ele>1658.510632</ele>
        <time>2012-01-28T12:57:10Z</time>
      </trkpt>
      <trkpt lat="42.77888" lon="0.46405">
        <ele>1658.510582</ele>
        <time>2012-01-28T12:57:12Z</time>
      </trkpt>
      <trkpt lat="42.77885" lon="0.464">
        <ele>1658.510559</ele>
        <time>2012-01-28T12:57:13Z</time>
      </trkpt>
      <trkpt lat="42.77882" lon="0.46396">
        <ele>1658.510536</ele>
        <time>2012-01-28T12:57:14Z</time>
      </trkpt>
      <trkpt lat="42.77877" lon="0.46387">
        <ele>1658.510479</ele>
        <time>2012-01-28T12:57:16Z</time>
      </trkpt>
      <trkpt lat="42.77873" lon="0.46382">
        <ele>1658.510448</ele>
        <time>2012-01-28T12:57:17Z</time>
      </trkpt>
      <trkpt lat="42.77869" lon="0.46376">
        <ele>1658.510418</ele>
        <time>2012-01-28T12:57:18Z</time>
      </trkpt>
      <trkpt lat="42.77866" lon="0.46371">
        <ele>1658.510387</ele>
        <time>2012-01-28T12:57:19Z</time>
      </trkpt>
      <trkpt lat="42.77863" lon="0.46366">
        <ele>1658.510365</ele>
        <time>2012-01-28T12:57:20Z</time>
      </trkpt>
      <trkpt lat="42.77858" lon="0.46357">
        <ele>1658.510315</ele>
        <time>2012-01-28T12:57:22Z</time>
      </trkpt>
      <trkpt lat="42.77853" lon="0.46347">
        <ele>1658.510265</ele>
        <time>2012-01-28T12:57:24Z</time>
      </trkpt>
      <trkpt lat="42.77848" lon="0.46337">
        <ele>1659.510216</ele>
        <time>2012-01-28T12:57:26Z</time>
      </trkpt>
      <trkpt lat="42.77846" lon="0.46332">
        <ele>1659.510193</ele>
        <time>2012-01-28T12:57:27Z</time>
      </trkpt>
      <trkpt lat="42.77841" lon="0.46321">
        <ele>1659.510147</ele>
        <time>2012-01-28T12:57:29Z</time>
      </trkpt>
      <trkpt lat="42.77836" lon="0.46319">
        <ele>1660.510117</ele>
        <time>2012-01-28T12:57:32Z</time>
      </trkpt>
      <trkpt lat="42.77832" lon="0.46319">
        <ele>1661.51009</ele>
        <time>2012-01-28T12:57:34Z</time>
      </trkpt>
      <trkpt lat="42.77826" lon="0.46316">
        <ele>1661.510056</ele>
        <time>2012-01-28T12:57:36Z</time>
      </trkpt>
      <trkpt lat="42.77822" lon="0.46313">
        <ele>1661.510029</ele>
        <time>2012-01-28T12:57:38Z</time>
      </trkpt>
      <trkpt lat="42.77799" lon="0.46339">
        <ele>1662.509987</ele>
        <time>2012-01-28T12:57:53Z</time>
      </trkpt>
      <trkpt lat="42.77776" lon="0.46362">
        <ele>1662.509933</ele>
        <time>2012-01-28T12:58:07Z</time>
      </trkpt>
      <trkpt lat="42.77748" lon="0.46355">
        <ele>1662.509785</ele>
        <time>2012-01-28T12:58:22Z</time>
      </trkpt>
      <trkpt lat="42.77725" lon="0.46333">
        <ele>1661.509621</ele>
        <time>2012-01-28T12:58:29Z</time>
      </trkpt>
      <trkpt lat="42.77707" lon="0.46306">
        <ele>1660.50946</ele>
        <time>2012-01-28T12:58:34Z</time>
      </trkpt>
      <trkpt lat="42.77703" lon="0.46299">
        <ele>1660.509426</ele>
        <time>2012-01-28T12:58:35Z</time>
      </trkpt>
      <trkpt lat="42.77699" lon="0.46293">
        <ele>1661.509392</ele>
        <time>2012-01-28T12:58:36Z</time>
      </trkpt>
      <trkpt lat="42.77695" lon="0.46286">
        <ele>1661.509354</ele>
        <time>2012-01-28T12:58:37Z</time>
      </trkpt>
      <trkpt lat="42.77691" lon="0.46279">
        <ele>1661.509312</ele>
        <time>2012-01-28T12:58:38Z</time>
      </trkpt>
      <trkpt lat="42.77687" lon="0.46271">
        <ele>1661.509274</ele>
        <time>2012-01-28T12:58:39Z</time>
      </trkpt>
      <trkpt lat="42.77683" lon="0.46263">
        <ele>1661.509235</ele>
        <time>2012-01-28T12:58:40Z</time>
      </trkpt>
      <trkpt lat="42.7768" lon="0.46256">
        <ele>1661.509205</ele>
        <time>2012-01-28T12:58:41Z</time>
      </trkpt>
      <trkpt lat="42.77676" lon="0.4625">
        <ele>1661.509163</ele>
        <time>2012-01-28T12:58:42Z</time>
      </trkpt>
      <trkpt lat="42.77673" lon="0.46243">
        <ele>1661.509132</ele>
        <time>2012-01-28T12:58:43Z</time>
      </trkpt>
      <trkpt lat="42.7767" lon="0.46237">
        <ele>1662.509109</ele>
        <time>2012-01-28T12:58:44Z</time>
      </trkpt>
      <trkpt lat="42.77667" lon="0.46231">
        <ele>1662.509075</ele>
        <time>2012-01-28T12:58:45Z</time>
      </trkpt>
      <trkpt lat="42.77664" lon="0.46224">
        <ele>1662.509041</ele>
        <time>2012-01-28T12:58:46Z</time>
      </trkpt>
      <trkpt lat="42.77661" lon="0.46215">
        <ele>1663.509003</ele>
        <time>2012-01-28T12:58:47Z</time>
      </trkpt>
      <trkpt lat="42.77658" lon="0.46202">
        <ele>1663.508953</ele>
        <time>2012-01-28T12:58:48Z</time>
      </trkpt>
      <trkpt lat="42.77655" lon="0.46191">
        <ele>1664.508911</ele>
        <time>2012-01-28T12:58:49Z</time>
      </trkpt>
      <trkpt lat="42.77652" lon="0.46177">
        <ele>1664.508865</ele>
        <time>2012-01-28T12:58:50Z</time>
      </trkpt>
      <trkpt lat="42.7765" lon="0.46163">
        <ele>1664.508816</ele>
        <time>2012-01-28T12:58:51Z</time>
      </trkpt>
      <trkpt lat="42.77647" lon="0.46149">
        <ele>1665.508766</ele>
        <time>2012-01-28T12:58:52Z</time>
      </trkpt>
      <trkpt lat="42.77644" lon="0.46133">
        <ele>1665.508709</ele>
        <time>2012-01-28T12:58:53Z</time>
      </trkpt>
      <trkpt lat="42.77641" lon="0.46111">
        <ele>1665.508633</ele>
        <time>2012-01-28T12:58:54Z</time>
      </trkpt>
      <trkpt lat="42.77638" lon="0.46091">
        <ele>1665.508572</ele>
        <time>2012-01-28T12:58:55Z</time>
      </trkpt>
      <trkpt lat="42.77635" lon="0.46074">
        <ele>1665.508511</ele>
        <time>2012-01-28T12:58:56Z</time>
      </trkpt>
      <trkpt lat="42.7763" lon="0.46051">
        <ele>1668.50843</ele>
        <time>2012-01-28T12:58:58Z</time>
      </trkpt>
      <trkpt lat="42.77628" lon="0.4604">
        <ele>1669.508389</ele>
        <time>2012-01-28T12:58:59Z</time>
      </trkpt>
      <trkpt lat="42.77626" lon="0.4603">
        <ele>1670.508358</ele>
        <time>2012-01-28T12:59:00Z</time>
      </trkpt>
      <trkpt lat="42.77625" lon="0.46024">
        <ele>1671.508331</ele>
        <time>2012-01-28T12:59:01Z</time>
      </trkpt>
      <trkpt lat="42.77625" lon="0.46026">
        <ele>1673.508339</ele>
        <time>2012-01-28T12:59:02Z</time>
      </trkpt>
      <trkpt lat="42.77613" lon="0.4606">
        <ele>1676.508369</ele>
        <time>2012-01-28T12:59:10Z</time>
      </trkpt>
      <trkpt lat="42.77591" lon="0.46092">
        <ele>1676.50835</ele>
        <time>2012-01-28T12:59:15Z</time>
      </trkpt>
      <trkpt lat="42.77587" lon="0.46101">
        <ele>1676.508354</ele>
        <time>2012-01-28T12:59:16Z</time>
      </trkpt>
      <trkpt lat="42.77583" lon="0.46109">
        <ele>1676.508354</ele>
        <time>2012-01-28T12:59:17Z</time>
      </trkpt>
      <trkpt lat="42.7758" lon="0.46115">
        <ele>1675.508362</ele>
        <time>2012-01-28T12:59:18Z</time>
      </trkpt>
      <trkpt lat="42.77577" lon="0.4611">
        <ele>1678.508331</ele>
        <time>2012-01-28T12:59:20Z</time>
      </trkpt>
      <trkpt lat="42.77576" lon="0.46103">
        <ele>1679.508305</ele>
        <time>2012-01-28T12:59:21Z</time>
      </trkpt>
      <trkpt lat="42.77573" lon="0.46098">
        <ele>1679.508274</ele>
        <time>2012-01-28T12:59:22Z</time>
      </trkpt>
      <trkpt lat="42.77571" lon="0.46092">
        <ele>1679.508251</ele>
        <time>2012-01-28T12:59:23Z</time>
      </trkpt>
      <trkpt lat="42.77566" lon="0.46082">
        <ele>1679.508202</ele>
        <time>2012-01-28T12:59:25Z</time>
      </trkpt>
      <trkpt lat="42.77561" lon="0.46074">
        <ele>1678.508156</ele>
        <time>2012-01-28T12:59:27Z</time>
      </trkpt>
      <trkpt lat="42.77556" lon="0.46068">
        <ele>1678.508118</ele>
        <time>2012-01-28T12:59:29Z</time>
      </trkpt>
      <trkpt lat="42.7755" lon="0.46062">
        <ele>1677.508072</ele>
        <time>2012-01-28T12:59:31Z</time>
      </trkpt>
      <trkpt lat="42.77544" lon="0.46056">
        <ele>1676.50803</ele>
        <time>2012-01-28T12:59:33Z</time>
      </trkpt>
      <trkpt lat="42.77538" lon="0.46051">
        <ele>1675.507992</ele>
        <time>2012-01-28T12:59:35Z</time>
      </trkpt>
      <trkpt lat="42.77533" lon="0.46045">
        <ele>1675.50795</ele>
        <time>2012-01-28T12:59:37Z</time>
      </trkpt>
      <trkpt lat="42.77527" lon="0.46039">
        <ele>1674.507908</ele>
        <time>2012-01-28T12:59:39Z</time>
      </trkpt>
      <trkpt lat="42.77522" lon="0.46032">
        <ele>1673.507862</ele>
        <time>2012-01-28T12:59:41Z</time>
      </trkpt>
      <trkpt lat="42.77516" lon="0.46025">
        <ele>1673.507816</ele>
        <time>2012-01-28T12:59:43Z</time>
      </trkpt>
      <trkpt lat="42.77511" lon="0.46017">
        <ele>1673.507771</ele>
        <time>2012-01-28T12:59:45Z</time>
      </trkpt>
      <trkpt lat="42.77506" lon="0.46009">
        <ele>1673.507725</ele>
        <time>2012-01-28T12:59:47Z</time>
      </trkpt>
      <trkpt lat="42.775" lon="0.46001">
        <ele>1672.507683</ele>
        <time>2012-01-28T12:59:49Z</time>
      </trkpt>
      <trkpt lat="42.77495" lon="0.45993">
        <ele>1672.507626</ele>
        <time>2012-01-28T12:59:51Z</time>
      </trkpt>
      <trkpt lat="42.7749" lon="0.45983">
        <ele>1672.50758</ele>
        <time>2012-01-28T12:59:53Z</time>
      </trkpt>
      <trkpt lat="42.77487" lon="0.45977">
        <ele>1672.507553</ele>
        <time>2012-01-28T12:59:54Z</time>
      </trkpt>
      <trkpt lat="42.77485" lon="0.45971">
        <ele>1672.50753</ele>
        <time>2012-01-28T12:59:55Z</time>
      </trkpt>
      <trkpt lat="42.77482" lon="0.45965">
        <ele>1672.507496</ele>
        <time>2012-01-28T12:59:56Z</time>
      </trkpt>
      <trkpt lat="42.77479" lon="0.4596">
        <ele>1673.507465</ele>
        <time>2012-01-28T12:59:57Z</time>
      </trkpt>
      <trkpt lat="42.77476" lon="0.45955">
        <ele>1673.507446</ele>
        <time>2012-01-28T12:59:58Z</time>
      </trkpt>
      <trkpt lat="42.77471" lon="0.45946">
        <ele>1673.507393</ele>
        <time>2012-01-28T13:00:00Z</time>
      </trkpt>
      <trkpt lat="42.77465" lon="0.45938">
        <ele>1672.507347</ele>
        <time>2012-01-28T13:00:02Z</time>
      </trkpt>
      <trkpt lat="42.7746" lon="0.45931">
        <ele>1672.507301</ele>
        <time>2012-01-28T13:00:04Z</time>
      </trkpt>
      <trkpt lat="42.77454" lon="0.45924">
        <ele>1672.507256</ele>
        <time>2012-01-28T13:00:06Z</time>
      </trkpt>
      <trkpt lat="42.77449" lon="0.45917">
        <ele>1672.507214</ele>
        <time>2012-01-28T13:00:08Z</time>
      </trkpt>
      <trkpt lat="42.77443" lon="0.45911">
        <ele>1672.507175</ele>
        <time>2012-01-28T13:00:10Z</time>
      </trkpt>
      <trkpt lat="42.77438" lon="0.45905">
        <ele>1671.507133</ele>
        <time>2012-01-28T13:00:12Z</time>
      </trkpt>
      <trkpt lat="42.77434" lon="0.45889">
        <ele>1674.507069</ele>
        <time>2012-01-28T13:00:14Z</time>
      </trkpt>
      <trkpt lat="42.77433" lon="0.45879">
        <ele>1677.507038</ele>
        <time>2012-01-28T13:00:15Z</time>
      </trkpt>
      <trkpt lat="42.77431" lon="0.45869">
        <ele>1680.507008</ele>
        <time>2012-01-28T13:00:16Z</time>
      </trkpt>
      <trkpt lat="42.7743" lon="0.4586">
        <ele>1682.506973</ele>
        <time>2012-01-28T13:00:17Z</time>
      </trkpt>
      <trkpt lat="42.77428" lon="0.45852">
        <ele>1685.506943</ele>
        <time>2012-01-28T13:00:18Z</time>
      </trkpt>
      <trkpt lat="42.77427" lon="0.45843">
        <ele>1687.506916</ele>
        <time>2012-01-28T13:00:19Z</time>
      </trkpt>
      <trkpt lat="42.77425" lon="0.45835">
        <ele>1689.506886</ele>
        <time>2012-01-28T13:00:20Z</time>
      </trkpt>
      <trkpt lat="42.77423" lon="0.45827">
        <ele>1690.506855</ele>
        <time>2012-01-28T13:00:21Z</time>
      </trkpt>
      <trkpt lat="42.77421" lon="0.45822">
        <ele>1692.506832</ele>
        <time>2012-01-28T13:00:22Z</time>
      </trkpt>
      <trkpt lat="42.77418" lon="0.45816">
        <ele>1693.506809</ele>
        <time>2012-01-28T13:00:23Z</time>
      </trkpt>
      <trkpt lat="42.77416" lon="0.45811">
        <ele>1694.506783</ele>
        <time>2012-01-28T13:00:24Z</time>
      </trkpt>
      <trkpt lat="42.77414" lon="0.45805">
        <ele>1695.506752</ele>
        <time>2012-01-28T13:00:25Z</time>
      </trkpt>
      <trkpt lat="42.77408" lon="0.45798">
        <ele>1697.50671</ele>
        <time>2012-01-28T13:00:27Z</time>
      </trkpt>
      <trkpt lat="42.77403" lon="0.45791">
        <ele>1698.506672</ele>
        <time>2012-01-28T13:00:29Z</time>
      </trkpt>
      <trkpt lat="42.77398" lon="0.45788">
        <ele>1699.506634</ele>
        <time>2012-01-28T13:00:32Z</time>
      </trkpt>
      <trkpt lat="42.77395" lon="0.45785">
        <ele>1699.506615</ele>
        <time>2012-01-28T13:00:32Z</time>
      </trkpt>
      <trkpt lat="42.77388" lon="0.45781">
        <ele>1699.506569</ele>
        <time>2012-01-28T13:00:34Z</time>
      </trkpt>
      <trkpt lat="42.77382" lon="0.45779">
        <ele>1699.506535</ele>
        <time>2012-01-28T13:00:36Z</time>
      </trkpt>
      <trkpt lat="42.77378" lon="0.45777">
        <ele>1699.506508</ele>
        <time>2012-01-28T13:00:38Z</time>
      </trkpt>
      <trkpt lat="42.77373" lon="0.45779">
        <ele>1700.506489</ele>
        <time>2012-01-28T13:00:40Z</time>
      </trkpt>
      <trkpt lat="42.77389" lon="0.4581">
        <ele>1775.506653</ele>
        <time>2012-01-28T13:01:27Z</time>
      </trkpt>
      <trkpt lat="42.774" lon="0.45848">
        <ele>1749.506794</ele>
        <time>2012-01-28T13:01:57Z</time>
      </trkpt>
      <trkpt lat="42.77369" lon="0.45838">
        <ele>1792.50663</ele>
        <time>2012-01-28T13:02:23Z</time>
      </trkpt>
      <trkpt lat="42.77365" lon="0.45836">
        <ele>1795.506599</ele>
        <time>2012-01-28T13:02:24Z</time>
      </trkpt>
      <trkpt lat="42.7736" lon="0.45834">
        <ele>1794.506573</ele>
        <time>2012-01-28T13:02:25Z</time>
      </trkpt>
      <trkpt lat="42.77353" lon="0.45831">
        <ele>1794.506531</ele>
        <time>2012-01-28T13:02:27Z</time>
      </trkpt>
      <trkpt lat="42.7735" lon="0.45831">
        <ele>1796.506516</ele>
        <time>2012-01-28T13:02:31Z</time>
      </trkpt>
      <trkpt lat="42.77337" lon="0.45798">
        <ele>1876.506367</ele>
        <time>2012-01-28T13:02:46Z</time>
      </trkpt>
      <trkpt lat="42.77339" lon="0.45775">
        <ele>1937.506321</ele>
        <time>2012-01-28T13:02:54Z</time>
      </trkpt>
      <trkpt lat="42.77342" lon="0.45759">
        <ele>1972.506294</ele>
        <time>2012-01-28T13:03:01Z</time>
      </trkpt>
      <trkpt lat="42.77343" lon="0.45746">
        <ele>1996.50626</ele>
        <time>2012-01-28T13:03:07Z</time>
      </trkpt>
      <trkpt lat="42.77342" lon="0.45733">
        <ele>2020.506226</ele>
        <time>2012-01-28T13:03:16Z</time>
      </trkpt>
      <trkpt lat="42.77343" lon="0.45726">
        <ele>2028.506207</ele>
        <time>2012-01-28T13:03:22Z</time>
      </trkpt>
      <trkpt lat="42.77343" lon="0.4572">
        <ele>2033.506195</ele>
        <time>2012-01-28T13:03:28Z</time>
      </trkpt>
      <trkpt lat="42.77344" lon="0.45713">
        <ele>2039.50618</ele>
        <time>2012-01-28T13:03:36Z</time>
      </trkpt>
      <trkpt lat="42.77344" lon="0.45711">
        <ele>2040.50618</ele>
        <time>2012-01-28T13:03:38Z</time>
      </trkpt>
      <trkpt lat="42.77345" lon="0.45705">
        <ele>2046.506165</ele>
        <time>2012-01-28T13:03:48Z</time>
      </trkpt>
      <trkpt lat="42.77346" lon="0.45699">
        <ele>2051.506149</ele>
        <time>2012-01-28T13:03:57Z</time>
      </trkpt>
      <trkpt lat="42.77345" lon="0.45692">
        <ele>2055.50613</ele>
        <time>2012-01-28T13:04:07Z</time>
      </trkpt>
      <trkpt lat="42.77348" lon="0.45686">
        <ele>2060.506134</ele>
        <time>2012-01-28T13:04:25Z</time>
      </trkpt>
      <trkpt lat="42.77352" lon="0.45683">
        <ele>2065.506134</ele>
        <time>2012-01-28T13:04:36Z</time>
      </trkpt>
      <trkpt lat="42.77356" lon="0.45681">
        <ele>2072.506153</ele>
        <time>2012-01-28T13:04:52Z</time>
      </trkpt>
      <trkpt lat="42.77358" lon="0.45675">
        <ele>2080.506153</ele>
        <time>2012-01-28T13:05:17Z</time>
      </trkpt>
      <trkpt lat="42.77358" lon="0.45675">
        <ele>2081.506145</ele>
        <time>2012-01-28T13:05:22Z</time>
      </trkpt>
      <trkpt lat="42.77357" lon="0.45668">
        <ele>2083.506123</ele>
        <time>2012-01-28T13:05:53Z</time>
      </trkpt>
      <trkpt lat="42.77357" lon="0.45668">
        <ele>2083.506123</ele>
        <time>2012-01-28T13:05:55Z</time>
      </trkpt>
      <trkpt lat="42.77356" lon="0.45661">
        <ele>2084.5061</ele>
        <time>2012-01-28T13:05:56Z</time>
      </trkpt>
      <trkpt lat="42.77355" lon="0.45655">
        <ele>2086.506081</ele>
        <time>2012-01-28T13:06:00Z</time>
      </trkpt>
      <trkpt lat="42.77354" lon="0.45648">
        <ele>2096.506054</ele>
        <time>2012-01-28T13:06:05Z</time>
      </trkpt>
      <trkpt lat="42.77354" lon="0.45641">
        <ele>2103.506039</ele>
        <time>2012-01-28T13:06:09Z</time>
      </trkpt>
      <trkpt lat="42.77354" lon="0.45636">
        <ele>2108.506023</ele>
        <time>2012-01-28T13:06:11Z</time>
      </trkpt>
      <trkpt lat="42.77354" lon="0.45616">
        <ele>2119.505974</ele>
        <time>2012-01-28T13:06:17Z</time>
      </trkpt>
      <trkpt lat="42.77353" lon="0.45599">
        <ele>2129.505924</ele>
        <time>2012-01-28T13:06:20Z</time>
      </trkpt>
      <trkpt lat="42.7735" lon="0.45569">
        <ele>2150.505829</ele>
        <time>2012-01-28T13:06:42Z</time>
      </trkpt>
      <trkpt lat="42.77353" lon="0.45564">
        <ele>2176.50584</ele>
        <time>2012-01-28T13:07:01Z</time>
      </trkpt>
      <trkpt lat="42.77356" lon="0.45559">
        <ele>2192.505836</ele>
        <time>2012-01-28T13:07:06Z</time>
      </trkpt>
      <trkpt lat="42.77354" lon="0.45551">
        <ele>2207.505806</ele>
        <time>2012-01-28T13:07:12Z</time>
      </trkpt>
      <trkpt lat="42.77349" lon="0.45545">
        <ele>2211.505764</ele>
        <time>2012-01-28T13:07:14Z</time>
      </trkpt>
      <trkpt lat="42.77341" lon="0.4554">
        <ele>2213.505711</ele>
        <time>2012-01-28T13:07:16Z</time>
      </trkpt>
      <trkpt lat="42.77336" lon="0.45537">
        <ele>2214.50568</ele>
        <time>2012-01-28T13:07:17Z</time>
      </trkpt>
      <trkpt lat="42.7733" lon="0.45535">
        <ele>2215.50565</ele>
        <time>2012-01-28T13:07:18Z</time>
      </trkpt>
      <trkpt lat="42.77324" lon="0.45532">
        <ele>2216.505615</ele>
        <time>2012-01-28T13:07:19Z</time>
      </trkpt>
      <trkpt lat="42.77317" lon="0.45529">
        <ele>2217.505566</ele>
        <time>2012-01-28T13:07:20Z</time>
      </trkpt>
      <trkpt lat="42.7731" lon="0.45526">
        <ele>2217.505535</ele>
        <time>2012-01-28T13:07:21Z</time>
      </trkpt>
      <trkpt lat="42.77303" lon="0.45523">
        <ele>2218.505486</ele>
        <time>2012-01-28T13:07:22Z</time>
      </trkpt>
      <trkpt lat="42.77296" lon="0.45521">
        <ele>2218.505451</ele>
        <time>2012-01-28T13:07:23Z</time>
      </trkpt>
      <trkpt lat="42.77289" lon="0.45518">
        <ele>2218.505413</ele>
        <time>2012-01-28T13:07:24Z</time>
      </trkpt>
      <trkpt lat="42.77283" lon="0.45516">
        <ele>2219.505367</ele>
        <time>2012-01-28T13:07:25Z</time>
      </trkpt>
      <trkpt lat="42.77276" lon="0.45513">
        <ele>2219.505337</ele>
        <time>2012-01-28T13:07:26Z</time>
      </trkpt>
      <trkpt lat="42.7727" lon="0.45511">
        <ele>2219.505302</ele>
        <time>2012-01-28T13:07:27Z</time>
      </trkpt>
      <trkpt lat="42.77265" lon="0.45509">
        <ele>2219.505268</ele>
        <time>2012-01-28T13:07:28Z</time>
      </trkpt>
      <trkpt lat="42.77258" lon="0.45505">
        <ele>2218.505222</ele>
        <time>2012-01-28T13:07:31Z</time>
      </trkpt>
      <trkpt lat="42.77251" lon="0.455">
        <ele>2217.50518</ele>
        <time>2012-01-28T13:07:33Z</time>
      </trkpt>
      <trkpt lat="42.77249" lon="0.45494">
        <ele>2216.505157</ele>
        <time>2012-01-28T13:07:34Z</time>
      </trkpt>
      <trkpt lat="42.77248" lon="0.45485">
        <ele>2216.505127</ele>
        <time>2012-01-28T13:07:35Z</time>
      </trkpt>
      <trkpt lat="42.77247" lon="0.45478">
        <ele>2216.5051</ele>
        <time>2012-01-28T13:07:36Z</time>
      </trkpt>
      <trkpt lat="42.77246" lon="0.45468">
        <ele>2216.505074</ele>
        <time>2012-01-28T13:07:37Z</time>
      </trkpt>
      <trkpt lat="42.77246" lon="0.45459">
        <ele>2216.505054</ele>
        <time>2012-01-28T13:07:38Z</time>
      </trkpt>
      <trkpt lat="42.77246" lon="0.45453">
        <ele>2216.505028</ele>
        <time>2012-01-28T13:07:39Z</time>
      </trkpt>
      <trkpt lat="42.77246" lon="0.45444">
        <ele>2215.505013</ele>
        <time>2012-01-28T13:07:40Z</time>
      </trkpt>
      <trkpt lat="42.77248" lon="0.45435">
        <ele>2215.504997</ele>
        <time>2012-01-28T13:07:41Z</time>
      </trkpt>
      <trkpt lat="42.77247" lon="0.45428">
        <ele>2215.504974</ele>
        <time>2012-01-28T13:07:42Z</time>
      </trkpt>
      <trkpt lat="42.7725" lon="0.45421">
        <ele>2215.504967</ele>
        <time>2012-01-28T13:07:43Z</time>
      </trkpt>
      <trkpt lat="42.77249" lon="0.45415">
        <ele>2215.504948</ele>
        <time>2012-01-28T13:07:44Z</time>
      </trkpt>
      <trkpt lat="42.77251" lon="0.45407">
        <ele>2215.504936</ele>
        <time>2012-01-28T13:07:45Z</time>
      </trkpt>
      <trkpt lat="42.7725" lon="0.454">
        <ele>2215.504917</ele>
        <time>2012-01-28T13:07:46Z</time>
      </trkpt>
      <trkpt lat="42.77258" lon="0.45394">
        <ele>2214.504932</ele>
        <time>2012-01-28T13:07:47Z</time>
      </trkpt>
      <trkpt lat="42.7726" lon="0.45387">
        <ele>2214.504925</ele>
        <time>2012-01-28T13:07:48Z</time>
      </trkpt>
      <trkpt lat="42.77264" lon="0.45381">
        <ele>2214.504936</ele>
        <time>2012-01-28T13:07:49Z</time>
      </trkpt>
      <trkpt lat="42.77266" lon="0.45375">
        <ele>2214.504925</ele>
        <time>2012-01-28T13:07:50Z</time>
      </trkpt>
      <trkpt lat="42.77271" lon="0.4537">
        <ele>2214.504936</ele>
        <time>2012-01-28T13:07:51Z</time>
      </trkpt>
      <trkpt lat="42.77273" lon="0.45364">
        <ele>2214.504929</ele>
        <time>2012-01-28T13:07:52Z</time>
      </trkpt>
      <trkpt lat="42.77281" lon="0.45361">
        <ele>2213.504955</ele>
        <time>2012-01-28T13:07:53Z</time>
      </trkpt>
      <trkpt lat="42.77285" lon="0.45356">
        <ele>2213.504971</ele>
        <time>2012-01-28T13:07:54Z</time>
      </trkpt>
      <trkpt lat="42.7729" lon="0.45352">
        <ele>2213.504982</ele>
        <time>2012-01-28T13:07:55Z</time>
      </trkpt>
      <trkpt lat="42.77294" lon="0.45348">
        <ele>2213.504982</ele>
        <time>2012-01-28T13:07:56Z</time>
      </trkpt>
      <trkpt lat="42.773" lon="0.45345">
        <ele>2212.505005</ele>
        <time>2012-01-28T13:07:57Z</time>
      </trkpt>
      <trkpt lat="42.77304" lon="0.45341">
        <ele>2212.505024</ele>
        <time>2012-01-28T13:07:58Z</time>
      </trkpt>
      <trkpt lat="42.77312" lon="0.45334">
        <ele>2211.505039</ele>
        <time>2012-01-28T13:08:00Z</time>
      </trkpt>
      <trkpt lat="42.77322" lon="0.4533">
        <ele>2210.505074</ele>
        <time>2012-01-28T13:08:02Z</time>
      </trkpt>
      <trkpt lat="42.77331" lon="0.4532">
        <ele>2209.505093</ele>
        <time>2012-01-28T13:08:04Z</time>
      </trkpt>
      <trkpt lat="42.77334" lon="0.45316">
        <ele>2209.505089</ele>
        <time>2012-01-28T13:08:05Z</time>
      </trkpt>
      <trkpt lat="42.77339" lon="0.4531">
        <ele>2208.505104</ele>
        <time>2012-01-28T13:08:06Z</time>
      </trkpt>
      <trkpt lat="42.77342" lon="0.45306">
        <ele>2208.505108</ele>
        <time>2012-01-28T13:08:07Z</time>
      </trkpt>
      <trkpt lat="42.77347" lon="0.45302">
        <ele>2207.505116</ele>
        <time>2012-01-28T13:08:08Z</time>
      </trkpt>
      <trkpt lat="42.77351" lon="0.45298">
        <ele>2207.505123</ele>
        <time>2012-01-28T13:08:09Z</time>
      </trkpt>
      <trkpt lat="42.77356" lon="0.45296">
        <ele>2206.50515</ele>
        <time>2012-01-28T13:08:10Z</time>
      </trkpt>
      <trkpt lat="42.77361" lon="0.45293">
        <ele>2206.505157</ele>
        <time>2012-01-28T13:08:11Z</time>
      </trkpt>
      <trkpt lat="42.77367" lon="0.45289">
        <ele>2205.505184</ele>
        <time>2012-01-28T13:08:12Z</time>
      </trkpt>
      <trkpt lat="42.77372" lon="0.45286">
        <ele>2204.505203</ele>
        <time>2012-01-28T13:08:13Z</time>
      </trkpt>
      <trkpt lat="42.77379" lon="0.45281">
        <ele>2203.505226</ele>
        <time>2012-01-28T13:08:14Z</time>
      </trkpt>
      <trkpt lat="42.77385" lon="0.45278">
        <ele>2203.505238</ele>
        <time>2012-01-28T13:08:15Z</time>
      </trkpt>
      <trkpt lat="42.77392" lon="0.45277">
        <ele>2201.505272</ele>
        <time>2012-01-28T13:08:16Z</time>
      </trkpt>
      <trkpt lat="42.77399" lon="0.45276">
        <ele>2201.505299</ele>
        <time>2012-01-28T13:08:17Z</time>
      </trkpt>
      <trkpt lat="42.77404" lon="0.45275">
        <ele>2201.505325</ele>
        <time>2012-01-28T13:08:18Z</time>
      </trkpt>
      <trkpt lat="42.77414" lon="0.45275">
        <ele>2199.505367</ele>
        <time>2012-01-28T13:08:19Z</time>
      </trkpt>
      <trkpt lat="42.7742" lon="0.45274">
        <ele>2199.505394</ele>
        <time>2012-01-28T13:08:20Z</time>
      </trkpt>
      <trkpt lat="42.77431" lon="0.45279">
        <ele>2197.505459</ele>
        <time>2012-01-28T13:08:21Z</time>
      </trkpt>
      <trkpt lat="42.77437" lon="0.45278">
        <ele>2197.505489</ele>
        <time>2012-01-28T13:08:22Z</time>
      </trkpt>
      <trkpt lat="42.77447" lon="0.45282">
        <ele>2195.505539</ele>
        <time>2012-01-28T13:08:23Z</time>
      </trkpt>
      <trkpt lat="42.77453" lon="0.45281">
        <ele>2195.505569</ele>
        <time>2012-01-28T13:08:24Z</time>
      </trkpt>
      <trkpt lat="42.77469" lon="0.45282">
        <ele>2194.50565</ele>
        <time>2012-01-28T13:08:25Z</time>
      </trkpt>
      <trkpt lat="42.77478" lon="0.45281">
        <ele>2193.505684</ele>
        <time>2012-01-28T13:08:26Z</time>
      </trkpt>
      <trkpt lat="42.77493" lon="0.45283">
        <ele>2192.505768</ele>
        <time>2012-01-28T13:08:27Z</time>
      </trkpt>
      <trkpt lat="42.77503" lon="0.45282">
        <ele>2192.505817</ele>
        <time>2012-01-28T13:08:28Z</time>
      </trkpt>
      <trkpt lat="42.77516" lon="0.45282">
        <ele>2190.505878</ele>
        <time>2012-01-28T13:08:29Z</time>
      </trkpt>
      <trkpt lat="42.77527" lon="0.45282">
        <ele>2190.505928</ele>
        <time>2012-01-28T13:08:30Z</time>
      </trkpt>
      <trkpt lat="42.77534" lon="0.45281">
        <ele>2189.505959</ele>
        <time>2012-01-28T13:08:31Z</time>
      </trkpt>
      <trkpt lat="42.77542" lon="0.45278">
        <ele>2188.505985</ele>
        <time>2012-01-28T13:08:32Z</time>
      </trkpt>
      <trkpt lat="42.77551" lon="0.45277">
        <ele>2187.506027</ele>
        <time>2012-01-28T13:08:33Z</time>
      </trkpt>
      <trkpt lat="42.77559" lon="0.45276">
        <ele>2187.506069</ele>
        <time>2012-01-28T13:08:34Z</time>
      </trkpt>
      <trkpt lat="42.77572" lon="0.45274">
        <ele>2185.506123</ele>
        <time>2012-01-28T13:08:35Z</time>
      </trkpt>
      <trkpt lat="42.77581" lon="0.45272">
        <ele>2184.506165</ele>
        <time>2012-01-28T13:08:36Z</time>
      </trkpt>
      <trkpt lat="42.77591" lon="0.45266">
        <ele>2182.506187</ele>
        <time>2012-01-28T13:08:37Z</time>
      </trkpt>
      <trkpt lat="42.776" lon="0.45263">
        <ele>2180.506226</ele>
        <time>2012-01-28T13:08:38Z</time>
      </trkpt>
      <trkpt lat="42.77609" lon="0.45263">
        <ele>2178.506275</ele>
        <time>2012-01-28T13:08:39Z</time>
      </trkpt>
      <trkpt lat="42.77617" lon="0.45262">
        <ele>2177.50631</ele>
        <time>2012-01-28T13:08:40Z</time>
      </trkpt>
      <trkpt lat="42.77625" lon="0.45261">
        <ele>2177.506344</ele>
        <time>2012-01-28T13:08:41Z</time>
      </trkpt>
      <trkpt lat="42.77635" lon="0.45264">
        <ele>2175.506393</ele>
        <time>2012-01-28T13:08:42Z</time>
      </trkpt>
      <trkpt lat="42.77643" lon="0.45263">
        <ele>2175.506432</ele>
        <time>2012-01-28T13:08:43Z</time>
      </trkpt>
      <trkpt lat="42.77654" lon="0.45265">
        <ele>2172.506493</ele>
        <time>2012-01-28T13:08:44Z</time>
      </trkpt>
      <trkpt lat="42.77662" lon="0.45264">
        <ele>2172.506531</ele>
        <time>2012-01-28T13:08:45Z</time>
      </trkpt>
      <trkpt lat="42.77674" lon="0.45267">
        <ele>2169.506592</ele>
        <time>2012-01-28T13:08:46Z</time>
      </trkpt>
      <trkpt lat="42.77682" lon="0.45265">
        <ele>2169.506626</ele>
        <time>2012-01-28T13:08:47Z</time>
      </trkpt>
      <trkpt lat="42.77693" lon="0.45268">
        <ele>2166.506687</ele>
        <time>2012-01-28T13:08:48Z</time>
      </trkpt>
      <trkpt lat="42.77701" lon="0.45267">
        <ele>2166.506721</ele>
        <time>2012-01-28T13:08:49Z</time>
      </trkpt>
      <trkpt lat="42.77711" lon="0.45268">
        <ele>2164.506775</ele>
        <time>2012-01-28T13:08:50Z</time>
      </trkpt>
      <trkpt lat="42.77719" lon="0.45268">
        <ele>2164.506805</ele>
        <time>2012-01-28T13:08:51Z</time>
      </trkpt>
      <trkpt lat="42.77729" lon="0.45258">
        <ele>2160.506828</ele>
        <time>2012-01-28T13:08:52Z</time>
      </trkpt>
      <trkpt lat="42.77736" lon="0.45255">
        <ele>2159.506855</ele>
        <time>2012-01-28T13:08:53Z</time>
      </trkpt>
      <trkpt lat="42.77746" lon="0.45248">
        <ele>2156.506882</ele>
        <time>2012-01-28T13:08:54Z</time>
      </trkpt>
      <trkpt lat="42.77753" lon="0.45246">
        <ele>2155.506912</ele>
        <time>2012-01-28T13:08:55Z</time>
      </trkpt>
      <trkpt lat="42.7776" lon="0.45242">
        <ele>2153.506935</ele>
        <time>2012-01-28T13:08:56Z</time>
      </trkpt>
      <trkpt lat="42.77767" lon="0.45241">
        <ele>2150.506962</ele>
        <time>2012-01-28T13:08:57Z</time>
      </trkpt>
      <trkpt lat="42.77773" lon="0.45241">
        <ele>2149.506992</ele>
        <time>2012-01-28T13:08:58Z</time>
      </trkpt>
      <trkpt lat="42.77779" lon="0.45245">
        <ele>2146.507027</ele>
        <time>2012-01-28T13:08:59Z</time>
      </trkpt>
      <trkpt lat="42.77784" lon="0.45246">
        <ele>2146.507057</ele>
        <time>2012-01-28T13:09:00Z</time>
      </trkpt>
      <trkpt lat="42.77792" lon="0.45236">
        <ele>2143.50708</ele>
        <time>2012-01-28T13:09:01Z</time>
      </trkpt>
      <trkpt lat="42.77799" lon="0.45233">
        <ele>2142.507095</ele>
        <time>2012-01-28T13:09:02Z</time>
      </trkpt>
      <trkpt lat="42.77807" lon="0.45232">
        <ele>2139.507133</ele>
        <time>2012-01-28T13:09:03Z</time>
      </trkpt>
      <trkpt lat="42.77815" lon="0.45227">
        <ele>2135.50716</ele>
        <time>2012-01-28T13:09:04Z</time>
      </trkpt>
      <trkpt lat="42.77822" lon="0.45223">
        <ele>2131.507183</ele>
        <time>2012-01-28T13:09:05Z</time>
      </trkpt>
      <trkpt lat="42.77829" lon="0.45221">
        <ele>2130.50721</ele>
        <time>2012-01-28T13:09:06Z</time>
      </trkpt>
      <trkpt lat="42.77835" lon="0.45202">
        <ele>2126.507187</ele>
        <time>2012-01-28T13:09:07Z</time>
      </trkpt>
      <trkpt lat="42.77841" lon="0.45191">
        <ele>2124.507187</ele>
        <time>2012-01-28T13:09:08Z</time>
      </trkpt>
      <trkpt lat="42.7785" lon="0.45179">
        <ele>2120.507198</ele>
        <time>2012-01-28T13:09:09Z</time>
      </trkpt>
      <trkpt lat="42.77858" lon="0.45169">
        <ele>2118.507214</ele>
        <time>2012-01-28T13:09:10Z</time>
      </trkpt>
      <trkpt lat="42.77865" lon="0.45163">
        <ele>2118.507229</ele>
        <time>2012-01-28T13:09:11Z</time>
      </trkpt>
      <trkpt lat="42.77875" lon="0.45139">
        <ele>2111.507217</ele>
        <time>2012-01-28T13:09:12Z</time>
      </trkpt>
      <trkpt lat="42.77883" lon="0.45133">
        <ele>2111.507236</ele>
        <time>2012-01-28T13:09:13Z</time>
      </trkpt>
      <trkpt lat="42.77892" lon="0.45113">
        <ele>2104.507229</ele>
        <time>2012-01-28T13:09:14Z</time>
      </trkpt>
      <trkpt lat="42.77899" lon="0.45103">
        <ele>2104.50724</ele>
        <time>2012-01-28T13:09:15Z</time>
      </trkpt>
      <trkpt lat="42.77905" lon="0.45089">
        <ele>2098.507229</ele>
        <time>2012-01-28T13:09:16Z</time>
      </trkpt>
      <trkpt lat="42.77912" lon="0.45075">
        <ele>2096.507225</ele>
        <time>2012-01-28T13:09:17Z</time>
      </trkpt>
      <trkpt lat="42.77917" lon="0.4506">
        <ele>2092.50721</ele>
        <time>2012-01-28T13:09:18Z</time>
      </trkpt>
      <trkpt lat="42.77921" lon="0.45047">
        <ele>2091.507195</ele>
        <time>2012-01-28T13:09:19Z</time>
      </trkpt>
      <trkpt lat="42.77925" lon="0.45034">
        <ele>2089.507179</ele>
        <time>2012-01-28T13:09:20Z</time>
      </trkpt>
      <trkpt lat="42.77929" lon="0.4502">
        <ele>2085.507172</ele>
        <time>2012-01-28T13:09:21Z</time>
      </trkpt>
      <trkpt lat="42.77933" lon="0.45007">
        <ele>2083.507153</ele>
        <time>2012-01-28T13:09:22Z</time>
      </trkpt>
      <trkpt lat="42.77937" lon="0.44996">
        <ele>2083.507137</ele>
        <time>2012-01-28T13:09:23Z</time>
      </trkpt>
      <trkpt lat="42.77941" lon="0.44983">
        <ele>2080.507122</ele>
        <time>2012-01-28T13:09:24Z</time>
      </trkpt>
      <trkpt lat="42.77945" lon="0.44972">
        <ele>2080.507111</ele>
        <time>2012-01-28T13:09:25Z</time>
      </trkpt>
      <trkpt lat="42.77949" lon="0.44954">
        <ele>2077.507088</ele>
        <time>2012-01-28T13:09:26Z</time>
      </trkpt>
      <trkpt lat="42.77953" lon="0.44942">
        <ele>2077.507076</ele>
        <time>2012-01-28T13:09:27Z</time>
      </trkpt>
      <trkpt lat="42.77958" lon="0.44928">
        <ele>2074.507057</ele>
        <time>2012-01-28T13:09:28Z</time>
      </trkpt>
      <trkpt lat="42.77963" lon="0.44917">
        <ele>2074.507061</ele>
        <time>2012-01-28T13:09:29Z</time>
      </trkpt>
      <trkpt lat="42.77968" lon="0.44904">
        <ele>2071.507046</ele>
        <time>2012-01-28T13:09:30Z</time>
      </trkpt>
      <trkpt lat="42.77974" lon="0.44893">
        <ele>2069.507046</ele>
        <time>2012-01-28T13:09:31Z</time>
      </trkpt>
      <trkpt lat="42.7798" lon="0.44886">
        <ele>2067.507057</ele>
        <time>2012-01-28T13:09:32Z</time>
      </trkpt>
      <trkpt lat="42.77986" lon="0.44879">
        <ele>2066.507069</ele>
        <time>2012-01-28T13:09:33Z</time>
      </trkpt>
      <trkpt lat="42.77991" lon="0.44869">
        <ele>2066.507065</ele>
        <time>2012-01-28T13:09:34Z</time>
      </trkpt>
      <trkpt lat="42.77998" lon="0.44867">
        <ele>2065.507088</ele>
        <time>2012-01-28T13:09:35Z</time>
      </trkpt>
      <trkpt lat="42.78005" lon="0.44863">
        <ele>2064.507114</ele>
        <time>2012-01-28T13:09:36Z</time>
      </trkpt>
      <trkpt lat="42.78013" lon="0.4486">
        <ele>2064.507149</ele>
        <time>2012-01-28T13:09:37Z</time>
      </trkpt>
      <trkpt lat="42.78019" lon="0.44859">
        <ele>2063.507172</ele>
        <time>2012-01-28T13:09:38Z</time>
      </trkpt>
      <trkpt lat="42.78024" lon="0.44854">
        <ele>2063.507179</ele>
        <time>2012-01-28T13:09:39Z</time>
      </trkpt>
      <trkpt lat="42.78028" lon="0.4485">
        <ele>2062.507191</ele>
        <time>2012-01-28T13:09:40Z</time>
      </trkpt>
      <trkpt lat="42.78034" lon="0.44845">
        <ele>2060.507206</ele>
        <time>2012-01-28T13:09:42Z</time>
      </trkpt>
      <trkpt lat="42.7804" lon="0.44839">
        <ele>2058.507229</ele>
        <time>2012-01-28T13:09:43Z</time>
      </trkpt>
      <trkpt lat="42.78046" lon="0.44832">
        <ele>2056.507229</ele>
        <time>2012-01-28T13:09:43Z</time>
      </trkpt>
      <trkpt lat="42.7805" lon="0.44823">
        <ele>2056.507225</ele>
        <time>2012-01-28T13:09:44Z</time>
      </trkpt>
      <trkpt lat="42.78056" lon="0.44812">
        <ele>2053.507221</ele>
        <time>2012-01-28T13:09:45Z</time>
      </trkpt>
      <trkpt lat="42.78061" lon="0.44803">
        <ele>2053.507225</ele>
        <time>2012-01-28T13:09:46Z</time>
      </trkpt>
      <trkpt lat="42.78066" lon="0.44793">
        <ele>2050.507229</ele>
        <time>2012-01-28T13:09:47Z</time>
      </trkpt>
      <trkpt lat="42.78071" lon="0.44784">
        <ele>2050.507229</ele>
        <time>2012-01-28T13:09:48Z</time>
      </trkpt>
      <trkpt lat="42.78077" lon="0.44774">
        <ele>2047.507225</ele>
        <time>2012-01-28T13:09:49Z</time>
      </trkpt>
      <trkpt lat="42.78082" lon="0.44764">
        <ele>2046.507221</ele>
        <time>2012-01-28T13:09:50Z</time>
      </trkpt>
      <trkpt lat="42.78085" lon="0.44755">
        <ele>2043.507217</ele>
        <time>2012-01-28T13:09:51Z</time>
      </trkpt>
      <trkpt lat="42.7809" lon="0.44746">
        <ele>2042.507217</ele>
        <time>2012-01-28T13:09:52Z</time>
      </trkpt>
      <trkpt lat="42.78094" lon="0.4474">
        <ele>2038.507221</ele>
        <time>2012-01-28T13:09:53Z</time>
      </trkpt>
      <trkpt lat="42.78098" lon="0.44733">
        <ele>2037.507225</ele>
        <time>2012-01-28T13:09:54Z</time>
      </trkpt>
      <trkpt lat="42.78103" lon="0.44725">
        <ele>2037.507221</ele>
        <time>2012-01-28T13:09:55Z</time>
      </trkpt>
      <trkpt lat="42.78108" lon="0.44728">
        <ele>2031.507259</ele>
        <time>2012-01-28T13:09:56Z</time>
      </trkpt>
      <trkpt lat="42.78115" lon="0.44724">
        <ele>2031.507278</ele>
        <time>2012-01-28T13:09:57Z</time>
      </trkpt>
      <trkpt lat="42.78114" lon="0.44717">
        <ele>2026.507256</ele>
        <time>2012-01-28T13:09:58Z</time>
      </trkpt>
      <trkpt lat="42.78118" lon="0.44708">
        <ele>2021.507256</ele>
        <time>2012-01-28T13:10:00Z</time>
      </trkpt>
      <trkpt lat="42.78123" lon="0.44701">
        <ele>2015.507256</ele>
        <time>2012-01-28T13:10:02Z</time>
      </trkpt>
      <trkpt lat="42.78128" lon="0.44694">
        <ele>2013.507263</ele>
        <time>2012-01-28T13:10:03Z</time>
      </trkpt>
      <trkpt lat="42.78135" lon="0.44689">
        <ele>2008.507278</ele>
        <time>2012-01-28T13:10:05Z</time>
      </trkpt>
      <trkpt lat="42.7814" lon="0.44686">
        <ele>2002.507294</ele>
        <time>2012-01-28T13:10:07Z</time>
      </trkpt>
      <trkpt lat="42.78147" lon="0.44686">
        <ele>1996.507332</ele>
        <time>2012-01-28T13:10:09Z</time>
      </trkpt>
      <trkpt lat="42.78151" lon="0.44692">
        <ele>1989.507366</ele>
        <time>2012-01-28T13:10:12Z</time>
      </trkpt>
      <trkpt lat="42.78153" lon="0.44698">
        <ele>1982.507393</ele>
        <time>2012-01-28T13:10:14Z</time>
      </trkpt>
      <trkpt lat="42.78155" lon="0.44704">
        <ele>1978.50742</ele>
        <time>2012-01-28T13:10:16Z</time>
      </trkpt>
      <trkpt lat="42.78154" lon="0.44712">
        <ele>1974.507439</ele>
        <time>2012-01-28T13:10:18Z</time>
      </trkpt>
      <trkpt lat="42.78152" lon="0.44717">
        <ele>1969.507435</ele>
        <time>2012-01-28T13:10:19Z</time>
      </trkpt>
      <trkpt lat="42.7815" lon="0.44721">
        <ele>1964.507431</ele>
        <time>2012-01-28T13:10:20Z</time>
      </trkpt>
      <trkpt lat="42.78152" lon="0.44729">
        <ele>1959.507473</ele>
        <time>2012-01-28T13:10:23Z</time>
      </trkpt>
      <trkpt lat="42.78157" lon="0.44726">
        <ele>1954.507484</ele>
        <time>2012-01-28T13:10:26Z</time>
      </trkpt>
      <trkpt lat="42.78155" lon="0.44732">
        <ele>1950.507488</ele>
        <time>2012-01-28T13:10:27Z</time>
      </trkpt>
      <trkpt lat="42.78158" lon="0.44739">
        <ele>1941.507523</ele>
        <time>2012-01-28T13:10:31Z</time>
      </trkpt>
      <trkpt lat="42.78164" lon="0.44739">
        <ele>1938.507553</ele>
        <time>2012-01-28T13:10:33Z</time>
      </trkpt>
      <trkpt lat="42.78172" lon="0.44739">
        <ele>1934.507595</ele>
        <time>2012-01-28T13:10:35Z</time>
      </trkpt>
      <trkpt lat="42.78182" lon="0.4474">
        <ele>1930.507641</ele>
        <time>2012-01-28T13:10:37Z</time>
      </trkpt>
      <trkpt lat="42.78186" lon="0.4474">
        <ele>1928.507664</ele>
        <time>2012-01-28T13:10:38Z</time>
      </trkpt>
      <trkpt lat="42.78194" lon="0.4474">
        <ele>1926.507702</ele>
        <time>2012-01-28T13:10:39Z</time>
      </trkpt>
      <trkpt lat="42.78201" lon="0.4474">
        <ele>1924.507732</ele>
        <time>2012-01-28T13:10:40Z</time>
      </trkpt>
      <trkpt lat="42.78206" lon="0.44739">
        <ele>1924.507748</ele>
        <time>2012-01-28T13:10:41Z</time>
      </trkpt>
      <trkpt lat="42.78218" lon="0.44729">
        <ele>1920.507786</ele>
        <time>2012-01-28T13:10:42Z</time>
      </trkpt>
      <trkpt lat="42.78225" lon="0.44726">
        <ele>1920.507805</ele>
        <time>2012-01-28T13:10:43Z</time>
      </trkpt>
      <trkpt lat="42.78233" lon="0.44718">
        <ele>1915.507828</ele>
        <time>2012-01-28T13:10:44Z</time>
      </trkpt>
      <trkpt lat="42.78242" lon="0.44709">
        <ele>1908.507843</ele>
        <time>2012-01-28T13:10:45Z</time>
      </trkpt>
      <trkpt lat="42.7825" lon="0.44699">
        <ele>1902.507858</ele>
        <time>2012-01-28T13:10:46Z</time>
      </trkpt>
      <trkpt lat="42.78258" lon="0.4468">
        <ele>1897.507851</ele>
        <time>2012-01-28T13:10:47Z</time>
      </trkpt>
      <trkpt lat="42.78266" lon="0.44663">
        <ele>1892.507839</ele>
        <time>2012-01-28T13:10:48Z</time>
      </trkpt>
      <trkpt lat="42.78267" lon="0.44643">
        <ele>1887.507793</ele>
        <time>2012-01-28T13:10:49Z</time>
      </trkpt>
      <trkpt lat="42.78266" lon="0.44629">
        <ele>1883.507748</ele>
        <time>2012-01-28T13:10:50Z</time>
      </trkpt>
      <trkpt lat="42.78265" lon="0.4462">
        <ele>1878.507729</ele>
        <time>2012-01-28T13:10:51Z</time>
      </trkpt>
      <trkpt lat="42.78269" lon="0.44627">
        <ele>1853.507759</ele>
        <time>2012-01-28T13:10:59Z</time>
      </trkpt>
      <trkpt lat="42.78271" lon="0.44625">
        <ele>1850.507763</ele>
        <time>2012-01-28T13:11:00Z</time>
      </trkpt>
      <trkpt lat="42.78275" lon="0.4462">
        <ele>1845.507771</ele>
        <time>2012-01-28T13:11:02Z</time>
      </trkpt>
      <trkpt lat="42.78281" lon="0.4462">
        <ele>1843.507797</ele>
        <time>2012-01-28T13:11:04Z</time>
      </trkpt>
      <trkpt lat="42.78282" lon="0.44621">
        <ele>1842.507809</ele>
        <time>2012-01-28T13:11:05Z</time>
      </trkpt>
      <trkpt lat="42.7829" lon="0.44625">
        <ele>1835.507862</ele>
        <time>2012-01-28T13:11:10Z</time>
      </trkpt>
      <trkpt lat="42.78303" lon="0.44624">
        <ele>1833.507915</ele>
        <time>2012-01-28T13:11:12Z</time>
      </trkpt>
      <trkpt lat="42.78309" lon="0.44623">
        <ele>1833.507938</ele>
        <time>2012-01-28T13:11:13Z</time>
      </trkpt>
      <trkpt lat="42.78315" lon="0.44611">
        <ele>1831.507942</ele>
        <time>2012-01-28T13:11:14Z</time>
      </trkpt>
      <trkpt lat="42.78321" lon="0.44604">
        <ele>1831.507946</ele>
        <time>2012-01-28T13:11:15Z</time>
      </trkpt>
      <trkpt lat="42.78327" lon="0.44605">
        <ele>1829.50798</ele>
        <time>2012-01-28T13:11:16Z</time>
      </trkpt>
      <trkpt lat="42.78332" lon="0.44603">
        <ele>1828.508003</ele>
        <time>2012-01-28T13:11:17Z</time>
      </trkpt>
      <trkpt lat="42.78337" lon="0.44596">
        <ele>1826.508007</ele>
        <time>2012-01-28T13:11:18Z</time>
      </trkpt>
      <trkpt lat="42.78341" lon="0.44591">
        <ele>1826.508011</ele>
        <time>2012-01-28T13:11:19Z</time>
      </trkpt>
      <trkpt lat="42.78346" lon="0.44587">
        <ele>1824.508022</ele>
        <time>2012-01-28T13:11:20Z</time>
      </trkpt>
      <trkpt lat="42.7835" lon="0.44583">
        <ele>1823.508034</ele>
        <time>2012-01-28T13:11:21Z</time>
      </trkpt>
      <trkpt lat="42.78354" lon="0.44578">
        <ele>1823.508034</ele>
        <time>2012-01-28T13:11:22Z</time>
      </trkpt>
      <trkpt lat="42.7836" lon="0.44572">
        <ele>1821.508049</ele>
        <time>2012-01-28T13:11:23Z</time>
      </trkpt>
      <trkpt lat="42.78363" lon="0.44566">
        <ele>1821.508057</ele>
        <time>2012-01-28T13:11:24Z</time>
      </trkpt>
      <trkpt lat="42.78374" lon="0.4457">
        <ele>1818.508114</ele>
        <time>2012-01-28T13:11:25Z</time>
      </trkpt>
      <trkpt lat="42.78379" lon="0.44568">
        <ele>1818.508137</ele>
        <time>2012-01-28T13:11:26Z</time>
      </trkpt>
      <trkpt lat="42.78389" lon="0.44566">
        <ele>1816.508179</ele>
        <time>2012-01-28T13:11:27Z</time>
      </trkpt>
      <trkpt lat="42.78396" lon="0.44563">
        <ele>1815.508205</ele>
        <time>2012-01-28T13:11:28Z</time>
      </trkpt>
      <trkpt lat="42.78403" lon="0.44561">
        <ele>1813.508232</ele>
        <time>2012-01-28T13:11:29Z</time>
      </trkpt>
      <trkpt lat="42.7841" lon="0.44558">
        <ele>1813.508255</ele>
        <time>2012-01-28T13:11:30Z</time>
      </trkpt>
      <trkpt lat="42.78417" lon="0.44556">
        <ele>1811.508286</ele>
        <time>2012-01-28T13:11:31Z</time>
      </trkpt>
      <trkpt lat="42.78424" lon="0.44553">
        <ele>1810.508308</ele>
        <time>2012-01-28T13:11:32Z</time>
      </trkpt>
      <trkpt lat="42.78431" lon="0.44551">
        <ele>1808.508339</ele>
        <time>2012-01-28T13:11:33Z</time>
      </trkpt>
      <trkpt lat="42.78437" lon="0.44549">
        <ele>1807.508362</ele>
        <time>2012-01-28T13:11:34Z</time>
      </trkpt>
      <trkpt lat="42.78444" lon="0.44546">
        <ele>1807.508385</ele>
        <time>2012-01-28T13:11:35Z</time>
      </trkpt>
      <trkpt lat="42.78451" lon="0.44543">
        <ele>1805.508411</ele>
        <time>2012-01-28T13:11:36Z</time>
      </trkpt>
      <trkpt lat="42.78457" lon="0.4454">
        <ele>1805.50843</ele>
        <time>2012-01-28T13:11:37Z</time>
      </trkpt>
      <trkpt lat="42.78463" lon="0.44556">
        <ele>1802.508503</ele>
        <time>2012-01-28T13:11:38Z</time>
      </trkpt>
      <trkpt lat="42.78469" lon="0.44561">
        <ele>1802.508545</ele>
        <time>2012-01-28T13:11:39Z</time>
      </trkpt>
      <trkpt lat="42.78475" lon="0.44562">
        <ele>1800.508572</ele>
        <time>2012-01-28T13:11:40Z</time>
      </trkpt>
      <trkpt lat="42.7848" lon="0.44563">
        <ele>1799.508606</ele>
        <time>2012-01-28T13:11:41Z</time>
      </trkpt>
      <trkpt lat="42.78486" lon="0.4457">
        <ele>1797.508648</ele>
        <time>2012-01-28T13:11:42Z</time>
      </trkpt>
      <trkpt lat="42.78491" lon="0.44573">
        <ele>1797.508682</ele>
        <time>2012-01-28T13:11:43Z</time>
      </trkpt>
      <trkpt lat="42.78497" lon="0.44578">
        <ele>1794.508724</ele>
        <time>2012-01-28T13:11:44Z</time>
      </trkpt>
      <trkpt lat="42.78502" lon="0.44582">
        <ele>1794.508759</ele>
        <time>2012-01-28T13:11:45Z</time>
      </trkpt>
      <trkpt lat="42.78507" lon="0.44581">
        <ele>1792.508778</ele>
        <time>2012-01-28T13:11:46Z</time>
      </trkpt>
      <trkpt lat="42.78512" lon="0.44582">
        <ele>1791.508808</ele>
        <time>2012-01-28T13:11:47Z</time>
      </trkpt>
      <trkpt lat="42.78517" lon="0.44583">
        <ele>1790.508831</ele>
        <time>2012-01-28T13:11:48Z</time>
      </trkpt>
      <trkpt lat="42.78522" lon="0.44584">
        <ele>1789.508862</ele>
        <time>2012-01-28T13:11:49Z</time>
      </trkpt>
      <trkpt lat="42.78526" lon="0.44587">
        <ele>1787.508888</ele>
        <time>2012-01-28T13:11:50Z</time>
      </trkpt>
      <trkpt lat="42.78531" lon="0.4459">
        <ele>1786.508915</ele>
        <time>2012-01-28T13:11:51Z</time>
      </trkpt>
      <trkpt lat="42.78535" lon="0.44592">
        <ele>1786.508945</ele>
        <time>2012-01-28T13:11:52Z</time>
      </trkpt>
      <trkpt lat="42.78538" lon="0.44599">
        <ele>1784.508976</ele>
        <time>2012-01-28T13:11:53Z</time>
      </trkpt>
      <trkpt lat="42.78542" lon="0.44603">
        <ele>1784.509003</ele>
        <time>2012-01-28T13:11:54Z</time>
      </trkpt>
      <trkpt lat="42.78546" lon="0.44607">
        <ele>1781.509029</ele>
        <time>2012-01-28T13:11:55Z</time>
      </trkpt>
      <trkpt lat="42.7855" lon="0.44611">
        <ele>1781.509064</ele>
        <time>2012-01-28T13:11:56Z</time>
      </trkpt>
      <trkpt lat="42.78553" lon="0.44614">
        <ele>1779.509087</ele>
        <time>2012-01-28T13:11:57Z</time>
      </trkpt>
      <trkpt lat="42.78557" lon="0.44618">
        <ele>1779.509117</ele>
        <time>2012-01-28T13:11:58Z</time>
      </trkpt>
      <trkpt lat="42.78563" lon="0.44622">
        <ele>1777.509155</ele>
        <time>2012-01-28T13:12:00Z</time>
      </trkpt>
      <trkpt lat="42.78561" lon="0.44607">
        <ele>1730.509106</ele>
        <time>2012-01-28T13:12:32Z</time>
      </trkpt>
      <trkpt lat="42.78586" lon="0.44587">
        <ele>1716.509167</ele>
        <time>2012-01-28T13:13:36Z</time>
      </trkpt>
      <trkpt lat="42.78593" lon="0.44583">
        <ele>1716.509193</ele>
        <time>2012-01-28T13:13:37Z</time>
      </trkpt>
      <trkpt lat="42.78602" lon="0.44577">
        <ele>1715.50922</ele>
        <time>2012-01-28T13:13:38Z</time>
      </trkpt>
      <trkpt lat="42.7861" lon="0.44573">
        <ele>1715.509251</ele>
        <time>2012-01-28T13:13:39Z</time>
      </trkpt>
      <trkpt lat="42.78617" lon="0.4457">
        <ele>1715.509274</ele>
        <time>2012-01-28T13:13:40Z</time>
      </trkpt>
      <trkpt lat="42.7863" lon="0.44561">
        <ele>1714.509312</ele>
        <time>2012-01-28T13:13:41Z</time>
      </trkpt>
      <trkpt lat="42.78637" lon="0.44558">
        <ele>1714.509338</ele>
        <time>2012-01-28T13:13:42Z</time>
      </trkpt>
      <trkpt lat="42.78648" lon="0.44549">
        <ele>1713.509369</ele>
        <time>2012-01-28T13:13:43Z</time>
      </trkpt>
      <trkpt lat="42.78655" lon="0.44545">
        <ele>1713.509392</ele>
        <time>2012-01-28T13:13:44Z</time>
      </trkpt>
      <trkpt lat="42.78665" lon="0.4454">
        <ele>1712.509426</ele>
        <time>2012-01-28T13:13:45Z</time>
      </trkpt>
      <trkpt lat="42.78673" lon="0.44536">
        <ele>1712.509453</ele>
        <time>2012-01-28T13:13:46Z</time>
      </trkpt>
      <trkpt lat="42.7868" lon="0.44532">
        <ele>1711.509472</ele>
        <time>2012-01-28T13:13:47Z</time>
      </trkpt>
      <trkpt lat="42.78689" lon="0.44527">
        <ele>1711.50951</ele>
        <time>2012-01-28T13:13:48Z</time>
      </trkpt>
      <trkpt lat="42.78697" lon="0.44524">
        <ele>1710.509537</ele>
        <time>2012-01-28T13:13:49Z</time>
      </trkpt>
      <trkpt lat="42.78703" lon="0.44519">
        <ele>1709.509556</ele>
        <time>2012-01-28T13:13:50Z</time>
      </trkpt>
      <trkpt lat="42.78709" lon="0.44514">
        <ele>1708.509567</ele>
        <time>2012-01-28T13:13:52Z</time>
      </trkpt>
      <trkpt lat="42.78713" lon="0.4451">
        <ele>1708.509575</ele>
        <time>2012-01-28T13:13:53Z</time>
      </trkpt>
      <trkpt lat="42.78719" lon="0.44505">
        <ele>1708.50959</ele>
        <time>2012-01-28T13:13:54Z</time>
      </trkpt>
      <trkpt lat="42.78723" lon="0.44501">
        <ele>1708.509598</ele>
        <time>2012-01-28T13:13:55Z</time>
      </trkpt>
      <trkpt lat="42.7873" lon="0.44499">
        <ele>1707.509632</ele>
        <time>2012-01-28T13:13:56Z</time>
      </trkpt>
      <trkpt lat="42.78737" lon="0.44496">
        <ele>1707.509659</ele>
        <time>2012-01-28T13:13:57Z</time>
      </trkpt>
      <trkpt lat="42.78743" lon="0.44493">
        <ele>1706.509674</ele>
        <time>2012-01-28T13:13:58Z</time>
      </trkpt>
      <trkpt lat="42.78749" lon="0.44491">
        <ele>1706.509697</ele>
        <time>2012-01-28T13:13:59Z</time>
      </trkpt>
      <trkpt lat="42.78755" lon="0.44489">
        <ele>1705.509724</ele>
        <time>2012-01-28T13:14:00Z</time>
      </trkpt>
      <trkpt lat="42.78761" lon="0.44486">
        <ele>1705.50975</ele>
        <time>2012-01-28T13:14:01Z</time>
      </trkpt>
      <trkpt lat="42.78766" lon="0.44484">
        <ele>1705.509766</ele>
        <time>2012-01-28T13:14:02Z</time>
      </trkpt>
      <trkpt lat="42.78772" lon="0.44488">
        <ele>1705.509804</ele>
        <time>2012-01-28T13:14:03Z</time>
      </trkpt>
      <trkpt lat="42.78778" lon="0.44489">
        <ele>1705.509834</ele>
        <time>2012-01-28T13:14:04Z</time>
      </trkpt>
      <trkpt lat="42.78782" lon="0.44492">
        <ele>1705.509857</ele>
        <time>2012-01-28T13:14:05Z</time>
      </trkpt>
      <trkpt lat="42.78786" lon="0.44494">
        <ele>1704.509884</ele>
        <time>2012-01-28T13:14:06Z</time>
      </trkpt>
      <trkpt lat="42.7879" lon="0.44499">
        <ele>1704.509914</ele>
        <time>2012-01-28T13:14:07Z</time>
      </trkpt>
      <trkpt lat="42.78795" lon="0.44502">
        <ele>1703.509945</ele>
        <time>2012-01-28T13:14:08Z</time>
      </trkpt>
      <trkpt lat="42.78807" lon="0.44498">
        <ele>1703.509991</ele>
        <time>2012-01-28T13:14:10Z</time>
      </trkpt>
      <trkpt lat="42.78813" lon="0.44498">
        <ele>1702.510025</ele>
        <time>2012-01-28T13:14:11Z</time>
      </trkpt>
      <trkpt lat="42.78819" lon="0.44499">
        <ele>1702.510056</ele>
        <time>2012-01-28T13:14:12Z</time>
      </trkpt>
      <trkpt lat="42.78825" lon="0.44502">
        <ele>1702.51009</ele>
        <time>2012-01-28T13:14:13Z</time>
      </trkpt>
      <trkpt lat="42.7883" lon="0.44513">
        <ele>1701.510147</ele>
        <time>2012-01-28T13:14:14Z</time>
      </trkpt>
      <trkpt lat="42.78836" lon="0.4452">
        <ele>1701.510189</ele>
        <time>2012-01-28T13:14:15Z</time>
      </trkpt>
      <trkpt lat="42.78841" lon="0.44524">
        <ele>1701.510227</ele>
        <time>2012-01-28T13:14:16Z</time>
      </trkpt>
      <trkpt lat="42.78851" lon="0.44527">
        <ele>1701.510281</ele>
        <time>2012-01-28T13:14:18Z</time>
      </trkpt>
      <trkpt lat="42.78856" lon="0.4454">
        <ele>1701.510338</ele>
        <time>2012-01-28T13:14:19Z</time>
      </trkpt>
      <trkpt lat="42.78862" lon="0.44545">
        <ele>1701.51038</ele>
        <time>2012-01-28T13:14:20Z</time>
      </trkpt>
      <trkpt lat="42.78868" lon="0.44556">
        <ele>1700.510437</ele>
        <time>2012-01-28T13:14:21Z</time>
      </trkpt>
      <trkpt lat="42.78874" lon="0.44563">
        <ele>1700.510487</ele>
        <time>2012-01-28T13:14:22Z</time>
      </trkpt>
      <trkpt lat="42.78877" lon="0.44575">
        <ele>1700.510525</ele>
        <time>2012-01-28T13:14:23Z</time>
      </trkpt>
      <trkpt lat="42.78882" lon="0.44583">
        <ele>1700.510571</ele>
        <time>2012-01-28T13:14:24Z</time>
      </trkpt>
      <trkpt lat="42.78886" lon="0.44593">
        <ele>1700.510612</ele>
        <time>2012-01-28T13:14:25Z</time>
      </trkpt>
      <trkpt lat="42.7889" lon="0.44601">
        <ele>1700.510666</ele>
        <time>2012-01-28T13:14:26Z</time>
      </trkpt>
      <trkpt lat="42.78894" lon="0.44608">
        <ele>1699.510704</ele>
        <time>2012-01-28T13:14:27Z</time>
      </trkpt>
      <trkpt lat="42.78899" lon="0.44616">
        <ele>1699.510746</ele>
        <time>2012-01-28T13:14:28Z</time>
      </trkpt>
      <trkpt lat="42.78903" lon="0.44622">
        <ele>1698.510777</ele>
        <time>2012-01-28T13:14:29Z</time>
      </trkpt>
      <trkpt lat="42.78908" lon="0.44628">
        <ele>1698.510815</ele>
        <time>2012-01-28T13:14:30Z</time>
      </trkpt>
      <trkpt lat="42.78914" lon="0.4463">
        <ele>1697.510845</ele>
        <time>2012-01-28T13:14:31Z</time>
      </trkpt>
      <trkpt lat="42.7892" lon="0.44633">
        <ele>1696.510891</ele>
        <time>2012-01-28T13:14:32Z</time>
      </trkpt>
      <trkpt lat="42.78926" lon="0.44636">
        <ele>1695.510921</ele>
        <time>2012-01-28T13:14:33Z</time>
      </trkpt>
      <trkpt lat="42.78931" lon="0.44641">
        <ele>1694.510963</ele>
        <time>2012-01-28T13:14:34Z</time>
      </trkpt>
      <trkpt lat="42.78937" lon="0.44644">
        <ele>1694.511002</ele>
        <time>2012-01-28T13:14:35Z</time>
      </trkpt>
      <trkpt lat="42.78943" lon="0.44647">
        <ele>1694.511032</ele>
        <time>2012-01-28T13:14:36Z</time>
      </trkpt>
      <trkpt lat="42.7895" lon="0.44649">
        <ele>1693.51107</ele>
        <time>2012-01-28T13:14:37Z</time>
      </trkpt>
      <trkpt lat="42.78957" lon="0.44656">
        <ele>1693.511124</ele>
        <time>2012-01-28T13:14:39Z</time>
      </trkpt>
      <trkpt lat="42.78962" lon="0.44659">
        <ele>1693.511158</ele>
        <time>2012-01-28T13:14:41Z</time>
      </trkpt>
      <trkpt lat="42.78968" lon="0.44663">
        <ele>1692.511189</ele>
        <time>2012-01-28T13:14:43Z</time>
      </trkpt>
      <trkpt lat="42.78967" lon="0.44663">
        <ele>1691.511189</ele>
        <time>2012-01-28T13:14:45Z</time>
      </trkpt>
      <trkpt lat="42.78943" lon="0.44655">
        <ele>1651.511055</ele>
        <time>2012-01-28T13:15:03Z</time>
      </trkpt>
      <trkpt lat="42.78954" lon="0.44623">
        <ele>1623.511021</ele>
        <time>2012-01-28T13:15:39Z</time>
      </trkpt>
      <trkpt lat="42.78964" lon="0.44622">
        <ele>1618.511063</ele>
        <time>2012-01-28T13:16:57Z</time>
      </trkpt>
      <trkpt lat="42.7896" lon="0.44628">
        <ele>1584.511066</ele>
        <time>2012-01-28T13:17:37Z</time>
      </trkpt>
      <trkpt lat="42.78952" lon="0.44631">
        <ele>1564.51104</ele>
        <time>2012-01-28T13:17:57Z</time>
      </trkpt>
      <trkpt lat="42.78965" lon="0.44636">
        <ele>1588.511108</ele>
        <time>2012-01-28T13:18:24Z</time>
      </trkpt>
      <trkpt lat="42.78971" lon="0.44641">
        <ele>1589.511147</ele>
        <time>2012-01-28T13:18:26Z</time>
      </trkpt>
      <trkpt lat="42.78975" lon="0.44643">
        <ele>1590.511173</ele>
        <time>2012-01-28T13:18:27Z</time>
      </trkpt>
      <trkpt lat="42.7898" lon="0.44647">
        <ele>1591.511211</ele>
        <time>2012-01-28T13:18:29Z</time>
      </trkpt>
      <trkpt lat="42.78983" lon="0.44648">
        <ele>1591.511227</ele>
        <time>2012-01-28T13:18:30Z</time>
      </trkpt>
      <trkpt lat="42.7899" lon="0.44652">
        <ele>1592.511269</ele>
        <time>2012-01-28T13:18:32Z</time>
      </trkpt>
      <trkpt lat="42.78997" lon="0.44656">
        <ele>1592.511311</ele>
        <time>2012-01-28T13:18:34Z</time>
      </trkpt>
      <trkpt lat="42.79" lon="0.44658">
        <ele>1592.51133</ele>
        <time>2012-01-28T13:18:35Z</time>
      </trkpt>
      <trkpt lat="42.79006" lon="0.44662">
        <ele>1592.511375</ele>
        <time>2012-01-28T13:18:37Z</time>
      </trkpt>
      <trkpt lat="42.79009" lon="0.44664">
        <ele>1592.511395</ele>
        <time>2012-01-28T13:18:38Z</time>
      </trkpt>
      <trkpt lat="42.79015" lon="0.44668">
        <ele>1592.511433</ele>
        <time>2012-01-28T13:18:40Z</time>
      </trkpt>
      <trkpt lat="42.79021" lon="0.44672">
        <ele>1592.511471</ele>
        <time>2012-01-28T13:18:42Z</time>
      </trkpt>
      <trkpt lat="42.79027" lon="0.44676">
        <ele>1592.511505</ele>
        <time>2012-01-28T13:18:44Z</time>
      </trkpt>
      <trkpt lat="42.79032" lon="0.4468">
        <ele>1593.511543</ele>
        <time>2012-01-28T13:18:46Z</time>
      </trkpt>
      <trkpt lat="42.79037" lon="0.44684">
        <ele>1594.511574</ele>
        <time>2012-01-28T13:18:48Z</time>
      </trkpt>
      <trkpt lat="42.79042" lon="0.44688">
        <ele>1594.511612</ele>
        <time>2012-01-28T13:18:50Z</time>
      </trkpt>
      <trkpt lat="42.79048" lon="0.44692">
        <ele>1595.511654</ele>
        <time>2012-01-28T13:18:52Z</time>
      </trkpt>
      <trkpt lat="42.79053" lon="0.44697">
        <ele>1595.511688</ele>
        <time>2012-01-28T13:18:54Z</time>
      </trkpt>
      <trkpt lat="42.79059" lon="0.44702">
        <ele>1595.511734</ele>
        <time>2012-01-28T13:18:56Z</time>
      </trkpt>
      <trkpt lat="42.79064" lon="0.44706">
        <ele>1595.511765</ele>
        <time>2012-01-28T13:18:58Z</time>
      </trkpt>
      <trkpt lat="42.79069" lon="0.44711">
        <ele>1595.511803</ele>
        <time>2012-01-28T13:19:00Z</time>
      </trkpt>
      <trkpt lat="42.79073" lon="0.44717">
        <ele>1596.511833</ele>
        <time>2012-01-28T13:19:02Z</time>
      </trkpt>
      <trkpt lat="42.79077" lon="0.44721">
        <ele>1596.511864</ele>
        <time>2012-01-28T13:19:04Z</time>
      </trkpt>
      <trkpt lat="42.79079" lon="0.44724">
        <ele>1596.511883</ele>
        <time>2012-01-28T13:19:05Z</time>
      </trkpt>
      <trkpt lat="42.79082" lon="0.44728">
        <ele>1597.511909</ele>
        <time>2012-01-28T13:19:07Z</time>
      </trkpt>
      <trkpt lat="42.79086" lon="0.44734">
        <ele>1598.51194</ele>
        <time>2012-01-28T13:19:10Z</time>
      </trkpt>
      <trkpt lat="42.79086" lon="0.44734">
        <ele>1598.51194</ele>
        <time>2012-01-28T13:19:20Z</time>
      </trkpt>
      <trkpt lat="42.7909" lon="0.44742">
        <ele>1600.511982</ele>
        <time>2012-01-28T13:19:29Z</time>
      </trkpt>
      <trkpt lat="42.79095" lon="0.44743">
        <ele>1605.512009</ele>
        <time>2012-01-28T13:19:43Z</time>
      </trkpt>
      <trkpt lat="42.79096" lon="0.44743">
        <ele>1605.512012</ele>
        <time>2012-01-28T13:19:44Z</time>
      </trkpt>
      <trkpt lat="42.791" lon="0.44744">
        <ele>1607.512039</ele>
        <time>2012-01-28T13:19:58Z</time>
      </trkpt>
      <trkpt lat="42.79104" lon="0.44747">
        <ele>1610.512066</ele>
        <time>2012-01-28T13:20:22Z</time>
      </trkpt>
      <trkpt lat="42.79102" lon="0.44754">
        <ele>1611.512077</ele>
        <time>2012-01-28T13:20:43Z</time>
      </trkpt>
      <trkpt lat="42.79092" lon="0.44789">
        <ele>1611.512115</ele>
        <time>2012-01-28T13:21:05Z</time>
      </trkpt>
      <trkpt lat="42.79081" lon="0.4483">
        <ele>1611.512169</ele>
        <time>2012-01-28T13:21:13Z</time>
      </trkpt>
      <trkpt lat="42.79077" lon="0.44838">
        <ele>1611.512169</ele>
        <time>2012-01-28T13:21:15Z</time>
      </trkpt>
      <trkpt lat="42.79075" lon="0.44844">
        <ele>1612.512177</ele>
        <time>2012-01-28T13:21:16Z</time>
      </trkpt>
      <trkpt lat="42.79072" lon="0.44849">
        <ele>1612.51218</ele>
        <time>2012-01-28T13:21:17Z</time>
      </trkpt>
      <trkpt lat="42.7907" lon="0.44855">
        <ele>1613.51218</ele>
        <time>2012-01-28T13:21:18Z</time>
      </trkpt>
      <trkpt lat="42.79067" lon="0.44861">
        <ele>1613.512184</ele>
        <time>2012-01-28T13:21:19Z</time>
      </trkpt>
      <trkpt lat="42.79062" lon="0.44871">
        <ele>1614.512188</ele>
        <time>2012-01-28T13:21:21Z</time>
      </trkpt>
      <trkpt lat="42.79059" lon="0.44877">
        <ele>1614.512188</ele>
        <time>2012-01-28T13:21:22Z</time>
      </trkpt>
      <trkpt lat="42.79057" lon="0.44883">
        <ele>1614.512192</ele>
        <time>2012-01-28T13:21:23Z</time>
      </trkpt>
      <trkpt lat="42.79052" lon="0.44891">
        <ele>1615.512192</ele>
        <time>2012-01-28T13:21:25Z</time>
      </trkpt>
      <trkpt lat="42.79049" lon="0.44897">
        <ele>1615.512188</ele>
        <time>2012-01-28T13:21:26Z</time>
      </trkpt>
      <trkpt lat="42.79046" lon="0.44904">
        <ele>1615.512196</ele>
        <time>2012-01-28T13:21:27Z</time>
      </trkpt>
      <trkpt lat="42.79042" lon="0.44911">
        <ele>1615.512192</ele>
        <time>2012-01-28T13:21:28Z</time>
      </trkpt>
      <trkpt lat="42.79038" lon="0.44918">
        <ele>1616.512196</ele>
        <time>2012-01-28T13:21:29Z</time>
      </trkpt>
      <trkpt lat="42.79035" lon="0.44926">
        <ele>1616.512196</ele>
        <time>2012-01-28T13:21:30Z</time>
      </trkpt>
      <trkpt lat="42.79033" lon="0.44933">
        <ele>1617.512207</ele>
        <time>2012-01-28T13:21:31Z</time>
      </trkpt>
      <trkpt lat="42.7903" lon="0.44939">
        <ele>1618.512211</ele>
        <time>2012-01-28T13:21:32Z</time>
      </trkpt>
      <trkpt lat="42.79028" lon="0.44945">
        <ele>1619.512215</ele>
        <time>2012-01-28T13:21:33Z</time>
      </trkpt>
      <trkpt lat="42.79026" lon="0.44952">
        <ele>1620.512226</ele>
        <time>2012-01-28T13:21:34Z</time>
      </trkpt>
      <trkpt lat="42.79023" lon="0.44959">
        <ele>1621.512222</ele>
        <time>2012-01-28T13:21:35Z</time>
      </trkpt>
      <trkpt lat="42.7902" lon="0.44965">
        <ele>1621.51223</ele>
        <time>2012-01-28T13:21:36Z</time>
      </trkpt>
      <trkpt lat="42.79018" lon="0.4497">
        <ele>1622.512234</ele>
        <time>2012-01-28T13:21:37Z</time>
      </trkpt>
      <trkpt lat="42.79015" lon="0.44976">
        <ele>1622.512234</ele>
        <time>2012-01-28T13:21:38Z</time>
      </trkpt>
      <trkpt lat="42.79013" lon="0.44981">
        <ele>1623.512234</ele>
        <time>2012-01-28T13:21:39Z</time>
      </trkpt>
      <trkpt lat="42.7901" lon="0.44986">
        <ele>1624.512238</ele>
        <time>2012-01-28T13:21:40Z</time>
      </trkpt>
      <trkpt lat="42.79005" lon="0.44996">
        <ele>1625.512238</ele>
        <time>2012-01-28T13:21:42Z</time>
      </trkpt>
      <trkpt lat="42.79002" lon="0.45003">
        <ele>1627.512238</ele>
        <time>2012-01-28T13:21:44Z</time>
      </trkpt>
      <trkpt lat="42.78999" lon="0.4501">
        <ele>1628.512241</ele>
        <time>2012-01-28T13:21:46Z</time>
      </trkpt>
      <trkpt lat="42.78995" lon="0.4502">
        <ele>1628.512249</ele>
        <time>2012-01-28T13:21:48Z</time>
      </trkpt>
      <trkpt lat="42.78992" lon="0.4503">
        <ele>1629.51226</ele>
        <time>2012-01-28T13:21:50Z</time>
      </trkpt>
      <trkpt lat="42.78989" lon="0.45039">
        <ele>1630.51228</ele>
        <time>2012-01-28T13:21:52Z</time>
      </trkpt>
      <trkpt lat="42.78985" lon="0.4505">
        <ele>1632.512283</ele>
        <time>2012-01-28T13:21:54Z</time>
      </trkpt>
      <trkpt lat="42.78981" lon="0.4506">
        <ele>1633.512291</ele>
        <time>2012-01-28T13:21:56Z</time>
      </trkpt>
      <trkpt lat="42.78977" lon="0.4507">
        <ele>1634.512302</ele>
        <time>2012-01-28T13:21:58Z</time>
      </trkpt>
      <trkpt lat="42.78975" lon="0.45079">
        <ele>1635.51231</ele>
        <time>2012-01-28T13:22:00Z</time>
      </trkpt>
      <trkpt lat="42.78971" lon="0.45089">
        <ele>1636.512321</ele>
        <time>2012-01-28T13:22:02Z</time>
      </trkpt>
      <trkpt lat="42.78968" lon="0.45099">
        <ele>1638.512333</ele>
        <time>2012-01-28T13:22:04Z</time>
      </trkpt>
      <trkpt lat="42.78965" lon="0.45109">
        <ele>1639.512337</ele>
        <time>2012-01-28T13:22:06Z</time>
      </trkpt>
      <trkpt lat="42.78961" lon="0.45119">
        <ele>1640.512352</ele>
        <time>2012-01-28T13:22:08Z</time>
      </trkpt>
      <trkpt lat="42.78957" lon="0.45129">
        <ele>1642.51236</ele>
        <time>2012-01-28T13:22:10Z</time>
      </trkpt>
      <trkpt lat="42.78955" lon="0.45135">
        <ele>1643.51236</ele>
        <time>2012-01-28T13:22:11Z</time>
      </trkpt>
      <trkpt lat="42.78952" lon="0.4514">
        <ele>1644.51236</ele>
        <time>2012-01-28T13:22:12Z</time>
      </trkpt>
      <trkpt lat="42.78949" lon="0.45147">
        <ele>1646.51236</ele>
        <time>2012-01-28T13:22:14Z</time>
      </trkpt>
      <trkpt lat="42.78946" lon="0.45153">
        <ele>1647.512363</ele>
        <time>2012-01-28T13:22:15Z</time>
      </trkpt>
      <trkpt lat="42.78941" lon="0.45163">
        <ele>1647.512363</ele>
        <time>2012-01-28T13:22:17Z</time>
      </trkpt>
      <trkpt lat="42.78938" lon="0.45172">
        <ele>1648.512375</ele>
        <time>2012-01-28T13:22:19Z</time>
      </trkpt>
      <trkpt lat="42.78934" lon="0.45182">
        <ele>1649.51239</ele>
        <time>2012-01-28T13:22:21Z</time>
      </trkpt>
      <trkpt lat="42.78932" lon="0.45188">
        <ele>1649.512386</ele>
        <time>2012-01-28T13:22:22Z</time>
      </trkpt>
      <trkpt lat="42.78928" lon="0.45198">
        <ele>1650.512402</ele>
        <time>2012-01-28T13:22:24Z</time>
      </trkpt>
      <trkpt lat="42.78924" lon="0.45208">
        <ele>1651.512409</ele>
        <time>2012-01-28T13:22:26Z</time>
      </trkpt>
      <trkpt lat="42.7892" lon="0.45218">
        <ele>1652.512413</ele>
        <time>2012-01-28T13:22:28Z</time>
      </trkpt>
      <trkpt lat="42.78918" lon="0.45225">
        <ele>1653.512421</ele>
        <time>2012-01-28T13:22:30Z</time>
      </trkpt>
      <trkpt lat="42.78916" lon="0.45233">
        <ele>1654.512432</ele>
        <time>2012-01-28T13:22:32Z</time>
      </trkpt>
      <trkpt lat="42.78912" lon="0.45242">
        <ele>1655.51244</ele>
        <time>2012-01-28T13:22:33Z</time>
      </trkpt>
      <trkpt lat="42.78908" lon="0.45253">
        <ele>1656.512444</ele>
        <time>2012-01-28T13:22:35Z</time>
      </trkpt>
      <trkpt lat="42.78906" lon="0.45259">
        <ele>1657.512451</ele>
        <time>2012-01-28T13:22:36Z</time>
      </trkpt>
      <trkpt lat="42.78903" lon="0.45264">
        <ele>1658.512451</ele>
        <time>2012-01-28T13:22:37Z</time>
      </trkpt>
      <trkpt lat="42.78901" lon="0.4527">
        <ele>1659.512455</ele>
        <time>2012-01-28T13:22:38Z</time>
      </trkpt>
      <trkpt lat="42.78899" lon="0.4528">
        <ele>1660.51247</ele>
        <time>2012-01-28T13:22:40Z</time>
      </trkpt>
      <trkpt lat="42.78896" lon="0.4529">
        <ele>1663.512486</ele>
        <time>2012-01-28T13:22:42Z</time>
      </trkpt>
      <trkpt lat="42.78893" lon="0.45299">
        <ele>1665.512493</ele>
        <time>2012-01-28T13:22:44Z</time>
      </trkpt>
      <trkpt lat="42.7889" lon="0.45309">
        <ele>1666.512505</ele>
        <time>2012-01-28T13:22:46Z</time>
      </trkpt>
      <trkpt lat="42.78888" lon="0.45319">
        <ele>1667.512524</ele>
        <time>2012-01-28T13:22:48Z</time>
      </trkpt>
      <trkpt lat="42.78886" lon="0.45328">
        <ele>1669.512539</ele>
        <time>2012-01-28T13:22:50Z</time>
      </trkpt>
      <trkpt lat="42.78882" lon="0.45336">
        <ele>1670.512539</ele>
        <time>2012-01-28T13:22:52Z</time>
      </trkpt>
      <trkpt lat="42.78878" lon="0.45345">
        <ele>1672.512543</ele>
        <time>2012-01-28T13:22:54Z</time>
      </trkpt>
      <trkpt lat="42.78874" lon="0.45354">
        <ele>1672.512547</ele>
        <time>2012-01-28T13:22:56Z</time>
      </trkpt>
      <trkpt lat="42.7887" lon="0.45365">
        <ele>1674.51255</ele>
        <time>2012-01-28T13:22:58Z</time>
      </trkpt>
      <trkpt lat="42.78866" lon="0.45375">
        <ele>1675.512562</ele>
        <time>2012-01-28T13:23:00Z</time>
      </trkpt>
      <trkpt lat="42.78861" lon="0.45385">
        <ele>1676.512566</ele>
        <time>2012-01-28T13:23:02Z</time>
      </trkpt>
      <trkpt lat="42.78856" lon="0.45397">
        <ele>1676.512569</ele>
        <time>2012-01-28T13:23:04Z</time>
      </trkpt>
      <trkpt lat="42.78852" lon="0.45405">
        <ele>1677.512573</ele>
        <time>2012-01-28T13:23:05Z</time>
      </trkpt>
      <trkpt lat="42.7885" lon="0.45411">
        <ele>1678.512577</ele>
        <time>2012-01-28T13:23:06Z</time>
      </trkpt>
      <trkpt lat="42.78848" lon="0.45416">
        <ele>1678.512577</ele>
        <time>2012-01-28T13:23:07Z</time>
      </trkpt>
      <trkpt lat="42.78843" lon="0.45427">
        <ele>1678.512592</ele>
        <time>2012-01-28T13:23:09Z</time>
      </trkpt>
      <trkpt lat="42.78841" lon="0.45433">
        <ele>1678.512596</ele>
        <time>2012-01-28T13:23:10Z</time>
      </trkpt>
      <trkpt lat="42.78837" lon="0.45439">
        <ele>1679.512592</ele>
        <time>2012-01-28T13:23:11Z</time>
      </trkpt>
      <trkpt lat="42.78834" lon="0.45446">
        <ele>1680.5126</ele>
        <time>2012-01-28T13:23:12Z</time>
      </trkpt>
      <trkpt lat="42.78832" lon="0.45451">
        <ele>1680.512604</ele>
        <time>2012-01-28T13:23:13Z</time>
      </trkpt>
      <trkpt lat="42.7883" lon="0.45457">
        <ele>1681.512608</ele>
        <time>2012-01-28T13:23:14Z</time>
      </trkpt>
      <trkpt lat="42.78826" lon="0.45468">
        <ele>1682.512611</ele>
        <time>2012-01-28T13:23:16Z</time>
      </trkpt>
      <trkpt lat="42.78824" lon="0.45474">
        <ele>1682.512623</ele>
        <time>2012-01-28T13:23:17Z</time>
      </trkpt>
      <trkpt lat="42.78819" lon="0.45484">
        <ele>1683.512623</ele>
        <time>2012-01-28T13:23:19Z</time>
      </trkpt>
      <trkpt lat="42.78817" lon="0.4549">
        <ele>1683.512627</ele>
        <time>2012-01-28T13:23:20Z</time>
      </trkpt>
      <trkpt lat="42.78815" lon="0.45495">
        <ele>1684.512627</ele>
        <time>2012-01-28T13:23:21Z</time>
      </trkpt>
      <trkpt lat="42.78811" lon="0.45506">
        <ele>1686.512638</ele>
        <time>2012-01-28T13:23:23Z</time>
      </trkpt>
      <trkpt lat="42.78807" lon="0.45516">
        <ele>1687.512653</ele>
        <time>2012-01-28T13:23:25Z</time>
      </trkpt>
      <trkpt lat="42.78804" lon="0.45526">
        <ele>1689.512661</ele>
        <time>2012-01-28T13:23:27Z</time>
      </trkpt>
      <trkpt lat="42.78801" lon="0.45536">
        <ele>1691.512672</ele>
        <time>2012-01-28T13:23:29Z</time>
      </trkpt>
      <trkpt lat="42.78798" lon="0.45546">
        <ele>1693.51268</ele>
        <time>2012-01-28T13:23:31Z</time>
      </trkpt>
      <trkpt lat="42.78794" lon="0.45557">
        <ele>1695.512695</ele>
        <time>2012-01-28T13:23:33Z</time>
      </trkpt>
      <trkpt lat="42.7879" lon="0.45567">
        <ele>1696.512699</ele>
        <time>2012-01-28T13:23:35Z</time>
      </trkpt>
      <trkpt lat="42.78786" lon="0.45578">
        <ele>1698.512711</ele>
        <time>2012-01-28T13:23:37Z</time>
      </trkpt>
      <trkpt lat="42.78784" lon="0.45584">
        <ele>1698.512714</ele>
        <time>2012-01-28T13:23:38Z</time>
      </trkpt>
      <trkpt lat="42.78781" lon="0.45594">
        <ele>1700.512726</ele>
        <time>2012-01-28T13:23:40Z</time>
      </trkpt>
      <trkpt lat="42.78777" lon="0.45605">
        <ele>1702.512733</ele>
        <time>2012-01-28T13:23:42Z</time>
      </trkpt>
      <trkpt lat="42.78773" lon="0.45614">
        <ele>1703.512745</ele>
        <time>2012-01-28T13:23:44Z</time>
      </trkpt>
      <trkpt lat="42.78771" lon="0.45618">
        <ele>1703.512745</ele>
        <time>2012-01-28T13:23:45Z</time>
      </trkpt>
      <trkpt lat="42.78767" lon="0.45627">
        <ele>1704.512749</ele>
        <time>2012-01-28T13:23:47Z</time>
      </trkpt>
      <trkpt lat="42.78763" lon="0.45635">
        <ele>1705.512753</ele>
        <time>2012-01-28T13:23:49Z</time>
      </trkpt>
      <trkpt lat="42.7876" lon="0.45642">
        <ele>1708.512756</ele>
        <time>2012-01-28T13:23:51Z</time>
      </trkpt>
      <trkpt lat="42.7876" lon="0.45643">
        <ele>1710.512753</ele>
        <time>2012-01-28T13:23:52Z</time>
      </trkpt>
      <trkpt lat="42.78756" lon="0.4565">
        <ele>1713.512756</ele>
        <time>2012-01-28T13:23:54Z</time>
      </trkpt>
      <trkpt lat="42.78753" lon="0.45658">
        <ele>1715.51276</ele>
        <time>2012-01-28T13:23:56Z</time>
      </trkpt>
      <trkpt lat="42.78749" lon="0.45666">
        <ele>1717.512756</ele>
        <time>2012-01-28T13:23:58Z</time>
      </trkpt>
      <trkpt lat="42.78745" lon="0.45676">
        <ele>1719.512764</ele>
        <time>2012-01-28T13:24:00Z</time>
      </trkpt>
      <trkpt lat="42.78742" lon="0.45684">
        <ele>1721.512772</ele>
        <time>2012-01-28T13:24:02Z</time>
      </trkpt>
      <trkpt lat="42.78739" lon="0.45691">
        <ele>1724.512775</ele>
        <time>2012-01-28T13:24:04Z</time>
      </trkpt>
      <trkpt lat="42.78735" lon="0.45697">
        <ele>1727.512772</ele>
        <time>2012-01-28T13:24:06Z</time>
      </trkpt>
      <trkpt lat="42.78731" lon="0.45704">
        <ele>1733.512775</ele>
        <time>2012-01-28T13:24:08Z</time>
      </trkpt>
      <trkpt lat="42.78727" lon="0.45712">
        <ele>1739.512775</ele>
        <time>2012-01-28T13:24:10Z</time>
      </trkpt>
      <trkpt lat="42.78724" lon="0.45721">
        <ele>1745.512787</ele>
        <time>2012-01-28T13:24:12Z</time>
      </trkpt>
      <trkpt lat="42.7872" lon="0.4573">
        <ele>1749.512794</ele>
        <time>2012-01-28T13:24:14Z</time>
      </trkpt>
      <trkpt lat="42.78719" lon="0.45734">
        <ele>1751.512798</ele>
        <time>2012-01-28T13:24:15Z</time>
      </trkpt>
      <trkpt lat="42.78716" lon="0.45743">
        <ele>1753.512814</ele>
        <time>2012-01-28T13:24:17Z</time>
      </trkpt>
      <trkpt lat="42.78713" lon="0.45751">
        <ele>1756.512814</ele>
        <time>2012-01-28T13:24:19Z</time>
      </trkpt>
      <trkpt lat="42.78711" lon="0.45758">
        <ele>1759.512817</ele>
        <time>2012-01-28T13:24:21Z</time>
      </trkpt>
      <trkpt lat="42.78708" lon="0.45765">
        <ele>1761.512825</ele>
        <time>2012-01-28T13:24:23Z</time>
      </trkpt>
      <trkpt lat="42.78705" lon="0.45774">
        <ele>1762.512825</ele>
        <time>2012-01-28T13:24:25Z</time>
      </trkpt>
      <trkpt lat="42.787" lon="0.45783">
        <ele>1765.512833</ele>
        <time>2012-01-28T13:24:27Z</time>
      </trkpt>
      <trkpt lat="42.78697" lon="0.45789">
        <ele>1769.512844</ele>
        <time>2012-01-28T13:24:30Z</time>
      </trkpt>
      <trkpt lat="42.78695" lon="0.45794">
        <ele>1770.51284</ele>
        <time>2012-01-28T13:24:31Z</time>
      </trkpt>
      <trkpt lat="42.78691" lon="0.45803">
        <ele>1774.512844</ele>
        <time>2012-01-28T13:24:33Z</time>
      </trkpt>
      <trkpt lat="42.78686" lon="0.45814">
        <ele>1779.512852</ele>
        <time>2012-01-28T13:24:35Z</time>
      </trkpt>
      <trkpt lat="42.78684" lon="0.45821">
        <ele>1784.512856</ele>
        <time>2012-01-28T13:24:37Z</time>
      </trkpt>
      <trkpt lat="42.78681" lon="0.45832">
        <ele>1788.512871</ele>
        <time>2012-01-28T13:24:39Z</time>
      </trkpt>
      <trkpt lat="42.78677" lon="0.45842">
        <ele>1793.512878</ele>
        <time>2012-01-28T13:24:41Z</time>
      </trkpt>
      <trkpt lat="42.78673" lon="0.45852">
        <ele>1798.512886</ele>
        <time>2012-01-28T13:24:43Z</time>
      </trkpt>
      <trkpt lat="42.78668" lon="0.45862">
        <ele>1802.51289</ele>
        <time>2012-01-28T13:24:45Z</time>
      </trkpt>
      <trkpt lat="42.78666" lon="0.45867">
        <ele>1804.51289</ele>
        <time>2012-01-28T13:24:46Z</time>
      </trkpt>
      <trkpt lat="42.78661" lon="0.45876">
        <ele>1807.51289</ele>
        <time>2012-01-28T13:24:48Z</time>
      </trkpt>
      <trkpt lat="42.78657" lon="0.45886">
        <ele>1810.512897</ele>
        <time>2012-01-28T13:24:50Z</time>
      </trkpt>
      <trkpt lat="42.78653" lon="0.45894">
        <ele>1815.512901</ele>
        <time>2012-01-28T13:24:52Z</time>
      </trkpt>
      <trkpt lat="42.7865" lon="0.45904">
        <ele>1819.512909</ele>
        <time>2012-01-28T13:24:54Z</time>
      </trkpt>
      <trkpt lat="42.78647" lon="0.45915">
        <ele>1823.512928</ele>
        <time>2012-01-28T13:24:56Z</time>
      </trkpt>
      <trkpt lat="42.78643" lon="0.45925">
        <ele>1829.512932</ele>
        <time>2012-01-28T13:24:58Z</time>
      </trkpt>
      <trkpt lat="42.7864" lon="0.45934">
        <ele>1838.512936</ele>
        <time>2012-01-28T13:25:00Z</time>
      </trkpt>
      <trkpt lat="42.78637" lon="0.45942">
        <ele>1845.512947</ele>
        <time>2012-01-28T13:25:02Z</time>
      </trkpt>
      <trkpt lat="42.78636" lon="0.45952">
        <ele>1850.51297</ele>
        <time>2012-01-28T13:25:04Z</time>
      </trkpt>
      <trkpt lat="42.78639" lon="0.4596">
        <ele>1855.513</ele>
        <time>2012-01-28T13:25:06Z</time>
      </trkpt>
      <trkpt lat="42.78639" lon="0.45968">
        <ele>1856.513023</ele>
        <time>2012-01-28T13:25:08Z</time>
      </trkpt>
      <trkpt lat="42.78658" lon="0.45997">
        <ele>1898.513187</ele>
        <time>2012-01-28T13:25:56Z</time>
      </trkpt>
      <trkpt lat="42.78654" lon="0.46009">
        <ele>1928.513199</ele>
        <time>2012-01-28T13:26:16Z</time>
      </trkpt>
      <trkpt lat="42.78654" lon="0.46009">
        <ele>1928.513199</ele>
        <time>2012-01-28T13:26:25Z</time>
      </trkpt>
      <trkpt lat="42.78652" lon="0.46004">
        <ele>1951.513176</ele>
        <time>2012-01-28T13:26:57Z</time>
      </trkpt>
      <trkpt lat="42.78646" lon="0.46001">
        <ele>1956.513145</ele>
        <time>2012-01-28T13:27:18Z</time>
      </trkpt>
      <trkpt lat="42.7864" lon="0.46001">
        <ele>1958.513119</ele>
        <time>2012-01-28T13:27:23Z</time>
      </trkpt>
      <trkpt lat="42.78634" lon="0.46002">
        <ele>1958.513084</ele>
        <time>2012-01-28T13:27:26Z</time>
      </trkpt>
      <trkpt lat="42.78629" lon="0.46002">
        <ele>1959.513062</ele>
        <time>2012-01-28T13:27:28Z</time>
      </trkpt>
      <trkpt lat="42.78623" lon="0.46003">
        <ele>1959.513042</ele>
        <time>2012-01-28T13:27:30Z</time>
      </trkpt>
      <trkpt lat="42.78617" lon="0.46005">
        <ele>1959.51302</ele>
        <time>2012-01-28T13:27:32Z</time>
      </trkpt>
      <trkpt lat="42.78611" lon="0.46008">
        <ele>1959.512993</ele>
        <time>2012-01-28T13:27:34Z</time>
      </trkpt>
      <trkpt lat="42.78604" lon="0.4601">
        <ele>1959.512962</ele>
        <time>2012-01-28T13:27:36Z</time>
      </trkpt>
      <trkpt lat="42.78596" lon="0.46012">
        <ele>1959.512932</ele>
        <time>2012-01-28T13:27:38Z</time>
      </trkpt>
      <trkpt lat="42.78588" lon="0.46012">
        <ele>1960.512901</ele>
        <time>2012-01-28T13:27:40Z</time>
      </trkpt>
      <trkpt lat="42.78582" lon="0.46012">
        <ele>1960.512867</ele>
        <time>2012-01-28T13:27:42Z</time>
      </trkpt>
      <trkpt lat="42.78577" lon="0.46011">
        <ele>1961.51284</ele>
        <time>2012-01-28T13:27:46Z</time>
      </trkpt>
      <trkpt lat="42.78576" lon="0.4601">
        <ele>1962.512836</ele>
        <time>2012-01-28T13:27:52Z</time>
      </trkpt>
      <trkpt lat="42.78564" lon="0.46004">
        <ele>1962.512756</ele>
        <time>2012-01-28T13:29:13Z</time>
      </trkpt>
      <trkpt lat="42.78558" lon="0.45998">
        <ele>1963.512714</ele>
        <time>2012-01-28T13:29:16Z</time>
      </trkpt>
      <trkpt lat="42.78555" lon="0.45991">
        <ele>1963.512691</ele>
        <time>2012-01-28T13:29:19Z</time>
      </trkpt>
      <trkpt lat="42.78555" lon="0.45984">
        <ele>1963.512672</ele>
        <time>2012-01-28T13:29:21Z</time>
      </trkpt>
      <trkpt lat="42.78555" lon="0.45976">
        <ele>1962.51265</ele>
        <time>2012-01-28T13:29:23Z</time>
      </trkpt>
      <trkpt lat="42.78555" lon="0.45973">
        <ele>1962.512634</ele>
        <time>2012-01-28T13:29:24Z</time>
      </trkpt>
      <trkpt lat="42.78552" lon="0.45966">
        <ele>1962.512604</ele>
        <time>2012-01-28T13:29:26Z</time>
      </trkpt>
      <trkpt lat="42.78549" lon="0.4596">
        <ele>1961.512573</ele>
        <time>2012-01-28T13:29:28Z</time>
      </trkpt>
      <trkpt lat="42.78545" lon="0.45953">
        <ele>1961.512543</ele>
        <time>2012-01-28T13:29:30Z</time>
      </trkpt>
      <trkpt lat="42.78541" lon="0.45947">
        <ele>1961.512497</ele>
        <time>2012-01-28T13:29:32Z</time>
      </trkpt>
      <trkpt lat="42.78536" lon="0.4594">
        <ele>1962.512463</ele>
        <time>2012-01-28T13:29:34Z</time>
      </trkpt>
      <trkpt lat="42.7853" lon="0.45933">
        <ele>1962.512413</ele>
        <time>2012-01-28T13:29:36Z</time>
      </trkpt>
      <trkpt lat="42.78524" lon="0.45925">
        <ele>1962.512363</ele>
        <time>2012-01-28T13:29:38Z</time>
      </trkpt>
      <trkpt lat="42.78518" lon="0.45917">
        <ele>1962.512318</ele>
        <time>2012-01-28T13:29:40Z</time>
      </trkpt>
      <trkpt lat="42.78512" lon="0.45909">
        <ele>1963.512264</ele>
        <time>2012-01-28T13:29:42Z</time>
      </trkpt>
      <trkpt lat="42.78505" lon="0.45901">
        <ele>1963.512215</ele>
        <time>2012-01-28T13:29:44Z</time>
      </trkpt>
      <trkpt lat="42.78502" lon="0.45896">
        <ele>1963.512184</ele>
        <time>2012-01-28T13:29:45Z</time>
      </trkpt>
      <trkpt lat="42.78495" lon="0.45889">
        <ele>1963.512131</ele>
        <time>2012-01-28T13:29:47Z</time>
      </trkpt>
      <trkpt lat="42.78489" lon="0.45882">
        <ele>1962.512085</ele>
        <time>2012-01-28T13:29:49Z</time>
      </trkpt>
      <trkpt lat="42.78483" lon="0.45878">
        <ele>1962.512039</ele>
        <time>2012-01-28T13:29:51Z</time>
      </trkpt>
      <trkpt lat="42.78476" lon="0.45875">
        <ele>1961.512009</ele>
        <time>2012-01-28T13:29:53Z</time>
      </trkpt>
      <trkpt lat="42.78472" lon="0.45881">
        <ele>1961.511997</ele>
        <time>2012-01-28T13:29:54Z</time>
      </trkpt>
      <trkpt lat="42.78468" lon="0.45886">
        <ele>1960.511997</ele>
        <time>2012-01-28T13:29:55Z</time>
      </trkpt>
      <trkpt lat="42.78465" lon="0.45892">
        <ele>1960.511997</ele>
        <time>2012-01-28T13:29:56Z</time>
      </trkpt>
      <trkpt lat="42.78462" lon="0.45899">
        <ele>1960.512001</ele>
        <time>2012-01-28T13:29:57Z</time>
      </trkpt>
      <trkpt lat="42.78459" lon="0.45904">
        <ele>1960.511997</ele>
        <time>2012-01-28T13:29:58Z</time>
      </trkpt>
      <trkpt lat="42.78458" lon="0.45915">
        <ele>1959.51202</ele>
        <time>2012-01-28T13:29:59Z</time>
      </trkpt>
      <trkpt lat="42.78457" lon="0.45927">
        <ele>1959.512047</ele>
        <time>2012-01-28T13:30:01Z</time>
      </trkpt>
      <trkpt lat="42.78456" lon="0.4594">
        <ele>1959.512077</ele>
        <time>2012-01-28T13:30:03Z</time>
      </trkpt>
      <trkpt lat="42.78455" lon="0.45952">
        <ele>1958.512104</ele>
        <time>2012-01-28T13:30:03Z</time>
      </trkpt>
      <trkpt lat="42.78453" lon="0.45961">
        <ele>1958.512119</ele>
        <time>2012-01-28T13:30:03Z</time>
      </trkpt>
      <trkpt lat="42.78453" lon="0.45974">
        <ele>1957.512157</ele>
        <time>2012-01-28T13:30:04Z</time>
      </trkpt>
      <trkpt lat="42.78453" lon="0.45984">
        <ele>1957.512184</ele>
        <time>2012-01-28T13:30:05Z</time>
      </trkpt>
      <trkpt lat="42.78452" lon="0.45991">
        <ele>1957.512188</ele>
        <time>2012-01-28T13:30:06Z</time>
      </trkpt>
      <trkpt lat="42.78454" lon="0.46005">
        <ele>1956.512238</ele>
        <time>2012-01-28T13:30:07Z</time>
      </trkpt>
      <trkpt lat="42.78455" lon="0.46016">
        <ele>1955.512264</ele>
        <time>2012-01-28T13:30:08Z</time>
      </trkpt>
      <trkpt lat="42.78455" lon="0.46025">
        <ele>1955.512295</ele>
        <time>2012-01-28T13:30:09Z</time>
      </trkpt>
      <trkpt lat="42.78455" lon="0.46034">
        <ele>1954.512318</ele>
        <time>2012-01-28T13:30:10Z</time>
      </trkpt>
      <trkpt lat="42.78454" lon="0.46042">
        <ele>1954.512337</ele>
        <time>2012-01-28T13:30:11Z</time>
      </trkpt>
      <trkpt lat="42.78457" lon="0.46051">
        <ele>1952.512375</ele>
        <time>2012-01-28T13:30:12Z</time>
      </trkpt>
      <trkpt lat="42.78459" lon="0.4606">
        <ele>1951.512405</ele>
        <time>2012-01-28T13:30:13Z</time>
      </trkpt>
      <trkpt lat="42.7846" lon="0.4607">
        <ele>1950.512436</ele>
        <time>2012-01-28T13:30:14Z</time>
      </trkpt>
      <trkpt lat="42.78459" lon="0.46078">
        <ele>1950.512451</ele>
        <time>2012-01-28T13:30:15Z</time>
      </trkpt>
      <trkpt lat="42.7846" lon="0.46086">
        <ele>1949.512486</ele>
        <time>2012-01-28T13:30:16Z</time>
      </trkpt>
      <trkpt lat="42.78461" lon="0.46095">
        <ele>1948.512508</ele>
        <time>2012-01-28T13:30:17Z</time>
      </trkpt>
      <trkpt lat="42.78462" lon="0.46103">
        <ele>1947.512531</ele>
        <time>2012-01-28T13:30:18Z</time>
      </trkpt>
      <trkpt lat="42.78465" lon="0.46109">
        <ele>1946.512562</ele>
        <time>2012-01-28T13:30:19Z</time>
      </trkpt>
      <trkpt lat="42.78467" lon="0.46116">
        <ele>1945.512589</ele>
        <time>2012-01-28T13:30:20Z</time>
      </trkpt>
      <trkpt lat="42.7847" lon="0.46122">
        <ele>1944.512623</ele>
        <time>2012-01-28T13:30:21Z</time>
      </trkpt>
      <trkpt lat="42.78477" lon="0.46126">
        <ele>1943.512665</ele>
        <time>2012-01-28T13:30:22Z</time>
      </trkpt>
      <trkpt lat="42.78482" lon="0.4613">
        <ele>1942.512695</ele>
        <time>2012-01-28T13:30:23Z</time>
      </trkpt>
      <trkpt lat="42.78488" lon="0.46133">
        <ele>1941.512733</ele>
        <time>2012-01-28T13:30:24Z</time>
      </trkpt>
      <trkpt lat="42.78493" lon="0.46136">
        <ele>1941.512768</ele>
        <time>2012-01-28T13:30:25Z</time>
      </trkpt>
      <trkpt lat="42.78494" lon="0.46143">
        <ele>1939.512791</ele>
        <time>2012-01-28T13:30:26Z</time>
      </trkpt>
      <trkpt lat="42.78495" lon="0.4615">
        <ele>1939.512814</ele>
        <time>2012-01-28T13:30:27Z</time>
      </trkpt>
      <trkpt lat="42.785" lon="0.46156">
        <ele>1938.512852</ele>
        <time>2012-01-28T13:30:28Z</time>
      </trkpt>
      <trkpt lat="42.78504" lon="0.46163">
        <ele>1938.51289</ele>
        <time>2012-01-28T13:30:29Z</time>
      </trkpt>
      <trkpt lat="42.78506" lon="0.46174">
        <ele>1937.512936</ele>
        <time>2012-01-28T13:30:31Z</time>
      </trkpt>
      <trkpt lat="42.78509" lon="0.46185">
        <ele>1935.512966</ele>
        <time>2012-01-28T13:30:33Z</time>
      </trkpt>
      <trkpt lat="42.78511" lon="0.46196">
        <ele>1933.513008</ele>
        <time>2012-01-28T13:30:35Z</time>
      </trkpt>
      <trkpt lat="42.7851" lon="0.46202">
        <ele>1931.513016</ele>
        <time>2012-01-28T13:30:36Z</time>
      </trkpt>
      <trkpt lat="42.78507" lon="0.46208">
        <ele>1930.51302</ele>
        <time>2012-01-28T13:30:37Z</time>
      </trkpt>
      <trkpt lat="42.78504" lon="0.46214">
        <ele>1930.51302</ele>
        <time>2012-01-28T13:30:38Z</time>
      </trkpt>
      <trkpt lat="42.785" lon="0.46219">
        <ele>1930.513012</ele>
        <time>2012-01-28T13:30:39Z</time>
      </trkpt>
      <trkpt lat="42.78495" lon="0.46225">
        <ele>1929.513008</ele>
        <time>2012-01-28T13:30:40Z</time>
      </trkpt>
      <trkpt lat="42.78491" lon="0.46231">
        <ele>1929.513008</ele>
        <time>2012-01-28T13:30:41Z</time>
      </trkpt>
      <trkpt lat="42.78488" lon="0.46237">
        <ele>1928.513008</ele>
        <time>2012-01-28T13:30:42Z</time>
      </trkpt>
      <trkpt lat="42.78486" lon="0.46243">
        <ele>1928.513012</ele>
        <time>2012-01-28T13:30:43Z</time>
      </trkpt>
      <trkpt lat="42.78483" lon="0.4625">
        <ele>1928.513016</ele>
        <time>2012-01-28T13:30:44Z</time>
      </trkpt>
      <trkpt lat="42.78482" lon="0.46256">
        <ele>1926.513031</ele>
        <time>2012-01-28T13:30:45Z</time>
      </trkpt>
      <trkpt lat="42.7848" lon="0.46263">
        <ele>1926.513035</ele>
        <time>2012-01-28T13:30:46Z</time>
      </trkpt>
      <trkpt lat="42.78485" lon="0.4627">
        <ele>1924.513081</ele>
        <time>2012-01-28T13:30:47Z</time>
      </trkpt>
      <trkpt lat="42.78487" lon="0.46277">
        <ele>1924.5131</ele>
        <time>2012-01-28T13:30:48Z</time>
      </trkpt>
      <trkpt lat="42.78485" lon="0.46284">
        <ele>1923.513111</ele>
        <time>2012-01-28T13:30:49Z</time>
      </trkpt>
      <trkpt lat="42.78484" lon="0.4629">
        <ele>1923.513126</ele>
        <time>2012-01-28T13:30:50Z</time>
      </trkpt>
      <trkpt lat="42.78485" lon="0.46298">
        <ele>1921.513145</ele>
        <time>2012-01-28T13:30:51Z</time>
      </trkpt>
      <trkpt lat="42.78486" lon="0.46304">
        <ele>1918.513172</ele>
        <time>2012-01-28T13:30:52Z</time>
      </trkpt>
      <trkpt lat="42.78485" lon="0.46311">
        <ele>1918.513187</ele>
        <time>2012-01-28T13:30:53Z</time>
      </trkpt>
      <trkpt lat="42.78489" lon="0.46318">
        <ele>1916.513222</ele>
        <time>2012-01-28T13:30:54Z</time>
      </trkpt>
      <trkpt lat="42.78489" lon="0.46324">
        <ele>1916.513237</ele>
        <time>2012-01-28T13:30:55Z</time>
      </trkpt>
      <trkpt lat="42.78485" lon="0.46335">
        <ele>1914.513252</ele>
        <time>2012-01-28T13:30:56Z</time>
      </trkpt>
      <trkpt lat="42.78483" lon="0.46343">
        <ele>1913.513256</ele>
        <time>2012-01-28T13:30:57Z</time>
      </trkpt>
      <trkpt lat="42.7849" lon="0.46355">
        <ele>1910.513317</ele>
        <time>2012-01-28T13:30:58Z</time>
      </trkpt>
      <trkpt lat="42.78493" lon="0.46365">
        <ele>1908.513363</ele>
        <time>2012-01-28T13:30:59Z</time>
      </trkpt>
      <trkpt lat="42.78494" lon="0.46376">
        <ele>1905.513393</ele>
        <time>2012-01-28T13:31:00Z</time>
      </trkpt>
      <trkpt lat="42.78493" lon="0.46387">
        <ele>1902.51342</ele>
        <time>2012-01-28T13:31:01Z</time>
      </trkpt>
      <trkpt lat="42.78492" lon="0.46397">
        <ele>1900.513443</ele>
        <time>2012-01-28T13:31:02Z</time>
      </trkpt>
      <trkpt lat="42.78492" lon="0.46406">
        <ele>1899.513462</ele>
        <time>2012-01-28T13:31:03Z</time>
      </trkpt>
      <trkpt lat="42.78494" lon="0.46418">
        <ele>1897.513508</ele>
        <time>2012-01-28T13:31:04Z</time>
      </trkpt>
      <trkpt lat="42.78496" lon="0.46429">
        <ele>1895.513542</ele>
        <time>2012-01-28T13:31:05Z</time>
      </trkpt>
      <trkpt lat="42.78498" lon="0.46441">
        <ele>1892.513584</ele>
        <time>2012-01-28T13:31:06Z</time>
      </trkpt>
      <trkpt lat="42.78501" lon="0.4645">
        <ele>1890.513626</ele>
        <time>2012-01-28T13:31:07Z</time>
      </trkpt>
      <trkpt lat="42.78504" lon="0.4646">
        <ele>1889.51366</ele>
        <time>2012-01-28T13:31:08Z</time>
      </trkpt>
      <trkpt lat="42.78505" lon="0.4647">
        <ele>1887.513691</ele>
        <time>2012-01-28T13:31:09Z</time>
      </trkpt>
      <trkpt lat="42.78506" lon="0.46479">
        <ele>1885.513721</ele>
        <time>2012-01-28T13:31:10Z</time>
      </trkpt>
      <trkpt lat="42.78506" lon="0.46486">
        <ele>1883.513741</ele>
        <time>2012-01-28T13:31:11Z</time>
      </trkpt>
      <trkpt lat="42.78505" lon="0.46493">
        <ele>1881.513756</ele>
        <time>2012-01-28T13:31:12Z</time>
      </trkpt>
      <trkpt lat="42.78504" lon="0.46504">
        <ele>1878.513775</ele>
        <time>2012-01-28T13:31:14Z</time>
      </trkpt>
      <trkpt lat="42.78504" lon="0.46514">
        <ele>1877.513805</ele>
        <time>2012-01-28T13:31:16Z</time>
      </trkpt>
      <trkpt lat="42.785" lon="0.46524">
        <ele>1875.513809</ele>
        <time>2012-01-28T13:31:18Z</time>
      </trkpt>
      <trkpt lat="42.785" lon="0.46536">
        <ele>1871.513844</ele>
        <time>2012-01-28T13:31:20Z</time>
      </trkpt>
      <trkpt lat="42.78502" lon="0.46543">
        <ele>1868.51387</ele>
        <time>2012-01-28T13:31:21Z</time>
      </trkpt>
      <trkpt lat="42.78504" lon="0.46549">
        <ele>1866.513893</ele>
        <time>2012-01-28T13:31:22Z</time>
      </trkpt>
      <trkpt lat="42.78506" lon="0.46555">
        <ele>1864.513924</ele>
        <time>2012-01-28T13:31:23Z</time>
      </trkpt>
      <trkpt lat="42.7851" lon="0.46566">
        <ele>1861.513969</ele>
        <time>2012-01-28T13:31:24Z</time>
      </trkpt>
      <trkpt lat="42.78513" lon="0.46578">
        <ele>1859.514015</ele>
        <time>2012-01-28T13:31:25Z</time>
      </trkpt>
      <trkpt lat="42.78517" lon="0.46588">
        <ele>1856.514061</ele>
        <time>2012-01-28T13:31:26Z</time>
      </trkpt>
      <trkpt lat="42.78519" lon="0.46597">
        <ele>1856.514091</ele>
        <time>2012-01-28T13:31:27Z</time>
      </trkpt>
      <trkpt lat="42.78522" lon="0.46606">
        <ele>1854.51413</ele>
        <time>2012-01-28T13:31:28Z</time>
      </trkpt>
      <trkpt lat="42.78524" lon="0.46614">
        <ele>1854.51416</ele>
        <time>2012-01-28T13:31:29Z</time>
      </trkpt>
      <trkpt lat="42.78525" lon="0.46623">
        <ele>1854.514191</ele>
        <time>2012-01-28T13:31:30Z</time>
      </trkpt>
      <trkpt lat="42.7853" lon="0.46631">
        <ele>1852.514233</ele>
        <time>2012-01-28T13:31:31Z</time>
      </trkpt>
      <trkpt lat="42.78531" lon="0.46639">
        <ele>1852.514263</ele>
        <time>2012-01-28T13:31:32Z</time>
      </trkpt>
      <trkpt lat="42.78528" lon="0.46647">
        <ele>1850.514259</ele>
        <time>2012-01-28T13:31:33Z</time>
      </trkpt>
      <trkpt lat="42.78526" lon="0.46654">
        <ele>1850.514275</ele>
        <time>2012-01-28T13:31:34Z</time>
      </trkpt>
      <trkpt lat="42.78528" lon="0.46662">
        <ele>1847.514309</ele>
        <time>2012-01-28T13:31:35Z</time>
      </trkpt>
      <trkpt lat="42.78529" lon="0.4667">
        <ele>1846.514332</ele>
        <time>2012-01-28T13:31:36Z</time>
      </trkpt>
      <trkpt lat="42.78526" lon="0.46677">
        <ele>1844.514336</ele>
        <time>2012-01-28T13:31:37Z</time>
      </trkpt>
      <trkpt lat="42.78524" lon="0.46685">
        <ele>1844.514347</ele>
        <time>2012-01-28T13:31:38Z</time>
      </trkpt>
      <trkpt lat="42.78525" lon="0.46693">
        <ele>1841.514374</ele>
        <time>2012-01-28T13:31:39Z</time>
      </trkpt>
      <trkpt lat="42.78525" lon="0.46701">
        <ele>1839.514397</ele>
        <time>2012-01-28T13:31:40Z</time>
      </trkpt>
      <trkpt lat="42.78525" lon="0.4671">
        <ele>1839.514412</ele>
        <time>2012-01-28T13:31:41Z</time>
      </trkpt>
      <trkpt lat="42.78526" lon="0.4672">
        <ele>1837.514442</ele>
        <time>2012-01-28T13:31:42Z</time>
      </trkpt>
      <trkpt lat="42.78527" lon="0.46729">
        <ele>1836.514469</ele>
        <time>2012-01-28T13:31:43Z</time>
      </trkpt>
      <trkpt lat="42.78527" lon="0.46738">
        <ele>1834.514496</ele>
        <time>2012-01-28T13:31:44Z</time>
      </trkpt>
      <trkpt lat="42.78526" lon="0.46747">
        <ele>1834.514523</ele>
        <time>2012-01-28T13:31:45Z</time>
      </trkpt>
      <trkpt lat="42.78526" lon="0.46756">
        <ele>1834.514542</ele>
        <time>2012-01-28T13:31:46Z</time>
      </trkpt>
      <trkpt lat="42.78524" lon="0.46774">
        <ele>1832.514576</ele>
        <time>2012-01-28T13:31:47Z</time>
      </trkpt>
      <trkpt lat="42.78523" lon="0.46785">
        <ele>1831.514599</ele>
        <time>2012-01-28T13:31:48Z</time>
      </trkpt>
      <trkpt lat="42.78521" lon="0.46796">
        <ele>1829.514614</ele>
        <time>2012-01-28T13:31:49Z</time>
      </trkpt>
      <trkpt lat="42.7852" lon="0.46807">
        <ele>1829.514641</ele>
        <time>2012-01-28T13:31:50Z</time>
      </trkpt>
      <trkpt lat="42.78519" lon="0.46817">
        <ele>1829.514671</ele>
        <time>2012-01-28T13:31:51Z</time>
      </trkpt>
      <trkpt lat="42.78516" lon="0.46829">
        <ele>1826.514683</ele>
        <time>2012-01-28T13:31:52Z</time>
      </trkpt>
      <trkpt lat="42.78514" lon="0.46839">
        <ele>1824.514698</ele>
        <time>2012-01-28T13:31:53Z</time>
      </trkpt>
      <trkpt lat="42.78512" lon="0.46849">
        <ele>1822.514713</ele>
        <time>2012-01-28T13:31:54Z</time>
      </trkpt>
      <trkpt lat="42.7851" lon="0.4686">
        <ele>1821.514732</ele>
        <time>2012-01-28T13:31:55Z</time>
      </trkpt>
      <trkpt lat="42.78509" lon="0.4687">
        <ele>1821.514755</ele>
        <time>2012-01-28T13:31:56Z</time>
      </trkpt>
      <trkpt lat="42.78508" lon="0.46881">
        <ele>1821.514782</ele>
        <time>2012-01-28T13:31:57Z</time>
      </trkpt>
      <trkpt lat="42.78507" lon="0.46893">
        <ele>1821.514801</ele>
        <time>2012-01-28T13:31:58Z</time>
      </trkpt>
      <trkpt lat="42.78506" lon="0.46903">
        <ele>1821.514824</ele>
        <time>2012-01-28T13:31:59Z</time>
      </trkpt>
      <trkpt lat="42.78504" lon="0.46915">
        <ele>1820.514851</ele>
        <time>2012-01-28T13:32:00Z</time>
      </trkpt>
      <trkpt lat="42.78503" lon="0.46926">
        <ele>1820.514874</ele>
        <time>2012-01-28T13:32:01Z</time>
      </trkpt>
      <trkpt lat="42.78502" lon="0.46937">
        <ele>1819.514896</ele>
        <time>2012-01-28T13:32:02Z</time>
      </trkpt>
      <trkpt lat="42.785" lon="0.46951">
        <ele>1819.514923</ele>
        <time>2012-01-28T13:32:03Z</time>
      </trkpt>
      <trkpt lat="42.78498" lon="0.46963">
        <ele>1819.514946</ele>
        <time>2012-01-28T13:32:04Z</time>
      </trkpt>
      <trkpt lat="42.78495" lon="0.46975">
        <ele>1818.514965</ele>
        <time>2012-01-28T13:32:05Z</time>
      </trkpt>
      <trkpt lat="42.78493" lon="0.46987">
        <ele>1818.51498</ele>
        <time>2012-01-28T13:32:06Z</time>
      </trkpt>
      <trkpt lat="42.78491" lon="0.46998">
        <ele>1818.514999</ele>
        <time>2012-01-28T13:32:07Z</time>
      </trkpt>
      <trkpt lat="42.78487" lon="0.47007">
        <ele>1817.515011</ele>
        <time>2012-01-28T13:32:08Z</time>
      </trkpt>
      <trkpt lat="42.78484" lon="0.47016">
        <ele>1817.515018</ele>
        <time>2012-01-28T13:32:09Z</time>
      </trkpt>
      <trkpt lat="42.78482" lon="0.47025">
        <ele>1817.51503</ele>
        <time>2012-01-28T13:32:10Z</time>
      </trkpt>
      <trkpt lat="42.78479" lon="0.47033">
        <ele>1816.515038</ele>
        <time>2012-01-28T13:32:11Z</time>
      </trkpt>
      <trkpt lat="42.78483" lon="0.47036">
        <ele>1813.51506</ele>
        <time>2012-01-28T13:32:14Z</time>
      </trkpt>
      <trkpt lat="42.78485" lon="0.47016">
        <ele>1796.515026</ele>
        <time>2012-01-28T13:32:45Z</time>
      </trkpt>
      <trkpt lat="42.78478" lon="0.47037">
        <ele>1771.515045</ele>
        <time>2012-01-28T13:33:05Z</time>
      </trkpt>
      <trkpt lat="42.78476" lon="0.47046">
        <ele>1770.515057</ele>
        <time>2012-01-28T13:33:06Z</time>
      </trkpt>
      <trkpt lat="42.78476" lon="0.47059">
        <ele>1768.515095</ele>
        <time>2012-01-28T13:33:07Z</time>
      </trkpt>
      <trkpt lat="42.78477" lon="0.47071">
        <ele>1767.515129</ele>
        <time>2012-01-28T13:33:08Z</time>
      </trkpt>
      <trkpt lat="42.78478" lon="0.47083">
        <ele>1766.515167</ele>
        <time>2012-01-28T13:33:09Z</time>
      </trkpt>
      <trkpt lat="42.7848" lon="0.47096">
        <ele>1764.515202</ele>
        <time>2012-01-28T13:33:10Z</time>
      </trkpt>
      <trkpt lat="42.7848" lon="0.47107">
        <ele>1761.51524</ele>
        <time>2012-01-28T13:33:11Z</time>
      </trkpt>
      <trkpt lat="42.78482" lon="0.47116">
        <ele>1760.515266</ele>
        <time>2012-01-28T13:33:12Z</time>
      </trkpt>
      <trkpt lat="42.78486" lon="0.47134">
        <ele>1758.515339</ele>
        <time>2012-01-28T13:33:14Z</time>
      </trkpt>
      <trkpt lat="42.7849" lon="0.47144">
        <ele>1756.515377</ele>
        <time>2012-01-28T13:33:15Z</time>
      </trkpt>
      <trkpt lat="42.78495" lon="0.47163">
        <ele>1755.51545</ele>
        <time>2012-01-28T13:33:17Z</time>
      </trkpt>
      <trkpt lat="42.78498" lon="0.47185">
        <ele>1754.515526</ele>
        <time>2012-01-28T13:33:19Z</time>
      </trkpt>
      <trkpt lat="42.78499" lon="0.47196">
        <ele>1753.515556</ele>
        <time>2012-01-28T13:33:20Z</time>
      </trkpt>
      <trkpt lat="42.78497" lon="0.47211">
        <ele>1752.515587</ele>
        <time>2012-01-28T13:33:21Z</time>
      </trkpt>
      <trkpt lat="42.78496" lon="0.47223">
        <ele>1751.51561</ele>
        <time>2012-01-28T13:33:22Z</time>
      </trkpt>
      <trkpt lat="42.78499" lon="0.47235">
        <ele>1750.515659</ele>
        <time>2012-01-28T13:33:23Z</time>
      </trkpt>
      <trkpt lat="42.785" lon="0.47247">
        <ele>1749.515697</ele>
        <time>2012-01-28T13:33:24Z</time>
      </trkpt>
      <trkpt lat="42.78501" lon="0.47259">
        <ele>1749.515728</ele>
        <time>2012-01-28T13:33:25Z</time>
      </trkpt>
      <trkpt lat="42.78513" lon="0.47266">
        <ele>1746.515808</ele>
        <time>2012-01-28T13:33:26Z</time>
      </trkpt>
      <trkpt lat="42.78518" lon="0.47275">
        <ele>1746.515854</ele>
        <time>2012-01-28T13:33:27Z</time>
      </trkpt>
      <trkpt lat="42.78526" lon="0.4728">
        <ele>1744.515907</ele>
        <time>2012-01-28T13:33:28Z</time>
      </trkpt>
      <trkpt lat="42.78531" lon="0.47288">
        <ele>1744.515945</ele>
        <time>2012-01-28T13:33:29Z</time>
      </trkpt>
      <trkpt lat="42.78537" lon="0.47296">
        <ele>1741.516003</ele>
        <time>2012-01-28T13:33:30Z</time>
      </trkpt>
      <trkpt lat="42.78541" lon="0.47304">
        <ele>1741.516041</ele>
        <time>2012-01-28T13:33:31Z</time>
      </trkpt>
      <trkpt lat="42.78552" lon="0.47307">
        <ele>1739.516094</ele>
        <time>2012-01-28T13:33:32Z</time>
      </trkpt>
      <trkpt lat="42.7856" lon="0.47313">
        <ele>1736.516151</ele>
        <time>2012-01-28T13:33:33Z</time>
      </trkpt>
      <trkpt lat="42.78567" lon="0.47319">
        <ele>1733.516201</ele>
        <time>2012-01-28T13:33:34Z</time>
      </trkpt>
      <trkpt lat="42.78573" lon="0.47324">
        <ele>1733.516247</ele>
        <time>2012-01-28T13:33:35Z</time>
      </trkpt>
      <trkpt lat="42.78578" lon="0.47334">
        <ele>1731.516296</ele>
        <time>2012-01-28T13:33:36Z</time>
      </trkpt>
      <trkpt lat="42.78585" lon="0.4734">
        <ele>1731.516342</ele>
        <time>2012-01-28T13:33:37Z</time>
      </trkpt>
      <trkpt lat="42.78591" lon="0.47347">
        <ele>1729.516388</ele>
        <time>2012-01-28T13:33:38Z</time>
      </trkpt>
      <trkpt lat="42.78597" lon="0.47352">
        <ele>1729.516438</ele>
        <time>2012-01-28T13:33:39Z</time>
      </trkpt>
      <trkpt lat="42.78602" lon="0.47362">
        <ele>1726.516476</ele>
        <time>2012-01-28T13:33:40Z</time>
      </trkpt>
      <trkpt lat="42.78608" lon="0.47367">
        <ele>1726.516525</ele>
        <time>2012-01-28T13:33:41Z</time>
      </trkpt>
      <trkpt lat="42.78614" lon="0.47374">
        <ele>1724.516563</ele>
        <time>2012-01-28T13:33:42Z</time>
      </trkpt>
      <trkpt lat="42.7862" lon="0.47379">
        <ele>1724.516609</ele>
        <time>2012-01-28T13:33:43Z</time>
      </trkpt>
      <trkpt lat="42.78622" lon="0.47388">
        <ele>1722.516647</ele>
        <time>2012-01-28T13:33:44Z</time>
      </trkpt>
      <trkpt lat="42.78627" lon="0.47394">
        <ele>1722.516685</ele>
        <time>2012-01-28T13:33:45Z</time>
      </trkpt>
      <trkpt lat="42.7863" lon="0.47401">
        <ele>1721.516716</ele>
        <time>2012-01-28T13:33:46Z</time>
      </trkpt>
      <trkpt lat="42.78634" lon="0.47408">
        <ele>1720.51675</ele>
        <time>2012-01-28T13:33:47Z</time>
      </trkpt>
      <trkpt lat="42.78636" lon="0.47414">
        <ele>1719.516777</ele>
        <time>2012-01-28T13:33:48Z</time>
      </trkpt>
      <trkpt lat="42.7864" lon="0.4742">
        <ele>1718.516815</ele>
        <time>2012-01-28T13:33:49Z</time>
      </trkpt>
      <trkpt lat="42.78642" lon="0.47427">
        <ele>1718.516846</ele>
        <time>2012-01-28T13:33:50Z</time>
      </trkpt>
      <trkpt lat="42.78647" lon="0.47434">
        <ele>1717.516884</ele>
        <time>2012-01-28T13:33:51Z</time>
      </trkpt>
      <trkpt lat="42.78649" lon="0.4744">
        <ele>1716.516907</ele>
        <time>2012-01-28T13:33:52Z</time>
      </trkpt>
      <trkpt lat="42.78652" lon="0.47447">
        <ele>1716.516945</ele>
        <time>2012-01-28T13:33:53Z</time>
      </trkpt>
      <trkpt lat="42.78655" lon="0.47453">
        <ele>1715.516975</ele>
        <time>2012-01-28T13:33:54Z</time>
      </trkpt>
      <trkpt lat="42.78658" lon="0.47459">
        <ele>1714.517002</ele>
        <time>2012-01-28T13:33:55Z</time>
      </trkpt>
      <trkpt lat="42.78663" lon="0.47471">
        <ele>1713.517056</ele>
        <time>2012-01-28T13:33:57Z</time>
      </trkpt>
      <trkpt lat="42.78668" lon="0.47477">
        <ele>1713.51709</ele>
        <time>2012-01-28T13:33:58Z</time>
      </trkpt>
      <trkpt lat="42.78667" lon="0.47482">
        <ele>1712.517101</ele>
        <time>2012-01-28T13:33:59Z</time>
      </trkpt>
      <trkpt lat="42.78671" lon="0.47489">
        <ele>1712.517147</ele>
        <time>2012-01-28T13:34:00Z</time>
      </trkpt>
      <trkpt lat="42.78659" lon="0.47505">
        <ele>1711.517128</ele>
        <time>2012-01-28T13:34:01Z</time>
      </trkpt>
      <trkpt lat="42.78661" lon="0.47513">
        <ele>1711.517155</ele>
        <time>2012-01-28T13:34:02Z</time>
      </trkpt>
      <trkpt lat="42.78655" lon="0.47526">
        <ele>1710.517162</ele>
        <time>2012-01-28T13:34:03Z</time>
      </trkpt>
      <trkpt lat="42.78656" lon="0.47535">
        <ele>1710.517193</ele>
        <time>2012-01-28T13:34:04Z</time>
      </trkpt>
      <trkpt lat="42.78648" lon="0.47546">
        <ele>1709.517181</ele>
        <time>2012-01-28T13:34:05Z</time>
      </trkpt>
      <trkpt lat="42.78649" lon="0.47555">
        <ele>1709.517208</ele>
        <time>2012-01-28T13:34:06Z</time>
      </trkpt>
      <trkpt lat="42.78642" lon="0.47562">
        <ele>1708.517193</ele>
        <time>2012-01-28T13:34:07Z</time>
      </trkpt>
      <trkpt lat="42.78642" lon="0.4757">
        <ele>1707.517216</ele>
        <time>2012-01-28T13:34:08Z</time>
      </trkpt>
      <trkpt lat="42.7864" lon="0.47579">
        <ele>1706.517231</ele>
        <time>2012-01-28T13:34:09Z</time>
      </trkpt>
      <trkpt lat="42.78641" lon="0.47586">
        <ele>1706.51725</ele>
        <time>2012-01-28T13:34:10Z</time>
      </trkpt>
      <trkpt lat="42.78638" lon="0.47606">
        <ele>1702.517292</ele>
        <time>2012-01-28T13:34:12Z</time>
      </trkpt>
      <trkpt lat="42.7864" lon="0.47615">
        <ele>1702.517323</ele>
        <time>2012-01-28T13:34:13Z</time>
      </trkpt>
      <trkpt lat="42.78642" lon="0.47624">
        <ele>1700.517357</ele>
        <time>2012-01-28T13:34:14Z</time>
      </trkpt>
      <trkpt lat="42.78644" lon="0.47633">
        <ele>1700.517387</ele>
        <time>2012-01-28T13:34:15Z</time>
      </trkpt>
      <trkpt lat="42.78651" lon="0.47644">
        <ele>1697.517448</ele>
        <time>2012-01-28T13:34:16Z</time>
      </trkpt>
      <trkpt lat="42.78656" lon="0.47654">
        <ele>1697.517494</ele>
        <time>2012-01-28T13:34:17Z</time>
      </trkpt>
      <trkpt lat="42.78666" lon="0.47657">
        <ele>1694.517555</ele>
        <time>2012-01-28T13:34:18Z</time>
      </trkpt>
      <trkpt lat="42.78674" lon="0.47662">
        <ele>1693.517609</ele>
        <time>2012-01-28T13:34:19Z</time>
      </trkpt>
      <trkpt lat="42.78677" lon="0.47673">
        <ele>1690.517647</ele>
        <time>2012-01-28T13:34:20Z</time>
      </trkpt>
      <trkpt lat="42.78681" lon="0.47682">
        <ele>1688.517693</ele>
        <time>2012-01-28T13:34:21Z</time>
      </trkpt>
      <trkpt lat="42.78685" lon="0.47691">
        <ele>1685.517738</ele>
        <time>2012-01-28T13:34:22Z</time>
      </trkpt>
      <trkpt lat="42.78687" lon="0.47702">
        <ele>1683.517769</ele>
        <time>2012-01-28T13:34:23Z</time>
      </trkpt>
      <trkpt lat="42.78688" lon="0.47712">
        <ele>1681.517803</ele>
        <time>2012-01-28T13:34:24Z</time>
      </trkpt>
      <trkpt lat="42.78689" lon="0.47722">
        <ele>1679.517834</ele>
        <time>2012-01-28T13:34:25Z</time>
      </trkpt>
      <trkpt lat="42.78691" lon="0.47732">
        <ele>1679.517868</ele>
        <time>2012-01-28T13:34:26Z</time>
      </trkpt>
      <trkpt lat="42.78692" lon="0.47731">
        <ele>1676.517876</ele>
        <time>2012-01-28T13:34:27Z</time>
      </trkpt>
      <trkpt lat="42.78696" lon="0.47739">
        <ele>1668.517914</ele>
        <time>2012-01-28T13:34:29Z</time>
      </trkpt>
      <trkpt lat="42.787" lon="0.47745">
        <ele>1662.517944</ele>
        <time>2012-01-28T13:34:31Z</time>
      </trkpt>
      <trkpt lat="42.78703" lon="0.47747">
        <ele>1658.517963</ele>
        <time>2012-01-28T13:34:38Z</time>
      </trkpt>
      <trkpt lat="42.78729" lon="0.47746">
        <ele>1617.518089</ele>
        <time>2012-01-28T13:35:18Z</time>
      </trkpt>
      <trkpt lat="42.7872" lon="0.47735">
        <ele>1608.518017</ele>
        <time>2012-01-28T13:35:28Z</time>
      </trkpt>
      <trkpt lat="42.7872" lon="0.47734">
        <ele>1608.518013</ele>
        <time>2012-01-28T13:35:31Z</time>
      </trkpt>
      <trkpt lat="42.78729" lon="0.47735">
        <ele>1598.518059</ele>
        <time>2012-01-28T13:36:09Z</time>
      </trkpt>
      <trkpt lat="42.78738" lon="0.47733">
        <ele>1589.518101</ele>
        <time>2012-01-28T13:36:53Z</time>
      </trkpt>
      <trkpt lat="42.78742" lon="0.47735">
        <ele>1586.51812</ele>
        <time>2012-01-28T13:37:34Z</time>
      </trkpt>
      <trkpt lat="42.78743" lon="0.47737">
        <ele>1586.518131</ele>
        <time>2012-01-28T13:37:42Z</time>
      </trkpt>
      <trkpt lat="42.7875" lon="0.47734">
        <ele>1590.518158</ele>
        <time>2012-01-28T13:37:56Z</time>
      </trkpt>
      <trkpt lat="42.78751" lon="0.47734">
        <ele>1593.518162</ele>
        <time>2012-01-28T13:38:02Z</time>
      </trkpt>
      <trkpt lat="42.78734" lon="0.47699">
        <ele>1593.51799</ele>
        <time>2012-01-28T13:38:43Z</time>
      </trkpt>
      <trkpt lat="42.78725" lon="0.47689">
        <ele>1593.517918</ele>
        <time>2012-01-28T13:38:46Z</time>
      </trkpt>
      <trkpt lat="42.7872" lon="0.47683">
        <ele>1593.517883</ele>
        <time>2012-01-28T13:38:47Z</time>
      </trkpt>
      <trkpt lat="42.78713" lon="0.47674">
        <ele>1593.517818</ele>
        <time>2012-01-28T13:38:49Z</time>
      </trkpt>
      <trkpt lat="42.7871" lon="0.47669">
        <ele>1592.517796</ele>
        <time>2012-01-28T13:38:51Z</time>
      </trkpt>
      <trkpt lat="42.78702" lon="0.47658">
        <ele>1593.517731</ele>
        <time>2012-01-28T13:38:53Z</time>
      </trkpt>
      <trkpt lat="42.78698" lon="0.47652">
        <ele>1593.5177</ele>
        <time>2012-01-28T13:38:54Z</time>
      </trkpt>
      <trkpt lat="42.78693" lon="0.47646">
        <ele>1593.517654</ele>
        <time>2012-01-28T13:38:55Z</time>
      </trkpt>
      <trkpt lat="42.78687" lon="0.47638">
        <ele>1593.517609</ele>
        <time>2012-01-28T13:38:56Z</time>
      </trkpt>
      <trkpt lat="42.78683" lon="0.47632">
        <ele>1594.517574</ele>
        <time>2012-01-28T13:38:57Z</time>
      </trkpt>
      <trkpt lat="42.78679" lon="0.47626">
        <ele>1594.51754</ele>
        <time>2012-01-28T13:38:58Z</time>
      </trkpt>
      <trkpt lat="42.78675" lon="0.47621">
        <ele>1594.517502</ele>
        <time>2012-01-28T13:38:59Z</time>
      </trkpt>
      <trkpt lat="42.78672" lon="0.47616">
        <ele>1594.517479</ele>
        <time>2012-01-28T13:39:00Z</time>
      </trkpt>
      <trkpt lat="42.78669" lon="0.47611">
        <ele>1595.517448</ele>
        <time>2012-01-28T13:39:01Z</time>
      </trkpt>
      <trkpt lat="42.78663" lon="0.47602">
        <ele>1595.517403</ele>
        <time>2012-01-28T13:39:03Z</time>
      </trkpt>
      <trkpt lat="42.78658" lon="0.47594">
        <ele>1596.517357</ele>
        <time>2012-01-28T13:39:05Z</time>
      </trkpt>
      <trkpt lat="42.78653" lon="0.47586">
        <ele>1597.517315</ele>
        <time>2012-01-28T13:39:07Z</time>
      </trkpt>
      <trkpt lat="42.78648" lon="0.47577">
        <ele>1598.517258</ele>
        <time>2012-01-28T13:39:09Z</time>
      </trkpt>
      <trkpt lat="42.78643" lon="0.4757">
        <ele>1599.517216</ele>
        <time>2012-01-28T13:39:11Z</time>
      </trkpt>
      <trkpt lat="42.78637" lon="0.47561">
        <ele>1600.51717</ele>
        <time>2012-01-28T13:39:13Z</time>
      </trkpt>
      <trkpt lat="42.78631" lon="0.47553">
        <ele>1601.51712</ele>
        <time>2012-01-28T13:39:15Z</time>
      </trkpt>
      <trkpt lat="42.78626" lon="0.47545">
        <ele>1602.517067</ele>
        <time>2012-01-28T13:39:17Z</time>
      </trkpt>
      <trkpt lat="42.7862" lon="0.47537">
        <ele>1603.517021</ele>
        <time>2012-01-28T13:39:19Z</time>
      </trkpt>
      <trkpt lat="42.78614" lon="0.47529">
        <ele>1604.516979</ele>
        <time>2012-01-28T13:39:21Z</time>
      </trkpt>
      <trkpt lat="42.78608" lon="0.4752">
        <ele>1604.516926</ele>
        <time>2012-01-28T13:39:23Z</time>
      </trkpt>
      <trkpt lat="42.78603" lon="0.47512">
        <ele>1606.516876</ele>
        <time>2012-01-28T13:39:25Z</time>
      </trkpt>
      <trkpt lat="42.78597" lon="0.47505">
        <ele>1608.51683</ele>
        <time>2012-01-28T13:39:27Z</time>
      </trkpt>
      <trkpt lat="42.78592" lon="0.47497">
        <ele>1609.516785</ele>
        <time>2012-01-28T13:39:29Z</time>
      </trkpt>
      <trkpt lat="42.78589" lon="0.47494">
        <ele>1609.516762</ele>
        <time>2012-01-28T13:39:30Z</time>
      </trkpt>
      <trkpt lat="42.78584" lon="0.47486">
        <ele>1610.51672</ele>
        <time>2012-01-28T13:39:32Z</time>
      </trkpt>
      <trkpt lat="42.78578" lon="0.47479">
        <ele>1612.516678</ele>
        <time>2012-01-28T13:39:34Z</time>
      </trkpt>
      <trkpt lat="42.78573" lon="0.47472">
        <ele>1614.516628</ele>
        <time>2012-01-28T13:39:36Z</time>
      </trkpt>
      <trkpt lat="42.78567" lon="0.47464">
        <ele>1616.516582</ele>
        <time>2012-01-28T13:39:38Z</time>
      </trkpt>
      <trkpt lat="42.78563" lon="0.47459">
        <ele>1617.516548</ele>
        <time>2012-01-28T13:39:40Z</time>
      </trkpt>
      <trkpt lat="42.78558" lon="0.47452">
        <ele>1618.516502</ele>
        <time>2012-01-28T13:39:42Z</time>
      </trkpt>
      <trkpt lat="42.78553" lon="0.47444">
        <ele>1619.51646</ele>
        <time>2012-01-28T13:39:44Z</time>
      </trkpt>
      <trkpt lat="42.7855" lon="0.4744">
        <ele>1619.516441</ele>
        <time>2012-01-28T13:39:45Z</time>
      </trkpt>
      <trkpt lat="42.78546" lon="0.47433">
        <ele>1621.516392</ele>
        <time>2012-01-28T13:39:47Z</time>
      </trkpt>
      <trkpt lat="42.78541" lon="0.47425">
        <ele>1622.516354</ele>
        <time>2012-01-28T13:39:49Z</time>
      </trkpt>
      <trkpt lat="42.78536" lon="0.47417">
        <ele>1623.516312</ele>
        <time>2012-01-28T13:39:51Z</time>
      </trkpt>
      <trkpt lat="42.78532" lon="0.47409">
        <ele>1624.516273</ele>
        <time>2012-01-28T13:39:53Z</time>
      </trkpt>
      <trkpt lat="42.7853" lon="0.47405">
        <ele>1625.516254</ele>
        <time>2012-01-28T13:39:54Z</time>
      </trkpt>
      <trkpt lat="42.78525" lon="0.47397">
        <ele>1626.516209</ele>
        <time>2012-01-28T13:39:56Z</time>
      </trkpt>
      <trkpt lat="42.7852" lon="0.47389">
        <ele>1628.516167</ele>
        <time>2012-01-28T13:39:58Z</time>
      </trkpt>
      <trkpt lat="42.78515" lon="0.47381">
        <ele>1631.516117</ele>
        <time>2012-01-28T13:40:00Z</time>
      </trkpt>
      <trkpt lat="42.78509" lon="0.47372">
        <ele>1634.516068</ele>
        <time>2012-01-28T13:40:02Z</time>
      </trkpt>
      <trkpt lat="42.78506" lon="0.47368">
        <ele>1635.516037</ele>
        <time>2012-01-28T13:40:03Z</time>
      </trkpt>
      <trkpt lat="42.78503" lon="0.47363">
        <ele>1636.516014</ele>
        <time>2012-01-28T13:40:04Z</time>
      </trkpt>
      <trkpt lat="42.78497" lon="0.47355">
        <ele>1638.515965</ele>
        <time>2012-01-28T13:40:06Z</time>
      </trkpt>
      <trkpt lat="42.78491" lon="0.47346">
        <ele>1639.515911</ele>
        <time>2012-01-28T13:40:08Z</time>
      </trkpt>
      <trkpt lat="42.78488" lon="0.47341">
        <ele>1640.515884</ele>
        <time>2012-01-28T13:40:09Z</time>
      </trkpt>
      <trkpt lat="42.78482" lon="0.47332">
        <ele>1641.515831</ele>
        <time>2012-01-28T13:40:11Z</time>
      </trkpt>
      <trkpt lat="42.78479" lon="0.47328">
        <ele>1642.515808</ele>
        <time>2012-01-28T13:40:12Z</time>
      </trkpt>
      <trkpt lat="42.78474" lon="0.47319">
        <ele>1643.515762</ele>
        <time>2012-01-28T13:40:14Z</time>
      </trkpt>
      <trkpt lat="42.78469" lon="0.47311">
        <ele>1645.515709</ele>
        <time>2012-01-28T13:40:16Z</time>
      </trkpt>
      <trkpt lat="42.78464" lon="0.47302">
        <ele>1647.515671</ele>
        <time>2012-01-28T13:40:18Z</time>
      </trkpt>
      <trkpt lat="42.7846" lon="0.47294">
        <ele>1650.515633</ele>
        <time>2012-01-28T13:40:20Z</time>
      </trkpt>
      <trkpt lat="42.78456" lon="0.47286">
        <ele>1653.515587</ele>
        <time>2012-01-28T13:40:22Z</time>
      </trkpt>
      <trkpt lat="42.78452" lon="0.47278">
        <ele>1655.515545</ele>
        <time>2012-01-28T13:40:24Z</time>
      </trkpt>
      <trkpt lat="42.78448" lon="0.4727">
        <ele>1658.515507</ele>
        <time>2012-01-28T13:40:26Z</time>
      </trkpt>
      <trkpt lat="42.78443" lon="0.47263">
        <ele>1661.515465</ele>
        <time>2012-01-28T13:40:28Z</time>
      </trkpt>
      <trkpt lat="42.78437" lon="0.47255">
        <ele>1664.515415</ele>
        <time>2012-01-28T13:40:30Z</time>
      </trkpt>
      <trkpt lat="42.78432" lon="0.47247">
        <ele>1667.515369</ele>
        <time>2012-01-28T13:40:32Z</time>
      </trkpt>
      <trkpt lat="42.7843" lon="0.47244">
        <ele>1668.515354</ele>
        <time>2012-01-28T13:40:33Z</time>
      </trkpt>
      <trkpt lat="42.78425" lon="0.47238">
        <ele>1671.515308</ele>
        <time>2012-01-28T13:40:35Z</time>
      </trkpt>
      <trkpt lat="42.78419" lon="0.47231">
        <ele>1673.515274</ele>
        <time>2012-01-28T13:40:37Z</time>
      </trkpt>
      <trkpt lat="42.78417" lon="0.47227">
        <ele>1674.515247</ele>
        <time>2012-01-28T13:40:38Z</time>
      </trkpt>
      <trkpt lat="42.78411" lon="0.4722">
        <ele>1676.515202</ele>
        <time>2012-01-28T13:40:40Z</time>
      </trkpt>
      <trkpt lat="42.78406" lon="0.47212">
        <ele>1678.51516</ele>
        <time>2012-01-28T13:40:42Z</time>
      </trkpt>
      <trkpt lat="42.78401" lon="0.47204">
        <ele>1678.515106</ele>
        <time>2012-01-28T13:40:44Z</time>
      </trkpt>
      <trkpt lat="42.78395" lon="0.47196">
        <ele>1679.515064</ele>
        <time>2012-01-28T13:40:46Z</time>
      </trkpt>
      <trkpt lat="42.7839" lon="0.47188">
        <ele>1680.515018</ele>
        <time>2012-01-28T13:40:48Z</time>
      </trkpt>
      <trkpt lat="42.78385" lon="0.4718">
        <ele>1682.514973</ele>
        <time>2012-01-28T13:40:50Z</time>
      </trkpt>
      <trkpt lat="42.78382" lon="0.47176">
        <ele>1683.514954</ele>
        <time>2012-01-28T13:40:51Z</time>
      </trkpt>
      <trkpt lat="42.78377" lon="0.47168">
        <ele>1684.514908</ele>
        <time>2012-01-28T13:40:53Z</time>
      </trkpt>
      <trkpt lat="42.78375" lon="0.47164">
        <ele>1684.514885</ele>
        <time>2012-01-28T13:40:54Z</time>
      </trkpt>
      <trkpt lat="42.7837" lon="0.47156">
        <ele>1685.514835</ele>
        <time>2012-01-28T13:40:56Z</time>
      </trkpt>
      <trkpt lat="42.78364" lon="0.47148">
        <ele>1687.51479</ele>
        <time>2012-01-28T13:40:58Z</time>
      </trkpt>
      <trkpt lat="42.78359" lon="0.47141">
        <ele>1688.514744</ele>
        <time>2012-01-28T13:41:00Z</time>
      </trkpt>
      <trkpt lat="42.78354" lon="0.47134">
        <ele>1690.514713</ele>
        <time>2012-01-28T13:41:02Z</time>
      </trkpt>
      <trkpt lat="42.78349" lon="0.47127">
        <ele>1691.514664</ele>
        <time>2012-01-28T13:41:04Z</time>
      </trkpt>
      <trkpt lat="42.78344" lon="0.47121">
        <ele>1692.514626</ele>
        <time>2012-01-28T13:41:06Z</time>
      </trkpt>
      <trkpt lat="42.78338" lon="0.47115">
        <ele>1693.514584</ele>
        <time>2012-01-28T13:41:08Z</time>
      </trkpt>
      <trkpt lat="42.78333" lon="0.47109">
        <ele>1694.514542</ele>
        <time>2012-01-28T13:41:10Z</time>
      </trkpt>
      <trkpt lat="42.78328" lon="0.47103">
        <ele>1694.514503</ele>
        <time>2012-01-28T13:41:12Z</time>
      </trkpt>
      <trkpt lat="42.78323" lon="0.47097">
        <ele>1694.514458</ele>
        <time>2012-01-28T13:41:14Z</time>
      </trkpt>
      <trkpt lat="42.78318" lon="0.47091">
        <ele>1696.51442</ele>
        <time>2012-01-28T13:41:16Z</time>
      </trkpt>
      <trkpt lat="42.78314" lon="0.47084">
        <ele>1697.514385</ele>
        <time>2012-01-28T13:41:18Z</time>
      </trkpt>
      <trkpt lat="42.7831" lon="0.47078">
        <ele>1698.514343</ele>
        <time>2012-01-28T13:41:20Z</time>
      </trkpt>
      <trkpt lat="42.78305" lon="0.47072">
        <ele>1698.514309</ele>
        <time>2012-01-28T13:41:22Z</time>
      </trkpt>
      <trkpt lat="42.78301" lon="0.47066">
        <ele>1699.514271</ele>
        <time>2012-01-28T13:41:24Z</time>
      </trkpt>
      <trkpt lat="42.78296" lon="0.4706">
        <ele>1699.514233</ele>
        <time>2012-01-28T13:41:26Z</time>
      </trkpt>
      <trkpt lat="42.78294" lon="0.47057">
        <ele>1699.514217</ele>
        <time>2012-01-28T13:41:27Z</time>
      </trkpt>
      <trkpt lat="42.7829" lon="0.47051">
        <ele>1700.514183</ele>
        <time>2012-01-28T13:41:29Z</time>
      </trkpt>
      <trkpt lat="42.78285" lon="0.47045">
        <ele>1700.514149</ele>
        <time>2012-01-28T13:41:31Z</time>
      </trkpt>
      <trkpt lat="42.78283" lon="0.4704">
        <ele>1701.514114</ele>
        <time>2012-01-28T13:41:33Z</time>
      </trkpt>
      <trkpt lat="42.78284" lon="0.47031">
        <ele>1704.514107</ele>
        <time>2012-01-28T13:41:36Z</time>
      </trkpt>
      <trkpt lat="42.78282" lon="0.47023">
        <ele>1706.514076</ele>
        <time>2012-01-28T13:41:38Z</time>
      </trkpt>
      <trkpt lat="42.78278" lon="0.47013">
        <ele>1708.51403</ele>
        <time>2012-01-28T13:41:40Z</time>
      </trkpt>
      <trkpt lat="42.78273" lon="0.47002">
        <ele>1710.513973</ele>
        <time>2012-01-28T13:41:42Z</time>
      </trkpt>
      <trkpt lat="42.78269" lon="0.46989">
        <ele>1712.513927</ele>
        <time>2012-01-28T13:41:44Z</time>
      </trkpt>
      <trkpt lat="42.78263" lon="0.46979">
        <ele>1714.513866</ele>
        <time>2012-01-28T13:41:46Z</time>
      </trkpt>
      <trkpt lat="42.7826" lon="0.46974">
        <ele>1714.513844</ele>
        <time>2012-01-28T13:41:47Z</time>
      </trkpt>
      <trkpt lat="42.78256" lon="0.46953">
        <ele>1719.513771</ele>
        <time>2012-01-28T13:41:51Z</time>
      </trkpt>
      <trkpt lat="42.78253" lon="0.46938">
        <ele>1722.51371</ele>
        <time>2012-01-28T13:41:53Z</time>
      </trkpt>
      <trkpt lat="42.78249" lon="0.46927">
        <ele>1725.513664</ele>
        <time>2012-01-28T13:41:55Z</time>
      </trkpt>
      <trkpt lat="42.78243" lon="0.46918">
        <ele>1728.513607</ele>
        <time>2012-01-28T13:41:57Z</time>
      </trkpt>
      <trkpt lat="42.78236" lon="0.46909">
        <ele>1730.513554</ele>
        <time>2012-01-28T13:41:59Z</time>
      </trkpt>
      <trkpt lat="42.78232" lon="0.46904">
        <ele>1732.513519</ele>
        <time>2012-01-28T13:42:00Z</time>
      </trkpt>
      <trkpt lat="42.78228" lon="0.469">
        <ele>1732.513496</ele>
        <time>2012-01-28T13:42:01Z</time>
      </trkpt>
      <trkpt lat="42.78224" lon="0.46896">
        <ele>1734.513466</ele>
        <time>2012-01-28T13:42:02Z</time>
      </trkpt>
      <trkpt lat="42.7822" lon="0.46892">
        <ele>1735.513439</ele>
        <time>2012-01-28T13:42:03Z</time>
      </trkpt>
      <trkpt lat="42.78216" lon="0.46887">
        <ele>1737.513401</ele>
        <time>2012-01-28T13:42:04Z</time>
      </trkpt>
      <trkpt lat="42.78212" lon="0.46878">
        <ele>1741.513367</ele>
        <time>2012-01-28T13:42:06Z</time>
      </trkpt>
      <trkpt lat="42.78208" lon="0.46871">
        <ele>1747.513329</ele>
        <time>2012-01-28T13:42:08Z</time>
      </trkpt>
      <trkpt lat="42.78203" lon="0.46864">
        <ele>1752.513275</ele>
        <time>2012-01-28T13:42:10Z</time>
      </trkpt>
      <trkpt lat="42.78196" lon="0.46857">
        <ele>1756.513229</ele>
        <time>2012-01-28T13:42:12Z</time>
      </trkpt>
      <trkpt lat="42.7819" lon="0.4685">
        <ele>1759.513184</ele>
        <time>2012-01-28T13:42:14Z</time>
      </trkpt>
      <trkpt lat="42.78185" lon="0.46844">
        <ele>1760.513142</ele>
        <time>2012-01-28T13:42:16Z</time>
      </trkpt>
      <trkpt lat="42.7818" lon="0.46839">
        <ele>1762.513107</ele>
        <time>2012-01-28T13:42:18Z</time>
      </trkpt>
      <trkpt lat="42.78175" lon="0.46836">
        <ele>1764.513077</ele>
        <time>2012-01-28T13:42:20Z</time>
      </trkpt>
      <trkpt lat="42.78172" lon="0.46832">
        <ele>1766.513046</ele>
        <time>2012-01-28T13:42:22Z</time>
      </trkpt>
      <trkpt lat="42.78168" lon="0.46826">
        <ele>1768.513016</ele>
        <time>2012-01-28T13:42:24Z</time>
      </trkpt>
      <trkpt lat="42.78164" lon="0.4682">
        <ele>1771.512978</ele>
        <time>2012-01-28T13:42:26Z</time>
      </trkpt>
      <trkpt lat="42.7816" lon="0.46814">
        <ele>1774.512947</ele>
        <time>2012-01-28T13:42:28Z</time>
      </trkpt>
      <trkpt lat="42.78156" lon="0.46808">
        <ele>1778.512913</ele>
        <time>2012-01-28T13:42:30Z</time>
      </trkpt>
      <trkpt lat="42.78152" lon="0.46802">
        <ele>1782.512878</ele>
        <time>2012-01-28T13:42:32Z</time>
      </trkpt>
      <trkpt lat="42.7815" lon="0.46799">
        <ele>1784.512856</ele>
        <time>2012-01-28T13:42:33Z</time>
      </trkpt>
      <trkpt lat="42.78146" lon="0.46794">
        <ele>1787.512829</ele>
        <time>2012-01-28T13:42:35Z</time>
      </trkpt>
      <trkpt lat="42.78142" lon="0.46789">
        <ele>1791.512791</ele>
        <time>2012-01-28T13:42:37Z</time>
      </trkpt>
      <trkpt lat="42.78138" lon="0.46785">
        <ele>1794.512768</ele>
        <time>2012-01-28T13:42:39Z</time>
      </trkpt>
      <trkpt lat="42.78135" lon="0.46781">
        <ele>1798.512741</ele>
        <time>2012-01-28T13:42:45Z</time>
      </trkpt>
      <trkpt lat="42.78129" lon="0.46771">
        <ele>1809.512691</ele>
        <time>2012-01-28T13:42:47Z</time>
      </trkpt>
      <trkpt lat="42.78121" lon="0.46753">
        <ele>1819.5126</ele>
        <time>2012-01-28T13:42:54Z</time>
      </trkpt>
      <trkpt lat="42.78118" lon="0.46744">
        <ele>1822.512562</ele>
        <time>2012-01-28T13:42:56Z</time>
      </trkpt>
      <trkpt lat="42.78117" lon="0.46742">
        <ele>1823.512554</ele>
        <time>2012-01-28T13:42:57Z</time>
      </trkpt>
      <trkpt lat="42.78113" lon="0.46734">
        <ele>1826.512512</ele>
        <time>2012-01-28T13:42:59Z</time>
      </trkpt>
      <trkpt lat="42.78108" lon="0.46727">
        <ele>1828.51247</ele>
        <time>2012-01-28T13:43:01Z</time>
      </trkpt>
      <trkpt lat="42.78103" lon="0.4672">
        <ele>1831.512432</ele>
        <time>2012-01-28T13:43:03Z</time>
      </trkpt>
      <trkpt lat="42.78099" lon="0.46712">
        <ele>1835.512386</ele>
        <time>2012-01-28T13:43:05Z</time>
      </trkpt>
      <trkpt lat="42.78094" lon="0.46704">
        <ele>1838.512344</ele>
        <time>2012-01-28T13:43:07Z</time>
      </trkpt>
      <trkpt lat="42.7809" lon="0.46695">
        <ele>1841.512299</ele>
        <time>2012-01-28T13:43:09Z</time>
      </trkpt>
      <trkpt lat="42.78085" lon="0.46687">
        <ele>1844.51226</ele>
        <time>2012-01-28T13:43:11Z</time>
      </trkpt>
      <trkpt lat="42.7808" lon="0.46679">
        <ele>1846.512215</ele>
        <time>2012-01-28T13:43:13Z</time>
      </trkpt>
      <trkpt lat="42.78078" lon="0.46675">
        <ele>1847.512192</ele>
        <time>2012-01-28T13:43:14Z</time>
      </trkpt>
      <trkpt lat="42.78073" lon="0.46667">
        <ele>1850.51215</ele>
        <time>2012-01-28T13:43:16Z</time>
      </trkpt>
      <trkpt lat="42.78071" lon="0.46663">
        <ele>1852.512131</ele>
        <time>2012-01-28T13:43:17Z</time>
      </trkpt>
      <trkpt lat="42.78066" lon="0.46655">
        <ele>1856.512085</ele>
        <time>2012-01-28T13:43:19Z</time>
      </trkpt>
      <trkpt lat="42.78062" lon="0.46646">
        <ele>1860.512043</ele>
        <time>2012-01-28T13:43:21Z</time>
      </trkpt>
      <trkpt lat="42.7806" lon="0.46642">
        <ele>1862.51202</ele>
        <time>2012-01-28T13:43:22Z</time>
      </trkpt>
      <trkpt lat="42.78055" lon="0.46634">
        <ele>1865.511978</ele>
        <time>2012-01-28T13:43:24Z</time>
      </trkpt>
      <trkpt lat="42.7805" lon="0.46627">
        <ele>1865.511936</ele>
        <time>2012-01-28T13:43:26Z</time>
      </trkpt>
      <trkpt lat="42.78045" lon="0.4662">
        <ele>1866.511894</ele>
        <time>2012-01-28T13:43:28Z</time>
      </trkpt>
      <trkpt lat="42.78041" lon="0.46613">
        <ele>1867.511856</ele>
        <time>2012-01-28T13:43:30Z</time>
      </trkpt>
      <trkpt lat="42.78037" lon="0.46606">
        <ele>1870.511818</ele>
        <time>2012-01-28T13:43:32Z</time>
      </trkpt>
      <trkpt lat="42.78032" lon="0.46598">
        <ele>1874.511776</ele>
        <time>2012-01-28T13:43:34Z</time>
      </trkpt>
      <trkpt lat="42.78027" lon="0.46589">
        <ele>1879.511726</ele>
        <time>2012-01-28T13:43:36Z</time>
      </trkpt>
      <trkpt lat="42.78021" lon="0.4658">
        <ele>1884.511673</ele>
        <time>2012-01-28T13:43:38Z</time>
      </trkpt>
      <trkpt lat="42.78016" lon="0.46572">
        <ele>1889.511631</ele>
        <time>2012-01-28T13:43:40Z</time>
      </trkpt>
      <trkpt lat="42.78011" lon="0.46564">
        <ele>1893.511581</ele>
        <time>2012-01-28T13:43:42Z</time>
      </trkpt>
      <trkpt lat="42.78008" lon="0.46559">
        <ele>1896.511555</ele>
        <time>2012-01-28T13:43:43Z</time>
      </trkpt>
      <trkpt lat="42.78003" lon="0.46551">
        <ele>1901.511513</ele>
        <time>2012-01-28T13:43:45Z</time>
      </trkpt>
      <trkpt lat="42.77998" lon="0.46543">
        <ele>1906.511471</ele>
        <time>2012-01-28T13:43:47Z</time>
      </trkpt>
      <trkpt lat="42.77993" lon="0.46535">
        <ele>1911.511421</ele>
        <time>2012-01-28T13:43:49Z</time>
      </trkpt>
      <trkpt lat="42.77988" lon="0.46527">
        <ele>1916.511379</ele>
        <time>2012-01-28T13:43:51Z</time>
      </trkpt>
      <trkpt lat="42.77985" lon="0.46523">
        <ele>1919.51136</ele>
        <time>2012-01-28T13:43:52Z</time>
      </trkpt>
      <trkpt lat="42.7798" lon="0.46515">
        <ele>1924.511307</ele>
        <time>2012-01-28T13:43:54Z</time>
      </trkpt>
      <trkpt lat="42.77975" lon="0.46507">
        <ele>1929.511265</ele>
        <time>2012-01-28T13:43:56Z</time>
      </trkpt>
      <trkpt lat="42.77971" lon="0.46501">
        <ele>1930.511227</ele>
        <time>2012-01-28T13:43:58Z</time>
      </trkpt>
      <trkpt lat="42.77967" lon="0.46497">
        <ele>1930.5112</ele>
        <time>2012-01-28T13:44:00Z</time>
      </trkpt>
      <trkpt lat="42.77962" lon="0.46492">
        <ele>1930.511162</ele>
        <time>2012-01-28T13:44:03Z</time>
      </trkpt>
      <trkpt lat="42.7796" lon="0.4649">
        <ele>1930.511147</ele>
        <time>2012-01-28T13:44:04Z</time>
      </trkpt>
      <trkpt lat="42.77956" lon="0.46485">
        <ele>1930.511116</ele>
        <time>2012-01-28T13:44:06Z</time>
      </trkpt>
      <trkpt lat="42.77952" lon="0.46479">
        <ele>1932.511086</ele>
        <time>2012-01-28T13:44:08Z</time>
      </trkpt>
      <trkpt lat="42.77948" lon="0.46473">
        <ele>1934.511044</ele>
        <time>2012-01-28T13:44:10Z</time>
      </trkpt>
      <trkpt lat="42.77943" lon="0.46464">
        <ele>1937.510994</ele>
        <time>2012-01-28T13:44:12Z</time>
      </trkpt>
      <trkpt lat="42.77938" lon="0.46455">
        <ele>1939.510952</ele>
        <time>2012-01-28T13:44:14Z</time>
      </trkpt>
      <trkpt lat="42.77933" lon="0.46446">
        <ele>1940.510902</ele>
        <time>2012-01-28T13:44:16Z</time>
      </trkpt>
      <trkpt lat="42.77928" lon="0.46436">
        <ele>1940.510853</ele>
        <time>2012-01-28T13:44:18Z</time>
      </trkpt>
      <trkpt lat="42.77925" lon="0.46431">
        <ele>1941.51083</ele>
        <time>2012-01-28T13:44:19Z</time>
      </trkpt>
      <trkpt lat="42.77922" lon="0.46425">
        <ele>1942.510796</ele>
        <time>2012-01-28T13:44:20Z</time>
      </trkpt>
      <trkpt lat="42.77919" lon="0.4642">
        <ele>1942.510777</ele>
        <time>2012-01-28T13:44:21Z</time>
      </trkpt>
      <trkpt lat="42.77916" lon="0.46416">
        <ele>1943.510742</ele>
        <time>2012-01-28T13:44:22Z</time>
      </trkpt>
      <trkpt lat="42.77911" lon="0.46406">
        <ele>1945.510696</ele>
        <time>2012-01-28T13:44:24Z</time>
      </trkpt>
      <trkpt lat="42.77906" lon="0.46396">
        <ele>1947.510651</ele>
        <time>2012-01-28T13:44:26Z</time>
      </trkpt>
      <trkpt lat="42.77904" lon="0.46391">
        <ele>1948.51062</ele>
        <time>2012-01-28T13:44:27Z</time>
      </trkpt>
      <trkpt lat="42.77901" lon="0.46385">
        <ele>1950.510593</ele>
        <time>2012-01-28T13:44:28Z</time>
      </trkpt>
      <trkpt lat="42.77899" lon="0.4638">
        <ele>1951.510574</ele>
        <time>2012-01-28T13:44:29Z</time>
      </trkpt>
      <trkpt lat="42.77896" lon="0.46375">
        <ele>1952.510544</ele>
        <time>2012-01-28T13:44:30Z</time>
      </trkpt>
      <trkpt lat="42.77893" lon="0.4637">
        <ele>1953.510517</ele>
        <time>2012-01-28T13:44:31Z</time>
      </trkpt>
      <trkpt lat="42.77891" lon="0.46364">
        <ele>1954.510487</ele>
        <time>2012-01-28T13:44:32Z</time>
      </trkpt>
      <trkpt lat="42.77888" lon="0.46359">
        <ele>1956.510464</ele>
        <time>2012-01-28T13:44:33Z</time>
      </trkpt>
      <trkpt lat="42.77886" lon="0.46354">
        <ele>1957.510441</ele>
        <time>2012-01-28T13:44:34Z</time>
      </trkpt>
      <trkpt lat="42.77883" lon="0.46348">
        <ele>1958.51041</ele>
        <time>2012-01-28T13:44:35Z</time>
      </trkpt>
      <trkpt lat="42.7788" lon="0.46343">
        <ele>1960.510384</ele>
        <time>2012-01-28T13:44:36Z</time>
      </trkpt>
      <trkpt lat="42.77877" lon="0.46338">
        <ele>1961.510353</ele>
        <time>2012-01-28T13:44:37Z</time>
      </trkpt>
      <trkpt lat="42.77874" lon="0.46333">
        <ele>1962.51033</ele>
        <time>2012-01-28T13:44:38Z</time>
      </trkpt>
      <trkpt lat="42.77872" lon="0.46328">
        <ele>1963.510303</ele>
        <time>2012-01-28T13:44:39Z</time>
      </trkpt>
      <trkpt lat="42.77869" lon="0.46323">
        <ele>1964.510269</ele>
        <time>2012-01-28T13:44:40Z</time>
      </trkpt>
      <trkpt lat="42.77865" lon="0.46318">
        <ele>1965.510246</ele>
        <time>2012-01-28T13:44:41Z</time>
      </trkpt>
      <trkpt lat="42.77863" lon="0.46313">
        <ele>1966.510223</ele>
        <time>2012-01-28T13:44:42Z</time>
      </trkpt>
      <trkpt lat="42.7786" lon="0.46308">
        <ele>1967.510197</ele>
        <time>2012-01-28T13:44:43Z</time>
      </trkpt>
      <trkpt lat="42.77857" lon="0.46303">
        <ele>1968.510166</ele>
        <time>2012-01-28T13:44:44Z</time>
      </trkpt>
      <trkpt lat="42.77854" lon="0.46298">
        <ele>1970.510143</ele>
        <time>2012-01-28T13:44:45Z</time>
      </trkpt>
      <trkpt lat="42.77851" lon="0.46293">
        <ele>1971.510113</ele>
        <time>2012-01-28T13:44:46Z</time>
      </trkpt>
      <trkpt lat="42.77848" lon="0.46289">
        <ele>1972.51009</ele>
        <time>2012-01-28T13:44:47Z</time>
      </trkpt>
      <trkpt lat="42.77845" lon="0.46284">
        <ele>1973.510059</ele>
        <time>2012-01-28T13:44:48Z</time>
      </trkpt>
      <trkpt lat="42.77839" lon="0.46275">
        <ele>1975.51001</ele>
        <time>2012-01-28T13:44:50Z</time>
      </trkpt>
      <trkpt lat="42.77834" lon="0.46265">
        <ele>1977.509956</ele>
        <time>2012-01-28T13:44:52Z</time>
      </trkpt>
      <trkpt lat="42.77829" lon="0.46255">
        <ele>1979.509907</ele>
        <time>2012-01-28T13:44:54Z</time>
      </trkpt>
      <trkpt lat="42.77826" lon="0.4625">
        <ele>1980.509884</ele>
        <time>2012-01-28T13:44:55Z</time>
      </trkpt>
      <trkpt lat="42.77821" lon="0.4624">
        <ele>1982.50983</ele>
        <time>2012-01-28T13:44:57Z</time>
      </trkpt>
      <trkpt lat="42.77816" lon="0.46231">
        <ele>1984.509785</ele>
        <time>2012-01-28T13:44:59Z</time>
      </trkpt>
      <trkpt lat="42.77812" lon="0.46221">
        <ele>1985.509739</ele>
        <time>2012-01-28T13:45:01Z</time>
      </trkpt>
      <trkpt lat="42.77807" lon="0.46211">
        <ele>1986.509689</ele>
        <time>2012-01-28T13:45:03Z</time>
      </trkpt>
      <trkpt lat="42.77803" lon="0.46202">
        <ele>1988.509647</ele>
        <time>2012-01-28T13:45:05Z</time>
      </trkpt>
      <trkpt lat="42.77798" lon="0.46193">
        <ele>1989.509605</ele>
        <time>2012-01-28T13:45:07Z</time>
      </trkpt>
      <trkpt lat="42.77796" lon="0.46189">
        <ele>1990.509575</ele>
        <time>2012-01-28T13:45:08Z</time>
      </trkpt>
      <trkpt lat="42.7779" lon="0.46181">
        <ele>1991.509529</ele>
        <time>2012-01-28T13:45:10Z</time>
      </trkpt>
      <trkpt lat="42.77784" lon="0.46172">
        <ele>1992.50948</ele>
        <time>2012-01-28T13:45:12Z</time>
      </trkpt>
      <trkpt lat="42.77779" lon="0.46163">
        <ele>1993.50943</ele>
        <time>2012-01-28T13:45:14Z</time>
      </trkpt>
      <trkpt lat="42.77773" lon="0.46155">
        <ele>1994.509384</ele>
        <time>2012-01-28T13:45:16Z</time>
      </trkpt>
      <trkpt lat="42.77767" lon="0.46147">
        <ele>1996.509331</ele>
        <time>2012-01-28T13:45:18Z</time>
      </trkpt>
      <trkpt lat="42.77761" lon="0.46138">
        <ele>1997.509285</ele>
        <time>2012-01-28T13:45:20Z</time>
      </trkpt>
      <trkpt lat="42.77756" lon="0.46129">
        <ele>1998.509235</ele>
        <time>2012-01-28T13:45:22Z</time>
      </trkpt>
      <trkpt lat="42.77751" lon="0.4612">
        <ele>1999.509186</ele>
        <time>2012-01-28T13:45:24Z</time>
      </trkpt>
      <trkpt lat="42.77746" lon="0.46111">
        <ele>1999.509136</ele>
        <time>2012-01-28T13:45:26Z</time>
      </trkpt>
      <trkpt lat="42.77742" lon="0.46101">
        <ele>2000.50909</ele>
        <time>2012-01-28T13:45:28Z</time>
      </trkpt>
      <trkpt lat="42.77733" lon="0.46089">
        <ele>2002.509026</ele>
        <time>2012-01-28T13:45:31Z</time>
      </trkpt>
      <trkpt lat="42.77727" lon="0.46082">
        <ele>2003.508976</ele>
        <time>2012-01-28T13:45:33Z</time>
      </trkpt>
      <trkpt lat="42.77721" lon="0.46075">
        <ele>2004.50893</ele>
        <time>2012-01-28T13:45:35Z</time>
      </trkpt>
      <trkpt lat="42.77716" lon="0.46068">
        <ele>2005.508884</ele>
        <time>2012-01-28T13:45:37Z</time>
      </trkpt>
      <trkpt lat="42.77713" lon="0.46063">
        <ele>2006.50885</ele>
        <time>2012-01-28T13:45:38Z</time>
      </trkpt>
      <trkpt lat="42.77708" lon="0.46054">
        <ele>2008.508804</ele>
        <time>2012-01-28T13:45:40Z</time>
      </trkpt>
      <trkpt lat="42.77703" lon="0.46047">
        <ele>2010.508766</ele>
        <time>2012-01-28T13:45:42Z</time>
      </trkpt>
      <trkpt lat="42.77698" lon="0.46042">
        <ele>2011.508724</ele>
        <time>2012-01-28T13:45:44Z</time>
      </trkpt>
      <trkpt lat="42.77692" lon="0.46036">
        <ele>2013.508686</ele>
        <time>2012-01-28T13:45:47Z</time>
      </trkpt>
      <trkpt lat="42.77687" lon="0.4603">
        <ele>2015.508644</ele>
        <time>2012-01-28T13:45:49Z</time>
      </trkpt>
      <trkpt lat="42.77682" lon="0.46023">
        <ele>2018.508598</ele>
        <time>2012-01-28T13:45:51Z</time>
      </trkpt>
      <trkpt lat="42.77678" lon="0.46016">
        <ele>2019.508568</ele>
        <time>2012-01-28T13:45:53Z</time>
      </trkpt>
      <trkpt lat="42.77674" lon="0.4601">
        <ele>2020.508533</ele>
        <time>2012-01-28T13:45:55Z</time>
      </trkpt>
      <trkpt lat="42.7767" lon="0.46003">
        <ele>2021.508495</ele>
        <time>2012-01-28T13:45:57Z</time>
      </trkpt>
      <trkpt lat="42.77666" lon="0.45995">
        <ele>2024.508453</ele>
        <time>2012-01-28T13:45:59Z</time>
      </trkpt>
      <trkpt lat="42.77662" lon="0.45987">
        <ele>2027.508415</ele>
        <time>2012-01-28T13:46:01Z</time>
      </trkpt>
      <trkpt lat="42.77658" lon="0.45979">
        <ele>2030.508377</ele>
        <time>2012-01-28T13:46:03Z</time>
      </trkpt>
      <trkpt lat="42.77654" lon="0.45971">
        <ele>2033.508331</ele>
        <time>2012-01-28T13:46:05Z</time>
      </trkpt>
      <trkpt lat="42.7765" lon="0.45963">
        <ele>2037.508297</ele>
        <time>2012-01-28T13:46:07Z</time>
      </trkpt>
      <trkpt lat="42.77646" lon="0.45954">
        <ele>2039.508255</ele>
        <time>2012-01-28T13:46:09Z</time>
      </trkpt>
      <trkpt lat="42.77642" lon="0.45945">
        <ele>2042.508213</ele>
        <time>2012-01-28T13:46:11Z</time>
      </trkpt>
      <trkpt lat="42.77639" lon="0.45941">
        <ele>2043.508183</ele>
        <time>2012-01-28T13:46:12Z</time>
      </trkpt>
      <trkpt lat="42.77635" lon="0.45932">
        <ele>2046.508141</ele>
        <time>2012-01-28T13:46:14Z</time>
      </trkpt>
      <trkpt lat="42.7763" lon="0.45924">
        <ele>2049.508095</ele>
        <time>2012-01-28T13:46:16Z</time>
      </trkpt>
      <trkpt lat="42.77625" lon="0.45916">
        <ele>2051.508049</ele>
        <time>2012-01-28T13:46:18Z</time>
      </trkpt>
      <trkpt lat="42.77621" lon="0.45908">
        <ele>2054.508011</ele>
        <time>2012-01-28T13:46:20Z</time>
      </trkpt>
      <trkpt lat="42.77616" lon="0.459">
        <ele>2056.507969</ele>
        <time>2012-01-28T13:46:22Z</time>
      </trkpt>
      <trkpt lat="42.77612" lon="0.45891">
        <ele>2058.507919</ele>
        <time>2012-01-28T13:46:24Z</time>
      </trkpt>
      <trkpt lat="42.7761" lon="0.45887">
        <ele>2059.507904</ele>
        <time>2012-01-28T13:46:25Z</time>
      </trkpt>
      <trkpt lat="42.77605" lon="0.45879">
        <ele>2060.507862</ele>
        <time>2012-01-28T13:46:27Z</time>
      </trkpt>
      <trkpt lat="42.77601" lon="0.45872">
        <ele>2062.50782</ele>
        <time>2012-01-28T13:46:29Z</time>
      </trkpt>
      <trkpt lat="42.77597" lon="0.45866">
        <ele>2063.507786</ele>
        <time>2012-01-28T13:46:31Z</time>
      </trkpt>
      <trkpt lat="42.77592" lon="0.4586">
        <ele>2064.507748</ele>
        <time>2012-01-28T13:46:33Z</time>
      </trkpt>
      <trkpt lat="42.77587" lon="0.45853">
        <ele>2065.507706</ele>
        <time>2012-01-28T13:46:35Z</time>
      </trkpt>
      <trkpt lat="42.77582" lon="0.45847">
        <ele>2066.507668</ele>
        <time>2012-01-28T13:46:37Z</time>
      </trkpt>
      <trkpt lat="42.77577" lon="0.45841">
        <ele>2067.507629</ele>
        <time>2012-01-28T13:46:39Z</time>
      </trkpt>
      <trkpt lat="42.77553" lon="0.4581">
        <ele>2077.507431</ele>
        <time>2012-01-28T13:46:50Z</time>
      </trkpt>
      <trkpt lat="42.77541" lon="0.45793">
        <ele>2084.507328</ele>
        <time>2012-01-28T13:46:55Z</time>
      </trkpt>
      <trkpt lat="42.77534" lon="0.45783">
        <ele>2090.507271</ele>
        <time>2012-01-28T13:46:58Z</time>
      </trkpt>
      <trkpt lat="42.7753" lon="0.45776">
        <ele>2094.507229</ele>
        <time>2012-01-28T13:47:00Z</time>
      </trkpt>
      <trkpt lat="42.77527" lon="0.45773">
        <ele>2096.50721</ele>
        <time>2012-01-28T13:47:01Z</time>
      </trkpt>
      <trkpt lat="42.77524" lon="0.45765">
        <ele>2102.507175</ele>
        <time>2012-01-28T13:47:03Z</time>
      </trkpt>
      <trkpt lat="42.7752" lon="0.45756">
        <ele>2108.507133</ele>
        <time>2012-01-28T13:47:05Z</time>
      </trkpt>
      <trkpt lat="42.77517" lon="0.45747">
        <ele>2114.507095</ele>
        <time>2012-01-28T13:47:07Z</time>
      </trkpt>
      <trkpt lat="42.77513" lon="0.45739">
        <ele>2120.507061</ele>
        <time>2012-01-28T13:47:09Z</time>
      </trkpt>
      <trkpt lat="42.77512" lon="0.45735">
        <ele>2123.507038</ele>
        <time>2012-01-28T13:47:10Z</time>
      </trkpt>
      <trkpt lat="42.77508" lon="0.45727">
        <ele>2128.507</ele>
        <time>2012-01-28T13:47:12Z</time>
      </trkpt>
      <trkpt lat="42.77504" lon="0.45718">
        <ele>2133.506958</ele>
        <time>2012-01-28T13:47:14Z</time>
      </trkpt>
      <trkpt lat="42.775" lon="0.45711">
        <ele>2137.506916</ele>
        <time>2012-01-28T13:47:16Z</time>
      </trkpt>
      <trkpt lat="42.77495" lon="0.45704">
        <ele>2142.506878</ele>
        <time>2012-01-28T13:47:18Z</time>
      </trkpt>
      <trkpt lat="42.7749" lon="0.45696">
        <ele>2147.50684</ele>
        <time>2012-01-28T13:47:20Z</time>
      </trkpt>
      <trkpt lat="42.77486" lon="0.45689">
        <ele>2152.506798</ele>
        <time>2012-01-28T13:47:22Z</time>
      </trkpt>
      <trkpt lat="42.77483" lon="0.4568">
        <ele>2157.506756</ele>
        <time>2012-01-28T13:47:24Z</time>
      </trkpt>
      <trkpt lat="42.77467" lon="0.45638">
        <ele>2168.506569</ele>
        <time>2012-01-28T13:47:41Z</time>
      </trkpt>
      <trkpt lat="42.77459" lon="0.45625">
        <ele>2179.5065</ele>
        <time>2012-01-28T13:47:48Z</time>
      </trkpt>
      <trkpt lat="42.77453" lon="0.45626">
        <ele>2207.506474</ele>
        <time>2012-01-28T13:48:12Z</time>
      </trkpt>
      <trkpt lat="42.77452" lon="0.45627">
        <ele>2211.506474</ele>
        <time>2012-01-28T13:48:16Z</time>
      </trkpt>
      <trkpt lat="42.77448" lon="0.45627">
        <ele>2224.506454</ele>
        <time>2012-01-28T13:48:55Z</time>
      </trkpt>
      <trkpt lat="42.7745" lon="0.45621">
        <ele>2230.506443</ele>
        <time>2012-01-28T13:49:20Z</time>
      </trkpt>
      <trkpt lat="42.77448" lon="0.45615">
        <ele>2241.506416</ele>
        <time>2012-01-28T13:50:09Z</time>
      </trkpt>
      <trkpt lat="42.77444" lon="0.45614">
        <ele>2240.506397</ele>
        <time>2012-01-28T13:52:14Z</time>
      </trkpt>
      <trkpt lat="42.77439" lon="0.45615">
        <ele>2239.506374</ele>
        <time>2012-01-28T13:52:29Z</time>
      </trkpt>
      <trkpt lat="42.77434" lon="0.45612">
        <ele>2239.506348</ele>
        <time>2012-01-28T13:52:33Z</time>
      </trkpt>
      <trkpt lat="42.7743" lon="0.45607">
        <ele>2240.506313</ele>
        <time>2012-01-28T13:52:36Z</time>
      </trkpt>
      <trkpt lat="42.77426" lon="0.45602">
        <ele>2241.506279</ele>
        <time>2012-01-28T13:52:39Z</time>
      </trkpt>
      <trkpt lat="42.77424" lon="0.45596">
        <ele>2241.506256</ele>
        <time>2012-01-28T13:52:43Z</time>
      </trkpt>
      <trkpt lat="42.77425" lon="0.4559">
        <ele>2241.506245</ele>
        <time>2012-01-28T13:52:59Z</time>
      </trkpt>
      <trkpt lat="42.77423" lon="0.45584">
        <ele>2243.506222</ele>
        <time>2012-01-28T13:53:53Z</time>
      </trkpt>
      <trkpt lat="42.77421" lon="0.45582">
        <ele>2242.506207</ele>
        <time>2012-01-28T13:54:00Z</time>
      </trkpt>
      <trkpt lat="42.77417" lon="0.45578">
        <ele>2241.50618</ele>
        <time>2012-01-28T13:54:08Z</time>
      </trkpt>
      <trkpt lat="42.77416" lon="0.45579">
        <ele>2236.50618</ele>
        <time>2012-01-28T13:55:05Z</time>
      </trkpt>
      <trkpt lat="42.77412" lon="0.45577">
        <ele>2241.506145</ele>
        <time>2012-01-28T13:56:55Z</time>
      </trkpt>
      <trkpt lat="42.77408" lon="0.45569">
        <ele>2239.506107</ele>
        <time>2012-01-28T13:57:35Z</time>
      </trkpt>
      <trkpt lat="42.77405" lon="0.45567">
        <ele>2238.506092</ele>
        <time>2012-01-28T13:57:36Z</time>
      </trkpt>
      <trkpt lat="42.77399" lon="0.45563">
        <ele>2237.50605</ele>
        <time>2012-01-28T13:57:38Z</time>
      </trkpt>
      <trkpt lat="42.77394" lon="0.45562">
        <ele>2236.506023</ele>
        <time>2012-01-28T13:57:40Z</time>
      </trkpt>
      <trkpt lat="42.77389" lon="0.45562">
        <ele>2235.506001</ele>
        <time>2012-01-28T13:57:43Z</time>
      </trkpt>
      <trkpt lat="42.77388" lon="0.45565">
        <ele>2235.506008</ele>
        <time>2012-01-28T13:58:23Z</time>
      </trkpt>
      <trkpt lat="42.77383" lon="0.45562">
        <ele>2236.505974</ele>
        <time>2012-01-28T13:58:26Z</time>
      </trkpt>
      <trkpt lat="42.77378" lon="0.45561">
        <ele>2235.505943</ele>
        <time>2012-01-28T13:58:28Z</time>
      </trkpt>
      <trkpt lat="42.77375" lon="0.4556">
        <ele>2235.505932</ele>
        <time>2012-01-28T13:58:29Z</time>
      </trkpt>
      <trkpt lat="42.77371" lon="0.45563">
        <ele>2231.505917</ele>
        <time>2012-01-28T13:58:38Z</time>
      </trkpt>
      <trkpt lat="42.77366" lon="0.45564">
        <ele>2232.505894</ele>
        <time>2012-01-28T13:58:49Z</time>
      </trkpt>
      <trkpt lat="42.77359" lon="0.45564">
        <ele>2232.505867</ele>
        <time>2012-01-28T13:58:53Z</time>
      </trkpt>
      <trkpt lat="42.77357" lon="0.45564">
        <ele>2232.505856</ele>
        <time>2012-01-28T13:58:54Z</time>
      </trkpt>
      <trkpt lat="42.7735" lon="0.45563">
        <ele>2231.505817</ele>
        <time>2012-01-28T13:58:56Z</time>
      </trkpt>
      <trkpt lat="42.77342" lon="0.45562">
        <ele>2231.505783</ele>
        <time>2012-01-28T13:58:58Z</time>
      </trkpt>
      <trkpt lat="42.77334" lon="0.4556">
        <ele>2231.505733</ele>
        <time>2012-01-28T13:59:00Z</time>
      </trkpt>
      <trkpt lat="42.77329" lon="0.45559">
        <ele>2231.505703</ele>
        <time>2012-01-28T13:59:01Z</time>
      </trkpt>
      <trkpt lat="42.7732" lon="0.45557">
        <ele>2230.505657</ele>
        <time>2012-01-28T13:59:03Z</time>
      </trkpt>
      <trkpt lat="42.77314" lon="0.45555">
        <ele>2230.505623</ele>
        <time>2012-01-28T13:59:04Z</time>
      </trkpt>
      <trkpt lat="42.77308" lon="0.45554">
        <ele>2230.505592</ele>
        <time>2012-01-28T13:59:05Z</time>
      </trkpt>
      <trkpt lat="42.77302" lon="0.4555">
        <ele>2230.505554</ele>
        <time>2012-01-28T13:59:06Z</time>
      </trkpt>
      <trkpt lat="42.77296" lon="0.45547">
        <ele>2230.505516</ele>
        <time>2012-01-28T13:59:07Z</time>
      </trkpt>
      <trkpt lat="42.7729" lon="0.45543">
        <ele>2230.505482</ele>
        <time>2012-01-28T13:59:08Z</time>
      </trkpt>
      <trkpt lat="42.77284" lon="0.4554">
        <ele>2230.50544</ele>
        <time>2012-01-28T13:59:09Z</time>
      </trkpt>
      <trkpt lat="42.77279" lon="0.45537">
        <ele>2230.505405</ele>
        <time>2012-01-28T13:59:10Z</time>
      </trkpt>
      <trkpt lat="42.77273" lon="0.45533">
        <ele>2230.505375</ele>
        <time>2012-01-28T13:59:11Z</time>
      </trkpt>
      <trkpt lat="42.77268" lon="0.4553">
        <ele>2230.505341</ele>
        <time>2012-01-28T13:59:12Z</time>
      </trkpt>
      <trkpt lat="42.77262" lon="0.45527">
        <ele>2230.505302</ele>
        <time>2012-01-28T13:59:13Z</time>
      </trkpt>
      <trkpt lat="42.77257" lon="0.45524">
        <ele>2230.505272</ele>
        <time>2012-01-28T13:59:14Z</time>
      </trkpt>
      <trkpt lat="42.77252" lon="0.4552">
        <ele>2230.505238</ele>
        <time>2012-01-28T13:59:15Z</time>
      </trkpt>
      <trkpt lat="42.77247" lon="0.45517">
        <ele>2230.505207</ele>
        <time>2012-01-28T13:59:16Z</time>
      </trkpt>
      <trkpt lat="42.77242" lon="0.45514">
        <ele>2229.505169</ele>
        <time>2012-01-28T13:59:17Z</time>
      </trkpt>
      <trkpt lat="42.77238" lon="0.45511">
        <ele>2229.505142</ele>
        <time>2012-01-28T13:59:18Z</time>
      </trkpt>
      <trkpt lat="42.77233" lon="0.45508">
        <ele>2228.505112</ele>
        <time>2012-01-28T13:59:19Z</time>
      </trkpt>
      <trkpt lat="42.77226" lon="0.45503">
        <ele>2228.505066</ele>
        <time>2012-01-28T13:59:21Z</time>
      </trkpt>
      <trkpt lat="42.77222" lon="0.45501">
        <ele>2228.505039</ele>
        <time>2012-01-28T13:59:22Z</time>
      </trkpt>
      <trkpt lat="42.77218" lon="0.45497">
        <ele>2227.505013</ele>
        <time>2012-01-28T13:59:24Z</time>
      </trkpt>
      <trkpt lat="42.77209" lon="0.4549">
        <ele>2228.504959</ele>
        <time>2012-01-28T13:59:36Z</time>
      </trkpt>
      <trkpt lat="42.77199" lon="0.45485">
        <ele>2228.504894</ele>
        <time>2012-01-28T13:59:43Z</time>
      </trkpt>
      <trkpt lat="42.77193" lon="0.45482">
        <ele>2227.504856</ele>
        <time>2012-01-28T13:59:46Z</time>
      </trkpt>
      <trkpt lat="42.77189" lon="0.45478">
        <ele>2228.504829</ele>
        <time>2012-01-28T13:59:48Z</time>
      </trkpt>
      <trkpt lat="42.77187" lon="0.45476">
        <ele>2228.504814</ele>
        <time>2012-01-28T13:59:49Z</time>
      </trkpt>
      <trkpt lat="42.77182" lon="0.45471">
        <ele>2228.504776</ele>
        <time>2012-01-28T13:59:52Z</time>
      </trkpt>
      <trkpt lat="42.77173" lon="0.45462">
        <ele>2228.504707</ele>
        <time>2012-01-28T13:59:59Z</time>
      </trkpt>
      <trkpt lat="42.77161" lon="0.45465">
        <ele>2225.504665</ele>
        <time>2012-01-28T14:00:23Z</time>
      </trkpt>
      <trkpt lat="42.7715" lon="0.45473">
        <ele>2225.504627</ele>
        <time>2012-01-28T14:00:26Z</time>
      </trkpt>
      <trkpt lat="42.77143" lon="0.4548">
        <ele>2225.504608</ele>
        <time>2012-01-28T14:00:28Z</time>
      </trkpt>
      <trkpt lat="42.7714" lon="0.45484">
        <ele>2225.504608</ele>
        <time>2012-01-28T14:00:30Z</time>
      </trkpt>
    </trkseg>
  </trk>
</gpx>